GFSNW_sfc_wetblb_000.txt.gz
Wetbulb
55.44 54.84 54.86 55.36 56.12 55.25 54.68 53.17 47.42 57.00 58.55 50.15 49.69 44.37 47.99 47.68 48.40 50.88 48.68 48.70 47.66 45.62 46.32 44.64 43.68 43.72 45.89 49.65 49.73 45.41 45.88 43.79 38.03 39.52 42.18 44.21 41.04 40.11 40.50 34.33 32.99 34.47 31.37 32.74
55.53 54.92 55.24 55.12 55.74 55.21 49.96 50.12 49.70 57.67 57.32 43.88 44.10 47.04 46.04 47.76 47.72 47.31 48.12 46.88 48.80 48.94 45.45 42.87 45.61 44.96 48.98 49.77 47.78 45.04 46.75 42.60 36.65 36.12 39.47 42.02 40.43 41.98 41.35 40.68 39.23 35.09 30.64 33.25
55.47 55.27 54.96 54.82 55.38 55.13 51.89 50.11 46.45 52.03 51.98 49.78 46.85 45.27 45.24 44.03 48.44 47.83 48.94 47.49 49.21 47.01 45.41 47.07 44.48 43.81 47.30 49.09 48.04 47.94 47.47 42.22 38.70 34.16 36.72 40.65 38.57 40.93 41.82 39.70 34.21 34.71 36.45 38.14
56.17 55.20 54.49 54.46 54.79 54.50 52.20 49.38 44.71 47.36 44.22 44.47 45.46 46.25 45.63 43.69 43.90 48.13 48.77 46.72 46.55 45.69 42.58 43.53 42.62 44.46 45.01 46.92 47.20 46.60 45.90 39.22 39.94 40.62 41.25 40.22 40.00 39.99 40.46 38.92 40.06 35.14 38.92 39.45
56.26 55.15 54.27 53.95 54.13 53.35 52.22 47.28 45.69 46.65 45.19 45.89 44.18 43.34 43.19 42.86 43.52 44.21 44.72 44.93 46.63 46.67 42.85 44.16 42.65 44.75 43.95 43.04 43.81 43.06 43.69 37.37 37.60 35.39 39.63 38.11 36.84 38.94 39.12 39.86 40.53 40.23 40.69 40.01
56.25 55.60 54.39 53.85 53.65 52.38 51.03 50.79 50.12 47.70 42.67 43.96 42.31 42.05 42.35 43.29 44.64 44.82 46.34 46.66 45.81 43.78 42.49 43.79 44.33 45.75 46.58 45.33 42.75 41.63 40.45 37.37 34.71 30.69 36.92 36.47 33.33 37.98 38.87 39.43 40.69 39.76 36.39 41.44
55.86 55.54 55.07 54.31 53.52 52.26 52.43 50.79 50.12 46.84 41.14 42.97 43.19 44.50 44.88 43.61 42.86 42.12 44.21 45.12 43.72 43.77 45.63 44.58 42.57 41.37 41.72 41.91 41.32 43.43 39.30 37.78 36.24 31.38 33.59 25.49 38.64 43.12 43.08 40.94 42.31 42.55 42.85 43.57
55.51 55.48 55.49 54.57 53.86 53.15 52.80 52.52 49.43 46.18 41.21 43.79 43.06 43.71 43.40 43.27 42.79 41.12 42.85 42.11 42.22 44.76 42.15 38.92 37.65 35.94 36.94 38.73 40.96 40.31 39.61 37.28 33.05 30.32 31.13 36.10 39.68 42.37 40.76 38.18 38.92 43.53 42.21 43.50
54.69 54.80 55.10 55.13 54.27 53.08 52.95 51.47 52.55 48.60 45.18 42.38 45.24 42.17 42.73 40.43 38.70 37.52 38.79 42.25 43.24 43.33 41.54 39.51 33.70 35.75 36.02 33.65 36.44 40.49 40.90 38.61 34.33 28.81 26.89 28.10 37.96 42.10 44.47 42.40 33.05 43.54 44.04 43.65
54.13 54.24 54.45 54.81 54.44 53.31 53.30 51.99 53.13 50.62 47.26 45.72 45.62 43.79 42.28 43.00 40.91 38.64 38.18 38.97 39.37 41.87 36.88 34.79 33.07 33.86 34.54 33.25 33.42 34.19 34.57 34.08 31.47 31.98 29.92 34.98 42.65 42.80 43.97 32.25 35.16 43.50 44.36 44.30
52.99 53.47 53.91 54.26 54.44 53.43 53.47 52.68 52.97 50.25 48.45 47.17 46.43 46.63 42.99 41.64 41.77 40.88 39.47 38.94 39.24 37.48 35.33 36.98 34.94 33.34 35.43 32.75 35.81 35.10 35.06 32.69 32.29 33.51 29.83 26.92 43.94 42.57 37.24 41.64 43.91 44.29 44.66 43.16
52.33 52.91 53.32 53.93 54.27 53.91 53.50 51.02 51.99 52.03 49.25 48.01 50.04 50.21 50.51 46.80 46.32 43.67 40.86 42.14 41.67 42.68 39.49 37.42 35.48 32.45 34.12 35.00 32.80 37.71 32.44 38.03 35.52 37.08 35.96 43.61 43.69 42.69 45.03 44.74 44.18 43.70 43.57 43.93
51.17 52.10 52.79 53.38 53.84 54.31 53.43 50.37 50.26 49.63 46.47 47.01 46.72 47.79 51.00 51.41 49.42 49.99 43.32 43.04 45.41 43.17 46.79 41.21 39.25 34.98 36.23 34.12 34.76 36.17 38.87 42.47 38.05 38.36 39.66 41.24 44.11 46.25 42.64 42.80 41.71 42.98 42.62 42.93
50.58 51.59 52.51 52.92 53.57 54.14 53.14 50.56 50.76 50.13 46.85 42.86 46.21 50.79 48.18 50.80 51.34 51.23 49.95 46.12 46.77 45.73 45.32 42.29 39.84 38.03 42.31 38.83 38.81 37.66 39.41 40.65 38.66 38.56 41.92 43.24 44.09 43.67 42.02 40.65 40.08 39.93 40.26 40.79
50.59 51.18 51.79 52.27 52.57 53.29 53.28 52.29 51.78 52.31 48.36 42.54 44.41 48.46 49.34 49.50 49.75 49.81 49.99 47.93 45.77 43.04 40.73 39.98 38.25 41.18 39.94 40.27 39.21 37.69 40.64 38.96 36.41 36.27 41.08 41.14 41.54 42.99 40.29 39.82 39.86 39.57 37.97 35.67
49.56 50.94 51.60 51.84 52.19 52.75 50.85 45.95 51.17 52.15 51.26 44.93 39.06 47.93 44.87 45.91 46.97 47.24 47.94 47.31 45.29 44.44 41.83 40.25 41.46 43.04 40.52 36.39 35.75 39.21 41.54 42.68 42.91 40.63 42.22 42.15 42.56 42.54 40.96 38.14 38.48 37.98 38.37 38.15
48.88 49.94 50.92 51.74 52.06 50.76 46.57 44.98 46.79 49.62 51.83 44.31 37.73 41.17 43.28 43.76 46.28 45.52 44.66 45.80 44.06 43.39 41.28 39.79 40.34 40.18 41.59 38.44 34.95 39.03 40.89 41.91 41.95 42.78 41.83 40.04 40.51 35.90 36.11 36.78 37.25 37.35 36.12 35.57
49.43 50.25 51.05 51.61 50.10 48.37 45.72 45.94 47.87 50.04 46.70 44.71 35.93 37.36 38.85 42.23 40.51 40.33 44.23 42.23 42.62 41.75 41.00 41.25 39.48 40.71 40.18 34.85 38.71 39.02 40.45 41.12 40.34 40.31 39.16 37.24 36.15 34.93 34.33 34.96 34.49 31.79 31.69 30.86
50.66 51.23 50.49 48.15 45.84 44.19 44.04 46.26 47.79 47.73 45.41 39.14 36.88 34.17 33.98 40.73 40.35 41.29 40.96 41.86 37.08 42.20 38.45 38.77 39.57 37.39 33.49 36.96 37.97 38.05 38.92 37.54 38.04 34.57 33.62 32.78 32.45 34.43 33.64 31.64 32.24 31.54 30.41 28.65
49.83 48.06 44.55 39.28 41.96 44.92 45.01 44.73 42.22 39.27 40.05 39.71 36.33 40.07 36.40 39.61 39.60 36.99 36.66 37.99 34.76 32.00 35.74 38.77 34.66 34.35 38.38 39.30 39.67 39.17 38.58 35.07 34.53 32.05 30.02 33.19 32.86 33.13 32.14 31.42 31.31 29.78 26.75 26.99
45.83 41.76 37.64 41.73 44.19 42.64 40.74 35.42 35.88 37.17 34.04 37.21 36.50 37.00 35.85 39.53 36.02 35.91 36.89 33.52 33.58 28.81 32.48 32.07 30.59 29.35 33.90 37.17 36.90 34.82 33.77 34.08 34.23 34.08 33.32 33.61 33.37 32.04 32.46 32.13 28.80 27.40 26.45 24.55
44.62 41.44 42.48 41.53 38.57 36.18 33.03 32.32 32.62 32.45 32.50 35.45 34.59 34.78 37.29 36.80 38.98 35.25 35.25 32.55 32.25 26.82 31.72 29.03 26.20 30.15 33.32 33.63 32.63 32.60 32.95 33.69 34.11 33.23 32.54 31.47 33.03 34.61 32.86 28.87 26.71 25.54 24.87 25.12
43.94 39.45 35.11 35.36 34.08 28.85 25.43 24.82 29.57 30.76 32.51 32.15 33.47 32.65 35.39 35.87 37.15 34.56 33.31 30.57 28.94 30.78 26.86 25.77 27.11 31.11 31.32 30.95 32.13 31.28 31.22 32.49 30.69 28.08 27.31 29.03 30.46 29.89 26.68 24.75 25.38 25.01 24.09 24.46
37.30 34.14 28.53 28.44 26.00 27.89 29.72 31.01 32.09 31.87 32.24 32.59 34.43 33.07 32.91 33.55 32.74 33.15 28.85 31.77 28.66 25.25 23.14 22.49 27.70 29.65 31.26 30.27 30.66 30.85 28.71 29.84 27.98 26.55 25.35 24.77 24.80 24.14 25.01 24.72 24.72 23.85 22.85 23.00
34.67 33.82 26.04 28.76 30.68 31.47 29.48 30.11 30.36 30.59 33.24 33.31 32.64 31.92 31.86 30.49 30.36 30.66 30.14 27.34 23.73 25.19 23.19 27.29 27.29 26.40 26.33 28.09 28.80 29.76 29.92 29.18 26.70 25.85 24.59 24.11 24.08 23.49 23.39 24.05 24.22 23.60 22.70 22.20
34.45 33.36 31.59 29.53 28.41 30.63 26.92 28.93 30.65 31.74 33.96 32.32 32.05 29.61 27.93 27.93 28.44 27.66 25.75 25.22 21.85 25.12 26.34 28.32 26.69 28.72 28.00 27.50 28.30 29.36 30.55 30.11 28.39 25.43 25.06 24.63 23.53 22.88 23.10 23.98 23.24 22.77 22.15 21.20
32.45 31.49 32.62 29.97 28.47 31.77 30.50 30.73 31.68 34.38 31.99 26.95 30.55 26.81 22.99 25.64 26.18 25.39 25.89 24.12 27.85 29.57 27.15 27.45 26.84 25.09 25.38 26.93 28.13 28.80 29.08 29.00 28.63 25.84 24.76 24.46 24.80 23.41 21.49 20.27 21.83 22.00 21.86 21.10

GFSNW_sfc_wetblb_003.txt.gz
Wetbulb
56.30 55.73 55.34 55.63 55.73 55.64 50.88 47.41 41.22 52.57 56.46 45.48 43.96 41.47 45.84 47.23 47.49 49.76 48.51 48.65 46.52 44.00 44.60 42.46 42.12 42.18 44.68 48.64 48.13 43.50 45.02 40.45 35.85 37.87 40.43 42.50 39.65 38.94 37.67 32.51 31.83 31.74 29.45 32.13
56.27 55.79 55.59 55.31 55.19 55.12 46.23 43.91 45.61 54.27 51.66 39.74 39.67 43.68 45.29 46.33 46.46 46.58 47.16 46.50 48.16 47.20 44.09 41.94 43.67 43.06 47.44 48.73 46.89 43.92 44.96 40.20 34.20 35.35 38.48 40.22 38.80 40.21 39.60 38.42 36.38 33.00 29.93 32.42
56.26 56.14 55.48 54.78 54.84 55.06 47.72 44.19 41.12 45.58 45.21 44.23 42.23 41.94 42.95 43.02 47.36 46.67 47.61 46.50 47.59 45.82 43.73 45.63 42.73 42.43 46.62 47.72 46.84 47.67 46.80 40.62 36.99 33.07 34.58 38.58 37.27 39.52 40.24 38.15 32.29 32.47 34.27 35.73
56.47 56.12 55.30 54.54 54.30 54.25 48.78 42.75 39.58 42.92 38.13 40.31 41.02 41.52 42.84 42.07 43.02 46.75 47.28 45.12 45.61 44.53 41.49 41.36 40.96 42.98 44.29 45.86 46.71 44.50 43.25 36.41 37.41 38.41 39.66 38.93 38.90 38.83 38.93 37.90 37.51 34.39 36.37 37.49
56.46 55.75 55.16 54.57 53.86 53.32 46.13 41.80 40.15 41.91 39.78 41.86 40.26 40.13 39.28 40.61 41.73 43.30 44.39 43.72 44.15 43.28 39.75 42.39 41.49 42.98 42.69 42.42 43.35 42.32 41.98 36.19 36.31 34.11 37.54 37.12 35.69 37.30 37.01 37.97 38.59 37.43 38.08 38.61
56.15 55.49 55.05 54.48 53.59 51.66 44.24 45.03 44.92 41.55 40.31 39.17 38.07 38.35 39.43 41.25 42.60 44.11 44.70 44.54 43.12 40.71 40.53 41.76 41.79 43.36 43.96 44.18 41.94 39.74 38.81 35.46 32.78 29.08 35.21 35.62 33.57 36.54 36.97 36.12 37.35 37.50 33.94 39.03
55.60 55.35 55.18 54.76 53.79 51.31 46.80 45.71 44.78 40.05 36.92 38.52 39.52 41.52 41.76 40.32 41.00 40.65 41.73 42.62 41.28 42.14 44.30 42.55 41.84 40.79 40.51 40.68 39.32 40.90 37.62 35.66 34.11 29.04 31.70 25.67 36.88 40.29 41.25 38.80 40.38 40.08 40.04 40.98
55.10 55.12 55.27 55.18 54.34 53.36 47.38 47.36 44.29 40.60 36.19 38.97 40.27 41.13 39.51 39.16 38.30 38.35 39.29 39.43 40.38 41.66 40.03 36.71 34.69 34.65 36.33 37.31 39.09 38.85 37.60 35.24 30.98 28.75 28.53 33.49 37.66 39.05 38.93 37.36 37.71 39.99 39.13 41.44
54.28 54.29 54.79 55.00 54.38 53.28 48.46 47.12 48.22 43.95 38.91 37.97 41.56 38.99 38.51 35.61 33.54 34.50 36.33 39.06 40.84 40.73 38.71 37.11 31.94 31.52 33.92 31.75 34.77 39.54 38.62 36.17 32.48 24.16 24.03 25.95 35.73 39.60 42.11 40.52 32.41 41.80 41.84 41.29
53.61 53.75 53.98 54.53 54.42 53.13 50.66 48.68 49.61 46.80 41.32 41.88 42.56 39.07 38.57 39.62 36.92 34.07 34.76 36.21 39.02 41.50 37.82 34.77 29.59 32.38 33.28 31.12 31.03 31.87 32.02 31.94 29.23 29.34 27.72 31.78 39.34 41.56 41.84 30.97 32.86 42.86 43.63 43.01
52.74 53.22 53.48 53.94 54.24 52.88 51.23 50.03 50.05 47.74 44.40 43.85 44.80 44.18 39.56 39.33 39.83 36.90 37.85 39.58 39.21 37.21 34.81 34.11 32.68 32.15 33.40 31.18 33.67 33.95 32.91 29.27 30.09 30.51 27.26 25.27 41.17 40.62 36.01 38.76 40.78 41.48 41.81 44.05
51.95 52.68 53.24 53.58 54.13 53.36 53.15 49.08 49.98 49.95 46.98 45.62 47.96 48.06 48.10 44.52 44.31 40.70 38.90 40.77 38.18 38.69 35.98 34.98 33.57 32.04 31.37 31.18 30.10 35.56 32.03 35.70 34.31 34.63 33.06 40.49 41.16 40.70 40.99 41.84 40.54 39.08 39.06 40.85
51.02 51.77 52.50 53.20 53.76 53.72 53.23 50.06 49.62 48.17 44.62 44.47 46.07 45.72 48.93 50.43 49.24 49.23 40.90 42.17 43.86 42.57 44.41 40.92 38.82 35.67 33.85 31.21 31.78 32.67 36.23 39.77 35.78 36.80 38.14 38.43 40.76 39.52 40.65 40.80 39.90 40.44 40.33 40.40
50.63 51.54 52.24 52.97 53.48 53.92 52.91 50.01 50.43 49.97 46.95 42.53 45.30 48.88 46.63 50.17 50.71 49.40 48.91 45.58 46.22 45.70 45.00 40.19 38.64 38.17 39.98 36.55 36.44 34.85 37.20 37.53 36.49 36.13 39.44 39.52 40.11 39.56 39.75 39.50 39.58 39.11 38.35 38.29
51.12 51.41 51.99 52.50 52.72 53.66 52.86 51.67 51.18 52.24 47.63 42.09 43.85 47.18 47.32 48.22 49.55 49.20 48.66 46.61 45.09 42.70 40.15 37.11 35.28 40.69 40.06 40.06 36.19 32.45 38.13 37.17 34.49 33.50 38.94 37.88 38.48 40.93 39.95 39.31 39.17 39.09 37.18 35.29
49.95 50.99 51.58 51.95 52.28 53.33 50.99 46.33 50.29 52.14 51.28 44.56 38.17 46.06 43.96 45.74 46.66 47.66 46.98 46.52 44.74 43.66 38.45 36.49 40.77 42.85 40.43 33.86 34.15 37.84 39.00 40.48 41.00 38.47 39.12 39.70 40.37 38.87 38.53 37.72 37.67 37.07 36.32 35.13
49.46 50.57 51.16 51.62 52.16 49.60 46.56 44.99 47.14 50.60 51.58 43.91 36.71 39.24 42.68 43.71 45.90 44.93 44.64 45.32 43.98 42.81 41.15 39.53 40.03 39.91 40.87 37.78 32.72 37.13 38.95 38.52 39.45 38.70 38.72 36.95 36.86 36.25 35.05 36.01 36.12 37.26 36.54 36.99
49.37 50.16 51.11 51.26 49.80 48.53 45.59 46.17 48.47 50.62 46.80 44.68 34.47 35.85 38.89 42.87 40.89 40.54 44.15 42.31 42.62 41.85 40.67 40.68 39.36 40.27 39.85 35.07 36.81 37.50 38.34 38.63 38.76 37.04 37.18 37.16 35.20 33.71 34.11 35.59 35.48 33.98 33.84 33.12
49.83 51.02 50.59 47.57 45.20 43.15 43.57 46.82 48.07 47.83 45.30 37.78 36.59 33.73 33.35 41.40 40.42 41.04 40.82 41.77 36.62 41.71 38.61 38.66 39.55 37.34 33.87 36.20 36.99 38.02 37.79 36.86 36.28 32.93 30.93 29.21 31.97 33.74 35.73 33.80 32.96 32.13 31.05 30.95
50.49 47.52 43.90 38.13 41.59 45.34 45.60 43.08 41.37 39.11 40.08 39.31 36.97 39.05 34.41 39.37 39.13 36.99 36.78 37.14 34.40 31.49 35.63 38.39 34.75 34.01 37.54 37.76 38.74 38.34 37.00 36.15 33.16 30.42 29.10 31.53 32.98 32.20 35.07 33.19 34.12 34.11 32.56 29.44
45.27 39.84 36.98 41.52 44.41 41.63 38.38 35.07 34.95 36.61 33.49 37.30 37.03 36.68 34.18 37.92 35.33 33.90 35.26 32.80 33.09 28.66 30.82 31.64 30.37 28.86 32.29 36.07 35.37 31.99 30.26 32.05 32.31 31.98 31.08 32.05 33.38 32.84 34.50 33.73 33.55 30.55 27.54 24.56
43.73 40.49 41.81 40.89 36.65 33.62 30.65 31.46 32.30 32.68 31.25 35.01 34.51 34.96 37.35 36.07 37.21 32.96 34.99 31.50 31.33 24.92 32.59 29.12 25.14 28.88 32.67 32.80 31.36 31.02 32.45 32.37 32.81 32.31 31.59 30.30 32.36 32.94 32.45 30.51 26.01 26.01 24.61 24.00
42.76 37.23 34.26 33.65 33.32 28.23 26.59 23.96 27.81 28.97 31.42 32.72 33.47 32.72 35.32 35.77 36.82 34.01 32.86 28.47 27.31 29.10 26.89 24.88 25.65 30.42 30.79 29.09 31.06 30.53 31.08 31.39 30.31 28.72 27.65 28.05 30.17 30.77 28.10 25.52 24.65 23.77 22.63 22.94
36.20 32.83 29.35 26.75 24.32 25.11 22.62 24.03 26.45 30.15 29.96 31.28 33.43 31.69 32.56 31.64 32.66 31.42 25.86 31.19 28.11 23.17 22.43 21.93 27.26 27.62 31.02 30.89 30.04 30.02 29.03 30.11 29.55 27.39 25.83 23.83 23.87 23.47 23.53 23.84 23.08 22.32 21.61 22.52
33.85 32.68 24.79 23.73 25.93 25.81 22.25 21.70 25.09 26.39 29.95 32.01 28.97 30.33 30.56 30.20 28.77 30.43 27.54 25.14 22.91 23.18 22.40 26.12 25.05 23.64 24.13 28.17 28.25 28.80 28.56 29.02 28.97 26.51 24.55 23.28 23.14 22.38 22.01 22.64 22.53 22.09 22.10 21.69
33.32 31.99 28.26 29.82 27.00 28.52 25.96 24.95 24.58 27.73 31.56 26.56 27.08 28.99 27.10 24.71 28.42 26.65 25.06 23.73 20.21 24.06 25.77 25.40 22.15 28.53 28.44 27.01 27.09 27.68 28.14 27.90 28.33 27.00 24.78 23.74 22.37 21.67 21.45 22.15 21.71 21.72 21.66 20.91
31.56 30.27 28.82 25.48 28.07 28.82 27.82 29.53 28.79 31.90 27.24 21.93 27.38 21.11 19.41 23.31 25.43 22.32 23.16 23.01 26.27 24.96 25.07 24.45 25.55 26.91 28.33 27.22 26.47 26.74 27.35 27.58 27.54 26.93 24.96 23.28 23.51 22.07 20.99 20.30 21.28 21.18 21.59 20.63

GFSNW_sfc_wetblb_006.txt.gz
Wetbulb
56.63 56.62 56.59 56.08 55.64 55.29 49.06 45.52 40.84 52.71 54.54 43.81 43.83 43.23 46.36 47.53 47.74 49.61 47.80 46.40 43.80 43.06 44.42 42.60 41.12 41.14 43.33 47.06 46.96 42.92 42.98 37.82 32.93 35.57 39.23 40.54 38.44 38.04 36.07 31.54 30.26 29.86 28.48 31.80
56.23 56.38 56.47 56.00 55.11 54.06 45.33 42.19 45.42 52.85 52.21 41.37 40.09 44.21 45.04 46.80 46.68 46.78 47.45 46.39 47.86 47.34 44.22 41.13 42.91 43.30 47.09 47.70 45.92 43.71 44.22 38.30 32.47 33.72 37.33 39.12 37.75 38.69 37.62 36.63 34.85 31.82 29.40 32.35
56.07 56.11 56.02 55.60 55.19 54.63 46.62 42.84 40.96 44.53 43.73 42.60 42.03 42.16 41.88 43.05 47.80 46.76 47.24 46.66 47.67 45.12 42.85 44.21 41.65 42.24 45.48 46.58 45.95 47.53 45.85 38.27 36.29 34.47 35.46 38.16 36.49 39.14 38.70 36.52 31.27 31.67 32.19 33.73
56.09 55.58 55.55 55.32 54.82 54.05 47.74 41.23 39.19 41.69 39.74 39.58 39.97 41.46 43.41 41.68 42.42 46.41 47.01 45.25 44.93 44.00 40.57 40.64 40.39 42.39 43.13 45.05 46.29 43.31 41.89 36.19 36.41 36.70 37.96 37.70 38.00 38.19 38.68 36.60 35.09 33.51 33.76 35.61
56.02 54.78 55.12 55.03 54.34 53.22 44.05 40.75 39.20 40.35 39.07 40.20 38.90 38.86 38.00 40.83 41.48 43.27 43.18 41.84 42.21 42.41 39.83 40.81 40.73 42.47 41.83 41.99 42.87 41.72 41.44 36.14 36.36 33.70 36.95 36.53 34.92 36.42 36.51 36.93 37.82 37.48 36.91 37.65
55.69 55.06 54.82 54.88 54.09 50.80 42.65 43.32 43.45 39.75 39.22 37.49 36.81 37.25 38.96 40.53 42.99 43.10 42.76 43.91 41.53 38.63 39.45 41.62 42.25 43.83 43.71 43.72 42.09 40.05 38.83 36.00 33.42 29.59 34.86 35.43 32.50 34.99 34.81 33.93 35.00 35.99 32.62 37.02
54.99 55.11 55.02 54.96 54.26 50.66 45.23 44.55 43.60 38.07 35.79 37.40 38.56 40.10 40.14 39.79 40.49 40.45 39.84 42.17 40.27 40.97 41.70 41.80 41.39 40.55 40.54 40.66 39.24 40.40 36.55 34.12 32.74 29.35 31.13 25.85 34.09 38.36 39.68 37.20 37.88 37.92 38.49 39.81
54.70 54.65 54.93 55.07 54.58 53.32 45.58 45.62 42.65 38.93 34.92 37.81 38.79 38.69 38.11 38.21 37.79 37.70 38.05 38.18 38.62 39.66 39.00 36.19 34.92 34.74 35.66 36.85 38.74 38.29 37.18 34.00 30.48 28.76 28.00 32.88 35.83 38.06 37.93 36.83 35.89 39.49 39.51 39.78
54.02 54.02 54.35 54.77 54.58 53.25 46.84 45.62 46.23 41.84 37.76 36.38 40.22 37.92 36.40 35.06 34.19 34.31 35.96 38.29 39.94 39.45 38.45 37.25 31.16 30.38 32.65 31.16 34.27 37.74 36.29 35.27 32.62 25.14 24.91 26.41 33.87 38.81 40.70 38.73 30.66 39.95 40.55 40.07
53.16 53.51 53.59 54.24 54.35 53.05 49.85 47.23 47.77 45.48 39.16 40.11 39.92 36.67 37.75 37.27 35.17 33.78 33.97 35.26 36.73 39.09 36.20 34.49 31.15 32.84 33.90 31.33 31.32 30.72 30.18 30.20 28.73 29.17 26.79 30.54 37.19 40.03 40.50 30.59 30.53 39.51 40.41 40.01
52.48 52.74 53.35 53.63 54.12 52.87 50.85 48.19 48.27 46.96 41.95 41.65 43.84 43.30 38.59 38.61 37.74 37.32 37.04 38.47 38.24 36.57 34.76 34.31 32.10 32.00 32.32 30.75 32.46 32.18 30.97 27.90 28.03 28.66 25.94 24.22 39.02 39.14 35.31 37.38 39.15 39.03 39.32 39.02
51.92 52.51 52.99 53.44 54.00 53.49 52.54 47.88 49.05 48.69 45.69 44.39 46.59 46.68 46.46 43.35 43.92 38.92 37.19 39.59 37.08 38.54 35.49 34.05 32.77 31.38 30.00 30.31 29.58 33.12 31.60 34.84 32.74 32.47 31.40 38.55 38.82 39.44 40.02 40.99 39.68 38.37 38.67 39.00
51.02 51.59 52.49 53.23 54.01 53.57 52.49 48.50 47.49 47.18 44.12 43.77 44.46 44.13 47.71 48.91 47.30 46.59 39.86 39.73 41.87 40.98 41.60 36.79 35.36 33.42 32.93 29.84 30.58 30.74 34.20 37.10 35.21 35.75 36.60 37.43 38.72 38.65 39.17 39.96 39.98 40.43 39.69 39.09
50.68 51.36 52.11 52.94 53.57 53.45 53.04 49.74 50.01 49.31 45.65 40.69 43.51 48.17 45.59 48.60 49.33 48.39 46.68 45.26 46.14 45.79 44.87 40.87 39.21 38.28 37.28 33.90 34.84 33.49 35.73 36.24 35.32 34.85 37.63 37.76 37.79 38.81 39.13 39.14 39.25 38.38 38.07 38.29
50.64 51.79 52.16 52.54 53.16 53.23 52.42 51.19 51.06 51.47 46.80 41.88 43.10 45.85 46.22 47.33 49.67 48.19 47.77 46.67 44.68 42.48 40.63 39.30 38.19 40.77 38.04 35.19 34.25 34.77 36.49 35.93 34.08 32.94 37.47 37.30 37.05 38.35 39.33 38.21 37.98 38.70 37.68 36.31
50.86 50.95 51.64 51.96 52.65 52.76 50.46 45.43 50.03 51.41 50.48 43.35 34.99 44.24 43.18 46.40 47.98 47.32 46.41 45.93 44.70 43.34 40.77 38.82 40.61 41.91 36.95 32.67 33.26 36.04 37.13 38.92 39.46 37.65 38.34 38.31 37.93 37.55 37.05 36.82 37.10 37.13 35.11 34.05
49.85 50.82 51.31 51.79 50.99 48.85 45.72 42.59 46.76 49.74 50.77 42.17 35.98 38.82 42.42 44.00 45.57 44.65 44.71 44.97 43.63 43.05 40.98 39.28 39.56 39.60 37.53 34.22 32.59 36.17 37.46 38.91 37.57 37.49 38.51 35.90 36.31 35.93 35.98 35.69 35.70 37.03 36.97 37.45
50.31 50.89 51.49 50.25 49.69 48.47 45.25 46.17 48.56 50.34 46.24 43.65 33.95 35.76 38.31 42.98 41.02 40.31 44.12 42.03 42.54 41.82 40.15 40.29 39.02 39.65 38.62 33.67 35.55 35.16 37.25 36.90 36.89 36.71 36.96 36.32 34.85 33.52 32.69 36.06 35.32 33.92 33.31 33.76
50.35 50.85 50.16 47.51 44.86 42.86 42.95 46.96 47.98 47.77 44.93 37.62 36.61 33.57 32.95 41.51 40.47 41.12 40.75 41.49 37.37 41.59 38.65 38.32 38.62 36.39 33.72 34.89 35.19 35.91 36.80 35.81 35.82 33.54 30.85 28.19 31.81 33.00 32.81 34.25 34.16 33.19 33.01 32.02
50.23 47.14 43.15 38.31 41.71 45.39 45.80 43.21 41.00 38.87 40.13 40.20 36.16 39.24 35.45 39.27 39.01 36.85 36.53 36.94 34.81 32.59 36.10 38.85 35.70 34.24 36.56 36.94 38.33 38.10 37.14 36.35 33.58 30.17 27.03 23.04 24.12 31.86 31.53 32.14 33.36 32.47 33.70 32.64
45.11 39.79 37.09 41.49 44.51 41.49 38.46 34.82 33.28 36.17 33.75 37.70 37.74 37.78 35.88 39.34 35.07 35.33 36.20 32.38 32.73 28.06 27.38 32.25 29.90 26.63 31.34 34.61 34.70 32.03 30.38 32.06 32.64 31.27 29.44 30.46 32.17 32.28 32.26 32.38 31.90 33.26 30.89 27.12
43.32 40.40 42.01 41.15 37.04 34.04 29.89 31.32 32.17 32.72 28.70 34.69 34.90 35.44 36.79 36.62 37.59 34.08 34.84 30.85 31.24 25.39 33.39 29.66 25.59 29.09 31.97 32.97 30.72 30.61 31.24 32.28 32.87 33.01 31.62 31.19 31.88 31.76 31.58 31.68 30.90 28.70 25.86 23.79
41.82 37.49 34.22 33.69 33.27 27.21 25.54 21.77 26.64 27.71 29.93 33.19 33.64 32.81 35.27 35.67 35.04 33.39 32.62 28.82 27.69 31.65 27.76 23.00 24.81 28.66 29.94 28.29 30.19 29.99 29.08 29.83 29.67 28.51 28.12 28.90 30.56 30.91 29.68 27.83 25.20 23.90 22.19 22.02
36.30 32.95 28.76 27.51 24.91 26.02 24.27 22.64 23.39 26.77 30.80 33.86 34.10 32.23 32.65 33.49 32.09 32.05 28.46 30.50 29.51 24.77 22.11 20.92 26.54 27.63 29.49 30.12 29.81 28.43 27.47 29.02 29.23 28.34 27.25 25.64 25.79 26.13 25.50 25.19 23.21 21.63 20.71 21.86
33.43 32.06 25.94 26.10 21.98 25.82 24.33 27.95 27.73 29.28 32.55 33.45 31.31 30.14 30.19 29.82 28.77 29.93 28.98 25.64 23.06 22.98 22.52 26.72 25.30 22.39 23.20 28.54 27.64 27.77 27.51 27.39 27.72 27.52 26.70 25.19 23.41 22.30 21.78 22.14 21.46 21.08 21.50 21.52
33.11 30.08 22.88 26.50 28.01 26.85 19.61 15.12 28.93 30.57 31.17 29.44 26.37 28.47 25.01 26.14 24.80 25.68 22.70 21.70 20.56 24.48 27.14 25.11 21.05 27.63 27.02 27.71 28.12 28.01 27.56 27.12 27.50 27.67 27.89 26.08 23.48 22.10 21.26 21.19 20.73 20.96 21.31 20.96
31.42 24.88 28.32 22.64 23.19 26.68 23.92 26.48 27.65 32.85 25.57 21.75 28.02 16.69 17.26 26.64 22.27 19.12 22.49 23.91 27.12 27.71 23.26 21.67 24.48 26.74 28.71 29.77 28.86 27.34 26.48 26.56 26.74 26.62 27.21 26.27 24.16 21.33 19.82 19.48 20.76 20.62 21.18 20.52

GFSNW_sfc_wetblb_009.txt.gz
Wetbulb
56.73 56.43 56.58 56.57 55.98 54.89 48.08 43.75 39.49 52.15 54.10 45.74 45.78 42.49 46.50 45.82 45.55 49.26 47.60 44.48 42.73 39.86 40.12 40.53 41.58 40.31 41.60 46.97 46.08 41.96 41.19 35.77 32.51 33.31 38.46 38.80 36.16 36.08 34.69 30.58 29.01 27.92 26.90 30.68
56.24 56.03 56.30 56.19 55.73 53.40 44.47 40.96 45.21 52.44 51.21 41.38 42.06 45.60 46.11 47.60 47.06 47.05 46.47 42.96 44.91 45.48 41.99 40.53 41.05 42.56 45.47 46.51 45.12 43.58 43.30 36.70 31.97 32.58 36.76 37.61 36.24 36.63 35.62 34.83 33.45 29.32 27.77 31.36
55.95 55.51 55.65 55.75 55.50 54.01 45.98 41.66 38.34 45.00 47.80 43.76 43.81 42.05 43.30 43.96 48.31 46.74 47.18 46.67 46.78 43.57 41.35 42.45 40.19 41.28 44.67 45.53 45.20 47.21 45.20 37.58 34.51 32.55 34.08 37.09 35.02 37.35 36.39 35.77 30.63 30.44 30.83 32.98
55.75 55.32 55.02 55.33 55.23 53.99 46.97 40.00 37.96 40.26 36.87 39.01 42.57 42.83 43.67 42.91 43.28 47.08 47.21 45.45 45.75 44.03 39.79 39.32 39.75 42.02 42.57 44.61 45.83 43.17 41.19 36.03 35.99 35.09 36.52 37.21 37.08 37.62 36.77 34.74 33.96 32.65 32.57 34.16
55.05 55.25 54.67 54.90 54.73 52.57 43.84 39.45 38.35 39.19 37.87 39.37 39.78 39.70 40.05 40.39 41.29 44.88 44.19 43.64 43.35 44.33 41.29 40.81 40.14 41.70 41.31 41.70 41.97 39.90 39.41 34.47 34.38 31.18 34.90 34.57 32.73 34.85 37.39 36.78 36.37 35.36 35.89 35.44
54.42 54.97 54.53 54.66 54.39 50.13 41.84 42.22 42.49 39.29 38.56 36.46 36.23 37.37 39.66 41.52 41.97 42.47 44.31 43.32 40.92 39.87 39.54 40.86 42.19 42.71 41.69 41.65 40.59 38.78 37.34 34.63 31.83 28.20 32.69 33.00 30.37 33.90 34.02 33.60 34.67 36.19 32.81 36.59
54.10 54.58 54.76 54.59 54.36 49.37 44.48 43.67 42.56 37.88 35.03 36.39 37.40 39.33 39.36 41.16 40.52 40.32 40.48 41.71 40.43 41.13 42.86 41.72 43.27 41.93 41.30 40.99 39.35 39.55 35.41 33.83 32.48 28.57 30.84 26.04 34.03 38.41 38.88 36.59 37.42 38.00 39.80 40.26
54.12 54.38 54.63 54.80 54.61 52.82 44.31 44.43 42.04 38.10 34.43 36.73 36.99 37.74 36.87 37.45 37.37 37.06 37.66 38.62 38.84 40.04 39.86 38.19 36.64 36.72 37.45 37.57 38.49 37.30 37.98 35.51 31.61 30.54 28.94 31.73 34.43 37.40 36.44 36.89 36.35 39.86 39.90 40.54
53.83 53.82 54.07 54.55 54.65 53.17 45.70 44.79 45.01 39.89 37.53 37.06 39.30 36.97 35.95 34.79 33.40 34.22 35.56 38.14 39.17 39.98 38.43 36.84 30.87 30.25 33.03 31.71 34.55 37.29 36.73 35.97 33.99 27.85 26.67 27.78 34.50 38.97 40.91 39.10 32.68 39.28 40.36 39.55
53.39 53.47 53.47 54.02 54.32 53.18 48.83 45.84 46.52 43.37 37.35 38.88 38.43 36.86 36.95 36.47 36.08 34.24 33.56 35.64 36.80 38.85 36.07 33.85 29.02 31.57 33.52 30.88 31.45 30.77 31.18 31.42 30.14 30.44 28.53 31.88 37.39 39.38 40.21 30.94 31.03 38.57 38.76 38.84
52.87 52.93 53.25 53.57 54.03 52.94 50.23 47.11 47.02 45.66 39.80 40.58 42.81 42.28 37.78 37.90 37.74 37.65 36.60 38.25 37.88 35.85 34.86 34.21 32.99 32.64 32.88 31.78 31.90 30.53 30.07 27.88 28.56 29.61 27.81 27.61 38.24 38.56 35.20 36.44 38.35 38.68 38.42 38.18
52.25 52.64 53.00 53.31 53.83 53.21 51.78 46.50 47.95 47.67 43.80 42.45 45.16 45.16 44.80 42.64 42.83 37.84 36.40 39.18 36.89 38.53 34.69 33.01 32.15 31.42 29.98 30.81 30.09 32.84 32.02 34.24 32.25 32.34 31.48 37.44 37.73 38.44 39.18 39.79 38.75 38.56 37.88 38.80
51.90 52.22 52.76 53.35 54.04 53.49 52.14 46.97 46.70 46.20 43.21 43.19 43.36 42.78 46.71 47.83 46.70 45.27 39.80 38.89 40.56 40.46 40.05 35.77 34.21 32.80 32.02 29.41 30.04 29.66 33.36 36.10 34.31 34.73 35.14 36.31 37.57 38.47 39.32 39.65 39.47 39.68 38.83 38.56
51.23 51.81 52.40 53.17 53.86 53.43 52.85 47.60 48.45 46.70 43.90 40.23 42.73 47.18 43.94 46.98 47.64 46.46 44.97 43.49 44.18 43.30 41.92 37.87 36.56 36.03 35.87 32.29 33.96 32.65 34.69 36.23 35.00 34.49 35.12 36.15 37.09 37.59 38.16 38.68 37.84 37.54 37.12 37.10
50.88 51.74 52.28 52.95 53.30 53.03 52.10 50.81 49.75 50.23 45.23 41.91 41.38 44.23 44.88 46.17 47.54 45.55 45.80 44.55 42.50 40.62 38.76 37.45 38.10 40.69 39.04 34.68 33.75 34.62 35.72 35.58 34.07 32.83 36.82 36.25 36.39 38.16 38.24 37.49 37.09 37.28 36.29 35.56
51.00 51.66 51.91 52.42 52.94 52.60 49.90 44.22 49.31 50.03 50.11 43.31 37.22 44.15 42.14 44.79 45.91 45.32 44.51 44.31 43.46 40.92 40.22 38.74 40.37 41.81 37.69 31.93 29.11 34.81 36.29 38.07 38.58 37.14 37.61 37.66 37.95 37.72 36.12 36.21 35.79 35.33 34.52 34.06
50.91 51.41 51.69 51.95 51.69 48.41 44.74 41.31 45.81 49.51 50.03 42.16 36.89 37.89 42.63 43.62 45.17 44.53 44.64 44.85 43.46 43.23 40.75 39.39 39.37 39.37 37.96 33.17 30.61 35.01 36.19 38.19 36.63 36.50 37.94 35.98 35.89 34.50 34.14 34.56 35.71 36.88 35.78 35.15
51.05 51.64 51.31 50.43 49.87 48.34 44.23 46.28 48.87 48.98 45.75 41.70 33.78 35.45 37.77 43.19 41.02 40.28 43.85 41.87 42.68 41.66 39.99 40.16 38.77 39.45 37.77 32.19 34.60 33.55 35.81 36.74 36.59 36.52 36.22 35.45 34.41 33.47 32.60 33.22 35.11 34.47 34.14 34.36
51.05 50.60 50.30 47.34 44.44 42.83 44.05 47.25 48.34 47.31 43.27 36.09 35.98 33.45 32.39 41.80 40.37 41.03 40.66 41.43 37.41 41.34 38.62 38.01 38.47 36.13 31.74 33.99 34.29 35.35 36.47 34.71 35.58 31.51 29.41 30.38 31.61 32.31 31.36 30.29 30.93 32.93 33.09 33.47
49.96 46.58 41.41 37.85 41.88 45.78 45.75 43.29 41.99 39.04 39.84 39.60 34.45 38.11 34.80 39.51 38.87 36.54 36.51 36.65 35.19 32.56 36.32 38.84 35.97 34.65 37.09 35.54 37.09 36.91 36.42 36.08 33.54 30.35 29.33 26.52 22.05 25.55 29.40 29.82 30.94 34.46 33.91 31.12
44.97 38.82 36.96 41.55 44.72 41.68 38.27 34.68 34.87 36.09 31.32 37.59 35.63 36.68 35.35 39.24 35.00 34.68 36.04 32.32 32.10 28.44 29.76 33.32 30.22 24.58 28.72 31.60 32.24 31.38 30.36 33.38 32.78 31.63 28.53 28.92 29.25 30.50 30.48 31.06 31.77 31.31 31.07 29.62
43.36 40.19 42.28 41.07 36.72 34.06 30.68 32.20 31.98 32.55 27.72 33.39 35.35 35.48 37.20 36.61 37.48 34.36 34.15 30.57 30.79 25.00 31.02 30.03 22.90 25.09 28.65 30.71 29.04 29.77 31.20 32.06 32.07 32.23 32.30 29.75 30.09 30.24 30.47 30.61 30.71 30.62 29.46 24.81
41.97 38.07 34.66 34.45 33.08 27.45 26.29 23.55 27.07 27.98 30.25 33.82 34.04 33.01 35.48 35.91 35.99 33.22 32.10 28.47 27.09 30.79 27.90 24.82 22.82 25.28 27.70 27.69 29.54 29.10 29.01 30.95 30.92 30.23 29.12 29.71 29.63 30.02 29.97 29.91 28.84 26.57 23.26 22.39
35.18 32.25 28.22 29.40 26.34 24.49 24.79 21.97 24.36 27.34 32.91 34.64 35.17 32.51 33.29 34.19 32.32 33.00 29.34 29.88 29.74 24.34 18.69 16.98 22.04 24.68 29.22 29.28 29.09 28.38 28.16 28.91 28.64 28.52 28.10 27.09 25.98 27.00 28.26 28.16 26.03 23.23 21.70 21.88
32.60 32.43 28.01 26.59 21.93 23.24 16.95 26.41 30.86 31.17 36.24 33.97 31.88 31.11 30.08 28.75 29.29 29.48 29.27 25.78 23.59 22.79 18.16 21.04 22.24 23.35 25.18 29.04 28.29 27.90 27.35 26.85 26.42 26.36 26.64 26.24 24.88 23.07 22.54 22.50 21.82 21.24 21.17 20.78
31.87 29.69 21.71 26.39 23.06 25.85 26.21 25.35 30.11 32.28 32.77 29.23 28.72 26.80 25.67 26.67 27.56 26.77 25.41 21.88 16.99 19.92 20.63 23.71 20.67 26.46 27.03 27.86 28.26 27.69 26.77 26.03 25.93 25.90 26.52 27.00 25.84 23.75 22.03 21.05 20.23 19.98 20.22 20.05
31.21 28.69 27.66 21.16 18.65 24.76 27.95 28.92 32.17 33.63 34.06 26.97 27.23 17.87 19.44 27.03 22.26 19.84 21.76 21.11 22.11 21.67 20.14 19.74 23.55 26.09 26.85 27.87 28.90 29.22 28.23 26.73 25.60 25.44 26.21 26.28 26.53 23.37 20.02 19.38 20.15 19.70 20.43 20.29

GFSNW_sfc_wetblb_012.txt.gz
Wetbulb
56.52 56.59 56.11 56.29 56.41 54.47 48.92 42.89 38.77 52.98 53.44 43.60 44.24 38.42 44.57 45.99 45.91 48.63 46.60 45.17 42.62 39.45 40.98 40.05 39.55 39.40 42.49 46.55 45.39 39.04 38.84 34.20 30.30 33.41 37.42 37.77 35.75 35.05 34.35 30.63 27.57 26.63 26.22 30.09
55.65 56.07 55.82 55.83 55.98 52.91 43.61 40.42 46.23 52.81 51.95 41.01 42.33 45.52 45.13 46.64 45.47 45.75 45.75 42.22 44.59 44.54 41.57 39.31 42.64 43.09 46.18 46.31 44.47 41.19 41.12 34.71 30.63 34.12 36.12 36.75 35.04 34.74 34.16 33.39 31.53 26.85 26.90 30.46
55.23 55.58 55.24 55.17 55.57 53.92 44.98 40.72 39.08 46.62 47.87 46.34 43.06 43.31 43.41 43.72 48.31 46.82 46.80 44.81 45.69 43.29 41.24 43.46 40.70 41.06 44.72 45.92 45.65 47.21 45.51 36.70 33.40 31.90 32.95 36.41 33.68 34.86 34.00 34.49 29.31 29.03 29.49 32.71
54.88 55.16 54.90 54.77 55.25 54.47 45.46 39.68 37.51 41.45 39.12 41.11 41.97 43.48 44.67 43.29 43.44 46.96 46.99 44.18 44.09 42.03 38.53 39.20 39.91 40.59 41.08 42.76 46.18 42.11 41.23 35.17 34.51 34.03 36.82 37.09 36.88 36.95 34.77 33.71 34.29 32.73 34.01 33.53
54.79 54.71 54.43 54.46 54.87 52.62 43.48 38.74 37.76 38.03 38.13 40.35 41.48 40.14 41.72 42.55 41.40 44.32 43.65 42.76 43.04 43.19 41.51 40.63 39.15 40.61 40.47 39.43 40.22 39.80 39.66 34.58 33.42 30.35 33.84 33.43 32.97 35.94 35.20 34.52 34.15 32.75 34.06 34.17
54.46 54.07 54.11 54.29 54.57 50.63 41.83 40.91 43.34 38.82 38.76 38.01 38.52 38.92 40.69 41.94 42.81 43.35 42.57 44.21 42.35 38.92 39.89 39.77 41.46 41.11 40.61 41.89 40.10 37.97 36.72 34.29 32.49 28.29 31.91 31.71 29.35 32.92 35.04 34.89 35.17 36.40 33.52 36.44
53.87 53.65 54.00 54.45 54.45 50.36 43.97 42.65 41.97 36.91 35.06 37.82 38.20 39.83 40.61 41.40 41.30 41.78 40.40 42.78 42.39 41.56 42.40 42.44 43.01 41.85 41.18 40.61 38.52 39.15 36.11 33.87 32.47 27.48 29.26 22.89 32.02 35.99 35.89 35.03 35.19 35.80 37.71 38.73
53.52 53.56 54.14 54.61 54.63 52.74 43.83 43.28 41.93 37.75 33.95 36.21 36.22 37.54 37.44 37.31 37.19 37.39 38.64 39.22 40.28 41.56 40.57 39.06 38.25 36.95 38.74 36.74 36.79 36.17 36.87 34.67 30.43 29.11 27.03 30.52 34.35 35.81 35.98 36.14 35.38 39.39 39.11 40.07
53.00 53.35 53.90 54.35 54.53 53.55 44.97 43.85 43.78 39.37 36.66 35.93 37.78 36.08 35.56 35.26 33.69 34.53 36.95 39.32 40.85 41.14 40.12 37.67 32.78 33.44 35.51 32.43 33.23 36.11 36.16 36.48 33.61 28.48 26.88 26.58 32.85 37.90 40.18 39.80 33.11 40.33 40.84 39.66
52.94 53.42 53.46 53.78 54.17 53.60 48.06 44.78 45.55 41.23 36.54 38.02 37.63 35.79 36.26 36.17 34.77 33.28 34.76 35.52 37.17 39.09 36.72 34.40 32.14 32.32 34.30 30.96 31.13 30.71 31.11 30.84 29.68 30.26 28.89 31.60 37.22 39.44 39.98 31.78 32.60 40.06 39.69 39.19
53.13 53.29 53.34 53.46 53.87 53.43 50.15 46.12 46.00 44.21 38.51 39.30 42.67 41.38 37.02 36.97 36.95 35.01 35.80 37.58 37.65 36.15 34.92 34.19 32.30 31.57 32.47 31.02 32.21 30.35 30.14 28.15 28.35 29.33 27.49 27.34 37.48 38.45 35.04 36.69 37.62 39.00 38.76 38.74
52.74 52.79 53.13 53.40 53.73 53.65 51.76 45.98 47.02 46.72 41.99 41.36 44.12 45.01 44.53 42.20 42.16 37.43 36.08 38.14 36.80 38.48 35.39 33.63 32.73 31.46 30.24 31.77 30.69 32.96 31.38 33.62 31.28 32.25 32.10 37.38 37.30 37.89 38.89 39.69 38.58 37.89 38.36 38.55
52.20 52.42 52.73 53.28 53.83 54.03 52.65 47.90 46.07 44.78 42.24 41.97 42.21 41.62 45.78 47.02 45.84 44.78 40.27 38.71 39.71 39.21 38.97 35.23 33.90 32.59 32.06 30.34 30.84 29.71 32.07 35.19 34.11 34.28 35.51 36.36 37.94 38.73 39.46 39.66 39.31 39.27 38.60 38.41
51.53 52.05 52.35 53.34 53.89 53.47 52.46 49.18 49.32 46.23 43.02 39.91 41.54 45.99 42.56 45.94 46.52 45.20 44.42 42.89 43.14 42.04 40.54 37.08 35.46 34.28 34.41 31.59 33.84 32.94 34.22 35.40 34.14 33.65 34.67 36.39 36.91 37.71 38.77 38.63 38.59 38.53 37.76 36.62
51.31 51.61 52.36 53.17 53.38 53.07 51.79 50.45 50.24 50.20 45.92 41.58 42.32 44.93 43.98 45.46 45.28 44.66 44.63 43.48 41.43 39.53 38.03 36.49 35.37 36.31 35.50 32.57 33.24 33.15 34.74 34.63 33.66 32.87 36.56 36.24 35.99 38.17 38.12 38.12 37.01 36.36 35.92 33.96
51.25 51.66 52.21 52.77 52.81 52.40 49.71 46.25 49.27 49.55 48.87 41.88 37.96 43.85 42.15 45.35 45.59 44.37 43.40 43.12 41.24 39.35 37.64 35.71 36.98 39.06 35.51 29.41 30.28 34.29 35.39 36.80 37.54 36.34 36.75 36.53 37.02 37.02 35.83 35.84 34.67 33.95 33.59 32.88
51.00 51.54 51.87 52.33 51.79 48.32 44.39 41.90 45.36 49.33 49.69 42.36 36.67 37.12 42.51 43.60 45.17 44.37 44.47 44.74 43.31 41.12 38.36 36.19 36.30 36.98 36.81 32.23 29.96 34.63 35.26 37.71 36.47 36.88 37.47 35.43 34.03 34.55 33.64 34.39 35.64 36.97 36.08 35.23
51.16 51.59 51.67 50.75 49.89 48.37 45.04 46.97 48.04 48.31 44.69 41.86 34.04 34.95 38.99 43.13 41.00 40.43 43.58 41.87 42.64 41.55 39.91 38.72 37.69 37.35 38.02 32.35 33.75 33.43 35.22 35.78 35.44 34.99 34.60 35.28 33.66 32.71 32.21 32.43 32.30 30.70 31.39 33.62
51.32 50.76 50.31 47.38 44.46 43.15 45.02 47.88 47.52 44.67 43.34 36.04 35.40 32.97 31.54 41.85 40.28 40.94 40.31 41.17 37.49 41.19 38.31 38.06 38.59 36.36 31.21 34.36 33.91 34.26 35.11 35.19 34.60 31.34 30.32 29.14 30.07 32.67 29.18 29.04 28.16 29.25 30.64 33.84
50.24 46.52 41.42 37.99 42.10 46.31 45.24 41.54 39.61 37.00 36.41 37.22 33.66 36.01 34.99 37.93 38.64 36.31 36.61 37.00 35.01 32.59 36.46 38.25 35.02 32.64 36.34 35.30 36.06 36.61 36.50 35.60 33.12 30.24 28.90 26.09 22.04 22.97 28.11 29.61 30.49 31.30 31.62 33.43
44.64 38.78 37.28 41.72 44.74 40.97 36.15 33.93 31.83 35.14 31.57 37.61 33.97 34.02 35.11 39.08 34.52 34.49 35.41 31.18 29.76 22.68 28.83 33.40 27.22 26.59 29.28 30.77 32.16 32.04 33.08 34.50 32.80 32.39 29.95 29.62 30.09 29.10 29.51 29.86 30.31 30.80 30.67 30.15
42.30 41.03 42.51 41.09 36.62 32.55 28.92 32.23 27.79 32.18 27.63 32.38 35.58 35.26 35.43 36.28 37.68 33.71 32.65 29.09 25.93 25.41 32.34 31.30 21.19 25.83 27.38 29.29 27.57 28.84 32.71 33.21 31.93 30.82 31.13 30.24 30.52 29.74 29.69 29.66 29.51 29.77 29.64 28.87
42.23 38.74 35.02 35.40 33.00 27.57 28.21 26.51 27.90 22.40 27.29 33.88 34.03 33.03 35.60 35.11 35.23 31.70 27.32 26.73 24.74 29.72 27.81 26.36 24.05 23.67 25.38 26.29 28.37 28.02 29.14 30.68 30.67 30.47 29.68 29.47 29.63 29.27 29.16 29.31 28.98 26.96 26.94 24.43
35.21 32.42 28.06 30.72 26.92 28.45 27.60 22.62 24.04 27.21 33.11 34.81 34.97 32.53 30.78 34.28 32.09 32.70 28.20 29.21 28.83 24.94 22.40 18.14 20.81 24.86 28.74 28.41 28.51 28.30 28.37 29.42 29.39 28.75 28.16 26.57 26.09 26.04 26.53 28.37 27.22 25.38 23.44 22.98
32.42 32.78 27.85 27.16 21.92 22.47 18.23 18.84 30.24 32.33 37.13 33.75 31.80 30.48 31.74 29.80 29.30 27.82 25.11 25.62 23.11 24.97 18.20 21.06 21.46 24.33 26.98 28.01 27.99 27.22 26.93 27.03 26.70 26.14 26.30 26.38 25.76 24.35 23.88 23.79 23.03 22.97 22.49 21.56
31.87 29.49 24.45 25.67 20.62 24.88 26.51 28.91 31.00 32.95 33.99 31.88 30.64 25.11 25.81 25.38 25.97 26.47 21.61 20.45 19.14 19.73 18.64 20.88 21.57 26.15 27.52 28.31 28.00 27.62 26.83 25.92 25.63 25.48 25.67 26.04 25.66 25.13 24.08 21.91 20.74 20.21 20.28 19.97
30.88 28.16 27.14 20.87 15.95 22.07 28.37 30.62 32.43 33.57 33.73 26.13 25.95 23.76 24.51 27.69 24.53 23.93 20.49 19.47 19.95 18.45 18.35 19.68 24.21 28.04 27.21 27.58 28.34 28.30 27.65 26.76 25.53 24.82 25.19 25.21 25.48 23.52 21.70 21.66 21.80 19.56 19.61 19.36

GFSNW_sfc_wetblb_015.txt.gz
Wetbulb
55.92 56.04 56.42 56.08 56.15 53.44 49.69 42.07 40.74 52.80 53.62 41.92 41.27 37.55 40.25 43.51 45.01 45.67 43.95 43.10 40.26 36.22 36.55 36.54 37.65 38.21 41.08 46.92 45.12 37.81 38.35 34.96 32.67 33.48 38.20 39.79 38.93 37.33 36.81 32.74 29.73 29.14 29.99 33.25
55.34 55.47 55.92 55.87 55.51 52.37 42.79 40.55 45.74 52.54 50.84 38.66 37.92 41.64 41.47 42.36 44.75 44.12 44.94 43.00 43.36 41.16 36.87 37.55 40.07 41.40 44.72 46.62 45.26 40.04 40.82 35.00 31.11 34.29 37.48 38.10 35.44 35.20 36.17 35.11 33.29 28.74 29.81 33.40
55.00 54.98 55.31 55.14 55.16 53.64 44.73 40.54 41.79 46.10 46.41 45.97 42.48 42.83 42.60 42.83 47.88 46.41 47.31 43.60 44.43 41.17 40.30 43.00 39.28 42.03 45.21 46.45 45.16 47.37 45.31 36.64 34.46 32.59 34.06 36.69 34.70 34.79 34.62 36.84 31.25 30.90 31.23 35.02
55.14 54.75 54.83 54.86 54.79 54.15 45.01 39.58 37.88 43.03 39.20 41.16 42.38 44.76 44.22 41.25 42.82 46.48 47.36 43.92 43.01 40.94 38.23 40.35 40.01 41.85 42.03 44.42 46.77 43.81 42.07 36.21 35.04 33.99 36.62 37.57 36.31 36.05 34.37 34.60 37.06 35.59 35.84 34.61
55.22 54.50 54.39 54.36 54.42 53.82 43.42 38.71 36.33 38.23 39.07 39.85 42.46 42.53 42.78 42.23 43.26 43.99 43.54 42.59 43.12 43.68 39.07 40.13 39.02 40.59 41.23 41.18 41.53 40.37 39.92 35.33 34.63 31.74 34.85 36.24 35.32 36.40 36.66 36.65 34.76 35.40 35.34 35.82
55.15 54.39 53.88 53.98 54.28 51.41 42.37 40.78 40.99 39.13 40.40 38.22 39.71 39.54 41.90 43.00 43.74 44.68 41.71 43.74 42.24 42.42 40.03 41.16 44.58 44.17 42.50 42.84 39.95 37.71 38.77 34.26 33.78 30.49 32.82 33.34 31.29 34.16 35.45 36.65 35.88 38.28 34.57 40.33
54.66 54.05 53.66 53.83 54.27 50.98 45.10 41.97 41.20 38.03 36.70 38.01 39.11 40.30 42.11 41.95 41.96 43.14 40.11 42.71 41.97 42.82 41.91 42.49 44.16 42.69 41.40 42.91 38.60 39.59 37.90 35.20 33.81 28.51 30.31 24.17 34.62 36.35 38.34 37.69 36.14 37.52 37.39 37.63
54.12 53.63 53.48 53.94 54.44 53.53 46.30 43.22 41.83 38.17 35.18 37.80 37.96 39.24 37.97 37.74 39.17 37.99 39.37 39.13 40.34 41.87 41.03 42.33 40.04 39.48 38.59 37.06 37.09 36.54 36.98 36.19 31.43 28.93 27.27 32.05 34.89 35.78 35.23 36.06 35.30 37.52 38.50 39.37
53.49 53.22 53.20 53.95 54.40 54.32 46.87 43.62 43.38 39.59 35.74 34.95 37.14 36.51 37.06 35.95 33.58 37.01 37.20 40.32 42.21 42.80 41.08 38.32 34.59 32.88 36.37 33.26 34.55 37.07 37.09 38.06 34.11 29.47 28.25 27.16 34.47 38.79 40.05 40.53 33.56 40.53 41.03 39.84
53.17 52.87 52.87 53.66 54.05 53.98 48.99 45.11 44.68 40.49 36.44 37.22 35.90 35.25 36.66 37.77 34.59 35.40 36.62 37.50 39.50 42.32 38.95 34.94 32.59 32.53 35.39 31.78 30.84 31.25 31.94 31.21 29.46 30.58 28.83 32.06 37.84 39.70 40.04 32.55 34.81 40.59 40.71 40.19
53.07 52.99 53.18 53.46 53.72 53.94 50.62 46.81 45.55 42.85 39.06 39.14 40.68 40.21 35.80 36.91 36.65 35.33 36.45 39.24 38.64 38.05 37.46 36.90 33.83 33.34 33.12 32.50 32.74 31.64 32.10 30.73 29.82 30.08 28.45 28.01 38.38 38.90 35.81 37.66 38.46 39.54 39.26 39.53
52.88 52.99 53.22 53.50 53.66 53.87 52.22 47.41 46.55 45.81 41.36 41.22 43.48 43.48 43.08 41.02 41.29 37.14 36.57 37.80 36.80 38.68 35.91 33.90 33.29 31.62 30.78 32.34 30.96 33.17 31.17 33.67 32.06 32.81 32.37 37.46 37.83 38.38 39.32 39.93 38.82 38.80 39.25 39.24
52.57 52.83 52.71 53.19 53.53 54.06 52.50 49.03 46.02 43.63 41.18 42.52 41.77 41.21 45.47 46.12 44.83 45.22 39.96 39.13 39.77 38.72 38.55 35.00 33.93 32.86 32.31 30.94 31.71 31.13 32.91 35.74 33.96 33.79 35.13 35.80 37.30 38.46 39.24 39.70 39.33 39.60 39.83 39.45
52.40 52.34 52.36 52.88 53.40 54.09 52.86 49.07 49.03 45.56 41.95 38.30 41.34 45.11 41.48 45.55 45.83 44.82 43.54 42.03 42.23 41.04 39.96 36.71 35.07 33.71 33.58 31.23 33.16 32.82 33.95 35.16 33.47 32.96 34.45 36.28 37.02 37.71 38.37 38.25 38.54 38.24 38.19 37.88
52.18 52.15 52.40 52.78 53.08 53.45 52.10 50.52 50.45 50.04 44.44 41.24 42.01 44.28 43.22 44.42 44.44 44.11 44.13 42.94 41.11 39.13 37.96 36.40 36.99 36.65 35.88 32.47 32.96 32.32 34.66 34.29 33.43 32.90 36.76 36.73 36.81 38.06 38.64 37.82 36.89 37.38 37.20 35.51
51.41 51.53 51.84 52.41 52.92 52.46 49.96 46.16 49.32 49.82 49.22 43.63 38.20 43.76 42.40 43.39 43.81 43.24 42.57 42.07 40.13 38.46 37.47 35.07 35.83 37.68 35.19 29.68 30.91 35.02 35.15 36.15 37.39 36.39 36.79 36.08 36.69 36.72 36.82 35.48 35.01 34.86 34.55 34.73
51.06 51.20 51.77 52.20 52.15 48.88 45.50 43.54 46.42 49.41 49.44 42.17 36.63 38.01 42.47 43.55 45.05 43.23 42.43 42.48 41.79 41.71 38.46 35.96 35.19 35.86 35.24 31.49 30.33 34.76 35.39 36.68 35.46 36.20 37.37 35.34 34.53 35.09 34.80 35.23 36.86 37.18 35.16 35.17
51.13 51.67 51.91 51.00 50.16 48.68 45.53 47.12 48.01 48.25 44.41 42.14 34.14 34.89 39.49 43.27 41.05 40.70 43.28 41.90 42.40 40.72 39.51 38.40 35.78 36.88 34.50 31.34 33.62 32.82 34.85 34.93 34.61 33.60 34.43 36.32 33.70 33.32 32.80 32.75 32.23 31.28 31.48 32.86
51.29 51.24 50.36 47.26 45.17 43.48 45.12 48.19 47.17 46.32 43.92 36.27 35.15 33.15 33.71 42.15 40.32 40.91 40.21 41.08 37.88 41.05 38.29 38.26 38.70 34.69 29.09 34.10 32.95 33.58 33.82 34.86 33.43 30.35 30.57 31.50 32.16 31.90 31.31 29.70 29.21 30.64 31.05 32.01
50.39 46.74 42.28 38.38 42.61 46.71 46.12 42.11 41.00 39.02 39.17 37.63 34.06 35.83 35.36 39.10 38.55 36.22 37.01 37.27 35.40 32.91 36.60 38.73 35.87 34.24 35.49 35.48 36.00 36.86 36.18 35.38 33.08 31.96 28.69 27.62 24.06 27.62 29.07 29.62 30.77 31.37 31.28 31.68
44.61 39.18 37.30 41.89 45.02 41.07 36.93 34.28 30.09 34.49 31.84 36.56 35.84 34.73 34.95 38.38 34.51 34.28 35.74 31.48 30.78 27.84 31.49 33.76 30.13 27.94 31.88 32.49 33.15 32.89 33.56 35.87 35.35 34.97 33.17 32.42 30.63 28.56 29.10 29.75 30.28 30.54 30.69 32.53
42.43 41.52 42.73 41.03 36.78 32.97 29.27 26.86 29.55 31.96 28.64 34.15 35.41 33.22 34.57 34.29 35.76 33.42 30.72 25.45 23.38 18.65 32.39 32.03 25.17 27.39 28.52 29.59 30.49 32.24 33.69 33.80 31.54 30.78 30.60 30.20 30.35 29.92 29.90 29.95 29.70 30.02 30.32 29.57
42.59 39.31 35.49 35.14 32.88 28.33 24.07 26.51 27.17 21.25 26.38 33.92 33.91 32.53 34.13 32.31 32.39 27.71 25.72 20.12 19.61 28.49 27.41 24.84 25.42 25.36 26.05 26.79 28.89 30.29 32.11 31.72 30.12 29.36 28.97 29.18 29.46 29.31 29.11 29.10 29.07 28.43 28.11 27.14
35.68 33.07 29.98 30.86 28.18 27.24 25.75 24.64 24.86 27.60 31.84 34.86 34.43 32.28 31.93 31.17 25.55 29.71 21.49 25.86 27.93 20.72 17.50 19.90 22.82 23.18 28.03 27.38 27.53 29.54 29.01 29.54 29.48 28.64 28.17 28.08 27.46 27.23 27.47 28.55 27.71 26.75 25.68 24.97
32.44 33.39 29.16 28.88 24.19 23.29 17.63 21.06 29.89 32.66 36.99 34.04 31.13 28.71 30.36 28.83 28.62 27.39 26.45 25.37 23.21 24.04 19.14 20.57 20.16 21.55 25.51 27.16 27.19 27.70 27.83 27.29 26.78 26.08 26.46 26.53 25.83 25.05 24.51 24.36 23.92 24.24 23.91 22.87
31.88 29.91 25.66 25.35 21.13 24.30 26.80 26.12 31.93 33.29 35.05 31.72 29.44 24.14 21.48 24.95 24.53 26.28 17.41 19.88 17.70 20.50 21.58 21.64 21.40 27.93 27.83 27.55 27.00 26.47 26.28 26.07 25.90 25.54 25.52 25.99 25.63 25.58 24.74 22.45 21.51 20.89 21.11 20.87
31.28 26.19 26.85 22.47 17.96 23.79 27.99 30.63 33.15 35.09 34.29 22.89 24.12 22.46 21.91 26.19 22.60 24.50 20.21 18.98 21.09 19.23 19.53 21.38 25.12 28.33 27.70 27.32 27.25 26.83 26.47 26.01 25.18 24.91 24.87 24.94 25.03 23.39 22.46 22.67 22.17 19.99 19.58 19.25

GFSNW_sfc_wetblb_018.txt.gz
Wetbulb
56.39 56.42 56.28 56.45 56.45 55.03 51.34 47.59 41.68 52.05 52.10 39.80 39.25 35.89 39.05 42.21 41.68 43.02 41.10 41.78 39.58 37.85 38.70 37.34 37.35 37.49 41.57 45.87 45.99 41.77 45.02 42.94 38.34 39.31 41.80 45.94 46.43 43.14 44.54 38.42 36.06 39.05 39.03 40.94
56.01 55.90 55.82 56.19 56.22 52.92 46.80 45.21 46.16 52.56 50.91 36.91 37.45 39.79 40.20 41.18 40.33 41.22 40.13 41.38 42.10 41.93 38.57 35.39 39.09 41.33 45.32 47.91 46.13 44.01 45.21 41.54 36.17 36.98 40.95 41.77 41.14 44.94 46.26 45.16 41.31 38.60 37.54 40.46
55.73 55.37 55.37 55.56 55.85 54.11 48.23 46.09 41.62 45.46 46.01 45.73 41.84 39.01 38.84 39.30 44.31 44.04 44.48 43.71 45.17 40.60 38.33 41.69 37.84 41.87 45.30 48.29 47.46 47.99 46.68 42.84 40.32 36.66 39.69 43.07 40.04 42.81 44.04 44.02 39.40 40.08 39.89 43.01
55.71 55.07 54.94 55.20 55.24 54.05 48.07 45.14 43.56 45.14 38.36 39.69 41.60 42.16 41.95 40.33 41.84 46.21 47.16 43.95 43.51 41.10 36.84 39.74 40.63 44.59 44.99 47.02 47.86 47.25 45.27 40.31 42.10 41.83 42.21 43.25 42.02 41.43 41.49 41.51 43.47 40.22 43.31 41.99
55.64 54.84 54.45 54.66 54.79 53.70 46.61 43.05 42.42 43.08 44.44 43.69 43.01 41.01 40.78 41.48 41.92 43.61 41.97 42.97 44.61 44.61 40.91 42.78 40.94 44.43 44.41 44.07 46.88 45.46 46.11 40.82 40.45 38.35 40.07 41.97 39.98 42.31 43.34 43.73 44.49 44.21 44.04 43.56
55.56 54.69 54.09 54.20 54.42 52.17 46.15 45.18 45.97 43.92 43.50 41.49 41.96 41.57 42.45 44.14 44.33 45.02 43.94 46.11 45.08 43.69 45.36 48.01 49.30 49.71 48.46 47.41 44.93 44.32 44.60 42.61 39.79 37.44 38.40 39.00 36.76 41.38 41.51 42.36 44.16 44.05 40.74 46.02
55.20 54.51 54.08 53.98 54.26 52.37 47.88 45.58 47.06 42.46 39.61 40.91 40.43 41.19 44.11 43.71 44.73 42.78 42.62 47.76 45.47 44.48 47.29 48.78 49.32 48.16 45.79 43.34 41.51 47.59 43.38 41.57 40.25 37.59 37.27 30.64 42.41 42.32 45.66 43.82 44.94 45.59 45.61 45.40
54.76 54.47 54.09 53.88 54.10 53.45 48.63 46.31 47.26 43.66 40.43 40.88 40.00 40.21 40.85 41.23 41.32 39.02 41.30 39.65 42.50 44.77 43.62 44.87 40.12 39.48 39.80 38.85 39.34 40.17 43.25 39.92 38.29 34.82 35.11 39.07 39.12 39.71 40.66 41.30 42.50 45.02 44.93 44.48
54.37 53.93 53.66 53.65 53.92 54.19 49.12 46.63 48.98 45.15 40.81 40.78 40.47 38.91 41.16 40.17 39.25 39.31 39.21 41.42 44.13 45.68 43.32 43.26 36.30 34.05 36.70 33.93 37.67 39.41 39.92 43.50 39.95 36.35 32.03 31.91 39.61 42.33 44.49 45.25 38.57 44.47 45.38 44.74
53.01 53.44 53.11 53.16 53.65 53.85 49.91 47.40 49.59 46.30 41.72 42.61 41.88 41.57 41.04 41.97 40.41 38.34 38.35 39.79 42.71 44.05 41.47 37.03 36.68 36.20 39.54 35.06 34.41 34.30 36.34 38.37 38.15 36.46 34.46 38.20 41.61 43.38 44.70 36.75 39.79 44.47 45.70 45.32
53.43 53.31 52.84 52.90 53.46 53.72 51.01 48.49 49.50 48.68 43.54 44.62 45.44 44.07 40.23 41.08 42.35 40.86 40.11 40.81 40.77 41.21 39.78 38.69 37.13 36.69 39.38 37.92 39.60 39.31 37.54 37.08 36.08 36.42 34.40 32.96 43.44 42.46 40.67 43.52 45.07 45.66 45.79 45.66
51.35 53.15 52.89 53.02 53.48 53.75 52.44 48.00 49.34 49.59 46.09 45.73 47.31 47.47 47.14 44.79 43.57 41.30 39.92 42.73 41.14 43.45 40.97 39.50 38.74 36.51 36.25 38.10 34.37 38.02 37.56 41.59 38.66 39.39 39.26 41.34 42.39 42.72 43.80 46.84 44.65 44.01 44.12 44.48
50.46 53.14 53.14 53.40 53.73 54.01 52.64 49.37 48.90 47.58 47.02 46.80 46.16 45.21 48.44 48.72 47.58 48.48 43.33 42.54 43.80 42.50 44.75 41.79 40.71 38.88 39.74 36.94 37.64 37.76 38.35 40.43 39.81 38.37 39.37 40.08 41.47 42.66 44.27 45.52 44.03 44.62 44.79 44.35
50.10 53.29 53.38 53.10 53.38 53.79 53.22 49.02 50.12 49.25 46.99 43.24 43.95 47.98 46.39 48.63 48.15 47.54 46.64 45.48 45.24 44.94 45.18 43.18 41.66 40.02 38.72 39.29 39.40 40.28 40.94 40.76 39.33 37.33 39.15 40.82 41.80 43.64 43.36 42.93 43.55 43.04 43.43 43.46
49.22 52.95 52.84 52.58 52.81 53.13 52.83 51.05 50.36 51.49 48.23 43.44 42.97 46.21 46.73 47.77 47.56 46.67 47.07 46.69 45.88 45.27 44.13 43.79 41.88 40.21 40.08 38.70 39.75 39.33 41.09 41.06 40.67 41.65 43.70 44.25 43.48 43.68 44.00 43.05 42.77 43.27 42.09 40.69
49.19 52.11 52.05 52.13 52.37 52.70 50.46 46.12 49.59 50.56 50.69 45.39 40.89 45.87 45.00 46.71 47.54 46.83 46.12 45.96 44.90 44.64 44.47 42.29 42.31 41.95 42.11 41.04 39.92 42.32 42.75 42.64 43.47 43.50 44.88 42.42 44.61 43.87 43.60 42.36 41.59 41.56 42.04 41.48
51.28 51.58 51.62 51.76 52.28 50.74 46.39 44.94 47.89 50.43 50.03 42.59 37.39 40.09 44.18 45.22 46.68 46.43 46.54 46.78 45.42 45.90 42.66 42.02 42.17 41.75 41.94 39.65 38.85 42.38 42.23 43.12 41.77 42.45 41.83 39.20 41.92 40.90 41.57 41.05 40.40 40.14 39.52 39.53
51.41 51.29 51.58 51.93 50.55 49.14 46.14 48.17 48.46 50.23 45.49 43.36 34.93 36.06 40.56 44.54 42.60 42.71 45.19 45.11 45.88 43.61 42.71 42.07 41.23 40.66 40.52 37.39 41.30 39.07 40.95 40.95 40.73 41.46 39.91 43.56 41.06 39.84 38.58 39.37 38.14 36.60 36.71 37.35
50.96 51.45 50.87 48.15 46.16 44.28 45.71 48.21 47.79 47.65 45.02 37.47 36.52 34.78 34.97 43.90 41.09 41.84 41.45 42.44 39.63 42.63 41.14 41.15 41.57 39.62 37.26 41.32 40.96 38.93 39.47 40.43 38.83 36.31 37.38 38.37 37.86 36.53 35.53 35.61 35.29 35.62 35.42 36.12
50.65 48.10 43.59 39.90 43.39 47.36 47.25 44.79 44.09 40.89 40.48 39.37 36.61 39.81 37.15 40.42 39.33 37.43 38.49 38.79 37.13 34.75 37.45 39.63 36.80 37.65 42.00 41.02 41.61 41.99 40.74 39.60 37.74 34.82 33.39 33.64 32.48 33.55 35.14 35.88 36.40 36.62 36.18 36.12
45.11 40.03 38.44 42.97 45.66 42.89 39.29 36.04 38.49 37.33 35.06 38.13 37.69 38.55 37.27 40.36 36.50 35.60 37.35 34.56 34.29 33.26 34.83 36.00 34.99 32.87 37.15 37.75 38.41 40.15 39.73 38.99 40.56 41.96 40.65 39.69 38.50 36.21 34.52 34.33 35.47 35.77 35.79 35.56
43.24 42.41 43.07 41.59 38.19 36.75 34.43 33.95 32.86 33.59 33.26 36.54 36.33 36.79 38.60 37.68 39.23 36.13 34.63 32.33 31.74 30.32 35.51 33.32 29.87 34.60 32.84 36.17 36.62 38.13 39.04 39.22 37.64 39.51 38.03 36.39 35.77 36.08 35.65 35.25 34.87 35.20 35.58 35.34
43.59 40.28 35.81 36.95 34.73 30.19 29.72 27.88 30.32 28.76 32.90 34.75 34.98 33.97 36.22 36.37 37.36 32.90 32.17 29.84 29.96 33.33 30.28 28.73 32.32 31.62 31.14 33.67 35.86 36.23 37.03 35.02 34.62 34.30 34.92 35.08 33.74 34.34 34.63 34.16 34.49 34.74 34.37 34.06
36.08 32.79 31.49 32.38 30.40 32.32 31.01 31.60 32.40 33.48 34.95 35.56 36.06 33.43 34.57 34.49 33.94 32.63 28.82 29.36 30.74 25.82 23.60 25.96 31.32 31.47 32.13 32.51 34.19 36.31 33.64 34.00 33.62 33.07 33.40 33.15 33.38 33.12 33.27 33.66 33.73 33.40 32.82 31.42
33.30 34.64 31.08 31.51 28.56 26.60 25.34 28.20 32.43 35.00 38.28 35.50 34.13 33.74 33.85 31.07 31.32 30.69 29.69 26.59 24.36 25.86 25.68 30.01 31.24 30.33 30.78 31.75 34.54 35.15 32.73 32.02 31.08 32.17 32.23 31.65 31.28 31.11 30.24 30.67 31.09 31.29 30.01 28.97
32.25 31.49 27.48 26.89 28.12 27.19 28.19 30.08 32.92 35.31 37.38 35.07 35.36 30.72 29.50 27.52 29.92 27.03 25.99 24.92 23.33 28.51 31.38 31.34 29.46 30.79 31.15 31.86 34.22 33.12 31.82 32.43 31.82 31.49 31.03 30.86 30.71 30.62 30.54 28.29 27.94 27.49 27.55 26.89
31.49 28.35 29.21 26.71 26.62 28.32 29.90 33.00 34.95 37.68 35.59 31.71 31.83 30.11 28.49 29.76 26.91 26.08 27.11 26.09 30.04 30.29 29.06 29.21 32.48 31.56 30.62 30.62 30.30 30.31 30.15 30.14 30.12 29.98 29.96 29.75 29.34 28.96 28.41 28.56 25.87 25.22 24.74 24.18

GFSNW_sfc_wetblb_021.txt.gz
Wetbulb
54.38 56.14 56.23 56.52 56.74 56.50 51.56 46.81 39.67 52.02 52.57 40.55 40.35 35.33 37.16 41.74 40.86 42.78 40.79 41.21 40.26 38.89 39.50 37.81 37.65 36.89 40.49 44.91 44.60 39.81 43.43 40.46 33.65 37.24 42.15 48.10 46.69 44.50 45.30 40.32 37.83 41.47 40.52 40.14
52.13 55.50 55.97 56.25 56.59 54.11 48.02 44.15 45.83 51.38 49.35 35.81 35.80 38.84 38.40 40.07 40.35 41.35 40.01 39.81 42.63 42.69 39.72 36.46 39.56 40.82 45.42 46.49 44.64 42.10 44.82 40.31 34.28 33.88 38.12 42.84 43.11 44.93 46.33 46.46 44.14 40.84 38.55 40.57
51.45 54.90 55.58 55.64 56.12 53.76 48.86 45.30 40.94 45.52 45.42 44.69 40.73 37.65 37.93 37.74 42.89 41.02 42.43 41.99 44.40 41.39 39.44 41.92 39.46 41.33 45.42 47.66 45.96 47.81 47.92 42.59 40.76 36.50 39.76 41.67 40.67 43.13 45.53 45.57 40.88 41.39 42.15 42.95
51.37 54.39 55.23 55.12 55.56 53.75 49.07 44.41 42.92 45.10 38.24 39.76 41.05 41.75 40.63 39.02 39.47 43.13 43.62 42.29 42.93 41.19 37.39 38.86 39.53 42.31 44.52 46.19 47.60 46.88 46.30 40.68 42.73 43.37 44.34 45.08 43.90 43.52 44.24 43.39 45.02 41.40 44.14 43.84
50.29 53.21 54.68 54.62 55.10 54.59 46.94 42.25 41.74 46.20 43.66 42.65 40.85 40.34 39.50 39.21 40.47 43.09 40.93 41.00 42.86 43.74 39.43 40.25 40.11 42.64 44.48 43.57 46.76 45.35 47.25 41.27 42.94 40.45 42.99 43.75 41.92 44.08 45.09 44.95 45.31 45.08 45.29 45.47
51.13 52.80 54.21 54.23 54.64 52.20 46.96 46.60 47.03 46.09 44.58 44.50 41.55 41.65 40.41 40.40 42.83 44.21 45.97 43.85 43.76 43.18 43.32 46.07 49.24 49.69 48.87 48.41 45.84 43.85 43.84 42.08 41.10 37.67 41.64 41.32 37.88 42.66 43.47 44.53 45.81 45.50 42.49 47.17
50.02 51.47 53.72 54.09 54.42 53.10 48.90 46.32 46.77 42.73 39.28 42.00 42.14 43.32 43.30 42.67 44.61 43.01 45.11 46.25 44.77 48.22 51.05 51.83 49.25 47.63 48.53 48.79 48.16 48.23 43.94 43.03 42.21 38.49 39.52 31.86 43.59 45.37 46.78 45.20 46.28 47.86 48.14 48.80
49.18 50.24 54.31 54.14 54.34 53.77 49.19 47.07 46.02 44.43 40.52 43.47 42.48 41.54 42.49 41.99 42.62 40.89 43.09 43.86 47.04 47.19 49.35 44.71 40.03 39.61 40.70 40.57 40.93 45.48 47.32 43.68 39.08 36.43 36.82 41.57 43.81 42.03 42.92 43.39 43.85 48.24 47.39 48.41
48.92 50.32 54.14 54.06 54.17 54.10 51.08 47.69 49.05 46.12 42.46 42.72 43.45 42.84 42.77 41.75 40.65 39.98 41.03 44.20 47.33 45.95 46.05 43.31 35.15 33.92 36.62 36.01 37.90 39.89 44.65 45.38 40.96 38.30 33.98 32.84 41.02 44.04 45.98 47.87 40.02 49.27 49.45 48.29
48.46 49.24 51.16 53.75 53.61 53.80 51.17 48.88 49.22 47.08 42.99 45.86 44.51 42.97 42.91 44.28 42.39 39.22 41.79 42.96 45.54 45.77 43.50 40.62 38.64 36.70 39.83 35.64 35.33 33.75 37.65 39.10 36.84 37.78 36.52 40.73 43.63 44.97 46.62 37.55 40.84 45.96 48.16 48.33
47.77 49.06 52.03 53.35 53.29 53.42 51.64 48.81 48.89 47.82 45.86 47.04 46.49 46.01 42.67 41.76 45.03 41.68 41.25 42.93 42.57 43.95 40.66 40.82 39.36 38.82 39.64 40.83 40.92 37.72 36.55 36.84 36.61 38.26 36.32 34.08 45.51 43.87 40.96 44.53 46.79 47.19 48.02 48.12
47.66 48.92 49.67 53.22 53.11 53.41 52.57 48.28 49.45 51.16 48.40 47.41 49.04 48.89 48.66 45.96 44.89 43.67 41.27 42.25 43.12 45.48 41.74 42.28 42.28 37.68 39.07 41.17 35.96 42.86 38.67 43.41 40.42 42.35 41.60 43.78 45.23 44.99 46.40 48.61 47.42 47.42 47.13 46.86
47.28 48.97 50.17 53.29 53.26 53.91 52.62 49.03 49.07 49.11 46.36 47.66 47.08 46.41 49.32 49.95 49.17 48.88 43.47 43.15 45.23 42.88 45.15 43.34 42.31 39.82 42.66 38.73 40.51 41.22 41.77 42.59 42.43 40.31 41.71 42.95 44.08 44.47 46.48 48.47 47.05 47.20 46.92 46.02
47.55 48.89 50.43 53.14 53.15 53.69 52.92 48.83 49.24 50.67 49.11 44.11 45.40 49.87 47.98 50.26 49.83 47.83 48.43 46.07 46.66 45.16 45.56 44.04 42.81 41.55 41.87 41.52 41.88 41.92 42.16 41.96 41.97 40.46 41.13 42.26 43.44 45.55 46.10 46.04 46.19 45.70 46.23 46.15
47.31 48.07 49.38 53.01 52.87 53.39 53.33 51.59 50.53 52.37 48.98 44.30 43.59 48.13 48.42 49.45 49.05 47.46 47.47 47.22 46.70 46.32 44.19 44.27 43.34 42.31 41.72 41.66 42.09 41.30 42.57 42.84 40.83 41.32 45.41 45.61 44.78 45.76 45.86 44.45 43.97 44.35 43.46 43.16
46.85 47.80 49.12 52.44 52.40 52.63 50.95 45.96 50.30 51.29 51.52 46.10 40.96 47.24 46.67 48.15 49.30 48.22 47.17 47.54 46.92 47.65 47.51 45.37 44.27 43.71 43.88 42.59 41.05 45.59 45.53 46.24 46.03 45.18 47.32 46.66 46.41 45.99 46.76 45.17 44.88 45.16 44.72 43.73
47.12 48.33 50.98 51.75 51.95 52.02 47.26 45.67 48.63 51.30 51.13 44.93 39.74 41.00 45.75 47.29 48.21 48.17 48.16 48.65 47.47 47.85 45.35 44.99 45.01 43.76 43.95 42.33 41.00 45.52 45.20 45.46 44.58 45.60 45.41 43.57 44.37 43.02 45.40 44.26 43.62 43.65 42.82 42.72
47.86 49.06 51.58 51.63 51.36 49.44 47.24 48.47 49.69 50.38 45.91 44.15 36.24 37.39 41.55 45.66 45.06 44.68 47.31 46.88 47.57 45.42 44.99 43.89 44.02 43.02 43.37 40.51 44.92 44.47 45.10 44.59 44.01 44.28 43.68 45.60 45.78 44.27 42.69 42.31 41.10 39.58 39.21 39.72
48.86 51.23 50.98 49.16 46.90 45.13 46.70 48.03 48.38 48.01 45.90 37.73 37.38 35.12 34.99 44.51 42.26 43.84 44.43 46.14 43.66 44.90 43.39 43.87 43.40 43.03 39.93 43.90 43.82 41.77 43.86 42.72 42.63 41.08 42.03 42.15 40.90 39.47 38.95 39.02 39.03 38.27 37.98 38.50
50.71 49.00 44.54 40.34 44.16 48.39 47.63 44.80 42.61 40.45 41.38 40.91 39.11 42.76 37.69 41.50 40.17 38.13 39.90 40.19 38.63 34.83 38.60 41.75 38.95 40.39 45.63 45.22 44.95 45.00 44.12 43.78 39.60 36.65 34.99 34.45 34.37 36.19 37.63 38.45 38.98 38.72 37.87 37.69
45.91 41.51 40.88 43.88 47.06 43.76 40.57 37.31 39.20 39.93 36.98 39.65 39.38 41.40 38.25 41.56 37.88 36.56 38.47 36.38 37.00 34.88 37.19 37.42 37.95 36.82 40.52 40.27 42.36 44.51 44.36 41.74 42.46 44.34 41.99 41.36 39.87 39.47 38.12 37.15 37.43 37.60 37.45 37.08
44.26 43.40 44.08 42.42 39.48 38.72 36.27 35.73 35.33 34.98 35.57 38.15 37.47 39.41 41.33 38.39 40.36 36.76 35.87 34.66 35.13 31.81 38.15 35.13 31.29 37.37 35.62 38.58 40.35 42.29 41.50 41.73 41.90 42.64 42.01 41.62 40.17 38.78 37.62 36.94 36.54 36.93 37.31 36.78
44.03 41.56 36.31 38.82 36.34 32.76 31.78 29.18 30.79 31.72 36.34 36.34 36.37 35.53 38.00 38.37 39.64 35.23 35.23 32.45 32.72 35.37 31.48 30.78 34.79 34.16 34.80 37.92 39.72 40.35 40.80 39.05 39.89 37.96 38.14 37.27 36.27 37.13 36.53 35.74 36.91 37.17 36.58 36.47
36.72 35.17 31.60 33.84 31.17 33.50 34.77 35.56 35.96 37.79 37.22 36.11 37.26 35.75 37.06 37.66 35.98 35.73 32.06 32.65 32.30 28.67 26.87 28.70 34.46 34.37 35.19 37.58 38.11 36.66 35.53 35.72 34.79 35.21 35.34 34.68 34.79 34.73 35.93 36.18 36.47 35.83 34.63 33.42
33.47 35.68 32.47 31.81 32.49 30.05 30.36 33.29 34.91 36.86 39.36 37.42 36.61 37.22 35.89 34.15 32.14 33.42 30.79 27.51 26.77 28.74 29.22 33.74 34.30 33.79 34.26 36.28 37.04 34.80 33.76 33.88 34.35 35.26 34.50 33.95 33.90 33.70 32.78 33.59 34.04 33.55 32.21 30.97
32.63 32.71 30.13 30.04 31.47 29.28 30.17 32.69 33.90 38.43 38.62 38.99 39.95 33.60 32.49 29.16 32.12 28.45 28.41 27.54 27.19 32.24 35.31 34.74 33.52 33.16 34.75 36.87 35.08 34.06 32.99 32.89 33.45 33.87 33.57 33.17 32.77 32.47 31.12 30.82 30.56 29.83 30.28 29.18
31.94 30.48 32.52 31.74 32.86 32.53 32.69 34.80 35.89 40.00 37.00 35.62 36.16 32.24 31.39 32.01 28.45 28.66 31.94 29.73 33.34 33.82 32.76 35.00 34.62 33.99 35.48 36.45 32.78 31.72 31.89 32.46 32.61 32.33 32.67 31.99 31.78 31.76 31.30 29.27 27.40 26.84 27.10 26.12

GFSNW_sfc_wetblb_024.txt.gz
Wetbulb
51.31 51.37 51.73 53.98 56.38 56.08 52.78 46.78 40.75 51.27 52.81 41.35 40.81 36.10 38.04 40.49 39.69 42.18 40.45 39.86 38.90 37.26 37.77 35.29 35.27 35.77 38.96 43.73 41.29 36.36 38.01 35.78 32.66 35.49 41.88 45.12 44.93 42.40 41.32 34.84 34.87 36.69 34.14 32.85
50.64 50.91 51.40 54.33 56.17 55.24 49.32 43.68 45.27 51.70 50.16 35.74 36.41 39.17 38.60 39.24 39.41 40.10 39.26 38.50 40.48 41.65 38.38 34.88 37.33 39.08 44.19 44.90 41.89 39.95 41.01 37.06 32.06 33.63 39.99 44.02 41.74 44.00 42.72 42.57 40.82 35.55 32.21 32.81
49.91 50.63 50.83 52.00 55.77 54.38 50.28 45.06 40.06 44.84 45.60 44.17 39.84 37.34 36.85 36.19 41.08 39.89 42.05 40.68 41.68 39.90 38.09 40.05 37.83 38.99 44.22 45.29 43.08 46.71 45.96 38.83 34.82 34.15 37.36 41.29 39.97 41.55 42.15 40.70 35.48 35.73 35.85 36.11
49.03 50.55 51.11 51.27 55.45 53.86 49.29 44.39 42.02 43.45 37.21 38.65 40.30 40.71 39.18 37.37 36.32 40.67 41.89 39.96 39.60 39.56 35.83 36.73 37.32 40.44 43.02 45.40 45.02 44.81 43.84 38.51 39.81 40.92 42.20 42.68 41.42 41.61 41.89 40.38 40.64 35.63 38.33 38.72
48.33 48.65 50.30 53.01 55.11 53.31 47.19 41.26 41.06 44.56 43.00 41.60 39.94 39.91 38.88 38.17 39.52 41.04 40.23 38.58 41.23 41.26 37.88 38.19 36.46 41.15 41.45 40.40 44.09 41.57 43.43 38.42 40.56 38.71 42.40 42.50 40.74 42.65 42.87 42.72 42.55 42.05 42.27 40.43
48.47 49.39 49.76 53.95 54.63 52.60 46.85 46.78 46.14 43.73 42.67 41.97 39.89 39.92 39.63 39.69 41.36 42.01 43.21 42.24 41.26 41.35 43.06 43.18 45.79 45.63 45.45 45.75 42.55 41.64 41.65 39.99 38.70 34.38 39.90 38.93 34.44 39.69 42.34 43.59 43.95 43.75 39.79 44.14
47.84 48.12 49.26 49.98 53.49 53.06 49.39 46.72 46.37 41.98 37.80 40.33 40.88 42.62 43.37 41.73 42.06 41.28 43.52 45.25 42.26 46.32 49.41 48.93 47.58 46.13 45.82 46.24 45.77 45.33 39.96 39.56 40.44 36.09 34.99 26.67 39.11 41.40 44.22 42.50 43.43 44.92 44.43 44.91
47.19 47.70 49.23 50.69 54.36 53.89 49.86 47.00 46.34 44.25 39.32 42.10 41.42 41.77 42.08 42.71 43.25 43.83 43.22 46.27 46.63 45.46 46.16 42.50 39.83 39.43 40.28 40.22 40.35 42.64 44.77 42.04 37.65 33.87 32.59 38.03 38.89 39.18 39.30 39.91 40.36 44.57 43.62 45.44
47.39 47.48 48.62 49.87 54.10 54.08 50.78 48.10 49.51 45.90 41.64 39.77 43.20 41.26 43.01 40.37 40.80 40.15 41.16 43.71 45.90 46.00 43.68 40.61 33.19 33.13 36.72 34.29 37.26 41.02 44.11 44.44 37.70 31.16 28.91 28.60 36.66 40.72 43.28 42.90 34.76 42.78 44.95 44.19
47.80 47.34 48.57 49.87 52.41 53.96 51.45 49.09 50.38 47.18 41.94 44.60 43.31 40.82 40.87 44.71 42.41 39.60 41.02 42.17 44.22 46.07 41.89 38.01 34.61 34.88 39.82 34.12 34.83 34.95 38.45 38.78 36.28 34.80 32.47 35.99 40.78 40.85 43.16 33.31 35.89 42.48 43.92 44.41
47.63 47.51 48.40 49.72 50.37 53.68 52.05 48.85 49.96 47.88 44.44 45.36 46.33 46.48 42.32 42.09 44.22 40.44 41.27 42.14 43.33 42.56 40.27 39.67 37.56 37.48 38.18 38.58 38.48 37.53 36.75 35.84 35.78 36.61 33.94 30.81 42.18 40.40 37.22 41.34 42.13 43.06 43.80 43.82
47.23 47.30 48.41 49.50 52.64 53.39 52.77 47.86 49.49 50.24 46.25 46.55 48.66 48.73 48.31 45.64 45.46 43.98 41.91 42.32 42.69 45.32 41.30 40.35 40.01 36.77 37.57 38.35 35.22 41.65 37.14 40.16 38.50 39.28 39.17 42.26 42.88 42.39 42.67 45.04 43.42 43.34 42.48 42.84
47.05 47.17 48.32 49.17 51.33 53.48 52.43 48.62 49.00 48.41 45.51 45.51 46.36 45.24 48.31 49.27 48.21 48.22 43.02 43.24 45.25 43.30 44.26 42.94 40.33 37.03 39.21 34.08 35.58 36.73 40.59 41.60 37.79 38.69 38.48 40.18 41.94 41.45 42.10 44.05 43.52 43.63 43.38 43.08
46.87 47.31 48.16 48.85 50.04 53.17 52.66 48.64 49.30 49.25 47.43 42.34 44.04 49.18 46.80 49.73 48.89 47.58 47.72 47.61 47.07 45.93 46.11 43.61 41.66 40.56 39.69 39.81 39.52 38.02 39.17 39.45 38.61 36.83 38.56 40.16 40.68 42.00 43.20 43.23 43.62 43.20 43.21 42.87
46.36 46.70 47.53 48.20 49.90 52.78 52.60 51.48 50.11 51.41 47.74 43.12 43.45 47.38 47.50 48.47 48.25 46.55 46.49 47.24 45.78 45.20 43.33 42.69 41.59 42.02 40.18 39.51 38.69 37.40 39.66 39.12 37.28 37.68 42.30 41.28 40.26 42.77 43.64 42.38 41.91 42.16 41.83 40.72
45.88 46.35 47.40 48.12 50.66 52.39 50.24 45.60 50.41 51.05 50.62 45.47 39.92 46.72 45.78 46.59 47.24 46.20 45.77 45.66 45.82 45.60 45.00 43.99 42.77 42.89 41.39 36.71 36.79 43.30 42.26 43.54 43.82 41.77 42.95 43.19 43.27 43.08 43.19 41.81 41.58 41.59 40.75 40.67
45.73 46.25 47.42 48.41 51.78 51.29 47.05 44.84 48.42 51.61 51.13 44.27 38.72 40.09 45.20 46.27 46.91 46.09 45.67 46.49 45.58 45.84 43.38 42.44 42.17 40.71 40.88 39.53 38.34 43.21 42.58 42.12 42.32 43.46 43.43 40.36 41.14 39.86 41.78 41.79 41.87 42.22 39.89 39.27
45.58 46.51 47.99 49.29 51.62 50.14 47.43 48.71 50.55 50.79 46.58 44.39 36.06 36.96 40.94 45.24 44.07 42.42 45.18 44.43 45.02 43.69 42.79 41.31 40.84 39.70 40.08 37.64 42.17 41.49 42.15 41.36 40.80 40.52 41.04 41.66 41.68 40.82 39.09 38.42 38.11 36.54 36.31 36.92
45.99 47.69 48.68 49.38 47.47 44.89 46.27 48.75 48.71 47.99 45.79 38.19 36.90 34.47 34.49 44.26 41.93 43.21 42.99 43.49 41.78 42.52 41.38 41.09 40.85 39.95 35.01 40.71 42.00 40.34 40.54 39.41 38.84 37.75 38.54 39.15 38.10 36.86 36.04 35.91 35.21 35.16 34.94 35.17
47.67 47.32 44.99 40.23 44.25 48.56 47.93 45.13 42.52 40.24 40.75 40.96 38.08 41.58 37.18 40.88 40.18 37.95 39.72 39.08 37.31 34.04 38.08 39.08 38.33 36.82 42.79 42.89 42.40 41.04 40.98 39.10 38.51 35.71 34.19 35.24 34.19 34.54 35.28 34.94 35.01 35.24 34.55 34.41
45.93 42.22 39.67 44.35 48.03 44.46 41.66 37.01 36.96 38.37 35.19 38.99 39.40 40.44 37.62 41.09 37.29 36.38 38.22 35.11 34.50 33.29 34.72 36.22 34.97 34.32 38.34 37.60 39.16 40.77 39.68 39.02 38.67 38.92 37.40 37.65 37.41 36.26 34.43 33.80 34.44 34.43 34.24 33.66
44.72 43.15 43.71 42.75 39.85 37.67 34.88 33.73 33.84 34.46 33.09 37.72 37.71 39.03 39.60 38.07 39.87 36.25 35.85 33.41 31.80 31.14 35.31 32.86 30.65 33.13 32.64 35.87 36.16 39.06 38.47 39.09 39.54 40.32 38.83 38.27 36.84 35.39 34.76 34.14 33.68 33.94 34.04 33.91
44.11 40.96 36.18 38.26 35.23 32.11 30.64 28.80 31.31 31.36 35.57 35.35 35.26 34.46 36.26 37.16 37.50 33.75 31.85 27.63 26.99 32.55 30.78 29.75 29.80 29.63 32.77 34.62 37.10 37.09 37.87 39.65 39.04 38.36 37.42 35.88 34.10 34.28 34.25 33.40 34.02 34.05 33.17 32.93
37.02 35.08 31.66 33.60 31.33 30.89 31.23 31.03 31.67 33.56 35.81 35.88 35.36 33.77 34.79 35.18 32.88 33.32 23.72 29.28 29.15 24.23 22.97 24.09 29.22 29.76 33.08 34.56 34.40 33.57 32.72 34.97 34.51 34.14 34.13 33.49 33.27 32.75 33.37 33.32 33.25 32.30 30.95 30.13
32.37 34.26 32.07 31.52 31.64 30.36 31.22 33.38 33.06 35.69 38.33 36.09 34.54 32.89 32.52 30.93 31.20 29.53 28.70 26.69 21.94 24.98 24.39 27.80 27.93 28.34 31.32 32.96 32.45 33.68 33.18 33.39 33.32 33.60 32.79 32.05 31.49 30.91 29.89 29.88 29.79 29.24 27.42 26.63
32.00 32.53 30.32 30.76 31.20 28.57 30.44 32.49 33.44 36.95 37.94 35.42 34.64 30.74 24.12 26.59 26.99 24.33 19.87 20.46 20.34 25.07 27.85 26.65 26.85 30.93 33.05 30.64 31.08 31.92 33.26 33.15 32.65 32.40 31.48 30.23 29.03 27.72 26.53 26.18 26.04 26.59 26.04 24.95
31.76 30.01 31.97 31.86 31.63 30.13 31.35 33.90 35.26 39.53 36.59 32.63 30.40 25.02 23.03 30.38 25.78 20.77 25.37 23.29 25.98 25.83 25.24 26.24 26.63 29.18 30.84 30.20 30.83 31.60 31.67 31.52 31.39 30.53 28.86 28.01 27.35 27.19 25.48 23.49 22.82 23.05 22.59 22.06

GFSNW_sfc_wetblb_027.txt.gz
Wetbulb
49.53 49.81 50.80 50.65 51.38 52.10 53.78 47.82 40.90 51.28 51.66 40.00 39.88 35.90 37.81 41.06 40.01 42.50 40.33 39.55 38.23 36.72 36.53 34.11 32.47 33.29 37.53 42.56 41.07 35.56 38.25 35.71 30.33 33.31 41.29 42.96 41.54 38.33 37.81 30.22 31.89 34.83 31.18 30.98
49.20 49.19 50.17 50.54 51.31 51.84 49.69 44.59 45.09 51.15 49.19 35.34 35.98 39.38 38.97 40.01 39.18 39.32 38.50 38.06 39.35 40.06 36.81 34.49 34.99 36.13 42.49 43.06 40.35 37.26 38.68 33.53 31.01 33.00 37.86 41.66 38.16 39.71 39.87 39.27 40.03 35.89 29.72 30.96
49.19 49.01 49.45 50.29 50.61 51.18 50.72 44.87 39.11 44.76 45.90 44.05 39.12 37.36 37.45 37.08 40.80 39.42 40.42 39.67 40.93 39.76 36.41 38.37 35.94 35.89 41.44 42.26 42.06 44.33 41.31 36.82 33.33 32.98 36.44 38.10 35.44 39.70 42.30 41.01 35.77 35.27 34.08 35.08
49.00 48.70 48.84 50.24 50.47 52.48 49.29 45.15 41.46 42.32 36.99 39.00 40.03 39.92 39.01 36.87 35.35 39.50 40.94 37.58 39.86 38.44 34.97 35.68 35.21 39.16 40.69 42.44 44.18 43.53 42.48 34.94 38.07 38.73 38.65 40.62 40.53 40.86 40.98 39.36 40.31 37.00 36.04 37.21
48.91 48.20 48.39 49.51 49.97 54.09 47.76 41.73 41.72 43.30 40.30 40.90 39.66 39.77 38.81 38.20 38.63 39.00 37.90 37.25 39.60 39.49 36.82 36.47 33.35 39.00 40.23 39.97 42.13 41.01 42.42 35.67 38.63 38.31 42.18 41.13 39.53 41.78 41.51 41.71 41.66 41.09 40.20 38.19
48.28 48.27 48.21 49.98 49.97 52.46 47.02 46.21 46.38 44.77 42.54 40.01 38.77 38.25 38.77 39.05 40.66 41.07 42.16 40.85 40.56 39.50 39.60 42.25 42.42 43.24 43.32 43.51 41.10 38.66 39.54 38.44 38.75 32.66 39.61 39.67 35.05 39.60 40.55 40.82 41.15 41.72 37.90 41.29
47.90 48.67 48.20 49.39 49.70 52.45 48.98 47.04 45.98 41.60 38.63 40.79 40.08 41.31 41.25 40.42 41.50 39.58 42.42 42.89 41.43 43.96 46.68 47.57 43.87 45.12 44.26 45.45 44.17 43.59 38.34 38.55 39.43 34.27 33.83 27.40 38.58 40.38 43.63 43.07 43.45 43.00 43.38 44.60
47.68 48.58 48.07 49.17 49.58 53.57 49.04 46.73 46.86 43.46 38.55 41.11 40.94 41.12 40.91 42.50 42.88 41.39 41.64 44.65 46.09 44.23 43.45 39.93 37.49 39.13 39.83 39.79 39.01 42.88 41.87 40.15 36.83 30.84 29.95 34.96 37.21 38.35 38.03 38.56 38.62 42.46 44.22 43.27
47.27 48.23 47.97 48.61 49.53 51.67 49.84 47.70 49.57 46.20 41.56 40.19 42.53 39.53 41.77 38.86 39.38 39.85 42.22 44.02 46.56 45.34 42.49 39.54 32.99 32.83 36.27 35.50 37.51 42.19 42.51 42.72 37.31 28.51 27.31 27.45 35.06 39.42 40.76 40.56 33.77 40.28 40.42 41.50
47.08 47.91 47.56 48.60 49.38 51.49 51.02 48.47 50.16 47.03 41.55 44.18 44.33 39.56 39.97 44.54 42.77 39.86 40.96 42.26 43.12 45.48 41.12 37.34 33.23 33.49 39.12 32.18 33.69 36.06 37.20 38.68 35.77 32.80 31.31 33.95 40.20 40.24 41.59 32.04 34.10 40.82 40.92 42.08
46.91 47.72 47.46 48.21 49.31 50.58 51.63 48.38 50.34 47.87 43.80 45.06 46.35 45.88 41.72 42.08 43.64 39.81 41.90 41.86 43.11 42.41 38.92 37.92 34.87 36.11 37.96 36.52 35.03 34.50 36.27 36.04 35.58 34.14 32.88 28.66 40.44 38.57 35.09 38.85 40.21 40.90 40.22 40.15
46.47 47.28 47.72 48.24 49.27 50.25 52.41 47.06 49.87 50.63 46.05 45.73 48.88 48.14 48.00 45.79 45.75 44.98 42.04 41.82 42.32 44.38 41.11 40.79 38.70 35.86 38.63 38.85 34.62 37.74 34.47 38.23 38.27 37.92 37.29 41.64 40.43 40.33 41.72 43.19 41.74 40.11 39.89 40.19
46.23 47.03 47.45 48.01 48.93 50.36 52.66 48.07 48.87 48.27 45.14 45.02 45.61 44.94 47.26 48.45 47.37 48.90 42.98 43.58 45.22 42.92 44.60 40.98 39.38 35.92 37.47 34.76 35.90 34.74 38.99 42.41 38.58 38.47 40.03 39.03 40.51 40.05 41.54 42.38 41.33 41.20 41.43 40.71
46.36 46.98 47.13 47.61 48.60 49.75 51.67 48.45 49.42 48.92 46.49 41.18 42.65 48.01 45.60 48.56 47.76 47.50 47.99 47.75 47.35 45.74 46.31 43.67 40.97 38.52 38.98 38.26 37.93 37.06 38.82 39.79 38.21 36.68 36.79 37.93 39.00 40.23 41.64 41.59 42.03 41.58 41.71 41.32
46.12 46.36 46.66 47.30 48.35 49.31 52.02 50.52 49.76 51.17 47.10 42.16 42.67 45.70 46.28 47.29 46.88 46.06 46.74 48.08 46.61 45.51 43.61 42.51 41.46 42.77 41.33 39.51 37.64 35.84 38.32 38.12 37.53 36.84 40.73 40.07 39.78 41.54 42.47 41.98 41.44 41.39 40.48 39.31
45.59 45.93 46.04 46.98 47.87 48.77 50.33 45.16 50.01 50.57 50.64 44.31 39.36 46.12 44.83 45.56 45.84 45.32 44.14 46.19 46.13 45.69 44.81 43.75 43.73 43.64 40.55 35.61 35.19 40.10 40.05 41.13 42.46 41.29 41.63 41.20 41.38 41.41 41.44 40.71 40.23 40.74 40.47 40.53
45.61 45.76 46.09 46.86 47.84 48.99 46.32 44.18 48.02 51.35 51.17 44.23 37.48 39.43 44.60 46.16 45.98 45.17 44.51 45.39 45.07 45.24 43.26 42.31 41.84 40.21 40.38 38.63 37.45 42.07 40.45 41.21 41.59 42.10 42.69 39.75 40.14 38.95 40.79 40.87 40.47 40.56 38.85 38.86
45.17 45.43 45.94 47.66 48.47 50.03 46.84 48.63 50.40 51.47 47.13 44.61 35.29 36.64 39.72 44.87 43.11 41.07 44.36 42.11 42.54 42.90 42.30 41.28 40.56 39.19 39.64 36.99 40.46 39.65 40.04 40.05 39.78 40.04 40.71 41.28 40.26 39.33 38.34 38.57 38.14 36.72 36.27 36.32
45.01 45.54 46.35 47.04 47.46 45.25 46.12 49.02 48.78 48.47 46.05 38.80 36.77 34.44 34.55 43.71 41.66 42.87 42.68 42.95 39.41 40.73 39.73 40.34 40.31 38.45 34.96 38.97 40.94 38.97 39.29 39.80 38.13 37.29 38.45 38.67 37.45 36.33 35.70 35.58 35.71 35.24 34.47 34.25
44.66 45.37 43.24 40.55 44.87 48.66 48.62 46.30 43.02 40.34 41.08 41.19 38.08 41.33 37.22 40.84 39.69 37.57 39.37 39.33 37.14 33.74 37.63 39.10 36.92 36.95 41.02 40.54 40.34 40.32 39.49 38.69 38.43 36.36 33.64 34.55 34.35 35.09 34.84 34.53 34.68 35.25 35.08 34.60
44.58 41.74 39.90 44.69 48.51 44.54 41.94 37.13 36.69 38.13 34.81 39.24 39.75 39.97 37.54 40.97 37.27 36.46 36.45 33.63 33.63 32.81 34.15 35.19 33.64 34.55 37.63 36.00 37.59 38.16 37.90 38.03 38.04 38.03 37.33 38.09 37.44 35.69 33.47 33.06 33.73 34.98 34.72 33.78
43.78 43.30 43.94 43.70 39.92 37.04 35.18 34.18 34.14 35.10 34.57 37.34 38.10 38.62 40.32 38.71 40.49 36.95 36.40 33.53 31.57 30.80 34.22 32.59 30.09 33.10 32.42 34.36 34.76 35.38 36.86 37.64 37.12 37.93 37.29 36.90 34.64 34.18 33.86 33.36 33.09 33.96 33.50 32.54
43.93 40.61 35.95 37.85 34.63 31.58 30.49 29.88 31.24 31.70 35.39 35.68 35.97 34.56 36.34 37.00 37.60 33.60 30.71 26.02 27.34 31.08 28.73 28.04 29.21 29.73 32.25 33.49 35.26 35.74 36.61 37.51 37.86 38.29 37.40 35.79 34.49 34.42 34.10 33.55 34.07 33.06 32.09 31.20
35.78 32.03 30.52 32.13 29.87 31.97 31.85 32.46 30.38 31.60 32.72 34.84 36.06 34.56 34.81 35.14 33.39 31.53 22.17 29.16 28.36 23.20 22.09 22.71 25.30 27.84 31.83 32.46 32.30 33.41 32.56 35.59 34.99 34.66 34.65 33.94 33.77 32.74 33.48 32.76 32.37 31.85 30.67 29.34
32.25 31.94 30.87 31.36 29.25 29.68 30.80 31.50 33.94 33.16 37.60 35.95 34.04 32.28 30.40 32.14 31.11 30.20 27.97 25.97 22.19 23.66 23.67 26.12 24.53 26.22 28.20 30.21 30.12 31.67 33.31 33.50 33.38 33.83 33.21 32.80 32.58 31.23 29.57 29.80 29.53 28.94 27.03 25.97
32.01 31.88 29.63 31.04 29.68 27.68 29.87 32.20 32.80 35.48 36.70 33.26 32.58 30.06 21.35 25.75 25.51 23.45 17.17 19.08 19.25 25.00 26.13 23.61 24.35 29.87 29.51 29.21 30.48 31.62 33.25 32.91 32.67 32.57 31.74 30.94 29.92 28.74 26.59 26.10 25.63 24.87 24.40 23.24
31.25 28.36 31.05 30.58 28.12 25.69 30.85 33.28 35.21 38.80 34.16 30.17 27.30 22.11 22.05 24.12 17.56 16.93 21.04 20.79 24.87 30.70 21.74 22.93 24.00 27.34 27.97 28.58 30.53 31.65 31.66 31.32 31.12 30.31 28.58 26.84 26.11 25.26 24.06 21.59 20.83 21.73 21.59 21.96

GFSNW_sfc_wetblb_030.txt.gz
Wetbulb
48.97 48.67 50.15 50.05 50.94 51.00 50.13 47.07 37.57 49.97 50.91 40.05 38.87 35.23 37.79 40.82 38.83 42.19 40.06 39.45 38.34 37.09 37.24 35.31 31.09 31.35 34.92 40.24 39.48 34.09 37.15 35.00 28.84 30.71 37.51 38.17 35.80 33.20 33.22 26.94 24.58 30.29 29.71 29.54
49.07 48.67 49.73 49.15 50.38 50.62 46.67 44.25 43.84 49.91 48.70 33.06 34.80 38.71 38.26 40.10 39.17 39.49 38.72 37.97 39.04 39.72 36.45 34.27 33.71 35.10 40.43 41.91 39.65 37.20 38.16 33.48 27.45 31.35 33.73 38.81 33.53 36.48 35.79 36.05 35.67 29.07 27.53 29.56
48.67 48.60 49.69 49.05 49.61 50.18 47.30 44.30 38.11 43.70 45.11 43.34 38.59 36.44 36.51 36.77 41.55 40.14 40.26 38.63 39.90 38.35 36.66 37.81 35.27 35.12 39.45 42.06 41.60 43.43 40.99 35.10 31.65 29.56 34.08 37.74 35.06 35.19 37.34 35.03 30.16 29.41 31.65 34.44
47.80 48.70 49.25 48.96 50.49 50.20 48.28 44.68 40.29 42.43 36.06 38.24 39.38 39.22 39.20 36.75 36.76 39.88 40.65 37.25 37.91 37.50 35.02 34.54 34.35 37.26 38.87 41.57 43.53 42.07 39.11 33.38 33.41 34.08 35.28 37.15 37.99 37.50 38.03 34.92 35.35 30.97 33.18 35.32
47.35 48.41 48.94 48.84 50.08 50.81 47.30 42.19 41.39 42.11 39.50 41.02 39.76 39.25 37.82 37.50 38.19 38.15 36.39 36.09 38.24 39.12 36.89 35.78 32.09 36.19 37.86 39.03 40.71 40.02 41.41 33.27 34.49 34.64 40.61 38.39 37.64 39.03 39.03 38.70 37.56 34.68 40.58 40.10
46.75 48.60 49.02 48.77 49.78 49.70 46.60 46.11 44.96 43.09 40.48 39.85 38.08 38.61 38.48 39.00 40.96 41.01 41.38 39.37 38.56 38.54 39.60 41.33 41.39 41.40 41.74 42.69 41.10 38.48 38.62 36.49 34.52 34.03 38.77 38.28 34.57 35.43 40.46 37.82 41.94 42.95 39.37 41.36
46.40 47.77 48.70 48.73 49.63 49.33 48.84 47.03 44.44 42.73 38.18 39.41 39.00 40.21 40.33 39.52 40.23 39.43 41.69 42.53 40.66 43.25 46.67 44.29 42.18 41.36 41.67 41.68 42.38 42.78 38.01 36.54 38.61 34.64 33.69 27.20 37.48 39.57 43.76 42.58 43.39 43.90 42.90 41.28
45.89 47.18 48.38 48.56 49.05 50.04 49.54 47.48 45.97 43.30 38.98 41.63 40.93 41.13 40.77 40.93 42.22 41.14 41.75 42.95 45.11 46.57 44.17 38.75 37.07 34.48 37.02 37.23 38.28 42.59 43.39 37.31 37.10 31.56 28.49 33.80 37.10 37.57 37.52 39.83 39.40 42.27 42.82 40.84
45.73 46.97 47.86 48.36 48.86 49.70 49.86 47.79 49.29 46.32 41.81 39.91 43.10 41.00 41.50 39.20 38.58 38.94 41.63 44.71 46.26 44.94 42.10 39.27 31.24 30.39 35.78 34.39 37.06 39.74 40.93 40.37 38.55 29.06 25.87 26.70 34.02 37.67 39.60 38.91 33.15 39.01 40.32 40.05
45.36 46.60 48.28 48.36 48.78 49.36 49.35 48.59 49.64 46.73 41.96 44.10 44.49 40.47 40.53 42.75 41.37 38.72 41.30 42.08 42.90 45.18 40.59 36.84 32.75 34.17 38.22 33.45 33.09 34.11 37.41 35.67 33.86 30.84 29.90 32.97 39.24 38.65 39.79 31.40 32.95 39.37 39.75 40.74
45.20 46.14 47.59 48.04 48.03 49.16 49.33 48.57 50.11 47.26 43.70 44.76 46.14 45.82 41.62 43.11 42.46 37.85 41.44 42.14 43.07 41.83 37.38 38.13 34.64 32.78 38.06 32.98 33.13 37.40 35.41 33.31 34.26 35.32 28.93 26.85 40.08 38.57 34.90 37.86 39.24 39.55 39.17 39.06
44.78 45.88 47.30 47.82 47.85 49.09 49.62 47.10 49.89 51.10 46.24 45.20 49.16 48.53 48.20 46.99 45.94 43.90 42.81 41.72 42.82 43.91 40.13 38.07 39.07 36.38 37.82 38.16 30.71 34.65 34.84 37.09 36.47 35.55 35.41 39.76 39.48 39.32 41.01 41.59 40.44 38.89 38.50 39.74
44.60 46.02 47.35 47.53 47.72 49.05 49.58 48.06 49.16 48.49 45.15 44.97 45.10 43.89 47.92 48.57 47.92 50.14 42.67 43.47 45.35 43.92 43.52 40.06 38.27 34.88 35.95 33.65 34.69 32.82 36.68 40.43 37.75 38.25 40.34 38.55 38.75 40.07 41.54 41.26 39.91 39.47 39.80 39.90
44.74 46.25 46.90 46.99 47.04 48.25 49.22 48.47 49.54 48.57 45.88 40.75 42.76 47.52 45.27 48.61 47.80 48.80 49.00 47.93 47.55 46.19 46.09 42.53 40.47 37.64 37.80 35.65 36.40 36.57 38.55 39.49 37.10 36.56 36.79 37.44 38.57 39.26 40.37 40.21 40.54 39.83 39.55 39.47
44.50 45.76 46.45 46.63 46.94 47.82 48.39 50.09 49.76 51.04 46.62 41.57 43.07 45.48 46.07 47.06 46.63 45.57 46.89 47.61 46.89 45.76 43.25 42.50 40.31 41.41 39.74 38.64 36.88 35.38 38.08 38.74 38.52 37.75 41.09 40.03 39.25 40.81 41.64 40.83 40.12 40.05 38.81 37.64
45.28 45.50 45.77 46.08 46.75 47.61 47.08 44.91 49.72 50.45 50.61 43.67 39.22 46.00 44.75 44.99 45.69 44.90 44.70 46.14 46.58 45.67 44.47 43.38 43.71 43.56 41.78 37.35 37.11 40.77 40.92 41.65 43.73 42.21 41.84 40.38 41.07 41.04 41.22 40.12 39.81 39.95 39.09 38.80
45.08 45.16 45.44 45.86 46.62 46.71 45.58 44.01 46.67 50.94 50.70 44.33 37.46 39.51 44.50 46.04 44.70 44.04 43.33 44.94 45.07 45.35 43.74 42.75 42.35 41.35 41.77 38.12 36.53 41.47 39.64 40.66 41.05 42.12 42.39 39.73 40.02 38.67 40.01 40.28 40.03 40.27 38.80 38.59
45.05 45.27 45.59 46.15 46.97 47.60 46.16 48.98 50.54 51.17 47.05 44.84 35.17 36.63 39.99 44.80 42.76 40.55 44.24 42.34 42.74 42.58 42.62 41.16 40.97 39.62 39.42 35.90 39.87 38.67 39.52 39.89 40.07 40.14 40.06 41.04 39.93 39.37 38.28 39.02 38.71 37.01 36.19 35.98
44.92 45.08 45.53 45.72 45.13 44.78 46.09 49.42 49.42 48.33 46.05 38.96 36.94 34.34 34.18 43.68 41.88 42.47 41.85 42.81 38.44 40.26 38.33 39.41 39.38 38.10 35.09 39.01 40.06 38.74 39.09 39.65 37.30 37.01 37.90 38.71 37.43 36.16 36.16 36.14 36.00 35.49 34.49 34.48
44.96 43.58 42.39 39.36 45.06 48.90 48.70 46.34 43.14 40.96 41.45 41.32 38.21 41.24 37.58 40.74 39.71 37.83 39.35 38.43 37.28 33.70 36.88 39.09 37.30 36.02 40.88 41.59 40.14 39.15 38.96 38.31 38.41 36.13 33.25 34.03 33.85 34.92 34.98 35.21 35.79 35.70 34.34 33.87
43.65 40.32 39.75 44.86 48.77 45.19 42.42 37.86 36.95 38.17 35.06 39.49 39.95 40.00 37.83 40.68 37.17 36.65 37.81 33.90 33.95 32.55 34.46 35.66 33.26 33.08 35.54 34.67 36.19 37.86 38.09 38.38 38.29 39.14 38.41 38.39 37.73 35.43 33.47 33.36 33.67 33.90 34.68 33.75
39.49 39.11 41.94 44.12 40.49 37.06 35.32 34.40 34.38 35.01 34.05 37.70 38.66 38.96 39.71 38.90 40.56 37.97 36.30 32.84 33.45 31.06 33.93 33.24 30.64 31.34 31.06 33.46 34.31 34.40 36.32 36.91 36.52 37.23 36.68 35.82 34.52 34.60 33.79 33.13 32.74 34.06 33.31 32.14
42.35 40.18 35.88 37.36 34.89 32.95 31.60 30.02 31.13 32.58 35.27 36.14 36.01 34.70 36.85 38.08 38.30 34.28 33.26 32.50 31.50 30.85 29.27 28.38 29.52 28.68 31.02 31.83 33.87 34.48 35.56 36.12 36.11 35.41 34.79 34.55 33.89 35.08 34.64 33.06 34.18 33.74 31.82 30.58
35.37 31.84 30.49 31.95 31.14 32.94 32.55 32.27 32.36 32.48 33.16 36.04 36.77 34.58 34.96 35.46 33.14 32.65 21.01 29.85 28.14 20.28 22.39 25.06 25.61 28.58 31.79 32.15 32.78 34.07 33.55 34.79 33.85 33.94 34.54 34.23 33.92 32.99 33.61 33.57 33.75 32.42 30.16 27.78
32.13 31.68 29.70 31.44 31.15 30.28 30.17 30.00 33.27 33.80 37.29 36.26 34.08 33.23 33.91 32.22 30.99 30.36 28.70 25.91 20.96 24.34 25.59 25.09 21.49 25.70 25.66 28.98 30.11 31.09 32.37 33.49 33.67 34.43 33.73 32.82 32.69 31.42 30.11 30.71 30.34 29.31 27.93 26.94
31.87 31.68 29.07 31.19 30.44 29.41 30.54 32.26 32.87 34.96 36.30 34.09 34.03 30.53 29.93 29.68 29.68 21.47 20.63 19.92 20.34 26.23 26.66 21.90 22.46 27.78 28.00 28.69 30.22 31.08 33.08 33.62 33.47 33.01 32.22 32.08 31.18 30.05 26.70 26.11 25.52 24.99 24.99 23.67
30.92 27.63 29.74 29.98 30.41 26.02 31.11 33.28 35.39 37.96 34.36 32.77 25.38 25.85 22.93 22.96 16.65 18.16 20.38 21.41 24.87 21.26 21.97 20.54 22.88 26.49 27.94 28.73 29.87 30.71 31.25 30.92 31.59 30.97 29.18 27.09 26.51 26.33 25.15 22.23 21.16 21.71 21.44 21.72

GFSNW_sfc_wetblb_033.txt.gz
Wetbulb
46.78 47.95 49.08 49.78 50.17 50.88 49.01 44.08 35.51 50.05 50.90 35.49 38.23 34.98 36.64 40.05 39.27 40.62 38.95 38.94 37.23 35.73 35.84 34.64 30.95 30.34 33.32 38.20 37.60 33.36 35.65 33.83 27.82 29.57 36.43 38.48 36.14 32.83 32.78 25.34 20.83 25.67 27.41 26.87
46.75 48.01 48.70 49.85 49.79 50.02 45.81 38.70 42.41 49.72 46.73 31.74 32.88 38.22 37.77 40.06 38.33 38.39 37.53 36.97 38.76 39.84 36.78 34.65 34.26 33.67 38.56 39.23 37.30 34.93 37.25 32.43 26.41 28.64 33.27 35.85 33.75 34.86 34.41 32.78 30.52 24.65 21.47 25.47
46.28 47.46 48.42 49.28 49.54 50.37 46.24 39.73 34.19 42.68 42.10 41.86 37.03 36.36 36.30 36.06 40.57 39.85 40.34 38.72 39.83 38.09 36.59 38.13 34.34 35.06 38.59 39.70 39.48 43.00 40.62 34.91 30.63 26.81 31.08 34.23 32.27 33.69 33.90 31.74 27.08 28.03 28.25 30.75
46.16 47.16 48.05 48.85 49.46 50.18 47.33 40.96 36.66 39.72 33.25 36.25 37.80 37.91 36.63 35.23 36.30 40.29 41.26 38.13 38.06 36.95 34.91 35.16 34.66 35.99 37.32 40.11 42.35 41.37 39.02 31.58 33.82 34.12 34.90 35.57 35.01 33.01 33.14 30.96 31.57 28.75 31.49 31.66
46.57 46.52 48.19 49.10 49.37 49.78 44.85 39.67 40.91 42.38 38.85 40.41 38.62 37.30 36.62 36.44 37.82 38.33 36.97 37.05 37.29 37.99 36.14 35.85 32.20 35.60 35.96 36.16 40.81 39.79 40.44 32.73 33.86 31.89 36.11 35.42 34.54 35.59 34.27 35.14 33.59 34.60 35.97 34.99
46.12 46.08 48.18 49.14 48.86 49.07 44.45 45.13 46.18 42.87 40.79 39.12 37.96 37.86 38.21 37.85 40.47 40.72 40.65 39.05 38.30 37.70 38.96 41.31 41.31 40.39 40.37 40.05 38.88 38.24 37.17 34.65 33.49 31.37 35.88 36.30 32.43 36.39 34.63 36.23 37.20 35.90 33.36 37.80
45.79 45.89 47.23 48.39 49.17 48.76 46.78 46.03 45.39 41.80 37.16 38.85 38.28 40.23 39.73 39.14 40.73 39.26 41.38 42.04 39.51 42.24 46.29 45.48 43.70 42.07 40.59 40.27 39.90 42.14 37.42 36.70 35.31 33.05 33.72 27.69 36.87 41.82 40.41 38.32 39.50 40.58 40.35 41.31
45.16 45.66 46.72 47.72 49.03 49.30 46.60 48.19 45.48 40.27 38.55 39.43 39.41 39.83 40.27 40.94 41.69 40.82 41.12 42.87 44.25 46.17 43.92 39.18 34.82 32.28 34.40 36.57 39.17 40.66 41.48 39.03 35.85 33.25 27.77 33.23 35.41 38.90 38.18 36.58 36.29 41.42 41.11 42.24
44.85 45.36 46.41 47.50 48.79 48.88 47.47 48.09 48.79 44.48 38.53 39.78 43.30 40.75 41.68 39.40 39.35 39.13 41.81 45.17 46.50 45.05 41.45 38.11 30.82 28.20 31.27 33.82 36.72 39.41 40.61 41.40 36.69 32.66 26.27 26.12 34.10 37.29 40.12 40.31 34.90 42.51 43.47 41.76
45.14 45.05 45.97 47.40 48.44 48.71 47.88 48.81 49.42 46.34 40.09 43.63 43.32 39.65 40.75 42.75 40.79 38.24 40.59 42.02 42.95 44.50 38.47 35.95 32.31 31.24 37.27 31.45 32.51 34.14 36.81 36.49 34.26 30.84 30.77 32.22 37.67 39.62 38.94 30.33 32.47 39.27 39.60 40.21
45.39 44.86 45.66 47.68 48.03 48.24 48.06 47.54 49.88 47.72 42.65 43.96 46.13 45.85 42.10 42.75 41.94 37.39 40.51 40.71 42.64 41.00 36.68 36.92 32.32 31.02 35.56 31.83 32.68 36.05 35.52 31.82 32.05 34.37 29.07 25.32 38.93 38.18 34.22 37.36 38.16 38.58 38.30 38.85
45.22 44.55 45.82 47.40 47.63 47.81 48.84 47.11 49.97 50.96 45.19 44.95 48.97 48.88 48.33 47.34 46.56 43.73 42.87 41.57 42.26 43.12 38.23 37.80 37.52 33.52 34.36 34.30 30.07 34.08 33.15 35.77 33.99 35.19 34.06 39.19 38.89 39.05 40.51 40.99 40.29 37.91 38.12 39.11
44.22 44.80 45.38 46.92 47.43 47.75 48.06 46.89 49.30 48.20 45.16 44.73 44.68 44.39 48.69 49.79 48.96 50.11 41.16 43.42 45.13 44.22 42.99 40.31 39.75 34.71 35.71 32.60 34.30 32.40 36.28 39.20 36.70 37.49 37.44 37.51 38.84 39.97 41.06 40.70 39.11 38.78 39.52 39.16
44.89 45.76 46.26 46.51 46.88 46.98 48.25 46.17 49.54 48.50 45.39 39.98 41.84 48.18 45.50 48.39 49.01 48.87 49.07 47.16 47.97 46.59 45.44 42.62 39.11 35.99 37.21 34.62 35.60 35.37 37.28 38.42 36.86 35.97 37.47 38.99 38.49 38.75 39.88 38.97 39.20 38.90 38.64 38.80
45.27 45.67 45.75 45.92 46.20 46.81 47.23 47.27 49.00 50.40 46.07 41.31 42.26 46.38 46.39 47.35 47.21 46.84 47.81 46.73 45.88 45.66 43.45 41.38 39.42 41.07 38.63 36.86 35.75 34.26 37.29 38.29 37.39 37.71 40.70 39.65 38.50 40.49 40.86 39.89 39.14 38.97 38.09 36.83
44.54 45.27 45.71 45.83 46.10 46.69 45.54 45.05 48.71 49.45 50.16 43.35 38.28 46.32 44.59 44.58 45.64 44.54 44.56 45.23 45.88 45.48 44.52 43.12 43.46 42.87 41.69 37.73 37.33 41.60 40.02 40.52 43.52 42.49 41.57 39.89 39.89 40.40 40.77 39.91 39.27 39.02 37.75 37.67
44.23 44.67 45.44 45.59 45.92 45.41 42.88 43.00 45.93 50.35 50.17 44.12 37.81 39.62 44.31 45.28 44.17 43.77 43.32 44.94 44.66 45.28 43.66 42.74 42.31 41.46 41.98 38.84 36.25 40.73 39.41 40.55 40.63 40.81 41.02 39.20 39.17 38.48 39.89 39.95 39.41 39.05 36.88 36.47
43.97 44.78 45.39 45.64 45.94 46.20 44.51 48.12 49.98 50.06 46.52 44.90 35.43 36.58 40.03 44.62 42.62 41.68 43.53 42.69 43.51 43.06 42.88 41.88 41.19 40.26 39.89 36.29 39.12 40.19 38.37 38.88 39.10 38.99 39.75 40.84 39.78 39.33 38.49 38.85 38.07 36.04 35.05 34.80
44.55 45.31 45.48 44.74 44.31 42.87 46.13 49.90 49.75 48.06 45.79 38.94 37.06 34.22 33.47 43.52 42.08 42.57 42.36 42.53 38.14 40.07 38.67 39.87 39.92 38.53 34.75 38.77 39.25 38.12 38.50 39.53 37.33 36.67 37.52 38.10 37.66 36.83 36.65 36.34 35.91 34.97 33.83 33.51
45.21 42.88 41.88 38.73 44.28 49.34 49.04 46.48 43.74 40.43 41.40 41.60 38.28 40.06 37.59 39.99 39.95 37.87 39.37 38.44 37.25 33.48 36.98 37.54 36.41 35.30 39.64 40.79 40.70 39.71 39.52 38.07 37.87 36.23 33.22 34.16 34.20 35.16 35.14 35.74 35.79 35.73 34.61 33.02
40.82 39.61 38.22 42.01 48.86 45.45 42.77 37.45 36.76 38.16 35.11 39.84 37.87 40.33 37.89 40.38 36.95 36.52 36.86 33.88 33.84 30.58 32.04 35.70 31.53 32.69 34.48 34.33 36.18 37.79 38.08 38.08 37.44 37.83 37.82 37.88 37.91 35.89 33.94 33.18 33.54 34.17 34.42 33.39
39.13 38.55 40.95 41.47 40.63 37.50 35.13 34.41 34.80 35.32 32.82 37.45 38.56 37.98 38.39 38.47 40.27 38.40 36.61 32.60 32.90 29.33 33.16 33.07 30.25 31.15 31.58 32.52 33.55 34.27 36.57 37.47 37.37 37.16 37.32 36.71 35.76 35.78 34.62 33.74 33.08 33.12 32.67 31.15
41.80 38.47 33.08 34.95 35.09 32.08 32.10 30.29 31.81 32.88 32.68 35.94 36.11 34.85 37.57 38.56 38.56 34.65 34.04 32.61 32.24 30.51 29.16 27.31 27.96 28.26 30.64 31.29 33.49 33.57 34.84 35.83 35.25 34.06 34.59 34.49 33.44 34.25 34.00 32.24 32.55 32.57 30.41 29.12
34.28 31.69 29.48 30.89 30.78 32.58 32.24 32.08 32.70 32.69 33.07 35.97 36.66 34.57 34.98 35.87 34.34 33.08 30.25 30.70 28.25 22.04 20.54 21.78 24.44 27.84 30.46 31.07 32.03 33.27 33.09 33.50 32.83 33.04 33.59 33.43 33.23 31.97 32.33 32.06 31.87 30.60 28.35 26.69
32.19 31.40 28.69 31.52 31.34 30.00 30.92 31.86 32.09 34.17 34.98 35.72 34.46 33.62 34.31 32.22 31.14 29.32 27.55 26.59 22.59 24.68 24.93 23.51 22.50 23.74 24.77 29.39 30.56 31.67 31.69 32.11 32.09 32.80 32.19 31.98 32.28 30.77 29.96 30.99 30.45 29.05 27.36 25.40
31.95 31.67 29.19 30.74 30.57 30.46 30.85 32.16 32.75 35.17 34.95 34.41 34.89 31.74 31.00 31.13 30.13 22.01 21.03 21.03 22.19 27.66 23.71 21.35 18.71 27.20 27.19 28.14 29.89 30.87 31.68 32.42 32.59 33.01 32.48 32.11 31.18 29.69 27.81 27.63 27.11 26.31 25.01 23.14
30.96 26.54 27.99 28.69 30.13 30.04 31.02 33.09 35.34 38.13 35.00 33.43 31.39 29.59 30.50 23.80 22.21 17.79 20.56 23.26 26.93 19.18 24.62 19.75 21.23 23.59 27.16 27.91 29.20 29.94 30.89 30.99 32.07 30.71 28.76 28.59 28.43 28.31 27.00 22.92 21.66 22.02 21.78 21.68

GFSNW_sfc_wetblb_036.txt.gz
Wetbulb
47.14 47.03 47.48 48.96 49.89 50.30 48.51 43.39 35.19 49.13 50.77 36.07 35.78 34.55 37.07 40.26 38.51 40.13 38.13 36.75 35.72 33.55 34.25 33.54 32.63 30.26 33.39 37.21 36.87 33.00 35.68 32.83 26.70 28.19 35.98 37.99 35.77 32.58 32.29 26.52 21.45 24.68 21.76 24.29
46.94 46.78 47.48 48.55 49.63 49.96 44.94 39.25 40.58 49.54 47.53 30.27 32.16 37.95 37.43 38.36 38.10 37.76 36.65 35.46 37.61 37.95 35.78 33.43 35.49 34.91 37.94 38.11 36.18 33.59 35.83 31.58 23.12 23.62 33.19 35.28 32.89 34.32 34.06 33.18 32.06 24.57 18.94 23.91
46.77 46.83 47.16 47.85 49.23 49.76 45.79 39.29 34.79 41.33 41.43 40.50 37.14 35.83 35.17 35.16 40.03 38.26 38.96 37.67 39.52 37.46 36.49 37.90 34.24 35.49 39.13 38.90 37.83 41.18 39.62 34.25 28.84 25.42 29.64 34.09 30.92 33.03 33.45 31.95 27.35 25.91 25.47 28.09
46.60 46.39 46.72 47.81 49.05 49.82 46.02 39.61 35.05 38.28 32.36 34.06 38.10 38.32 36.96 34.59 34.69 38.72 40.11 37.49 37.18 35.94 34.56 34.42 34.86 37.16 36.83 38.95 40.84 40.14 38.39 32.06 33.62 33.89 34.60 34.64 33.81 33.82 33.05 30.82 31.01 25.95 29.14 29.95
46.43 46.13 46.59 47.73 48.88 49.64 45.06 39.12 38.80 41.03 36.74 39.15 37.53 37.91 34.13 34.63 36.53 36.82 36.27 36.01 37.24 36.91 35.77 36.44 33.49 35.67 36.41 35.21 38.18 37.75 39.65 33.15 34.76 31.91 35.68 35.60 32.84 34.99 35.00 33.77 33.58 31.62 31.69 31.01
46.44 45.62 46.85 47.32 48.58 48.85 42.88 45.45 45.20 39.71 37.64 38.31 36.54 36.28 36.64 36.55 38.75 39.40 39.04 38.75 37.95 36.89 38.50 40.98 41.47 41.08 40.65 38.95 38.29 38.41 37.57 34.68 32.91 29.67 35.41 34.99 32.71 34.22 35.45 34.73 35.23 34.09 29.32 34.70
46.24 45.43 45.79 46.94 48.09 48.81 45.40 45.11 43.26 39.02 36.64 37.15 37.45 38.82 38.68 38.87 39.37 37.53 40.75 41.27 38.69 42.34 45.88 45.34 43.47 42.18 41.23 40.62 39.89 40.94 37.04 36.06 34.64 30.91 34.51 27.24 36.43 41.20 39.62 36.25 37.16 37.37 36.93 38.30
46.20 45.78 45.61 46.68 47.86 49.26 45.64 46.42 45.00 42.29 37.81 39.28 38.90 39.77 38.99 40.62 41.63 40.93 40.95 42.82 44.45 46.58 43.79 39.03 36.26 34.59 33.77 36.38 38.34 38.04 39.27 37.76 35.06 32.56 31.15 33.13 35.00 38.48 37.40 34.46 35.25 39.67 39.01 40.31
45.96 46.01 45.50 46.29 47.81 48.74 46.37 46.20 47.97 45.54 39.52 38.56 41.87 39.49 41.18 39.02 38.90 39.54 41.58 45.67 46.79 45.21 40.46 37.30 30.94 26.45 29.46 31.73 33.21 38.88 38.79 39.71 36.64 33.51 29.84 26.25 33.25 36.23 41.58 41.36 35.24 42.26 41.63 41.01
46.00 46.03 45.05 45.97 47.76 48.22 46.43 46.15 50.02 46.16 39.47 42.16 43.07 40.48 40.53 42.99 40.36 37.97 40.05 41.51 42.35 44.41 37.79 35.20 32.41 30.01 36.40 31.86 31.79 35.21 36.30 36.92 33.92 33.77 31.33 32.86 38.18 38.97 40.59 30.32 32.53 39.76 42.67 42.68
45.86 45.45 44.80 45.55 47.46 47.89 46.64 45.58 48.89 47.46 40.77 41.56 44.70 44.75 41.86 42.50 41.85 37.21 39.86 39.56 40.80 39.37 36.12 36.00 33.97 29.39 33.63 30.35 32.39 35.67 34.06 33.51 32.56 33.10 30.87 25.70 39.60 38.14 34.19 36.45 37.34 38.86 38.64 39.21
45.29 44.75 45.64 45.78 47.18 47.60 47.34 45.19 50.14 50.89 44.74 44.32 47.88 48.37 47.10 46.38 45.93 43.28 42.52 40.80 41.13 42.57 38.06 37.60 37.75 31.20 31.66 31.83 28.50 32.49 31.95 35.47 33.28 34.30 33.35 38.82 39.05 39.70 40.81 40.88 39.66 37.33 37.09 37.14
43.98 45.51 46.18 46.73 46.70 47.07 46.46 45.14 47.55 47.07 44.62 43.77 44.00 43.19 47.47 50.37 49.32 50.25 42.09 43.08 44.77 44.11 44.37 41.06 38.56 35.67 34.20 30.71 32.05 30.64 34.82 38.03 36.02 36.21 36.89 38.23 38.45 39.40 39.85 40.07 38.96 38.67 38.36 37.21
44.31 45.74 45.97 46.38 46.63 46.85 46.88 44.42 47.34 47.59 43.82 38.69 40.11 48.27 45.93 48.56 49.77 49.45 49.11 46.94 47.09 46.36 45.78 42.57 40.00 35.16 36.80 33.65 35.05 34.84 36.85 37.88 36.49 36.71 38.41 37.79 39.01 38.64 38.34 38.37 38.88 38.31 37.91 36.85
44.12 44.60 44.95 45.57 46.36 46.65 46.13 45.55 47.61 50.04 45.47 41.05 41.97 46.60 46.87 47.81 48.43 47.83 48.22 46.64 44.61 44.34 43.23 42.27 39.88 41.70 37.78 36.13 35.43 33.89 37.10 38.02 36.32 35.95 41.35 39.45 38.39 39.32 39.09 38.18 37.32 37.25 36.47 35.12
43.83 43.80 44.13 44.74 45.79 46.22 44.41 44.44 49.20 49.82 49.25 43.26 37.77 46.42 45.01 45.07 46.30 45.24 45.44 45.57 45.08 45.24 44.30 43.19 43.21 41.80 41.44 35.94 36.80 40.18 38.92 39.49 41.09 40.77 39.54 39.54 39.55 40.24 40.31 38.48 38.25 37.77 36.49 35.54
43.59 44.15 44.57 44.59 45.35 44.27 40.57 41.88 45.78 47.92 49.45 43.65 37.58 39.51 44.19 45.11 44.79 44.29 43.91 45.19 44.23 44.79 43.94 42.74 42.51 41.67 42.12 39.31 34.47 40.35 39.83 39.27 39.39 39.93 40.39 38.76 39.85 38.70 39.11 38.83 38.23 37.81 35.74 35.20
43.87 44.63 44.96 45.18 45.91 45.32 42.92 46.65 48.33 48.27 46.35 44.79 35.48 36.52 39.96 44.50 42.59 41.43 44.06 42.62 43.63 43.39 42.98 42.16 41.39 40.61 39.94 36.70 39.88 39.52 38.06 37.99 38.04 38.41 39.75 40.60 39.87 39.03 37.48 37.65 37.47 35.17 33.68 33.26
44.39 45.55 45.61 43.80 43.25 41.94 45.88 50.03 49.96 48.79 45.55 38.85 37.14 34.18 33.78 42.78 42.20 42.63 42.38 42.98 39.38 41.12 39.29 40.20 40.36 38.73 35.61 39.14 38.66 38.40 38.09 38.66 36.98 36.72 37.76 38.15 37.88 36.86 36.19 36.14 35.85 33.93 32.68 32.43
44.63 43.73 41.57 38.62 43.54 49.02 49.29 46.80 43.70 40.85 41.43 41.72 38.47 39.68 37.26 39.69 40.05 38.19 39.34 38.61 37.42 33.63 37.87 38.76 36.73 36.88 38.26 39.59 39.69 39.31 38.76 37.84 37.24 36.23 34.38 34.83 34.87 35.55 35.82 35.59 35.41 34.77 33.30 31.80
40.02 36.22 36.05 39.99 44.52 45.62 42.86 37.60 36.73 38.40 35.45 39.38 36.79 38.55 37.85 40.23 37.34 36.95 37.77 34.01 33.88 31.83 31.10 35.25 33.40 32.69 33.19 34.00 35.84 38.05 38.07 37.69 37.76 37.78 38.40 38.79 38.65 36.35 34.62 33.88 33.83 33.52 33.21 32.03
40.08 39.10 41.13 40.66 39.94 37.39 35.21 34.20 34.61 35.40 34.12 37.95 38.57 37.95 38.53 37.92 40.45 38.08 36.72 34.16 33.31 28.39 31.78 32.72 29.51 31.57 31.50 32.85 33.96 35.37 36.33 37.31 37.28 37.10 36.88 36.85 36.48 36.37 35.15 34.25 33.17 31.71 30.87 30.48
40.64 37.53 32.45 34.03 34.21 31.09 32.01 29.23 32.26 32.82 33.58 34.99 35.85 34.62 37.69 38.49 38.26 35.00 34.53 32.53 31.84 30.86 29.42 28.01 27.76 29.29 31.11 31.47 33.39 33.66 34.56 35.64 34.76 34.37 35.15 35.27 34.52 35.15 34.56 32.36 32.04 31.69 30.01 29.24
34.31 31.70 28.86 30.48 30.81 32.29 31.88 31.42 31.35 31.16 33.31 35.12 36.82 34.53 35.27 36.38 34.59 33.71 32.37 31.33 29.75 23.28 23.72 22.04 24.89 26.85 30.09 30.93 31.84 33.43 32.32 32.70 32.48 32.76 33.38 33.06 32.51 31.20 31.47 31.55 31.58 30.11 27.40 26.20
32.64 31.49 27.99 31.04 31.80 31.60 30.81 32.11 32.68 33.99 36.39 35.17 34.64 33.92 34.35 32.70 32.12 30.64 28.69 27.18 25.05 25.36 24.88 24.93 22.56 22.25 24.08 29.35 30.40 30.87 30.74 31.12 31.33 31.96 31.52 31.43 31.26 30.34 29.60 29.92 29.40 28.00 26.67 25.48
32.13 31.68 29.48 30.76 29.47 30.33 31.18 31.96 32.58 34.87 36.43 34.74 34.84 32.26 30.97 31.52 27.57 25.06 21.45 20.69 22.64 28.39 24.19 21.63 16.49 26.59 27.16 28.10 29.73 29.97 30.77 31.09 31.48 32.04 31.99 31.61 30.98 29.19 27.23 27.70 27.31 26.50 25.30 23.60
30.70 28.18 28.86 29.29 28.87 29.65 30.67 32.83 34.76 37.67 34.91 33.38 32.28 30.13 31.51 24.68 18.50 19.46 23.54 23.89 28.00 21.43 23.41 22.31 20.08 22.14 26.79 27.26 28.91 29.61 30.56 30.75 31.42 31.56 30.59 28.86 28.41 27.70 26.79 23.13 22.06 22.54 22.38 21.83

GFSNW_sfc_wetblb_039.txt.gz
Wetbulb
47.77 47.48 47.50 47.97 48.75 49.96 47.37 42.48 34.10 48.19 50.41 34.23 32.96 33.40 35.73 40.70 38.24 39.52 37.66 36.92 34.84 33.00 33.62 32.60 32.76 32.00 32.75 37.13 36.51 33.37 35.53 32.68 24.64 26.88 34.36 36.51 34.96 32.82 31.82 26.28 25.26 27.56 25.99 25.55
47.47 47.20 46.99 47.82 48.53 49.64 44.56 37.38 37.83 48.99 45.77 29.84 31.90 37.42 37.22 39.05 37.99 37.12 36.14 35.41 37.45 37.72 34.66 32.12 34.35 35.28 38.44 37.66 35.83 33.25 35.30 31.71 24.85 23.22 31.18 34.75 32.81 34.02 34.09 32.90 31.51 26.68 23.00 25.69
47.20 47.07 46.80 47.12 48.35 49.65 45.97 38.92 32.93 38.14 40.31 38.63 34.88 35.09 35.07 35.53 40.43 38.04 38.17 37.23 38.57 36.92 35.55 37.39 34.30 35.27 39.24 38.36 37.91 40.72 39.17 33.39 26.39 23.11 28.08 33.85 30.72 33.33 33.31 31.73 27.44 27.20 27.41 28.94
47.05 46.89 46.16 46.92 47.94 49.50 46.22 39.32 34.46 38.08 32.30 34.66 37.00 37.85 36.48 35.13 34.37 38.03 38.48 36.15 36.33 35.75 33.16 33.90 34.26 36.18 36.76 38.07 40.16 39.40 37.38 31.56 32.45 32.96 33.93 34.21 33.53 33.09 33.30 30.65 30.98 27.88 30.24 29.86
46.94 46.79 45.90 46.73 48.29 49.34 43.74 38.21 36.24 40.31 36.72 38.00 37.77 37.84 35.42 35.12 35.85 36.43 35.47 34.47 36.87 37.45 34.62 35.01 33.36 35.42 35.44 34.95 38.44 37.07 38.93 32.69 34.88 31.97 35.43 35.37 33.13 35.80 34.89 35.11 33.34 32.47 32.43 31.62
46.83 46.63 46.16 46.23 47.83 48.23 41.93 43.19 44.69 39.90 38.12 37.01 36.60 36.42 35.37 36.16 38.06 37.77 38.14 38.20 36.66 36.27 37.49 39.90 40.91 41.52 40.48 39.89 38.58 37.22 37.20 34.98 32.98 28.56 34.96 34.99 33.22 36.16 35.24 35.35 35.61 34.44 30.58 34.93
46.55 46.48 46.45 45.91 47.10 48.13 44.98 43.87 43.25 37.57 34.84 37.64 36.55 37.77 38.46 36.91 37.16 37.20 39.59 39.47 38.34 41.81 45.38 44.95 43.70 41.95 40.77 40.41 39.48 40.55 36.41 34.91 34.97 30.67 33.62 26.35 36.22 40.90 40.53 37.14 37.49 37.91 36.91 37.56
46.39 46.39 46.56 45.65 46.86 48.40 45.43 44.97 43.16 40.56 36.91 37.85 38.15 38.55 37.18 39.20 39.75 39.08 39.38 41.84 43.67 46.28 43.39 38.04 35.32 35.05 35.77 36.46 38.84 38.05 39.22 36.16 34.19 31.62 31.12 33.50 35.22 36.37 37.97 36.25 36.46 39.85 38.21 38.75
46.24 46.27 46.03 45.31 46.35 47.79 45.98 44.54 46.49 43.70 39.76 37.85 40.35 37.62 38.02 36.18 37.73 37.66 39.80 45.08 46.87 45.32 40.54 37.03 31.85 23.48 29.53 29.26 33.44 37.60 38.15 38.11 34.73 32.52 29.80 27.20 33.83 37.71 41.27 40.24 34.94 41.06 40.07 40.03
46.16 45.94 45.23 46.21 46.41 47.72 46.07 44.50 48.13 46.07 40.77 39.36 41.05 37.31 37.85 41.96 40.47 38.56 40.34 41.77 42.54 44.42 37.78 34.54 32.01 28.10 33.29 29.62 31.75 34.85 34.78 34.34 31.26 32.51 31.51 31.84 38.17 38.31 40.97 31.84 35.11 39.87 42.06 42.36
45.81 44.68 45.85 46.59 47.15 47.53 45.55 43.65 47.07 45.56 40.74 39.92 43.00 44.63 40.08 40.39 41.08 37.91 40.08 39.55 40.03 39.75 35.07 35.20 33.84 30.41 31.57 30.55 30.87 35.17 34.82 33.96 33.08 33.77 30.94 26.67 39.45 37.31 34.23 37.61 39.93 40.57 40.79 42.53
44.45 44.59 45.58 46.42 46.93 47.34 46.91 42.67 46.72 48.24 44.70 42.07 46.01 46.28 46.28 44.99 45.43 42.67 41.93 40.39 40.24 41.33 38.05 35.72 35.95 30.77 31.85 31.42 28.36 32.36 31.64 34.68 32.11 33.62 33.19 39.07 39.80 40.23 41.21 40.95 39.52 39.73 39.14 39.80
43.81 44.13 44.58 45.39 45.66 47.10 46.38 43.89 45.38 47.48 44.58 43.20 43.00 42.05 46.64 49.38 48.51 49.68 41.77 42.68 44.31 43.34 44.84 40.74 39.91 36.00 32.98 30.05 30.99 30.34 34.17 37.18 35.62 36.24 37.84 38.52 40.14 39.57 39.93 39.39 39.09 38.34 38.39 37.16
44.38 45.36 44.90 44.70 44.98 45.88 46.76 43.15 45.12 44.41 44.00 37.14 39.39 47.65 44.91 48.57 49.98 49.52 49.03 46.92 47.39 45.97 45.01 42.61 40.34 36.02 38.56 33.19 34.22 34.14 36.07 37.30 36.30 36.95 38.96 38.68 38.93 39.50 38.65 38.33 38.71 36.90 35.94 35.34
44.17 44.13 44.11 44.55 44.80 45.33 45.27 44.38 45.63 46.46 45.60 40.80 41.82 46.41 46.76 47.90 48.54 48.29 48.73 47.52 45.20 43.55 42.22 41.97 39.27 41.50 37.53 34.78 34.16 32.83 36.88 37.07 36.33 36.11 40.53 39.31 38.05 39.89 39.71 38.09 37.00 36.41 35.12 33.78
43.64 44.32 44.34 44.63 44.93 45.12 43.18 42.19 48.51 49.92 49.56 42.45 38.05 46.21 45.20 45.64 46.98 46.06 46.02 45.70 45.00 44.32 43.86 43.10 43.03 40.87 40.01 37.55 33.76 39.30 38.37 39.74 41.40 40.78 39.33 38.85 39.41 40.13 39.71 37.82 36.81 36.38 34.70 33.66
43.59 44.22 44.81 45.08 44.72 43.09 39.47 40.57 44.76 46.55 45.81 43.23 37.54 38.65 44.45 45.41 45.08 44.74 44.32 45.30 44.37 44.06 43.87 42.73 42.88 41.48 41.16 37.45 34.48 39.99 40.27 40.39 39.58 39.92 39.99 38.24 39.69 38.85 38.68 38.00 37.27 36.56 34.41 33.79
43.98 44.74 45.66 45.94 45.77 44.55 41.74 45.25 47.08 46.80 45.85 44.32 35.63 36.44 39.76 44.61 42.29 41.28 43.92 42.42 43.52 43.61 42.91 42.48 41.50 40.95 40.42 37.38 39.88 39.75 38.62 37.72 37.77 38.62 39.74 40.99 39.79 38.79 37.05 37.01 36.35 34.28 32.72 32.30
44.04 45.67 45.09 42.58 41.29 40.61 44.67 50.03 48.89 49.23 45.34 38.89 37.21 34.05 34.04 42.51 42.23 42.68 42.43 43.08 39.44 41.70 39.61 40.25 40.24 39.03 36.25 38.63 38.95 38.55 39.05 37.89 37.52 37.28 38.72 38.83 37.85 36.85 36.52 36.40 35.86 33.36 31.97 31.20
44.82 44.10 41.62 38.75 43.25 44.86 48.31 46.76 43.57 41.23 41.59 41.75 38.36 40.17 36.51 39.17 40.29 38.56 39.22 38.92 37.15 33.60 37.70 38.66 36.79 37.21 39.43 38.42 39.34 38.77 38.23 37.80 38.01 35.91 35.15 35.42 34.89 35.56 35.87 36.08 36.40 34.56 32.67 30.97
38.69 36.09 35.42 40.12 43.72 44.98 42.84 37.37 36.99 38.07 35.26 38.91 38.29 37.01 36.39 40.21 37.45 37.08 36.93 34.08 33.82 31.89 32.91 34.41 33.22 32.65 34.28 34.21 35.73 37.04 37.65 37.55 37.06 37.86 38.83 39.35 39.15 37.00 34.48 33.43 33.47 33.07 32.11 29.99
38.96 39.27 41.34 40.16 39.24 37.68 34.94 33.71 34.43 34.70 33.93 37.32 37.76 38.35 38.26 38.26 40.29 36.02 36.70 33.91 33.17 29.53 31.19 32.37 29.48 32.15 31.78 32.33 32.99 33.88 35.86 37.53 36.86 36.87 37.08 37.21 36.78 36.35 34.82 33.72 32.73 31.56 30.52 29.92
40.35 37.36 32.60 34.55 34.07 30.55 31.80 29.76 32.22 32.48 34.38 34.70 35.89 35.15 38.19 38.78 38.52 35.29 34.77 32.78 31.19 30.34 29.90 28.76 29.33 30.27 31.43 31.88 33.24 33.28 34.46 35.62 34.88 34.45 34.85 35.15 34.81 35.14 33.62 31.18 31.35 31.09 29.67 28.70
34.33 32.00 27.52 30.26 30.73 31.70 32.25 28.06 25.29 30.37 33.27 35.15 36.73 34.45 34.88 36.42 34.00 34.06 32.56 31.71 30.74 26.93 24.68 21.92 24.75 26.75 29.77 30.75 31.93 33.49 32.63 33.32 33.01 32.97 33.55 33.20 32.65 31.32 31.49 31.13 30.84 29.41 27.26 26.58
32.43 31.40 25.06 29.17 31.51 32.16 31.37 30.65 32.30 32.90 36.05 35.44 34.56 33.86 34.59 32.88 32.62 31.10 30.36 28.39 26.23 25.16 23.96 24.47 22.02 21.26 23.07 29.31 30.46 30.74 30.68 30.98 30.98 31.85 31.44 30.72 30.85 30.09 29.09 30.03 30.02 28.63 26.71 24.98
32.40 31.92 26.26 30.55 29.92 30.52 31.49 32.05 32.42 33.63 36.59 34.49 34.49 32.86 31.15 31.01 30.75 28.18 26.21 20.85 22.24 26.18 23.86 21.80 15.87 27.23 27.10 28.18 29.44 29.63 30.09 30.24 30.78 31.19 30.83 30.54 29.93 28.70 26.70 27.05 26.80 26.13 25.54 24.24
30.91 28.94 29.74 29.12 26.42 28.04 30.58 32.02 33.90 37.81 34.83 33.25 32.78 31.12 28.47 26.45 24.67 23.64 23.68 23.89 28.54 26.16 21.67 25.85 22.77 21.86 26.82 26.76 28.42 29.17 29.57 29.68 30.53 31.09 31.14 28.90 28.04 27.06 25.86 22.49 22.78 23.32 23.00 22.42

GFSNW_sfc_wetblb_042.txt.gz
Wetbulb
48.01 47.87 47.68 47.44 48.25 49.22 47.59 41.76 33.65 47.72 50.08 35.40 34.09 34.77 35.91 40.56 38.84 41.75 39.72 39.48 37.60 35.59 35.98 34.33 34.90 34.86 36.96 40.91 40.78 36.42 38.61 33.54 28.42 30.95 38.14 39.75 38.33 34.96 33.57 27.92 27.02 29.07 28.41 29.08
47.74 47.59 47.64 47.19 48.10 49.09 44.66 38.37 36.55 48.29 47.02 32.82 33.82 37.28 38.24 40.05 38.90 38.81 38.43 37.67 39.65 39.70 36.37 33.52 36.17 36.98 40.76 40.85 39.48 37.22 38.17 31.99 28.02 31.09 34.71 36.34 33.56 35.42 35.25 34.31 32.64 28.29 25.94 30.26
47.47 47.37 47.49 46.84 47.71 48.99 46.52 38.92 32.99 38.68 41.58 40.88 38.03 36.21 36.45 36.84 41.36 39.49 40.59 39.31 40.85 38.76 36.51 38.45 35.31 36.36 39.73 40.85 40.48 41.43 40.52 35.05 31.94 29.07 32.93 35.97 32.19 34.05 35.01 32.14 28.82 30.13 30.87 32.57
47.45 47.24 47.32 46.65 47.56 49.56 45.92 37.28 34.25 38.51 34.46 36.55 38.29 39.27 37.93 36.47 35.91 40.20 40.86 38.15 38.62 37.68 34.58 35.67 35.08 37.27 37.99 39.62 40.09 39.85 37.90 32.61 33.55 34.36 35.39 35.88 35.03 33.99 34.26 31.96 31.94 28.77 33.28 34.25
47.29 47.06 47.13 46.65 47.40 49.06 43.60 35.46 34.58 38.94 37.89 39.44 38.37 39.01 37.49 36.87 37.43 38.51 36.90 37.06 38.49 38.57 36.09 37.04 34.64 36.84 36.77 36.84 39.68 37.91 38.89 33.12 34.99 32.32 36.54 36.36 34.16 36.93 37.26 37.30 36.88 34.41 34.25 33.84
47.13 46.83 46.92 46.19 46.80 47.69 41.95 43.04 43.77 39.16 38.09 37.35 37.65 36.78 38.22 38.13 40.23 39.96 41.17 40.22 38.82 37.52 39.23 42.03 42.37 42.06 41.55 40.72 39.04 37.09 36.79 33.65 32.88 29.80 36.01 35.89 34.76 37.47 37.42 37.60 36.74 36.58 32.58 37.36
46.90 46.70 47.01 45.92 46.34 47.67 45.15 43.73 42.26 37.47 35.27 36.94 37.13 38.66 39.96 39.11 39.88 39.16 40.74 41.98 39.70 42.61 46.71 45.56 44.16 41.93 40.94 40.76 40.57 41.30 37.20 35.62 35.39 31.41 33.94 29.13 38.14 42.49 40.98 38.95 39.18 39.00 39.46 40.61
46.62 46.73 46.06 46.17 46.81 47.38 45.33 45.27 41.90 39.76 35.89 38.51 38.41 39.11 39.63 41.02 41.74 40.34 41.29 42.52 44.92 47.48 43.61 38.40 35.79 36.30 35.92 37.30 39.41 39.28 40.28 37.12 33.34 30.64 30.65 35.38 38.25 39.89 38.76 37.64 37.62 42.98 41.25 42.54
46.37 46.18 45.40 46.91 47.30 47.88 46.47 44.77 46.07 43.09 37.47 37.84 40.97 39.61 40.92 39.45 39.77 40.33 41.87 46.32 48.29 45.64 40.51 37.08 32.48 30.67 33.56 32.81 36.22 39.63 38.72 38.46 34.50 32.60 28.22 28.10 38.57 41.44 42.65 42.75 36.57 41.57 42.82 43.06
45.93 45.08 45.39 46.53 47.17 47.80 46.62 43.90 46.25 44.32 40.24 43.60 42.48 40.22 40.12 43.53 42.25 40.37 41.98 43.16 43.16 44.84 37.92 34.39 31.98 32.45 36.45 32.44 33.24 33.93 34.44 34.72 31.04 30.54 30.31 35.74 42.90 41.80 44.23 34.57 36.81 41.35 42.59 44.42
44.69 44.51 44.71 45.44 45.85 46.95 46.06 43.50 46.34 43.68 42.61 45.26 46.55 46.62 43.91 43.89 44.23 39.40 41.91 40.60 40.41 39.79 35.36 35.45 35.25 34.88 36.57 36.03 37.93 37.22 34.78 33.14 31.47 32.56 32.01 30.16 43.80 43.60 39.49 41.69 43.37 42.79 42.53 44.04
43.67 44.04 44.73 45.29 45.38 45.85 46.62 42.31 46.43 46.75 42.71 45.40 48.92 49.25 49.49 47.70 47.18 44.42 43.04 41.35 40.22 41.68 37.39 37.28 39.20 36.21 37.54 36.97 34.23 39.63 35.47 40.02 38.74 38.42 38.02 44.72 44.42 44.71 45.89 44.18 43.35 42.92 41.79 42.80
44.08 44.82 45.40 44.87 44.95 45.34 44.98 43.59 44.60 45.69 45.49 46.83 46.61 45.37 49.04 51.17 50.15 51.07 42.90 42.98 44.81 43.24 45.97 41.96 41.25 36.78 40.18 36.33 37.16 38.73 41.35 42.98 40.49 40.35 44.39 44.34 45.22 44.59 43.50 41.71 41.94 40.94 40.25 41.53
44.03 44.26 44.60 44.36 44.60 45.44 45.23 43.04 44.82 43.17 42.85 41.06 42.55 49.34 47.32 50.08 50.86 50.05 49.39 47.39 47.56 46.66 45.42 41.79 40.77 38.36 40.87 39.85 39.52 39.55 42.68 41.78 41.61 41.62 44.64 46.11 44.69 43.31 42.60 40.78 39.88 38.85 38.60 38.90
43.98 44.27 44.91 44.86 44.55 45.09 45.47 45.22 44.99 46.15 43.53 40.58 42.79 47.17 47.70 48.73 48.82 48.60 48.98 47.70 45.87 44.26 41.60 40.46 40.27 43.34 40.01 41.01 40.13 39.37 42.66 43.01 41.41 41.90 44.79 44.42 42.69 42.03 41.81 40.66 38.39 37.87 37.41 36.27
43.42 43.67 44.44 45.02 45.23 44.33 43.10 43.18 47.65 48.44 46.46 43.25 38.78 47.35 46.26 46.32 47.56 47.24 46.73 46.37 45.27 44.75 42.73 42.45 44.48 45.57 43.42 40.11 38.30 44.86 44.57 44.90 46.28 44.99 44.21 42.79 42.68 42.37 41.77 39.52 38.21 37.44 36.28 36.22
43.33 44.05 44.78 45.11 45.57 43.82 39.59 41.18 44.83 46.63 44.86 43.58 39.53 39.35 45.17 46.08 45.64 45.22 44.75 45.72 44.75 44.52 43.27 43.00 43.74 43.22 43.28 41.38 38.01 44.33 45.35 45.70 45.04 44.74 44.11 42.09 42.55 41.65 40.98 39.29 37.66 36.39 35.82 35.32
43.63 44.55 46.00 46.40 44.81 44.33 41.33 45.69 47.33 46.52 44.45 45.22 37.03 38.51 40.56 45.14 42.40 41.41 44.46 42.59 43.37 43.08 43.12 43.27 41.98 41.98 41.33 37.96 43.82 45.29 44.68 43.62 42.95 43.24 43.53 43.01 41.27 39.27 37.46 37.94 36.84 35.03 33.53 32.69
43.71 45.43 45.36 45.19 42.50 40.27 44.05 46.82 48.27 48.81 46.19 40.23 38.72 36.43 35.25 43.81 42.53 43.31 42.87 43.48 39.64 42.77 40.24 40.96 40.56 39.95 37.47 42.54 43.89 43.60 44.08 42.77 41.90 40.79 40.99 40.45 38.74 37.07 36.57 36.04 36.42 34.58 33.11 33.17
44.21 44.30 41.79 39.57 43.43 44.61 45.02 47.06 44.02 42.16 42.54 43.71 39.32 42.06 38.16 42.33 41.93 40.66 39.98 39.84 38.11 34.44 39.09 40.07 37.63 38.55 44.04 42.11 41.88 43.00 42.55 42.23 40.92 38.82 37.08 37.11 37.09 36.86 36.43 36.30 35.92 36.08 34.13 32.82
41.04 37.21 35.91 40.95 43.82 44.16 42.98 37.99 37.57 38.62 36.30 41.06 39.90 40.18 39.41 42.74 38.54 38.65 39.37 36.16 35.49 33.93 35.02 35.85 36.28 35.65 38.99 37.90 38.46 40.19 41.08 41.25 41.60 42.04 41.31 41.30 41.65 39.17 38.16 36.36 36.02 34.76 33.70 31.71
39.01 39.40 41.64 40.09 39.40 38.21 35.46 34.30 35.17 35.25 34.86 39.16 38.62 39.88 40.54 41.24 41.59 38.93 38.18 35.56 35.28 31.39 34.92 33.42 31.34 37.14 36.29 36.01 37.28 38.57 39.87 40.78 40.54 40.64 40.76 41.83 40.86 39.50 38.35 36.34 34.88 33.99 32.38 31.22
41.39 37.79 33.57 35.85 34.53 31.77 32.07 30.78 32.88 33.70 37.23 36.96 36.94 37.55 40.00 40.52 40.20 36.86 36.47 33.04 32.94 34.29 32.60 30.75 34.78 36.23 35.00 35.27 36.78 37.59 39.02 39.35 38.72 38.37 39.54 39.72 38.34 37.87 36.88 34.59 33.73 32.78 31.56 31.47
35.01 32.29 28.07 31.32 31.48 33.03 32.20 31.97 31.46 34.17 34.84 36.18 37.87 35.99 37.14 38.11 36.33 35.98 33.05 33.35 32.28 30.73 28.07 30.74 35.39 32.39 32.86 34.56 35.58 36.74 36.65 37.31 37.34 37.01 37.33 36.74 36.24 35.03 34.84 34.04 33.46 32.16 30.18 29.52
33.06 32.43 26.55 29.88 32.82 33.50 33.72 33.28 33.96 36.02 37.24 36.60 35.96 35.72 36.28 35.31 33.97 33.07 32.35 31.17 29.53 29.57 30.88 35.21 33.58 30.02 29.90 33.57 34.88 35.60 35.50 35.54 35.50 36.02 35.56 34.58 34.03 33.55 32.63 33.27 33.14 31.28 29.86 29.30
32.73 32.30 30.25 31.56 31.38 32.46 33.30 33.33 34.31 36.88 37.50 35.37 35.36 34.08 33.73 34.37 34.02 31.32 31.76 28.62 27.94 34.04 34.08 33.59 29.48 30.65 32.62 33.53 33.92 33.85 34.23 34.56 34.44 34.49 34.22 33.69 32.83 31.90 30.32 30.55 30.19 29.73 28.84 27.08
31.83 30.42 31.05 30.72 29.80 30.01 31.69 33.37 34.14 36.77 35.18 33.20 33.28 31.66 33.28 32.04 31.45 30.29 31.01 29.98 35.60 34.12 32.30 30.15 29.14 29.87 31.63 31.92 32.40 32.67 32.91 33.14 33.16 33.04 33.19 31.22 30.42 30.25 29.13 27.06 27.37 27.90 27.85 27.01

GFSNW_sfc_wetblb_045.txt.gz
Wetbulb
48.30 48.09 48.14 48.47 48.12 48.89 47.12 42.10 34.52 48.21 49.96 36.00 36.20 34.94 37.36 40.50 39.87 42.52 40.70 40.77 38.82 36.73 37.16 35.43 36.23 35.97 38.86 43.52 42.92 37.01 39.61 35.39 30.44 32.71 39.25 40.65 39.02 35.26 34.36 28.13 28.48 30.82 29.88 30.45
48.08 47.91 47.94 48.30 47.93 48.92 44.85 38.70 36.56 48.98 47.51 33.70 34.75 38.45 38.27 40.23 38.83 39.74 40.21 38.88 40.70 41.71 37.74 34.41 37.94 39.40 42.37 42.99 41.80 39.22 39.22 33.37 28.59 31.71 34.96 38.48 34.44 36.53 36.74 35.33 33.99 29.21 26.38 30.59
47.82 47.75 47.77 47.71 47.71 49.17 46.67 38.03 34.27 39.28 41.41 42.33 37.38 36.47 36.32 37.20 42.50 40.49 42.36 41.13 42.54 40.29 38.30 40.63 37.24 38.14 40.29 42.68 42.07 42.32 42.22 35.51 32.47 30.53 33.44 36.62 32.27 35.01 36.40 33.17 29.45 30.73 31.17 33.57
47.78 47.59 47.49 47.43 47.27 49.28 46.44 37.07 35.05 38.10 35.38 37.77 38.73 39.63 38.29 36.74 36.21 41.31 42.61 39.77 40.44 39.62 36.01 37.33 37.09 39.14 39.41 41.18 41.42 40.59 39.05 32.71 34.74 35.24 36.03 36.34 35.76 35.73 36.54 33.58 33.25 29.13 32.85 33.24
47.66 47.36 47.56 46.80 47.10 48.98 43.93 36.85 35.65 38.36 39.57 40.38 38.69 38.63 38.29 37.36 38.08 38.93 38.25 38.88 40.59 40.39 37.92 38.64 36.94 39.42 38.37 37.63 39.90 38.73 39.12 32.89 34.54 31.82 36.53 37.15 35.94 38.42 38.83 37.83 37.57 36.70 36.56 34.81
47.42 47.26 47.04 46.71 47.60 48.48 42.49 43.38 42.96 39.78 38.86 39.36 38.65 38.57 39.37 39.00 41.26 41.23 42.46 41.63 40.25 38.72 40.13 42.94 43.50 43.90 43.21 42.24 39.42 37.55 36.73 34.17 32.59 29.91 36.98 36.95 34.65 38.77 38.72 38.63 39.46 37.98 33.53 39.52
47.18 47.10 46.20 47.13 47.80 47.95 46.30 43.86 42.03 37.88 35.38 38.06 38.13 39.19 41.23 40.66 41.55 40.00 41.87 43.20 40.92 43.50 47.36 46.33 45.00 43.31 41.99 41.28 40.92 41.57 36.80 35.44 34.05 31.28 35.58 28.71 39.36 44.44 42.33 39.67 40.21 42.00 41.35 42.06
46.83 46.64 45.83 47.12 47.83 48.33 46.60 46.06 41.88 39.31 35.35 38.53 38.55 39.91 40.45 42.52 43.03 42.33 42.02 43.25 46.37 48.30 44.79 39.53 36.49 36.56 37.13 38.48 40.01 39.50 40.44 37.32 33.33 30.61 30.93 35.22 39.15 41.76 39.54 38.29 38.46 41.84 42.27 44.43
46.18 45.71 45.41 46.03 46.68 46.99 46.77 45.30 46.23 42.75 36.84 38.71 41.95 39.68 42.03 40.02 40.19 41.06 42.58 46.88 49.02 46.75 41.48 37.23 31.52 31.20 34.55 34.02 35.30 40.66 39.30 39.18 34.73 32.76 28.03 26.14 39.11 42.93 43.74 43.96 36.43 43.94 42.36 43.80
44.58 44.73 44.87 45.34 45.73 46.22 45.38 44.89 46.71 43.09 38.41 43.83 44.26 41.00 40.45 43.80 42.59 40.83 42.47 43.17 43.68 45.19 38.11 34.46 32.65 31.65 38.12 32.99 33.88 32.64 33.23 34.04 30.62 29.75 29.96 34.49 43.17 44.46 45.45 35.36 37.16 43.28 42.62 42.93
44.31 44.36 44.80 45.88 45.58 45.61 45.20 44.15 47.12 42.48 40.30 43.51 45.86 46.62 44.31 44.26 44.82 40.50 42.90 40.89 41.17 40.07 36.11 35.32 34.90 34.44 36.86 36.51 39.18 36.89 34.38 32.22 31.32 33.68 30.91 28.85 45.84 45.34 40.28 43.75 45.02 44.45 43.43 43.19
44.56 44.52 44.85 45.55 45.31 45.41 45.79 42.63 46.66 46.43 40.89 43.94 49.89 50.09 50.60 48.96 48.42 45.99 45.05 43.42 41.82 42.33 38.20 37.61 38.89 35.85 38.93 37.58 33.78 42.58 36.00 39.35 37.12 36.99 37.48 46.08 47.08 45.76 48.04 47.06 44.98 44.72 43.55 44.02
44.72 44.75 44.64 44.67 45.14 45.13 45.31 43.46 44.71 44.60 44.80 47.50 46.81 46.76 50.76 52.42 51.38 51.98 44.42 45.27 45.33 43.40 46.07 42.11 40.12 37.31 40.78 35.92 37.92 40.15 42.61 45.24 40.85 41.27 45.49 46.30 47.94 49.02 46.28 44.53 44.26 43.39 42.09 44.20
44.65 44.81 44.48 45.29 45.53 45.18 44.95 43.32 45.25 42.82 41.28 41.19 44.44 51.12 48.86 51.64 52.05 51.01 50.39 48.10 48.04 46.99 45.90 41.78 39.73 37.34 43.95 39.81 40.71 40.75 43.31 43.77 42.57 42.65 45.71 47.84 45.52 45.10 44.68 42.75 41.90 41.06 40.91 42.26
44.39 44.35 44.09 44.46 45.15 45.39 45.24 44.87 45.42 45.64 41.81 39.76 43.37 48.37 49.47 49.84 49.71 48.80 49.24 47.49 45.73 44.04 41.65 39.59 38.66 43.35 40.84 42.92 41.30 40.56 45.18 43.57 42.05 41.25 46.01 45.98 44.81 44.33 43.99 42.32 39.31 40.03 39.76 40.02
43.93 43.54 44.09 44.81 45.36 45.45 42.46 42.73 46.24 47.55 46.73 42.25 39.41 48.28 46.93 47.59 48.15 47.47 47.23 47.30 46.08 44.66 42.14 40.95 43.43 47.34 44.46 40.47 38.63 45.19 47.56 48.42 48.24 45.98 46.58 45.36 44.32 44.03 43.53 40.76 39.22 39.29 38.98 38.97
43.20 43.81 44.58 45.30 45.54 45.15 38.84 40.57 43.81 46.91 45.24 43.06 39.28 41.04 45.79 46.68 46.09 45.74 45.30 46.26 44.71 44.44 42.60 41.82 42.93 43.68 43.84 41.17 37.91 45.06 47.23 48.07 48.38 48.21 46.13 43.92 43.93 43.05 41.79 39.25 37.63 37.85 37.61 37.79
43.58 44.14 45.80 46.57 46.24 44.40 41.45 45.41 47.18 46.96 43.91 44.90 38.57 38.93 41.59 45.79 42.62 41.37 45.12 42.42 43.20 43.10 42.48 43.86 42.64 43.61 43.27 37.88 43.26 45.98 47.41 47.69 47.23 46.17 46.39 45.34 44.42 42.09 39.92 38.62 37.81 35.92 34.92 34.91
43.37 44.70 45.40 44.80 42.63 39.73 43.62 45.93 47.68 47.57 45.89 41.06 39.40 36.79 36.17 44.47 42.97 43.72 42.64 43.47 38.10 43.24 39.86 41.35 41.29 40.28 36.90 42.01 44.71 46.33 46.76 44.78 45.09 43.74 43.63 42.21 40.48 38.18 36.97 36.76 36.48 34.91 34.44 34.40
43.55 44.74 42.27 39.93 43.51 44.68 44.86 45.78 43.45 43.24 43.74 44.25 39.94 43.23 39.11 43.35 42.41 41.57 40.71 40.23 38.64 34.25 38.95 40.41 37.61 38.20 43.80 46.50 46.10 45.39 45.40 45.03 43.67 40.40 38.10 38.71 37.17 36.67 36.18 36.10 36.68 35.89 34.88 33.90
42.08 38.19 36.81 41.93 44.18 43.99 43.22 39.43 38.28 40.02 36.99 41.36 41.34 40.44 39.92 44.29 39.08 39.07 40.05 36.64 35.57 33.63 35.31 35.70 37.30 37.34 41.50 40.80 40.94 42.65 43.58 44.32 43.98 44.65 44.52 42.12 40.93 38.97 36.88 36.02 36.45 36.48 35.00 32.59
39.22 38.55 41.66 40.56 39.95 38.49 35.56 35.35 36.42 35.80 35.36 40.04 39.18 40.09 41.77 42.58 43.70 38.59 38.77 35.76 36.30 32.15 37.09 34.16 32.12 39.01 38.47 38.43 38.95 40.37 41.34 42.95 43.29 42.78 42.62 42.34 43.11 41.55 40.21 36.78 36.31 35.74 34.21 32.85
42.33 38.22 34.31 36.23 35.87 32.35 32.11 30.92 33.04 34.31 37.76 37.34 37.35 38.00 40.38 41.71 41.62 37.36 37.35 33.05 33.17 36.09 33.07 31.60 36.28 38.67 36.99 37.27 38.17 39.45 40.37 41.40 41.17 40.95 42.69 43.44 42.47 42.30 40.23 37.25 36.15 33.99 32.93 33.09
36.46 33.24 30.29 31.79 32.11 33.51 32.97 33.36 33.55 36.29 35.60 36.61 38.49 37.51 37.26 39.68 37.98 38.49 33.72 35.68 33.93 31.73 29.54 31.77 38.59 34.94 34.39 36.67 37.84 38.64 38.55 39.06 39.35 39.28 40.11 39.71 39.17 38.65 37.94 36.56 35.22 33.57 31.87 30.60
34.10 33.11 28.72 30.94 34.10 34.73 33.80 35.19 35.05 37.51 38.15 37.23 37.56 36.80 37.07 37.11 35.36 35.81 34.61 32.20 31.19 31.76 32.90 38.50 36.31 33.17 33.14 35.59 36.94 38.29 38.50 38.15 38.08 38.49 38.16 37.68 36.80 35.51 34.25 34.67 34.31 32.79 31.02 30.76
33.51 32.55 31.11 33.17 32.13 33.42 34.67 34.45 35.14 38.83 37.97 36.72 36.13 34.40 34.52 34.87 36.19 32.65 32.58 30.68 30.34 36.24 37.56 36.32 34.20 33.74 34.96 35.26 35.79 35.92 36.85 37.60 37.56 37.66 37.05 36.61 35.94 34.64 33.91 33.80 32.51 31.89 30.82 28.81
32.55 31.88 32.65 32.97 33.10 32.95 34.24 34.53 35.31 37.48 35.52 34.32 33.34 31.81 33.40 34.14 33.60 31.79 34.88 32.22 34.21 32.96 33.33 33.95 32.91 31.45 31.83 32.26 34.66 34.80 35.29 35.82 36.08 35.80 35.61 35.05 34.00 32.87 31.46 29.72 30.00 29.93 29.49 28.65

GFSNW_sfc_wetblb_048.txt.gz
Wetbulb
48.67 48.52 48.42 48.65 48.21 49.88 47.47 40.40 33.41 47.67 49.01 34.94 35.35 33.89 35.96 39.62 39.33 42.98 41.15 40.37 38.19 35.50 36.32 34.54 34.47 34.10 38.22 42.34 41.86 36.27 39.16 35.07 29.63 30.89 37.15 38.97 37.91 33.22 32.14 22.51 19.99 25.24 22.28 26.12
48.42 48.27 48.07 48.66 47.79 49.26 45.18 37.92 37.61 47.66 46.22 30.28 31.43 37.45 37.84 38.46 38.92 40.19 40.24 38.98 40.23 40.05 36.48 32.91 37.33 37.81 41.47 42.80 40.76 38.02 38.59 32.95 25.42 29.56 32.82 37.12 31.86 34.75 34.67 33.28 30.97 25.14 23.84 25.98
48.24 47.99 48.04 47.66 47.93 48.96 45.46 38.84 33.62 39.38 41.01 40.23 36.73 35.32 35.19 36.64 41.93 41.56 42.51 40.60 41.36 38.55 37.47 39.59 36.74 36.28 40.23 41.90 42.15 43.79 41.52 35.20 27.36 23.36 30.64 34.61 28.19 32.61 33.84 32.66 28.11 27.91 28.60 30.10
48.00 47.84 47.69 47.57 49.01 49.80 45.80 38.48 34.97 38.10 34.19 36.37 38.23 39.03 37.76 35.81 36.13 41.69 42.79 40.23 40.17 38.35 35.16 36.55 36.05 37.89 38.36 40.68 41.33 39.10 37.71 29.93 32.09 33.59 34.87 34.59 33.16 33.00 33.75 32.35 31.86 28.55 30.89 32.69
47.85 47.69 46.97 47.32 49.26 49.78 44.57 37.19 34.65 37.22 37.95 39.76 38.55 38.87 36.82 36.91 38.21 39.37 38.49 38.65 40.62 40.25 37.10 38.16 35.77 37.67 37.44 35.90 38.29 37.96 38.87 30.41 33.55 27.80 34.14 34.37 32.01 34.58 35.07 35.84 36.15 36.22 37.00 36.50
47.58 47.29 46.49 47.44 48.55 48.63 42.60 43.34 42.94 39.32 38.88 38.33 37.58 37.48 37.75 38.73 40.49 41.63 42.72 40.95 39.28 38.42 39.71 41.93 42.05 42.84 41.64 41.01 37.22 36.73 36.57 33.52 31.54 28.27 34.14 34.35 31.16 35.52 36.66 37.98 40.03 39.00 35.08 38.89
47.06 46.68 46.18 46.43 47.63 47.61 45.10 44.48 41.99 37.53 34.45 37.70 38.13 39.13 41.04 40.19 40.98 39.22 41.72 42.37 40.32 42.79 45.68 44.90 43.25 41.51 40.69 39.93 39.74 40.44 35.85 34.30 33.67 27.05 30.89 24.97 35.47 42.31 41.70 38.56 40.51 41.76 41.16 42.52
45.43 45.62 45.63 45.75 46.26 46.86 43.78 45.26 41.91 39.03 34.71 38.34 39.11 39.64 40.39 41.83 42.90 41.09 41.25 43.43 45.04 46.42 43.40 38.22 35.79 35.82 36.41 37.30 39.28 39.33 39.65 37.23 33.53 28.62 28.43 32.30 36.82 39.85 37.67 36.93 38.49 42.03 40.60 42.86
44.92 44.61 44.79 45.45 46.63 46.31 43.84 45.17 46.05 41.69 36.84 36.91 40.92 39.65 40.49 38.71 39.01 39.73 42.32 45.93 47.16 44.80 40.28 36.86 30.65 27.25 32.28 32.57 34.37 39.88 39.19 38.95 34.44 30.46 26.02 23.80 35.01 40.21 42.39 42.70 35.14 43.25 42.53 42.36
45.21 45.01 45.07 45.46 46.41 46.00 44.10 43.87 46.40 42.60 38.10 40.74 42.82 39.33 39.54 43.32 41.57 39.70 42.23 42.84 42.48 43.68 38.07 34.38 30.55 29.64 35.45 29.87 32.06 33.03 33.78 34.53 31.63 30.42 28.56 30.96 38.97 42.10 43.67 34.82 35.79 42.65 42.98 42.80
45.05 45.19 45.11 45.07 45.38 45.66 43.81 42.48 46.22 42.50 39.14 40.85 45.13 46.39 43.40 42.14 42.37 39.25 41.98 39.70 40.38 39.51 36.22 34.85 34.27 32.18 33.58 32.14 34.82 33.21 31.25 30.38 30.13 31.07 28.70 25.21 41.96 41.36 38.22 41.26 43.47 44.49 43.35 42.92
44.86 44.96 45.09 45.14 45.41 45.48 44.63 41.26 45.73 45.80 40.45 41.25 47.95 49.32 50.10 48.57 47.71 45.23 43.76 41.90 40.06 42.04 37.79 37.87 38.39 33.73 34.40 34.42 30.25 39.15 33.53 35.25 32.91 33.65 32.93 40.51 42.65 42.49 44.05 44.00 42.13 42.32 41.65 42.76
44.86 44.79 44.96 44.89 45.38 46.03 44.67 41.60 43.68 43.54 42.09 44.76 45.94 45.83 50.16 51.95 50.16 50.59 42.27 42.79 44.25 42.34 44.72 40.99 39.31 35.38 37.28 32.53 33.52 36.67 38.48 40.97 37.13 37.50 40.77 41.36 42.75 44.03 42.70 41.43 40.35 41.16 39.85 42.68
44.89 44.76 44.71 44.34 44.61 45.26 45.19 41.79 44.49 42.37 40.36 39.42 43.75 50.10 47.14 50.50 50.80 50.07 49.39 46.73 46.91 46.06 45.17 41.24 39.44 37.00 40.80 35.88 37.48 37.50 39.55 41.10 38.90 38.37 41.09 41.90 42.83 41.96 41.50 40.53 39.78 39.79 39.15 41.32
44.69 44.42 44.07 43.86 44.85 45.47 44.73 43.44 44.41 44.67 40.70 39.05 41.76 46.78 48.35 49.02 48.80 47.90 47.80 46.22 44.79 43.94 41.61 39.76 37.65 41.26 39.59 41.08 39.58 36.49 40.54 39.36 37.53 37.72 42.17 41.90 39.48 40.61 41.57 39.91 38.17 39.43 39.14 39.59
44.38 43.93 43.73 44.64 45.14 45.35 42.58 39.69 45.71 46.51 44.96 41.21 38.50 46.54 45.66 46.04 46.81 46.77 47.18 46.88 45.80 44.61 42.09 40.38 42.03 44.35 42.45 38.41 36.41 41.63 42.68 44.32 44.79 41.95 42.80 41.98 41.30 40.83 40.34 38.48 37.48 38.49 38.14 38.37
44.08 43.73 44.44 44.96 45.79 44.08 38.07 39.25 42.97 46.31 44.53 41.46 38.33 39.66 45.09 46.33 46.02 45.69 45.27 46.04 44.35 44.23 42.05 40.69 41.53 41.93 43.01 39.47 34.74 41.31 42.92 44.30 44.14 44.59 43.44 40.76 41.12 38.32 37.64 36.92 36.48 37.58 36.97 36.76
43.68 44.02 44.96 46.24 46.41 44.57 40.27 44.27 46.50 45.76 42.11 43.77 36.90 37.05 40.34 45.41 42.35 40.90 45.03 42.09 42.89 42.40 41.58 42.29 41.37 42.26 42.26 37.43 40.37 42.17 43.75 43.05 42.67 43.60 43.30 42.16 40.28 38.30 36.33 35.79 35.36 33.70 33.04 33.11
43.59 44.09 45.33 43.99 41.59 39.08 43.08 45.97 47.24 46.99 44.45 39.57 38.06 34.66 34.02 44.04 42.53 43.43 42.33 42.56 36.63 41.86 38.88 40.21 41.25 39.45 36.08 39.56 40.60 42.39 43.57 41.81 40.62 40.99 40.65 39.42 37.68 35.72 35.15 34.93 35.43 33.47 32.86 32.16
44.35 44.31 41.59 38.86 43.09 44.96 44.81 44.32 42.38 41.55 43.54 43.29 38.42 41.84 37.86 42.07 41.73 40.21 40.62 40.53 37.52 32.92 38.23 40.12 37.73 37.55 41.94 42.17 41.62 42.01 42.11 41.93 41.15 37.98 34.56 35.25 33.54 34.90 34.91 35.35 35.67 34.92 33.92 33.27
40.09 36.90 37.09 41.33 44.36 43.13 42.52 39.05 37.77 39.09 36.18 40.70 40.65 39.94 38.37 43.28 38.13 38.77 39.68 35.52 34.39 32.02 34.25 34.91 34.68 35.39 37.62 36.73 37.38 39.09 39.67 40.57 41.44 41.39 40.05 39.68 38.79 37.13 36.25 35.43 35.26 34.43 33.65 31.09
39.39 38.28 41.01 40.71 39.49 37.92 35.25 34.28 35.62 34.98 34.13 39.28 38.44 38.97 40.20 41.39 42.46 38.37 38.31 33.85 34.03 31.21 35.94 33.23 30.88 35.53 35.74 35.35 35.85 37.31 37.88 39.12 40.28 40.05 41.35 41.88 40.71 39.37 37.84 36.50 35.04 33.84 32.08 31.07
42.58 38.36 34.06 36.00 35.68 32.13 31.78 30.57 32.09 33.06 35.80 35.55 35.75 36.27 39.56 40.60 39.95 36.95 35.78 32.63 32.12 35.39 32.50 31.07 32.50 34.32 33.80 33.89 35.47 36.25 38.01 39.29 39.59 39.56 41.69 42.77 40.83 39.83 37.11 35.54 34.70 32.24 31.27 31.33
35.78 32.79 30.41 30.82 31.62 32.65 32.41 33.28 33.30 35.23 35.04 35.89 37.33 36.08 36.55 38.63 36.07 37.03 32.96 34.24 32.14 29.97 28.88 29.67 32.27 31.03 31.27 33.61 35.79 37.03 37.93 38.02 38.07 38.11 39.13 39.23 38.48 37.48 36.13 33.99 32.89 31.98 30.73 29.54
33.28 32.68 28.45 30.61 33.18 33.72 33.14 33.44 34.14 35.68 37.19 36.49 36.38 34.77 35.57 34.55 33.59 34.26 31.81 30.96 29.77 30.93 29.12 32.59 30.70 30.49 31.42 32.78 34.08 35.11 36.28 36.55 36.33 36.77 36.63 36.32 35.56 34.67 33.21 33.07 32.41 30.85 29.52 28.72
32.93 32.22 30.50 32.19 31.50 31.96 32.85 32.79 32.99 36.53 37.15 36.02 34.77 33.41 32.94 32.19 33.66 31.43 30.97 29.17 28.73 31.54 30.46 30.35 30.73 30.44 30.87 31.22 32.12 33.37 34.19 34.86 35.30 35.32 35.08 34.53 33.08 32.01 31.44 31.70 30.66 30.43 29.48 27.93
32.06 29.45 31.73 29.77 31.08 32.37 33.29 33.85 34.59 37.00 34.70 32.83 32.80 31.59 32.11 31.96 30.53 30.55 32.78 31.25 30.05 25.11 28.47 27.63 28.55 28.92 29.62 29.96 31.35 33.03 33.28 33.64 33.67 33.50 33.14 32.41 31.48 31.01 29.57 28.29 27.83 27.84 27.72 27.35

GFSNW_sfc_wetblb_051.txt.gz
Wetbulb
48.86 48.49 48.70 48.27 49.05 49.76 47.62 39.86 32.89 45.20 47.24 31.90 34.21 32.74 35.86 36.06 37.18 41.79 40.00 38.28 35.59 33.55 35.69 33.27 34.15 32.43 35.76 40.76 39.55 34.86 38.75 34.50 26.98 27.99 35.32 37.81 35.34 32.16 30.79 17.86 16.42 19.51 23.28 24.38
48.43 48.29 48.35 48.18 49.32 50.16 45.02 38.25 38.54 44.83 43.03 27.27 29.53 36.32 35.27 36.18 39.34 40.07 40.22 37.99 38.96 38.52 35.63 31.85 35.43 36.49 40.57 42.05 40.12 37.35 37.27 32.55 25.55 29.27 33.52 36.79 31.77 35.14 33.30 30.49 26.95 17.90 19.02 23.54
48.21 48.09 47.63 48.40 49.21 50.07 41.99 38.64 31.40 37.84 39.62 39.44 35.98 34.53 34.09 34.96 41.52 40.88 42.14 39.88 40.29 38.10 35.88 37.62 35.43 34.83 40.07 42.00 42.09 44.44 41.46 33.98 23.97 21.78 27.12 31.85 26.94 31.08 31.73 31.79 23.70 25.09 24.53 28.54
48.03 47.81 47.15 48.06 49.06 50.01 44.56 38.64 35.14 36.92 33.44 35.46 37.66 37.79 37.15 35.96 36.65 41.04 41.79 38.25 39.01 38.25 35.13 36.01 35.10 36.73 36.59 39.51 41.89 40.09 37.42 25.63 29.40 31.53 33.29 33.52 31.89 30.70 31.81 26.18 30.32 27.63 30.19 30.96
47.59 47.36 46.71 47.03 48.63 48.93 40.59 37.28 35.03 37.99 36.00 39.18 37.18 37.40 36.43 36.81 38.27 38.28 37.36 36.87 40.01 38.40 35.84 36.50 34.18 36.30 34.85 34.55 35.92 35.30 36.45 26.25 31.89 25.97 32.74 33.41 30.56 32.87 33.02 33.33 33.25 33.25 33.46 33.24
46.16 46.35 46.24 46.20 47.13 46.83 41.33 42.40 42.72 38.93 37.17 38.10 36.56 35.89 36.96 38.44 39.58 40.56 41.12 39.35 38.57 37.48 38.49 40.08 40.13 40.17 39.59 38.52 35.65 35.64 35.32 31.18 28.67 23.54 32.12 31.92 26.60 32.71 33.64 33.65 36.02 36.86 33.89 38.88
45.47 45.12 45.42 45.83 47.00 46.24 43.09 43.30 41.81 37.32 31.98 36.77 36.17 38.82 40.38 39.56 40.63 37.38 40.34 41.67 39.29 41.50 44.10 43.32 41.59 40.13 39.43 38.63 36.56 38.14 35.63 33.43 30.41 24.28 28.44 23.26 33.55 38.96 39.67 36.75 38.96 41.48 41.80 42.61
45.66 45.39 45.30 45.72 46.89 46.66 42.11 43.61 41.96 38.53 33.91 36.71 37.06 38.59 40.28 41.05 40.44 39.49 40.87 42.17 43.00 44.50 42.01 37.56 35.40 34.78 35.55 35.94 37.62 39.02 39.03 34.87 32.30 27.03 27.33 29.43 36.14 38.73 37.00 35.48 36.65 42.98 41.64 42.37
45.33 45.45 45.31 45.27 45.75 46.38 42.81 43.51 45.62 41.56 36.86 33.30 38.21 38.25 39.54 38.12 35.84 37.45 40.94 44.49 45.33 43.54 38.92 35.55 28.31 26.76 30.61 31.49 34.39 39.05 38.79 38.32 32.96 28.92 22.74 22.32 35.82 38.89 40.94 41.46 35.19 42.66 42.85 42.69
45.22 45.08 45.28 45.43 45.51 45.64 43.13 42.85 45.69 41.99 37.58 39.00 38.78 36.10 36.29 41.34 38.46 37.36 40.55 42.07 40.87 41.85 36.73 32.91 26.91 28.20 33.51 29.75 29.99 32.70 33.48 34.02 31.12 28.36 26.14 29.62 36.96 40.36 42.57 32.12 33.08 41.66 43.18 43.82
45.06 44.86 45.02 45.31 44.98 45.30 42.10 41.03 45.55 41.32 37.81 38.82 41.86 44.71 40.61 41.18 39.74 36.34 39.86 37.36 39.25 38.20 32.58 33.73 33.67 30.40 32.12 31.04 33.00 32.48 30.53 28.77 29.19 30.75 28.30 22.35 39.40 40.22 36.21 39.70 40.93 42.53 42.87 42.59
44.99 44.85 44.72 44.95 44.92 45.68 45.42 39.84 44.51 45.52 39.02 39.47 43.43 45.35 47.88 46.63 44.90 42.42 42.94 40.42 39.19 41.28 37.48 36.54 37.63 32.04 32.57 32.38 27.81 33.96 31.34 32.52 31.19 31.55 30.72 37.88 39.42 40.75 41.00 41.72 40.27 39.49 41.76 41.74
44.95 44.84 44.62 44.61 44.51 44.72 44.01 41.12 42.56 42.84 40.42 42.48 43.45 43.33 49.14 49.81 48.76 50.00 42.14 43.07 43.46 41.24 43.98 39.76 37.60 34.87 36.46 31.31 31.56 32.94 36.15 38.75 35.58 36.11 40.31 39.62 41.14 40.20 40.65 39.65 38.16 38.12 39.84 42.10
44.92 44.81 44.51 44.30 43.95 44.66 44.47 41.00 43.52 41.62 38.38 37.19 42.81 48.54 45.18 48.63 49.39 48.55 47.70 45.04 44.97 44.18 43.68 40.15 38.90 37.04 38.89 35.51 35.51 34.64 37.86 37.99 37.13 37.49 40.33 39.03 39.52 40.54 39.44 38.37 38.09 37.73 38.11 40.94
44.81 44.57 44.34 43.77 44.07 45.13 43.30 42.22 43.05 43.66 38.71 37.60 38.67 43.77 45.82 47.46 47.07 45.46 45.30 44.54 42.16 40.05 41.11 40.20 38.08 40.78 39.27 37.36 37.01 34.39 38.04 37.40 36.69 36.57 42.65 41.24 39.14 39.08 39.33 37.57 36.84 37.26 39.08 38.86
44.48 44.33 43.75 44.21 45.15 45.22 41.88 37.39 45.14 45.49 44.51 40.07 37.20 45.95 42.32 43.26 44.29 45.93 45.73 44.95 45.15 44.10 41.99 40.64 41.67 43.70 41.61 37.21 36.25 39.45 39.95 41.14 42.52 41.18 41.71 40.96 39.67 38.25 37.87 36.65 36.51 37.61 38.29 38.66
44.22 43.76 43.98 44.75 45.28 42.69 37.21 38.58 42.71 45.75 44.14 40.24 37.45 38.61 43.04 44.14 42.92 45.35 45.38 46.19 44.43 44.28 42.15 40.55 41.08 41.03 42.57 38.01 34.76 39.47 42.36 41.43 43.61 44.25 42.81 38.89 38.53 37.03 36.22 36.14 36.55 37.18 35.61 36.20
43.84 44.06 44.57 45.90 46.32 44.16 39.64 42.85 45.33 45.11 40.94 42.26 36.06 35.65 37.33 44.59 42.23 40.59 45.04 41.98 42.74 42.43 41.14 41.72 40.21 40.83 40.20 35.76 38.90 40.22 41.42 42.87 41.74 41.38 41.44 40.96 38.05 35.42 34.84 34.82 33.99 32.76 32.49 32.58
43.81 45.09 45.09 43.76 39.92 37.30 41.59 46.10 46.83 46.50 42.59 38.63 37.48 33.28 32.23 43.77 42.36 43.03 42.43 41.93 36.45 41.14 38.30 39.40 41.18 38.12 35.49 39.46 40.13 41.60 42.37 42.03 40.36 39.19 38.59 37.45 35.62 34.08 33.52 33.06 32.61 31.21 31.58 31.30
45.40 43.83 40.65 38.01 41.58 44.96 44.93 43.57 41.72 40.43 42.08 42.36 38.57 40.96 34.98 40.37 41.26 39.69 40.23 40.53 36.69 32.89 37.61 40.29 37.68 36.92 41.44 37.24 36.67 38.29 38.79 40.50 40.65 39.65 36.98 34.13 31.72 32.99 33.18 33.50 33.87 34.08 32.85 31.66
37.42 36.09 35.74 40.07 44.14 42.80 40.83 38.09 37.33 38.60 35.86 40.36 40.27 39.67 37.53 42.34 37.36 38.21 39.86 35.24 34.12 31.64 33.81 34.58 33.55 35.17 36.10 34.88 35.11 36.36 37.42 37.83 38.21 40.25 41.49 39.66 37.46 35.26 34.51 34.80 34.73 34.22 33.15 30.56
38.54 38.28 40.56 40.37 39.17 37.83 35.17 34.18 34.63 34.86 34.10 38.81 38.00 38.62 39.72 40.25 42.02 38.03 38.20 33.13 32.95 30.61 36.41 33.28 30.43 33.60 32.80 32.47 33.75 35.67 37.26 37.13 37.99 40.38 40.74 40.27 38.96 37.73 36.59 35.27 33.97 32.78 31.33 30.29
41.52 38.28 33.87 35.88 35.28 31.34 31.57 29.90 31.63 32.71 35.64 35.03 35.34 35.63 38.99 40.04 39.84 36.91 35.24 32.26 32.15 35.71 32.03 30.91 32.14 31.93 32.72 32.46 33.64 35.33 37.28 37.41 38.60 38.83 41.73 40.97 39.41 38.96 37.17 35.21 33.89 31.67 30.50 30.16
35.24 32.03 25.84 30.41 30.62 31.75 32.73 32.17 32.31 34.39 34.35 35.17 36.98 35.43 36.42 38.19 35.66 36.56 32.62 34.63 32.65 29.27 28.29 29.39 30.54 30.76 31.11 32.55 33.72 34.42 35.74 37.63 37.12 37.33 39.58 40.49 38.51 36.82 36.14 34.21 32.49 31.02 29.65 29.34
30.53 31.95 26.53 29.68 32.39 32.80 32.64 32.61 33.52 34.85 36.22 36.20 35.86 34.19 33.65 33.22 33.27 33.81 31.66 30.12 28.16 30.28 28.77 30.71 30.50 30.09 30.16 30.60 31.14 32.38 34.09 34.88 36.09 36.86 36.48 36.27 34.92 33.67 32.16 32.24 32.04 31.59 29.71 28.63
31.89 31.42 29.73 31.21 29.70 31.52 32.15 32.20 32.45 35.35 35.81 35.56 34.41 32.94 32.16 30.84 32.63 30.79 30.06 28.47 27.91 30.07 28.31 29.03 28.98 29.58 29.86 29.73 30.73 31.79 33.19 33.87 34.08 34.80 34.72 33.80 32.81 32.07 31.10 31.29 30.21 29.61 28.67 27.11
31.13 27.98 31.71 30.94 30.91 31.81 32.46 33.72 34.51 36.49 34.23 32.26 32.55 31.36 31.11 31.89 30.33 30.01 31.29 29.86 28.25 27.53 27.66 24.75 26.74 27.49 28.21 28.57 30.43 31.20 31.45 32.13 32.15 32.54 32.57 32.04 30.57 29.68 28.98 27.66 28.61 29.02 28.45 27.34

GFSNW_sfc_wetblb_054.txt.gz
Wetbulb
48.92 48.70 48.17 48.95 49.78 51.07 46.21 37.89 32.79 43.68 47.14 31.09 33.24 31.48 35.45 35.75 35.64 41.22 40.03 36.95 36.04 33.58 33.32 32.15 31.57 31.47 34.55 38.86 38.17 33.72 36.28 31.71 27.52 31.18 34.78 36.76 34.55 31.38 28.36 17.45 14.94 15.97 23.05 22.69
48.57 48.47 47.78 48.41 49.31 50.24 39.91 38.25 35.61 43.19 41.75 29.68 30.71 34.65 35.22 35.74 37.46 39.72 39.77 36.54 37.04 36.94 33.56 31.87 33.39 33.77 39.34 39.72 37.82 35.42 35.76 30.31 22.65 25.84 31.12 36.28 30.46 32.58 32.50 28.20 24.25 16.43 16.38 22.61
48.10 47.97 47.43 47.42 48.55 49.80 40.54 34.01 29.69 34.87 38.02 38.02 35.55 33.36 32.90 35.57 40.56 39.73 40.30 37.63 38.69 36.04 34.53 36.10 33.28 35.17 39.99 41.17 40.77 44.13 40.08 31.24 23.50 20.84 25.08 29.58 24.39 30.61 31.85 30.19 20.52 22.07 22.32 26.90
46.74 46.68 46.91 46.92 48.06 48.88 40.60 38.22 34.55 36.90 31.89 35.29 36.85 37.43 37.46 36.94 36.59 39.63 39.96 36.93 37.40 36.80 34.14 34.11 33.59 36.12 37.69 39.83 42.33 39.97 36.65 26.07 28.18 30.18 32.31 32.25 31.29 29.76 30.22 27.47 30.05 22.83 27.24 28.34
46.28 45.72 46.02 46.59 47.75 47.80 42.44 37.09 35.65 37.90 36.69 38.96 37.49 37.65 36.79 36.63 37.47 38.22 37.26 36.89 39.10 38.05 35.38 35.26 33.48 35.19 34.13 33.62 37.18 37.02 36.57 25.25 30.83 25.52 31.36 32.13 29.63 32.26 31.73 31.42 31.40 31.07 31.59 30.94
46.27 45.80 45.63 46.24 47.55 45.68 40.23 42.31 42.44 38.69 36.16 35.76 36.43 36.29 36.59 37.93 39.34 40.30 41.15 40.53 38.63 36.71 37.93 39.12 39.15 38.94 38.41 37.40 34.75 33.58 33.60 29.18 28.68 22.86 30.48 30.15 25.21 30.99 32.21 32.14 33.20 34.61 30.66 35.86
45.67 45.85 45.76 45.80 47.15 45.28 42.50 42.16 41.95 36.89 30.04 34.55 35.69 37.69 38.48 38.17 39.01 37.57 40.79 41.02 38.81 40.75 42.90 42.21 41.59 39.98 38.13 37.28 36.02 37.14 32.83 32.35 30.51 24.19 27.21 21.87 31.62 37.21 36.89 34.01 35.72 37.77 39.66 42.22
45.56 45.44 45.54 45.81 45.92 46.61 41.75 43.32 41.70 38.36 31.06 33.75 35.47 37.10 38.62 38.84 39.84 39.32 40.28 41.76 42.46 43.81 41.36 35.75 33.58 33.30 35.10 36.24 37.00 37.79 37.07 32.72 30.91 27.44 24.45 27.83 34.58 37.71 36.55 35.37 35.77 41.13 41.72 43.22
45.44 45.15 45.25 45.56 45.64 45.77 42.50 43.66 44.88 41.43 35.97 31.17 37.38 36.04 39.34 36.56 34.46 36.91 40.24 43.74 44.44 42.58 37.85 34.29 26.96 26.96 30.25 31.20 34.33 39.13 38.90 38.16 31.48 29.67 20.93 21.24 32.91 37.52 40.85 40.43 32.63 41.46 43.35 42.44
45.46 45.00 44.87 45.14 45.48 45.50 42.40 42.26 45.00 41.05 37.01 38.69 39.62 35.39 37.76 42.36 39.07 35.07 37.88 40.01 39.44 40.39 34.07 30.82 26.24 27.93 33.95 29.45 29.74 32.43 34.09 34.66 31.37 28.83 27.06 27.70 35.19 37.19 41.38 29.44 31.81 40.88 41.77 41.51
45.22 44.93 44.79 44.75 45.02 45.30 42.24 41.07 44.99 40.97 37.09 38.02 40.63 43.21 39.52 40.45 39.35 34.67 37.84 35.94 37.20 35.84 31.37 33.49 32.17 29.40 31.14 29.51 32.22 32.46 30.56 29.93 30.20 30.03 27.39 22.36 37.90 39.46 35.97 38.63 40.75 41.17 40.76 42.53
45.26 44.91 44.82 44.62 44.63 44.73 44.25 37.97 44.28 45.30 38.37 38.35 41.80 43.06 44.19 45.00 44.23 40.69 40.53 39.27 38.81 40.67 37.37 35.99 37.08 32.85 31.92 30.47 26.52 33.32 30.49 31.21 28.69 30.66 29.92 36.83 37.82 38.88 42.76 41.04 39.58 38.92 38.71 40.04
45.29 44.97 44.79 44.49 44.31 44.17 43.58 39.76 42.30 42.47 39.20 40.52 41.27 42.40 46.61 46.88 47.12 47.85 39.18 41.10 43.52 41.14 43.80 39.52 36.82 31.87 34.55 32.38 30.23 30.11 34.25 37.80 34.26 34.74 38.72 37.68 39.57 39.94 40.23 38.76 37.83 37.83 37.94 40.12
44.54 45.10 44.68 44.49 44.10 43.73 44.20 39.12 43.29 41.12 37.75 35.62 40.03 47.57 43.84 48.55 48.20 47.30 46.54 44.33 43.81 42.77 42.77 39.18 38.22 35.73 36.88 33.85 34.40 33.63 36.39 37.90 36.40 35.09 39.52 40.24 39.06 39.66 38.86 38.21 37.03 37.76 37.84 40.72
44.22 44.54 44.36 43.93 43.48 44.03 44.37 41.34 43.17 43.23 38.83 36.18 39.27 42.96 43.85 45.94 46.21 44.54 44.00 43.36 41.12 39.10 40.37 39.39 37.54 40.65 38.82 35.68 35.22 32.52 36.82 35.99 34.82 34.79 41.39 42.27 41.70 39.39 39.15 37.53 36.25 37.00 38.59 39.65
44.48 44.38 44.04 43.64 44.08 45.02 41.03 35.65 43.41 43.84 42.98 38.03 35.91 44.58 44.86 42.21 42.92 43.03 42.60 42.91 42.14 43.36 41.85 40.65 41.52 43.10 40.11 36.16 35.35 38.39 40.28 40.04 41.90 39.19 41.55 40.65 39.19 38.47 37.30 36.72 35.87 36.67 38.75 39.13
44.55 43.91 43.89 44.20 44.92 43.01 36.80 37.96 42.78 45.45 44.35 38.92 36.76 38.28 43.86 43.19 44.80 45.13 44.54 45.98 44.57 44.07 42.31 40.75 40.90 40.17 42.00 38.33 32.32 38.26 41.58 42.21 41.31 43.83 42.39 39.25 39.18 38.49 36.54 35.95 36.48 37.26 36.42 38.34
44.01 44.14 45.17 45.55 46.38 43.99 39.35 42.12 44.54 44.99 40.61 40.68 35.61 36.03 36.30 43.82 41.81 40.63 44.83 42.37 42.86 42.61 41.29 41.83 40.16 40.56 40.52 35.72 37.27 38.45 40.29 42.38 41.01 39.61 39.68 38.70 36.26 34.90 34.03 33.79 33.92 33.08 32.36 32.61
43.56 45.51 45.50 41.60 37.36 33.54 40.38 46.60 46.70 45.20 41.73 37.39 37.62 33.29 28.02 43.60 42.23 42.75 42.44 42.26 36.95 40.83 38.12 39.16 40.64 38.35 35.48 36.54 36.23 37.47 38.77 39.06 40.00 40.71 38.70 36.25 34.85 33.93 33.07 32.49 32.02 31.33 30.45 30.59
44.01 43.89 40.12 35.85 40.10 45.19 44.88 43.13 40.88 40.35 41.05 40.60 38.37 40.43 34.75 39.80 40.60 39.30 39.96 40.10 36.09 32.32 37.19 40.52 37.63 35.61 37.01 35.03 35.18 36.57 35.52 36.43 37.18 37.61 38.30 36.90 34.49 33.22 32.46 31.77 32.09 32.60 31.87 29.94
36.08 34.19 35.71 39.66 43.70 42.15 40.69 37.65 36.62 37.92 35.33 39.59 39.70 39.68 37.64 42.11 37.08 37.62 39.91 34.82 33.67 31.30 33.78 34.52 32.77 34.15 32.83 33.70 32.44 33.68 34.80 35.56 36.05 37.06 38.32 40.31 39.81 35.14 34.08 33.94 34.16 33.81 32.45 30.34
37.20 36.83 40.42 40.13 38.71 37.50 34.04 33.31 34.76 35.20 33.83 38.60 38.13 38.22 39.29 39.95 41.62 37.94 38.28 32.87 32.24 29.96 35.85 32.47 30.55 33.74 31.49 31.61 32.19 33.19 36.14 37.88 37.07 37.51 38.31 40.41 40.60 38.41 36.71 35.24 34.13 33.30 31.49 30.28
41.53 38.25 33.83 35.43 34.99 30.30 29.54 28.46 31.80 32.60 35.73 35.15 35.36 35.39 38.65 40.13 39.77 37.15 35.12 32.00 31.98 35.78 31.79 30.61 32.00 30.91 31.75 31.61 32.28 32.46 35.63 36.88 37.09 36.86 40.15 39.69 38.39 37.94 36.38 34.14 32.98 31.43 30.30 30.41
34.71 31.46 27.78 29.80 29.96 31.34 32.75 32.58 32.45 34.24 34.48 35.09 36.94 35.25 36.30 38.23 35.60 36.35 32.56 34.81 32.82 29.13 27.88 28.74 29.72 29.57 30.16 30.94 31.41 31.87 33.52 35.27 35.84 37.02 38.48 40.34 38.39 36.79 35.42 34.76 32.73 31.36 29.79 29.47
30.12 32.09 26.00 28.87 31.20 32.78 32.60 32.45 33.43 34.61 36.21 36.13 35.69 34.32 34.70 33.03 33.07 33.56 31.98 30.40 27.89 29.91 29.06 28.69 28.86 29.30 29.57 29.91 30.29 31.33 32.62 33.34 34.56 35.58 35.89 37.19 35.99 35.20 33.44 32.57 32.66 30.38 28.61 27.33
31.42 31.05 29.03 31.18 29.12 31.25 32.04 32.09 32.52 35.08 35.30 35.44 34.57 32.94 32.15 31.54 32.16 30.52 29.81 28.04 27.38 28.89 28.39 27.80 28.21 28.49 28.66 28.92 29.69 30.96 31.81 31.98 33.36 33.61 34.35 34.73 33.95 32.10 30.89 31.63 30.87 29.87 29.01 27.38
28.54 24.13 31.20 30.70 29.97 31.33 32.23 33.61 34.57 35.63 34.12 32.22 32.20 31.12 31.12 32.10 30.73 29.49 30.37 29.10 28.51 28.40 24.64 24.13 25.52 25.60 27.24 28.24 29.52 30.11 30.44 30.74 30.80 30.73 31.18 31.75 30.32 29.38 28.53 27.38 28.97 29.33 28.81 27.53

GFSNW_sfc_wetblb_057.txt.gz
Wetbulb
48.34 48.42 48.14 48.00 48.95 50.42 43.84 35.67 25.85 42.71 44.72 30.86 31.93 29.72 34.05 36.56 36.44 40.80 39.23 37.67 35.49 32.32 34.30 33.02 32.54 31.53 33.38 38.01 37.42 32.81 35.27 30.85 29.73 31.86 34.18 35.95 33.76 30.65 27.61 18.27 16.29 16.45 21.28 21.17
47.28 47.01 47.10 47.58 48.81 49.26 38.69 33.96 33.38 41.80 40.65 27.67 30.24 35.56 36.03 36.43 37.49 38.52 38.25 35.13 37.41 37.65 33.04 30.55 32.81 32.80 37.86 39.02 37.00 34.73 35.13 27.78 18.66 27.60 32.47 35.49 30.34 31.93 29.03 26.45 22.06 14.02 15.26 21.56
47.05 46.52 46.66 47.08 48.43 48.61 39.16 32.81 28.06 34.51 35.54 37.10 35.29 33.09 34.65 36.27 39.15 37.62 38.50 36.33 37.63 35.56 33.96 35.01 32.66 33.99 38.92 39.00 38.93 43.16 39.07 29.68 23.37 20.23 24.76 29.13 22.93 29.96 29.76 29.81 20.76 20.69 21.48 24.53
46.83 46.75 46.31 46.88 48.35 48.01 39.38 36.01 32.75 37.49 32.39 33.01 37.07 38.41 38.19 35.36 34.55 38.42 39.35 36.63 36.90 36.08 32.55 33.13 32.60 35.15 36.16 38.53 42.85 37.79 35.16 25.86 27.54 29.39 31.49 31.54 29.82 29.50 30.01 26.84 28.14 20.96 24.92 27.14
46.49 46.38 46.17 46.25 47.83 47.06 40.01 36.78 35.23 38.26 36.55 38.78 36.79 37.48 36.01 36.75 36.91 37.15 36.39 35.73 37.34 36.97 34.53 34.97 32.59 34.67 33.61 33.15 35.86 35.25 34.57 25.42 29.12 24.97 30.80 31.32 29.31 31.51 30.89 31.03 31.44 30.72 31.55 30.67
46.34 45.92 46.08 46.03 46.51 44.67 39.31 41.61 42.48 38.70 33.73 32.71 34.24 35.01 36.04 36.73 38.20 40.87 41.41 39.58 37.56 36.11 36.97 37.94 38.66 37.97 37.32 36.64 34.29 33.11 33.95 28.40 27.23 20.38 29.17 29.32 24.91 30.02 31.16 31.33 31.58 33.27 29.31 34.66
46.29 45.58 45.38 45.97 46.06 45.63 42.23 41.86 40.94 34.24 29.57 31.64 32.80 35.65 37.65 38.28 38.50 37.45 40.12 40.48 37.80 40.17 42.69 41.36 40.69 38.83 37.02 36.44 35.48 36.23 31.34 30.32 31.09 25.35 26.40 22.63 30.12 34.42 35.53 33.33 34.52 35.78 37.29 38.94
46.28 45.53 45.26 45.37 45.84 45.95 41.52 43.16 41.62 38.11 32.05 32.22 33.79 36.04 37.24 37.86 39.25 38.78 39.74 41.35 42.05 42.88 40.30 35.32 32.71 34.09 34.79 36.28 36.08 35.77 35.55 31.80 30.24 27.40 24.79 26.67 32.51 36.22 33.56 32.65 34.82 38.06 37.63 40.47
45.71 45.53 45.04 45.08 45.47 45.70 42.01 43.12 44.12 40.83 35.42 30.11 36.27 36.28 36.29 34.83 33.45 36.10 39.43 42.90 43.52 41.37 36.90 33.64 26.75 27.66 29.78 31.30 34.03 38.90 37.25 37.85 30.58 29.44 22.92 20.42 30.00 36.64 39.73 39.59 32.51 40.67 42.37 42.77
45.34 45.45 44.92 44.73 44.88 45.11 41.15 41.62 44.30 41.00 36.96 37.60 39.87 35.74 35.00 39.20 35.69 34.33 36.51 39.06 38.91 39.01 33.23 30.04 25.65 29.06 34.60 29.22 30.07 32.02 33.91 34.60 30.88 28.24 26.39 26.56 33.58 36.47 41.10 29.75 31.99 41.82 40.38 41.07
45.59 45.15 45.35 44.94 44.62 44.82 41.04 39.00 44.61 40.77 37.24 37.20 39.30 41.01 38.37 39.43 39.68 35.55 36.36 34.75 35.90 34.40 30.53 30.03 30.25 28.40 30.55 28.46 30.41 32.59 30.74 30.02 29.91 30.90 26.94 21.87 36.13 38.49 35.07 39.17 41.31 42.13 40.52 41.37
44.74 45.19 45.29 44.87 44.55 44.37 42.88 35.22 43.76 44.73 37.78 36.47 40.53 42.10 43.50 43.50 42.73 41.96 38.74 37.55 38.20 39.99 36.66 34.76 36.55 32.90 32.49 29.47 26.47 31.99 29.69 31.40 28.55 29.74 28.86 35.17 38.43 39.34 41.94 42.46 40.59 39.71 39.41 39.95
44.74 45.15 45.15 45.05 44.49 44.10 42.38 39.49 41.23 41.49 38.76 39.62 40.14 39.71 44.52 44.15 43.20 45.93 37.97 39.62 43.15 41.29 43.34 39.22 37.17 30.55 32.85 29.75 31.97 28.57 33.60 36.51 32.65 33.17 37.66 37.55 39.30 39.27 39.32 41.16 38.50 37.07 38.31 40.83
45.30 45.00 44.69 44.84 44.24 43.86 42.99 38.64 41.11 40.97 37.17 34.42 39.69 46.13 43.15 47.04 48.02 46.44 45.10 43.15 42.76 41.31 42.80 39.37 37.88 35.67 35.26 31.24 32.25 31.95 35.18 36.40 36.11 35.84 37.01 39.71 40.56 40.40 41.72 39.76 37.23 36.71 37.69 39.96
44.57 44.19 44.79 44.48 43.88 43.81 41.68 42.75 41.76 42.74 37.24 34.93 38.03 42.85 42.36 44.98 45.50 44.65 43.39 42.61 40.36 38.41 39.34 39.08 37.29 39.90 38.30 37.56 35.05 31.18 35.44 34.67 32.98 32.21 38.57 40.12 39.92 41.78 41.11 38.03 37.03 36.95 37.87 39.42
44.45 44.97 44.65 44.17 43.90 43.92 41.74 33.89 40.26 43.49 41.67 36.12 35.76 43.91 42.54 43.06 41.89 42.20 41.46 41.74 40.51 42.05 41.69 40.29 40.94 42.56 39.73 36.10 34.76 37.63 39.20 38.76 38.90 37.76 39.47 40.36 41.20 39.84 37.95 37.25 36.21 36.66 38.27 40.55
45.00 44.74 44.25 44.21 44.50 42.13 36.87 36.13 42.26 44.26 42.37 37.27 35.90 37.15 43.37 44.92 42.96 42.95 43.81 43.50 44.07 43.43 42.03 40.94 40.85 40.12 41.57 38.38 33.25 37.15 38.68 40.41 42.20 42.63 42.31 39.76 38.22 38.55 36.72 35.37 36.03 37.85 36.95 37.97
44.96 44.14 44.33 45.87 46.13 44.19 39.19 42.32 44.47 44.73 40.15 40.26 34.88 36.02 36.27 43.84 41.09 40.53 44.43 42.36 43.25 42.76 41.29 41.63 39.95 40.55 40.61 35.54 37.67 37.58 37.55 38.53 41.00 39.75 39.30 38.36 36.58 34.09 33.68 33.45 33.58 33.72 34.20 34.47
43.88 44.15 46.03 40.24 38.26 32.55 38.80 46.71 46.69 44.30 40.56 36.63 37.10 33.74 26.93 43.59 42.15 42.47 42.34 42.52 37.26 40.64 38.24 38.70 40.24 38.25 34.38 33.68 33.07 34.02 35.89 35.81 36.42 38.07 39.50 38.86 37.36 35.42 33.08 32.13 32.15 32.01 31.12 31.91
43.23 42.98 37.66 35.29 36.60 45.09 44.81 42.79 39.71 38.43 40.38 39.61 36.79 39.38 34.64 40.13 39.87 37.90 39.94 39.89 35.88 32.09 36.88 40.47 37.25 35.87 35.24 34.57 34.38 34.19 34.43 34.81 35.90 35.11 34.68 38.27 37.02 36.34 35.06 32.08 32.36 32.41 31.08 30.24
35.58 33.17 31.93 38.04 43.47 41.63 39.51 36.46 35.49 36.79 34.85 39.19 38.79 38.10 36.95 41.35 36.54 37.66 38.93 34.61 33.23 31.09 33.90 34.55 32.80 34.09 33.08 33.44 32.13 33.02 32.63 34.46 34.80 35.33 35.85 36.71 37.46 38.47 37.21 34.71 34.10 33.08 31.29 31.20
35.78 36.51 39.75 39.67 38.36 36.90 33.80 33.80 34.16 34.24 32.41 38.05 38.20 38.41 39.25 39.79 41.66 38.21 38.23 33.27 32.02 29.29 35.04 32.17 29.32 32.22 30.90 30.74 30.10 31.18 32.08 35.38 36.47 37.68 36.99 37.07 37.93 39.03 38.76 36.07 34.29 33.45 32.44 30.72
41.34 37.94 33.86 34.81 35.16 30.02 29.66 27.71 30.74 31.40 35.29 35.32 35.47 34.98 38.56 40.00 39.97 37.23 35.10 31.68 31.70 35.50 31.38 30.17 30.99 30.24 30.28 29.78 29.96 30.89 33.55 35.50 36.22 36.57 37.44 38.64 37.13 37.39 35.24 34.28 33.60 31.70 30.48 30.54
35.08 31.31 25.80 29.53 28.87 31.44 32.01 31.93 31.72 34.22 34.54 35.30 37.07 35.36 36.33 38.10 35.68 36.28 32.33 34.77 33.09 28.67 27.27 27.82 29.03 28.53 29.21 29.59 30.29 30.61 32.04 34.22 34.62 35.12 35.98 39.01 38.13 35.84 34.36 32.88 32.10 31.33 30.12 30.35
29.96 31.52 22.76 24.11 30.00 32.55 32.44 32.40 33.50 34.83 36.30 36.12 35.56 34.32 35.01 33.18 32.85 33.34 32.11 30.15 28.20 29.41 27.48 26.88 28.45 28.58 28.57 29.05 29.73 30.26 31.61 32.42 32.60 33.59 34.00 35.34 35.69 35.15 33.37 33.24 32.83 32.08 30.58 29.39
29.90 30.51 28.27 29.04 28.97 28.45 31.96 32.02 32.49 35.22 35.74 35.59 34.69 33.18 32.05 31.27 31.89 30.53 29.77 27.77 26.74 27.26 28.30 26.70 24.66 27.45 28.04 28.62 29.33 29.99 30.60 31.26 31.61 31.66 31.98 33.87 34.95 33.23 32.68 32.23 31.15 28.37 27.31 25.90
28.83 27.16 28.79 30.53 29.06 29.71 32.11 33.77 34.62 35.59 34.15 32.01 32.26 30.85 25.79 32.01 30.48 29.61 30.78 28.85 26.71 23.36 27.09 23.23 24.61 25.17 25.22 25.59 28.68 29.75 29.42 29.58 29.99 29.95 29.61 29.15 29.87 31.10 30.18 29.23 29.64 29.64 29.50 27.25

GFSNW_sfc_wetblb_060.txt.gz
Wetbulb
47.52 47.70 47.21 47.72 49.19 49.23 43.00 34.54 24.77 40.63 42.80 32.19 32.15 31.76 35.20 36.94 37.40 39.53 36.98 36.80 34.66 31.53 32.62 31.01 30.49 30.21 33.25 37.87 37.03 32.91 34.69 32.14 29.44 30.93 33.39 35.15 33.37 30.23 26.86 19.01 17.39 19.28 19.78 21.98
47.14 47.44 47.07 47.37 48.61 48.55 40.39 31.64 31.99 40.54 41.62 31.15 32.35 36.16 37.14 37.60 37.56 37.30 36.44 34.61 37.69 36.00 31.61 29.55 31.83 32.62 37.27 38.57 37.01 34.13 34.89 27.25 23.41 28.14 32.57 34.53 30.88 31.07 28.55 25.42 22.31 20.86 16.59 21.41
47.20 46.77 46.97 46.81 47.71 48.48 38.55 32.91 28.91 35.00 38.11 38.29 36.18 34.57 34.56 34.15 38.48 37.39 37.24 35.79 37.03 35.14 32.79 34.14 32.23 33.65 38.02 38.52 38.27 42.39 38.33 28.53 23.89 21.11 24.69 28.66 23.18 29.96 28.63 25.93 18.16 20.61 20.05 23.80
47.22 46.17 46.60 46.71 47.11 47.78 38.66 33.69 32.14 36.87 32.93 36.10 36.76 38.28 37.17 34.60 34.19 37.77 38.74 36.42 36.47 34.85 31.33 32.41 32.48 34.35 35.00 37.99 42.07 36.83 34.69 26.30 27.23 29.07 30.92 30.62 29.24 29.56 28.93 24.60 25.88 21.39 24.12 25.16
47.01 46.22 45.83 46.52 46.80 46.77 40.98 36.44 35.04 37.41 35.58 36.23 35.34 36.97 35.47 35.45 36.58 36.25 35.41 34.78 36.46 36.07 33.23 33.13 31.72 33.62 32.03 32.42 34.92 34.05 33.77 24.99 28.09 24.62 30.37 30.69 29.04 30.69 30.19 30.15 30.48 28.69 29.78 29.96
46.53 46.20 45.52 45.81 46.34 45.17 38.88 41.11 42.20 38.57 33.14 31.33 31.52 32.49 34.85 36.16 37.72 39.97 40.28 38.69 36.65 35.10 36.38 37.04 37.29 37.21 35.75 35.39 33.63 32.37 31.75 28.14 24.79 19.94 28.23 29.02 24.68 29.32 30.60 30.25 30.86 31.83 27.27 34.16
46.29 46.10 45.55 45.53 45.99 45.25 41.93 41.44 40.64 36.14 28.97 30.85 32.71 34.74 37.06 37.70 38.46 37.55 39.91 40.35 37.67 39.66 41.42 40.12 40.22 38.29 36.36 35.85 35.04 35.75 30.91 30.32 29.02 25.46 26.11 21.08 29.17 33.35 34.92 32.59 33.16 33.99 35.15 37.88
46.05 45.82 45.61 45.17 45.33 45.81 40.45 42.60 40.41 37.92 31.50 30.85 35.19 35.25 35.95 36.36 38.01 38.01 39.16 40.83 41.46 42.30 39.29 35.58 33.61 33.50 32.92 35.63 35.42 35.19 36.42 33.40 29.85 26.26 24.30 26.93 32.00 34.19 32.45 32.14 33.19 36.34 35.96 38.66
45.61 45.34 45.49 45.13 44.95 45.11 39.47 42.60 43.84 40.24 35.04 29.47 35.70 34.64 34.74 33.34 32.14 34.97 38.42 41.76 42.32 40.46 36.21 32.86 26.67 27.08 29.43 30.69 33.53 38.07 37.52 35.63 28.69 28.10 22.95 20.29 28.55 35.86 37.85 38.35 34.75 40.64 39.69 39.44
45.62 45.79 45.01 45.55 44.59 44.65 39.74 39.71 43.79 40.72 36.79 37.69 39.01 35.37 35.24 37.79 34.60 33.59 35.33 38.24 38.28 38.01 31.93 29.87 26.48 29.23 33.69 28.57 30.12 29.90 32.74 32.97 29.07 27.24 26.70 25.49 32.35 36.59 38.83 31.75 32.14 41.06 41.32 40.01
45.90 44.83 45.45 45.69 44.74 44.33 40.27 37.00 43.23 39.85 36.31 36.78 37.65 39.27 39.24 39.49 37.20 34.11 35.40 33.51 35.43 33.90 30.32 29.03 28.11 27.30 30.75 29.03 30.26 32.33 31.18 29.22 29.81 30.11 26.32 21.39 34.54 38.30 35.68 39.46 40.54 40.64 38.84 40.06
46.63 44.62 45.19 45.32 45.50 44.26 42.36 33.88 41.11 43.93 37.06 35.89 39.60 40.88 42.49 43.70 44.93 41.83 38.43 35.77 37.69 38.35 35.70 33.04 34.81 32.65 31.99 27.91 24.87 30.19 29.71 30.41 29.78 29.69 28.93 34.21 38.24 39.56 41.82 41.72 40.85 39.23 37.65 38.44
45.98 45.55 45.11 44.85 45.32 44.56 42.57 38.46 40.19 38.13 37.63 38.04 39.78 37.70 42.18 43.74 42.34 44.44 37.32 38.14 42.84 41.20 42.68 38.85 36.93 30.10 31.54 27.95 28.81 26.76 30.97 34.42 32.39 32.18 36.60 35.42 38.67 39.59 39.27 39.67 39.16 37.99 36.85 38.75
45.58 45.31 44.85 44.64 45.06 44.48 43.37 36.91 38.04 40.10 37.23 33.20 38.28 45.47 42.51 46.15 43.94 44.44 43.77 42.17 41.81 40.41 42.85 39.35 37.31 34.86 34.44 29.99 31.19 30.89 33.58 34.21 33.83 33.69 35.87 38.30 39.24 41.26 41.83 40.76 39.27 37.13 37.11 39.20
45.00 44.79 44.70 44.95 45.05 44.02 41.45 38.24 39.19 41.63 37.07 33.27 36.05 41.52 43.63 45.71 47.11 46.20 43.16 41.97 39.54 37.68 38.63 38.80 36.68 38.90 37.59 35.77 32.62 30.66 34.45 34.11 32.06 31.26 36.80 37.58 38.22 41.73 41.60 39.75 38.06 37.19 36.37 38.23
44.66 44.80 45.33 44.90 44.49 44.18 40.62 33.50 37.12 41.42 40.49 34.52 33.86 43.55 40.44 42.09 45.14 44.51 42.57 41.07 39.90 41.89 41.39 40.21 40.67 42.08 38.83 31.89 32.30 36.11 36.14 39.09 39.76 37.74 37.20 38.84 39.94 39.94 38.37 37.38 37.46 36.44 36.44 38.51
44.18 45.09 44.93 44.32 44.47 42.08 36.69 33.03 41.59 43.68 41.59 34.66 33.98 36.25 42.82 45.25 44.44 43.51 43.40 43.99 43.71 43.18 41.75 40.16 40.07 40.00 40.98 37.10 33.38 35.75 36.67 36.44 37.55 39.91 40.56 40.09 39.62 37.53 37.48 36.31 35.78 37.38 35.93 37.39
45.10 44.93 44.16 44.71 45.55 44.24 37.51 41.06 44.44 44.04 37.77 37.63 33.34 35.55 36.52 44.73 41.69 40.34 44.41 42.35 43.31 42.43 40.69 41.27 39.72 40.39 40.05 34.68 37.93 33.53 34.83 35.31 36.50 36.17 38.19 38.47 37.40 35.28 34.04 33.63 33.79 33.40 34.74 34.77
44.68 43.59 44.99 40.26 38.19 35.47 35.91 45.06 44.90 43.59 38.77 33.57 36.28 33.77 30.75 43.18 42.02 41.75 42.02 42.61 37.52 40.65 38.20 38.63 40.22 37.75 34.38 35.29 33.40 34.04 34.51 34.21 33.93 36.36 37.39 38.26 37.64 37.70 36.10 34.13 33.70 32.35 32.66 32.84
42.50 40.96 39.05 34.97 34.57 42.40 44.75 42.33 37.10 36.24 37.67 37.45 35.82 38.75 33.82 40.94 40.79 39.18 39.26 39.75 35.95 32.41 36.21 39.89 36.80 35.04 34.35 33.73 33.75 34.40 33.74 33.54 33.20 34.35 34.98 36.13 35.92 37.35 37.11 34.96 34.79 34.24 32.47 32.01
34.66 31.40 31.15 38.06 42.60 41.41 38.54 34.68 34.41 35.46 34.28 37.81 38.24 38.80 36.67 40.37 35.82 36.70 39.73 34.56 33.09 30.97 33.90 34.76 32.93 33.48 33.19 33.05 32.29 32.25 31.48 31.78 34.60 35.95 35.93 35.11 34.91 34.99 36.03 37.91 36.16 34.70 33.77 32.26
34.66 35.74 39.32 39.60 38.13 35.97 32.90 32.90 33.97 33.26 32.00 37.32 37.83 38.48 39.22 39.35 41.38 37.19 37.62 32.56 31.92 29.18 35.06 31.86 30.01 31.62 31.19 30.88 30.45 30.20 31.03 33.54 35.22 36.60 36.36 37.15 37.62 36.80 36.58 37.42 37.04 34.62 33.78 31.78
40.83 37.41 33.79 34.09 34.38 29.04 29.14 25.48 30.06 31.73 34.88 35.31 35.51 35.89 38.39 39.51 40.06 37.08 34.91 31.82 30.83 35.22 31.12 29.41 30.42 30.56 31.12 29.85 29.49 29.45 33.01 34.85 35.47 35.49 35.84 36.86 38.72 35.21 35.17 34.95 34.01 32.62 30.71 30.10
34.96 31.48 27.09 28.80 26.77 30.54 31.73 32.05 25.97 33.86 34.50 35.33 37.03 35.23 36.38 38.03 35.57 36.19 31.87 34.64 33.15 27.56 20.84 23.25 28.71 29.28 28.88 29.18 29.57 29.73 32.09 33.23 33.85 34.24 34.47 35.15 36.37 35.10 33.30 32.81 32.23 31.17 30.12 30.42
31.69 31.62 24.63 25.72 28.81 31.68 32.43 32.45 33.57 34.77 36.19 35.89 35.57 34.32 34.83 33.30 32.63 33.40 32.21 30.40 28.30 27.60 26.13 25.11 27.03 27.17 27.94 28.77 29.32 29.78 30.73 31.11 31.77 32.90 32.38 32.83 35.06 35.06 33.45 32.82 32.50 32.03 31.02 30.12
31.09 30.59 27.90 29.02 29.66 28.79 31.54 31.83 32.49 35.33 35.99 35.60 34.48 32.93 31.86 30.29 30.89 30.41 29.55 27.47 24.65 24.71 27.29 24.59 24.56 27.56 27.57 27.27 28.48 30.00 30.44 30.50 30.73 30.82 30.97 31.11 31.73 33.19 32.24 32.51 31.27 30.60 30.46 29.08
28.72 27.17 28.79 28.92 29.71 29.14 31.54 34.01 34.57 35.95 34.13 31.67 31.80 30.12 28.67 31.99 29.97 29.37 30.84 27.76 23.39 21.93 26.46 26.92 25.81 26.30 26.24 25.44 27.59 29.62 29.20 28.83 29.19 29.30 29.11 29.02 29.00 30.34 31.54 30.26 30.50 29.14 28.46 27.43

GFSNW_sfc_wetblb_063.txt.gz
Wetbulb
48.29 47.26 47.71 47.94 48.37 49.05 43.14 33.58 27.21 39.96 41.70 35.01 34.31 33.20 35.92 38.41 37.63 39.35 37.27 35.53 34.13 31.62 32.02 30.93 30.16 30.46 33.49 37.50 37.28 33.08 34.63 32.05 29.38 31.34 34.42 36.00 33.96 30.67 27.55 21.45 20.54 21.58 21.44 24.91
48.03 47.10 46.95 47.74 48.33 48.68 42.21 31.28 31.39 39.89 39.97 32.27 32.96 36.53 37.39 38.18 36.53 35.83 35.55 34.07 35.90 34.96 31.85 29.54 31.43 32.55 37.32 38.47 36.94 34.57 34.83 27.83 25.37 28.25 32.00 34.61 32.01 31.87 29.59 27.30 25.74 21.78 20.27 25.30
47.81 47.17 46.50 47.10 47.77 48.45 37.72 32.64 29.20 35.27 36.33 37.54 36.69 34.98 30.66 33.32 37.98 36.67 36.76 35.17 36.19 33.85 32.03 33.78 31.64 33.76 37.28 38.61 39.15 41.71 37.61 29.18 26.01 23.18 26.89 30.40 25.61 30.24 29.43 27.43 23.83 23.28 22.43 25.76
47.45 46.90 46.14 46.66 47.35 47.72 38.32 33.72 31.78 36.99 31.92 32.08 35.02 34.81 34.79 33.70 33.68 37.06 37.93 35.51 35.40 33.84 30.65 31.78 31.83 33.66 34.79 38.01 40.28 36.62 34.80 27.28 28.21 29.76 31.74 31.19 29.99 30.36 28.70 24.98 26.69 24.86 26.87 26.11
47.53 46.53 45.98 46.16 47.41 46.66 39.88 33.92 34.99 37.18 34.51 33.01 32.58 34.69 33.76 34.38 35.65 35.65 34.88 34.03 35.45 35.13 32.79 32.41 31.27 32.94 31.50 32.06 34.73 33.64 33.98 27.42 28.99 26.12 30.93 30.84 29.51 31.02 30.89 30.12 30.52 28.79 29.10 29.71
46.75 46.13 45.93 45.71 46.36 44.77 37.97 40.20 41.99 38.71 32.60 29.82 31.19 34.42 34.14 35.35 36.56 39.32 39.50 37.37 35.26 34.03 35.08 36.90 36.82 36.11 35.73 35.61 33.76 32.23 31.63 28.76 25.86 22.18 29.03 29.49 25.48 29.63 30.54 30.92 31.54 32.59 28.47 33.80
46.55 45.84 45.68 45.35 45.65 44.26 41.64 41.17 40.30 36.30 30.72 33.31 33.57 34.62 35.97 36.29 37.85 36.78 39.80 39.95 36.77 38.98 40.48 39.06 39.05 37.11 35.94 35.70 34.67 35.20 30.66 30.05 28.92 25.03 26.64 21.58 29.64 33.83 34.72 32.62 33.05 34.06 34.83 37.48
46.90 45.49 45.37 45.48 45.13 45.57 39.58 42.46 39.79 37.44 31.44 32.04 35.40 35.20 34.44 35.47 36.39 36.16 37.55 39.77 41.16 41.90 38.61 35.00 33.75 32.65 32.49 35.43 36.31 34.48 36.72 34.10 29.50 25.36 24.31 26.54 32.82 33.69 32.18 32.23 34.09 36.05 35.74 38.07
47.38 45.83 45.41 45.28 44.90 44.89 38.05 42.14 43.42 39.94 34.39 29.22 34.55 35.01 34.13 31.84 30.83 33.36 36.75 40.51 41.60 39.87 35.67 32.28 26.37 25.86 28.81 30.29 32.49 38.15 37.30 35.08 28.67 25.06 20.60 20.44 29.15 37.56 37.91 37.80 34.55 41.44 39.05 40.02
47.09 45.37 45.27 45.89 44.90 44.57 38.44 38.31 42.55 40.18 36.34 37.90 38.57 35.40 35.28 39.25 33.80 32.56 34.22 37.23 37.13 37.38 32.40 30.37 26.71 29.29 33.72 27.96 29.70 30.84 32.21 32.68 27.69 26.32 22.38 26.54 32.95 37.02 37.62 31.27 34.51 41.37 41.89 41.48
46.22 46.27 44.85 45.69 45.01 44.43 38.38 35.59 42.23 39.18 35.42 35.55 36.80 38.60 37.62 40.70 37.62 32.57 35.17 33.31 34.73 33.01 29.78 29.04 29.09 27.97 32.28 30.24 32.01 31.77 29.99 28.80 28.98 29.84 23.78 20.83 34.61 37.52 35.87 40.42 39.83 40.89 39.88 40.89
45.71 46.23 45.25 44.95 45.14 45.11 42.62 32.95 38.78 41.78 36.76 34.09 37.98 39.55 40.84 41.67 41.84 42.18 38.28 34.92 36.01 36.49 32.35 30.44 33.03 32.27 31.63 28.47 27.32 32.99 29.34 29.85 29.68 29.29 28.78 35.27 38.20 38.02 41.57 40.89 38.99 38.74 39.32 39.18
45.32 45.87 45.92 45.26 44.90 45.27 42.73 37.39 38.79 36.86 35.88 35.60 37.50 36.14 40.49 41.81 42.07 45.56 36.49 37.79 41.94 40.85 42.56 38.19 36.73 29.70 31.54 27.07 30.59 29.14 30.86 33.80 32.22 32.24 36.61 34.80 38.58 39.73 39.73 40.92 40.62 38.64 38.19 38.63
45.25 45.49 45.19 44.42 44.41 45.07 44.07 38.42 36.52 38.26 36.45 31.98 34.73 44.75 40.96 45.48 43.72 43.07 42.62 42.62 43.00 41.61 42.48 39.16 36.98 33.14 33.44 29.10 30.72 30.33 32.87 33.57 32.95 32.40 35.07 37.38 38.93 39.93 41.86 42.52 40.78 39.27 38.22 38.98
45.19 44.77 44.63 44.69 45.50 45.30 42.37 38.63 37.48 38.89 34.78 31.93 33.80 38.54 42.09 45.57 44.22 43.46 43.91 42.64 39.33 39.59 39.11 38.50 36.39 38.84 36.19 32.57 31.68 32.52 33.71 33.06 31.35 30.81 36.36 36.81 37.69 40.01 42.23 41.55 40.71 39.79 37.31 37.71
45.10 44.56 44.41 45.42 44.89 44.24 40.28 33.32 38.27 38.84 39.99 34.02 30.60 42.36 40.70 41.65 45.49 45.17 43.64 41.35 41.30 42.07 40.95 39.86 40.52 41.85 37.64 30.77 29.16 34.32 35.37 36.75 38.07 37.06 39.84 37.96 38.87 39.49 38.80 38.67 38.42 37.57 37.01 37.78
44.73 44.27 45.12 45.12 44.38 42.05 35.34 31.08 40.50 42.44 40.76 33.87 31.32 35.46 41.31 45.26 44.45 44.14 43.67 43.73 43.37 42.69 41.82 40.18 39.85 39.67 40.52 36.18 31.24 35.02 36.37 35.03 35.45 37.08 37.98 37.73 39.16 38.01 37.96 36.57 36.68 37.86 37.06 37.93
44.98 45.22 45.04 44.10 44.91 44.23 39.98 39.06 44.10 42.83 37.48 35.97 30.99 34.47 37.00 44.41 41.55 40.65 44.40 42.09 42.73 42.11 40.35 40.89 39.43 39.90 39.73 34.80 38.09 35.43 34.13 34.42 35.23 35.01 35.81 36.15 36.99 37.34 36.91 34.90 34.29 34.20 35.29 35.81
44.69 44.33 43.47 40.30 35.97 33.46 34.39 43.64 45.03 42.19 37.57 31.53 33.92 32.53 31.29 43.22 41.58 41.75 42.25 42.05 37.49 40.83 38.37 38.66 39.26 36.70 34.00 36.88 34.85 34.61 34.13 32.79 33.63 34.13 35.77 37.36 37.40 37.95 38.10 35.94 35.14 34.04 34.43 34.15
42.31 39.60 38.50 32.90 33.77 40.75 44.09 40.94 36.32 35.91 36.33 35.25 33.15 39.27 34.44 40.62 40.21 38.30 38.98 39.63 36.40 32.80 35.99 39.96 36.70 36.01 33.30 33.56 33.62 34.12 33.49 33.39 33.01 33.03 33.61 35.22 34.28 36.02 36.61 37.24 36.78 35.79 35.50 34.79
34.27 31.97 30.87 37.13 42.00 40.85 37.97 33.88 32.27 33.42 32.05 36.12 37.12 37.60 36.82 40.19 36.61 37.17 39.34 35.07 33.83 30.79 33.20 34.73 32.81 33.66 33.35 32.64 32.15 32.61 32.18 31.61 31.69 34.47 35.59 36.14 35.86 34.94 34.31 35.02 37.36 38.03 36.00 34.52
34.78 35.24 38.79 39.27 37.64 35.80 32.10 31.48 33.54 32.38 30.59 36.86 37.10 37.77 38.89 39.34 39.93 35.50 37.57 32.79 31.67 28.19 35.44 31.82 29.22 31.82 30.80 30.74 30.51 30.88 31.20 33.59 34.95 36.11 35.62 35.88 36.10 37.11 37.92 37.09 36.11 37.03 36.67 34.39
40.33 36.87 33.84 33.34 33.11 28.74 28.55 25.73 30.63 31.34 35.11 35.13 35.35 35.40 38.63 38.77 40.26 36.66 34.69 31.11 30.78 34.60 31.06 28.54 28.42 30.74 30.31 28.50 29.14 29.24 33.12 34.25 34.40 34.66 35.43 35.51 36.32 37.22 34.06 32.89 35.01 34.58 32.24 32.08
34.25 31.59 26.39 28.96 26.53 30.30 30.26 31.21 28.41 34.16 34.40 34.96 36.90 35.48 36.34 37.90 35.30 35.20 31.77 34.47 32.70 29.25 25.09 26.13 28.00 28.72 29.25 29.66 29.98 30.42 30.78 32.12 32.67 32.96 33.44 33.78 34.84 35.53 34.02 32.57 31.79 30.05 30.24 30.65
31.80 31.45 23.80 25.96 30.27 31.34 32.12 32.28 33.08 34.78 36.29 35.96 35.65 34.34 35.33 33.38 32.52 33.32 33.12 30.57 27.59 28.95 25.67 25.19 25.05 26.26 27.76 28.44 29.90 30.43 30.46 30.60 30.91 31.49 31.30 31.49 32.80 33.60 33.88 33.60 32.57 32.07 31.13 30.53
29.36 30.25 27.63 27.37 28.85 28.71 30.95 31.84 32.23 35.48 36.16 35.67 34.38 32.49 31.33 30.69 31.65 30.34 27.91 26.93 24.68 27.23 27.81 25.13 26.74 27.38 26.87 27.12 28.78 30.17 30.26 30.17 30.25 30.58 30.33 30.39 29.95 30.26 31.88 32.65 31.56 31.33 31.37 29.88
27.29 25.58 28.93 28.38 29.27 28.89 30.50 33.92 34.59 36.24 33.66 30.94 31.71 28.50 28.31 31.60 29.07 27.67 25.17 24.28 24.47 21.80 22.65 28.12 27.93 26.91 26.78 25.85 27.48 28.45 28.65 27.79 27.80 28.89 29.51 29.42 29.37 29.51 29.32 28.82 30.04 29.84 28.83 28.70

GFSNW_sfc_wetblb_066.txt.gz
Wetbulb
49.05 47.85 47.60 47.94 48.71 49.36 46.46 42.03 39.87 46.39 47.55 40.10 38.29 35.97 36.90 39.07 38.58 40.51 38.68 39.37 38.09 36.07 36.25 34.94 34.87 34.61 37.28 40.76 40.65 36.96 38.83 36.85 31.87 32.36 37.24 38.92 37.46 35.38 34.76 31.98 27.32 29.28 30.07 31.38
48.74 47.68 47.40 47.62 48.50 48.80 44.61 40.10 39.90 47.20 46.43 33.96 35.28 39.25 38.48 39.69 39.16 38.68 38.80 37.84 39.53 38.99 36.10 33.75 35.74 36.20 39.91 40.85 39.89 38.64 39.60 34.65 28.46 29.26 34.21 37.02 34.80 35.66 34.22 33.06 32.74 28.74 29.56 30.93
48.72 47.54 47.03 47.03 47.99 48.49 44.83 41.24 36.88 42.28 44.19 41.70 37.04 36.16 37.30 37.28 41.01 40.37 40.25 38.89 40.19 38.15 36.36 38.30 35.00 36.04 39.21 41.37 41.33 41.33 41.48 34.53 32.39 29.35 31.14 35.02 32.30 33.62 34.00 33.96 30.80 30.31 31.95 32.91
48.03 47.07 46.89 46.53 48.11 47.63 45.02 41.38 35.83 38.07 34.90 38.58 37.25 39.62 38.99 37.13 36.66 41.20 41.87 39.43 38.79 37.11 34.07 35.07 34.57 36.56 38.07 40.83 40.77 40.23 39.80 32.47 32.60 33.09 34.08 33.97 33.20 33.19 32.55 30.76 33.37 32.59 33.11 33.39
48.04 46.86 46.49 46.16 47.75 46.75 44.24 37.76 37.13 38.63 38.12 37.60 38.93 38.78 37.69 37.68 38.70 39.42 37.97 37.42 38.52 39.44 36.09 36.15 34.49 37.01 37.23 37.23 39.57 38.76 38.78 33.28 33.40 30.39 33.25 33.47 31.78 33.79 34.12 33.44 34.46 33.57 34.07 34.27
47.85 46.51 46.04 46.05 46.35 45.58 42.21 42.58 43.13 39.91 37.03 37.46 38.04 35.45 36.55 38.25 40.30 41.57 41.87 40.13 39.17 37.63 37.79 39.78 41.36 41.22 40.72 40.46 38.17 36.30 36.25 34.63 32.35 28.61 31.70 32.09 29.76 33.02 33.81 34.22 35.62 35.84 32.26 38.24
47.94 47.08 46.12 46.03 45.72 44.87 43.71 41.83 40.68 37.68 35.65 37.33 35.32 37.27 38.03 38.42 40.52 39.19 41.52 42.29 39.84 41.23 44.25 43.67 43.91 42.60 41.11 40.65 39.07 39.73 35.57 34.86 34.04 30.37 31.08 24.58 33.33 37.70 37.73 35.68 36.75 38.05 38.58 39.90
47.17 46.62 46.23 45.70 45.56 45.53 42.14 43.96 40.64 38.08 33.28 35.80 36.73 36.52 37.59 39.91 40.86 40.56 41.20 42.74 44.14 45.57 42.58 38.92 35.58 36.28 36.07 37.29 39.09 38.91 39.98 36.88 32.00 29.18 28.67 31.52 35.31 35.81 35.61 35.48 37.84 40.49 39.08 40.28
46.67 47.16 45.60 45.87 45.79 45.15 42.37 43.83 44.27 40.44 35.25 36.03 36.96 36.20 37.40 37.72 38.68 39.65 41.00 44.31 45.52 43.92 40.85 37.42 30.28 29.05 31.73 31.06 34.15 39.74 38.21 38.40 34.30 30.86 24.91 24.12 34.19 39.82 42.18 41.15 35.44 42.99 40.86 41.50
46.21 46.74 45.56 45.39 45.79 44.77 42.16 42.06 43.43 40.63 36.07 39.36 38.76 36.02 37.31 40.65 39.62 38.42 39.61 41.36 41.68 42.42 38.74 35.03 33.15 31.56 35.75 30.09 30.07 31.48 33.66 34.03 30.83 30.76 28.91 32.13 37.51 39.09 41.03 33.31 37.11 44.03 43.63 43.51
46.13 46.04 46.52 45.06 45.43 45.55 42.71 40.53 42.81 39.14 35.34 36.36 39.32 40.31 38.76 40.57 39.97 37.64 40.54 39.44 39.70 39.26 36.02 34.85 34.75 34.01 35.06 33.83 34.97 33.55 32.51 31.27 30.60 31.49 27.90 25.94 39.91 40.16 37.10 42.40 44.04 43.19 43.41 44.27
45.71 45.57 46.16 46.55 45.04 45.07 43.00 38.90 41.79 42.26 36.21 35.94 40.31 40.92 42.34 42.07 42.64 40.60 42.19 39.97 40.28 41.20 38.43 37.44 37.88 34.59 35.57 34.64 30.12 36.85 32.36 36.05 33.99 34.72 34.78 39.58 41.59 42.79 44.91 44.58 42.35 42.86 43.35 44.05
45.49 45.52 45.99 45.90 44.85 44.86 44.37 40.72 41.83 39.76 34.93 35.18 36.41 36.12 41.46 43.39 42.53 45.25 39.76 42.79 43.91 43.09 45.67 41.97 39.85 34.36 38.37 32.68 34.10 35.22 37.93 39.11 36.78 36.35 39.97 40.35 42.55 44.58 44.25 44.37 43.90 43.33 43.48 43.25
45.63 45.67 45.66 45.42 44.83 44.65 44.98 40.95 42.17 39.88 35.05 28.96 34.14 43.71 41.51 46.62 45.17 43.05 44.75 44.40 45.77 44.24 45.26 41.69 39.68 35.93 39.48 36.65 36.32 36.46 39.39 38.84 38.15 37.74 40.68 42.47 43.13 44.42 45.20 44.69 44.40 42.95 42.83 42.93
45.71 45.56 45.43 45.02 45.17 45.62 44.96 42.95 41.89 42.09 35.17 29.74 32.11 38.14 41.20 42.83 44.74 42.67 42.71 42.33 42.80 43.59 41.92 40.95 38.47 41.09 39.05 39.09 37.74 36.02 38.96 38.56 36.54 36.07 41.91 41.94 43.01 44.62 43.59 43.13 44.01 43.87 42.80 42.19
45.33 45.30 45.37 44.77 45.38 44.33 42.29 35.28 40.79 41.39 41.03 31.78 27.28 40.00 41.15 44.58 44.83 43.37 41.99 42.57 43.66 43.90 42.87 42.10 43.14 43.64 41.33 36.33 34.56 39.60 40.21 41.49 42.66 41.29 42.73 42.58 43.88 44.33 42.58 41.68 42.14 41.96 42.08 42.50
45.06 45.41 44.85 45.19 45.19 44.16 37.68 34.24 41.04 42.41 41.56 32.57 28.22 32.43 41.05 44.82 45.28 44.83 44.11 44.32 43.83 44.17 42.71 41.75 41.91 41.94 42.36 37.95 33.47 39.92 40.86 41.70 41.86 41.73 41.44 41.77 42.57 42.08 41.82 41.31 40.96 40.26 41.21 42.09
44.84 45.41 45.46 45.23 44.41 43.94 40.15 41.94 44.15 43.63 37.30 35.29 28.36 31.02 37.54 45.08 41.43 40.63 44.68 42.32 43.32 42.77 41.80 41.82 40.38 41.47 40.92 35.24 39.33 40.28 39.01 39.00 39.02 39.41 39.08 39.37 40.33 40.75 41.05 40.83 38.29 37.79 39.30 40.62
44.98 45.06 44.19 42.51 40.42 37.67 39.27 42.07 44.81 43.99 38.10 31.45 32.77 31.81 32.97 42.67 41.83 42.76 42.61 42.93 37.45 42.34 38.84 39.07 40.93 37.68 35.09 38.17 39.92 40.18 37.24 37.23 37.36 37.31 37.02 37.61 38.56 39.25 39.29 40.02 38.73 36.66 37.36 38.64
43.59 41.00 39.17 34.60 37.62 41.20 44.20 39.79 35.52 34.92 35.34 34.98 31.17 36.88 33.40 39.22 40.25 39.06 39.47 40.53 37.05 32.86 36.38 41.17 36.76 36.50 38.95 35.94 35.23 35.37 34.74 34.05 34.16 34.10 35.50 36.36 36.00 37.15 37.95 38.41 39.10 39.67 39.06 37.28
37.37 36.11 34.98 39.25 42.45 40.39 37.33 33.29 31.79 33.10 31.13 33.38 35.04 37.56 34.94 41.39 34.10 36.12 39.44 35.06 34.84 31.81 34.74 35.52 34.13 32.58 34.79 34.39 33.68 33.39 33.25 33.35 34.04 34.72 36.10 36.70 36.63 36.53 36.80 37.57 38.95 39.36 40.05 38.37
37.00 37.51 39.67 39.81 37.54 35.24 31.68 31.43 33.41 31.99 31.09 36.83 36.27 37.74 38.91 39.87 42.09 38.65 37.99 33.85 33.17 30.01 36.82 33.18 29.85 33.84 31.75 32.17 31.84 32.10 33.05 34.87 35.67 36.45 36.05 36.46 36.26 36.63 36.71 37.76 38.53 39.61 40.14 40.87
40.31 36.51 34.16 33.26 32.93 29.05 27.23 26.91 31.42 31.75 35.47 35.84 35.65 33.57 39.34 39.73 41.24 37.39 34.57 31.77 31.76 35.05 32.07 30.21 32.80 32.48 31.67 31.14 31.87 32.41 34.12 34.45 34.38 34.08 34.64 34.88 35.44 36.56 35.79 32.89 34.03 35.70 38.29 39.53
34.57 31.57 27.05 28.52 27.83 29.62 31.26 32.20 32.21 35.29 35.26 35.96 35.99 36.81 36.72 38.37 35.34 35.54 31.85 34.91 32.74 30.75 28.27 29.65 32.03 32.03 31.32 31.42 32.48 33.51 32.28 32.67 32.78 33.23 33.85 33.40 33.43 34.04 35.40 34.49 33.33 33.44 33.61 33.53
32.66 32.12 24.87 27.77 31.67 33.16 32.57 32.44 33.84 35.39 36.55 36.14 35.80 35.64 36.16 34.28 33.30 33.34 32.68 31.68 29.01 30.15 29.93 33.17 31.94 30.59 30.61 31.03 31.89 31.85 31.46 31.83 32.03 32.32 31.82 31.79 31.87 32.42 33.41 34.16 33.43 32.69 31.84 31.54
31.75 30.74 27.97 29.90 29.66 31.05 32.26 32.62 32.73 36.09 36.41 36.01 33.83 33.60 32.16 31.49 32.34 31.43 29.38 29.07 28.93 32.95 33.57 32.28 30.92 29.99 29.44 29.85 30.84 31.34 30.82 30.13 30.31 31.23 31.54 32.07 31.32 31.05 31.79 33.10 32.83 31.31 32.05 30.98
27.49 26.51 30.51 30.26 30.57 30.07 31.70 34.36 34.72 36.18 34.34 31.64 32.10 30.02 29.83 32.63 30.28 28.70 31.88 30.85 34.15 34.16 30.84 31.41 31.43 30.32 29.30 28.83 29.25 29.06 28.57 28.32 28.99 29.19 30.24 30.20 30.73 30.98 30.49 28.76 28.69 30.83 30.38 28.54

GFSNW_sfc_wetblb_069.txt.gz
Wetbulb
49.40 48.26 48.05 47.99 48.71 49.66 48.03 46.01 41.68 49.83 51.08 39.81 39.72 38.31 38.58 39.70 40.76 41.53 40.08 40.69 39.90 38.38 38.73 37.53 37.54 36.53 39.75 42.46 42.39 38.55 41.24 38.08 31.90 34.20 38.91 40.50 39.56 37.93 38.23 32.59 29.87 31.67 31.53 31.29
49.10 48.13 47.65 47.61 48.21 48.52 44.89 42.66 44.31 51.48 50.14 35.44 38.12 40.98 40.40 41.42 40.82 40.67 40.50 39.47 41.30 41.49 38.23 35.19 38.05 38.68 41.75 42.58 41.49 40.13 41.30 36.39 29.58 30.56 35.64 38.51 35.80 37.94 37.90 35.50 35.16 30.94 30.29 30.94
48.98 47.80 47.31 47.11 47.69 48.16 46.94 43.24 37.71 45.55 47.00 43.14 37.22 36.35 38.35 38.44 42.98 42.06 42.14 40.63 41.92 40.02 38.33 40.43 36.83 37.64 40.60 42.93 42.14 42.15 43.21 37.19 34.02 30.95 32.47 36.72 34.08 35.46 36.11 33.32 31.87 32.75 33.60 33.84
48.56 47.49 47.05 47.02 47.35 47.97 47.31 43.04 38.18 39.56 38.62 40.80 39.76 40.58 40.73 38.45 38.00 42.85 43.30 40.29 40.20 38.57 35.52 36.67 36.26 38.41 39.68 41.81 41.18 41.91 41.53 33.58 34.62 35.33 35.90 35.80 34.81 34.42 34.91 31.41 34.38 33.99 34.97 35.83
48.13 47.87 46.84 46.94 47.35 48.09 44.57 38.33 37.11 39.09 40.24 42.33 40.61 39.91 38.09 38.43 40.01 41.03 39.09 38.84 40.38 40.73 37.24 37.69 35.69 38.45 39.21 38.74 41.30 40.32 40.89 34.77 35.20 31.93 35.17 35.11 32.90 35.39 35.94 35.06 35.52 35.76 36.25 35.61
47.69 48.20 46.79 46.67 46.31 47.03 42.38 43.38 43.71 40.07 40.86 41.23 39.28 37.73 37.52 38.31 41.76 42.67 43.27 41.87 40.93 39.18 39.34 42.02 43.18 43.23 42.77 42.01 39.93 38.83 38.43 36.31 33.72 30.52 33.48 33.67 30.84 34.55 35.49 36.17 37.34 37.40 32.92 38.56
47.46 47.49 46.56 46.40 46.33 45.26 43.78 42.53 41.19 37.51 37.13 39.93 38.36 39.16 39.93 39.86 40.88 39.84 42.88 43.66 41.37 42.35 46.12 45.80 45.62 44.27 42.89 42.27 40.90 42.07 37.43 36.38 35.79 31.69 32.34 25.62 34.58 39.48 39.35 37.37 38.22 39.59 39.87 41.24
46.87 47.74 46.45 46.16 46.32 45.45 43.18 43.96 40.69 38.35 33.64 39.05 39.66 39.43 39.92 42.39 42.94 41.86 42.26 43.58 45.59 47.25 44.39 39.13 36.27 37.08 37.08 37.87 40.39 40.30 41.51 38.13 33.53 30.10 30.13 33.84 35.84 37.01 36.72 36.24 37.28 40.93 39.73 41.64
46.55 46.79 46.53 45.79 46.32 45.24 43.60 43.80 44.47 40.23 35.14 38.42 39.08 38.45 40.16 38.32 40.90 41.50 42.40 46.04 47.52 45.98 42.62 38.66 31.00 28.95 33.05 31.07 34.53 40.91 39.19 39.84 34.82 31.78 26.88 25.16 36.44 40.95 43.29 42.60 35.39 43.32 42.77 42.87
46.42 46.55 46.62 46.20 45.66 45.41 43.53 42.78 44.20 40.65 34.01 39.21 40.35 37.55 38.11 41.80 40.34 40.23 42.11 42.93 43.23 44.68 40.58 35.40 33.10 32.25 36.88 31.11 30.92 32.59 33.79 35.04 31.25 31.37 29.64 33.20 39.71 40.54 42.37 33.39 36.14 43.68 43.88 44.28
46.58 46.38 46.25 46.60 46.02 45.12 43.69 41.94 44.35 39.17 35.29 36.32 38.42 41.36 39.78 41.22 41.61 37.77 42.09 41.69 41.56 41.10 36.90 36.28 36.38 34.38 35.84 34.84 36.31 34.44 33.37 31.96 30.90 31.98 28.97 26.73 42.89 41.35 36.77 42.46 45.36 45.20 45.13 45.51
46.74 46.30 45.96 46.01 46.53 45.50 44.28 39.98 43.69 43.04 35.99 35.20 40.10 40.74 43.49 42.78 42.78 40.43 42.53 41.96 42.02 43.14 39.40 39.12 39.41 35.44 37.46 35.80 30.34 39.28 32.64 36.71 34.96 35.45 34.86 41.81 43.59 44.14 45.17 45.42 44.41 44.66 44.72 45.57
47.13 46.30 46.03 46.16 46.07 45.35 44.48 41.89 43.04 40.93 35.81 35.13 36.66 37.00 42.18 42.59 42.40 45.13 39.17 44.49 45.60 44.46 46.88 43.29 41.03 35.45 39.09 33.32 34.67 36.79 39.49 41.58 37.24 37.25 41.11 41.82 43.50 45.48 46.58 45.64 45.19 44.82 45.34 44.66
47.32 46.67 46.25 46.02 45.45 45.44 44.67 42.33 44.02 41.05 35.72 29.43 33.43 43.09 41.91 46.81 46.22 43.31 42.72 43.81 45.98 46.71 46.55 43.38 40.27 36.70 41.26 37.11 37.73 37.43 39.90 40.82 39.17 39.04 41.96 43.43 44.63 45.73 46.55 44.98 45.64 44.07 44.41 44.79
47.30 46.53 46.14 45.77 45.27 45.06 45.78 44.72 44.07 43.78 35.82 29.68 31.34 36.64 39.25 40.76 42.28 45.54 43.51 41.96 41.69 42.05 42.82 41.46 38.36 42.17 40.06 40.65 39.41 36.82 41.01 39.33 37.81 37.27 42.60 42.89 44.01 46.31 45.46 44.48 44.12 44.56 43.98 44.65
46.83 45.85 45.66 45.76 44.89 44.94 42.73 35.88 42.95 43.59 42.24 33.69 26.69 38.17 38.57 43.78 42.68 44.16 43.22 42.22 41.41 43.00 42.37 42.00 43.53 45.06 41.53 36.71 34.61 41.04 42.93 43.76 44.12 41.59 44.31 44.13 45.09 45.81 44.87 43.61 43.79 43.88 43.03 44.19
46.32 45.47 45.33 45.53 44.97 45.11 38.00 36.10 41.26 43.30 42.31 32.85 27.28 30.56 40.17 42.30 44.22 43.46 43.11 43.00 43.84 43.92 42.74 41.73 42.00 42.65 42.65 38.47 34.39 41.23 42.88 43.55 44.22 44.61 43.55 42.51 44.64 43.81 43.89 43.60 43.54 43.30 42.65 43.12
45.13 43.85 44.42 45.62 45.11 43.82 39.63 43.21 43.98 43.53 37.71 35.38 27.90 29.84 35.59 44.07 40.27 39.37 44.59 41.69 42.52 42.97 42.19 42.58 40.80 42.33 41.78 36.06 40.03 42.30 43.42 43.22 42.26 42.48 42.08 41.79 42.15 42.38 42.88 43.21 42.64 40.55 40.74 42.18
43.74 43.38 44.31 42.20 40.43 38.74 40.50 43.64 44.65 43.30 37.81 31.57 31.74 30.14 32.17 40.55 40.73 41.68 41.75 42.15 35.54 41.98 38.34 38.87 41.12 38.43 35.27 38.98 40.76 41.81 41.51 40.15 40.65 41.27 40.42 39.61 39.10 40.30 41.09 41.20 41.03 40.71 41.00 40.58
43.18 41.37 37.34 35.08 39.11 44.67 44.05 39.87 35.98 34.97 35.23 35.11 29.88 34.86 32.91 36.67 38.51 38.40 37.66 40.32 37.35 32.47 37.21 41.42 36.84 35.80 41.35 40.69 39.40 39.27 37.80 36.68 36.08 35.66 36.46 37.66 37.65 38.18 39.11 39.36 40.42 40.67 40.78 41.30
39.03 36.15 35.00 40.49 42.93 40.39 36.64 33.04 31.20 31.26 29.32 32.05 32.50 33.35 33.52 40.01 34.10 34.49 39.00 33.59 35.27 32.47 35.18 35.50 33.63 33.57 37.07 37.01 35.89 35.52 35.07 35.05 35.25 35.71 36.32 37.31 37.81 37.24 37.55 38.36 39.66 40.25 40.96 40.80
38.16 37.93 40.31 40.15 37.56 34.95 31.73 30.40 32.68 30.64 29.73 35.90 35.31 37.19 38.46 38.46 38.60 36.24 37.40 34.19 33.55 30.01 37.70 33.99 30.76 35.39 34.51 34.33 33.88 33.67 34.52 35.73 36.33 37.10 36.29 36.52 36.47 36.91 36.57 36.83 37.11 37.23 37.87 39.63
38.71 35.92 33.92 33.46 33.04 27.89 27.98 26.48 31.23 31.73 35.77 36.38 35.34 33.26 38.64 39.72 41.26 37.35 35.79 31.92 30.88 35.97 32.51 30.44 33.98 34.62 34.15 33.20 34.16 34.42 35.83 35.69 35.41 34.86 34.86 34.78 34.92 35.62 35.86 35.67 34.50 33.87 34.12 36.48
34.44 30.82 26.69 28.50 28.19 29.91 31.34 32.12 33.32 35.42 35.78 35.73 34.77 33.89 36.69 38.54 35.69 35.32 31.67 34.12 33.16 30.68 29.18 30.42 34.55 33.58 33.56 33.54 34.04 34.61 33.75 34.14 33.39 32.61 32.94 33.68 33.47 33.67 34.89 35.07 34.87 33.41 33.23 34.23
32.42 32.49 25.91 28.09 32.72 34.06 32.93 33.60 34.08 35.89 36.93 36.38 34.98 35.57 36.31 34.72 34.13 33.97 33.06 31.70 29.84 30.63 30.97 35.73 34.45 33.52 33.04 32.90 33.46 33.49 32.50 32.48 32.44 32.15 32.98 33.44 33.51 32.86 33.13 34.10 33.98 33.44 32.80 31.97
32.17 31.92 28.79 31.19 30.42 32.45 33.88 33.21 33.34 36.14 36.66 36.86 34.21 32.83 32.71 32.35 32.38 30.65 29.69 29.25 29.61 34.82 37.48 35.67 33.71 32.34 32.56 32.77 33.64 33.57 32.25 31.14 31.06 31.73 31.93 32.38 32.36 32.07 32.29 33.22 31.64 32.02 30.93 30.31
28.20 26.91 31.16 31.12 31.50 30.40 31.98 33.67 34.71 36.62 35.06 30.94 32.03 30.44 30.61 33.11 30.96 29.01 32.24 31.72 36.17 35.89 34.69 34.34 33.86 32.07 31.31 31.81 31.49 31.05 30.11 29.52 29.93 29.81 30.63 30.34 31.20 31.99 31.60 30.16 30.47 30.81 31.34 30.39

GFSNW_sfc_wetblb_072.txt.gz
Wetbulb
49.43 48.83 48.34 48.59 48.98 49.67 48.47 45.59 40.37 49.52 51.04 38.41 39.80 36.73 39.21 40.31 41.07 42.16 40.31 40.86 39.25 37.52 37.84 36.18 36.22 35.14 37.48 42.13 41.09 37.39 40.13 35.12 31.13 34.00 38.00 39.91 37.86 36.97 35.41 25.39 24.12 27.45 25.70 23.82
48.91 48.82 48.25 48.10 48.55 49.29 44.62 41.63 43.58 51.07 49.91 34.60 35.90 39.11 40.03 41.81 40.58 40.82 40.41 39.45 40.95 40.98 37.39 33.90 37.23 37.27 41.44 42.49 40.50 37.69 39.08 32.78 27.08 29.36 33.68 36.81 33.39 36.19 36.63 33.28 33.24 28.97 23.13 24.36
48.58 49.16 47.87 47.72 47.93 49.11 46.77 42.52 35.37 42.67 44.79 42.48 37.94 37.22 37.63 38.96 43.35 41.86 42.47 40.89 41.80 39.41 37.27 39.17 36.04 36.75 40.85 42.14 40.59 42.80 41.57 34.52 28.74 23.27 29.29 33.90 28.30 33.29 34.36 31.62 27.03 28.57 27.79 30.33
48.38 48.91 47.68 47.52 48.11 49.16 47.27 42.00 36.90 38.95 36.56 39.11 39.93 39.92 39.14 37.97 37.76 42.63 42.83 40.13 39.89 37.94 34.62 35.65 35.52 37.59 38.79 41.19 42.26 39.97 38.67 28.84 30.39 33.35 34.74 34.89 33.99 32.69 32.84 25.91 30.48 24.13 30.70 32.57
48.13 48.16 47.33 47.48 47.88 49.03 43.03 38.51 36.28 38.59 37.66 41.64 39.53 39.17 37.23 36.78 38.36 40.15 39.01 38.27 40.03 39.99 36.42 36.53 34.18 36.58 36.19 35.90 37.90 36.68 38.44 29.31 31.62 27.45 34.22 34.07 30.50 34.33 34.28 33.20 33.07 32.56 33.59 33.15
47.87 48.24 47.40 47.16 46.84 47.33 40.81 40.95 42.25 39.33 37.89 39.47 37.92 37.41 37.15 37.90 40.46 42.61 42.97 41.38 39.99 38.31 38.47 40.89 41.00 40.57 40.19 39.22 36.57 36.16 35.93 32.16 28.61 24.09 31.61 31.67 26.30 32.29 33.62 34.26 35.03 34.70 29.64 34.89
47.63 47.78 47.01 46.65 46.60 45.18 43.35 42.03 40.98 37.47 33.92 37.22 37.72 38.85 39.72 39.07 40.56 39.42 42.32 43.06 40.53 41.17 45.18 44.64 41.92 40.55 39.89 39.18 37.15 39.23 34.54 33.34 32.12 25.44 27.87 21.08 31.63 36.88 38.19 35.71 37.14 37.39 37.64 38.41
47.50 47.02 47.21 46.53 46.43 46.32 42.74 43.12 40.39 37.32 31.44 35.74 36.49 38.13 38.49 40.52 42.38 41.56 41.70 42.94 43.84 45.59 42.74 38.48 35.21 35.26 36.04 36.80 37.54 36.61 37.97 34.47 29.75 24.80 25.25 30.38 33.15 35.27 34.84 33.84 34.16 38.54 37.29 38.71
47.77 46.91 46.80 46.88 45.87 45.94 42.97 42.53 42.96 40.23 33.25 35.02 36.13 35.74 37.79 36.79 37.14 39.43 41.79 44.87 45.31 43.45 40.18 37.56 29.93 28.00 32.18 30.45 33.50 37.98 37.50 36.30 30.43 29.93 23.61 23.19 34.78 38.71 40.62 40.90 34.35 39.55 39.58 39.74
48.26 47.22 46.78 46.61 46.45 45.42 43.38 41.54 42.93 39.25 33.72 35.82 37.94 35.11 35.94 40.63 39.34 37.20 40.95 41.21 41.04 41.77 37.83 32.81 31.75 30.75 34.32 28.84 28.67 30.73 32.27 33.05 27.92 28.28 25.73 29.96 38.78 40.27 40.57 32.61 34.97 42.22 41.41 41.59
48.93 47.69 46.78 46.30 46.74 46.50 43.30 41.10 43.15 37.32 33.19 34.50 36.44 37.59 36.23 37.80 39.72 36.61 40.74 39.03 39.06 38.08 33.49 33.23 33.60 31.95 33.79 30.56 32.02 30.74 31.38 29.81 29.34 30.67 26.52 22.71 40.15 38.29 34.40 40.75 43.03 43.51 43.31 42.82
49.52 48.13 46.93 46.09 46.17 46.08 44.29 38.80 43.51 42.50 35.54 33.82 38.70 38.55 38.85 37.89 39.37 38.68 40.46 40.34 40.80 41.59 35.92 35.43 35.76 32.81 32.85 31.49 28.85 34.79 29.22 32.74 31.00 30.83 30.63 38.83 41.33 40.97 41.95 42.17 41.88 41.59 42.18 42.44
50.07 48.64 47.27 46.38 46.20 46.31 44.59 40.89 41.84 41.05 35.54 34.22 34.84 35.26 40.13 41.22 39.35 42.12 37.61 40.78 44.40 42.76 43.66 39.92 37.85 32.49 34.69 28.98 30.83 32.10 35.06 37.65 33.19 33.97 37.16 38.04 40.42 42.31 42.81 42.56 41.91 42.06 42.93 41.80
50.65 49.36 47.69 46.52 46.26 45.86 45.13 40.94 42.90 41.05 36.15 28.37 31.76 40.81 38.72 41.68 41.93 39.57 40.51 41.48 42.34 42.94 44.27 39.79 37.32 34.47 37.43 32.87 34.50 32.78 35.62 36.68 35.17 34.76 37.55 38.63 39.99 41.52 42.77 42.28 42.60 41.76 42.99 42.72
50.85 49.59 47.50 46.43 45.82 45.65 44.08 43.64 43.94 43.52 36.18 28.31 29.77 35.97 37.98 39.53 38.27 39.09 39.57 38.78 37.93 39.80 39.24 38.44 35.80 38.26 36.42 36.14 35.75 32.87 36.89 35.39 33.03 32.31 37.94 38.24 39.81 41.82 43.09 41.48 41.02 40.79 40.96 41.75
50.46 48.79 46.63 45.89 45.60 44.71 42.72 35.42 42.41 43.48 42.19 33.97 26.34 36.00 34.27 36.87 39.27 36.48 41.51 41.49 39.16 40.78 40.59 37.88 40.41 43.23 38.32 32.35 31.60 37.45 38.84 39.96 40.68 37.70 40.56 41.06 41.75 42.56 41.90 40.38 40.25 40.61 40.02 40.51
49.83 47.30 45.99 45.20 43.96 43.54 38.62 34.81 40.39 43.44 41.89 34.25 26.90 27.26 37.29 40.63 41.45 40.30 42.31 42.27 41.05 41.11 40.49 39.35 39.45 40.37 40.52 35.60 31.38 37.74 39.23 40.21 40.05 41.49 41.06 38.89 40.49 38.71 40.05 40.12 40.50 40.72 39.61 40.15
48.04 45.82 44.31 43.53 44.44 43.32 39.33 41.85 44.30 43.23 37.89 34.59 24.86 27.05 32.40 42.20 38.79 37.70 42.59 39.41 40.15 41.20 40.03 39.47 37.63 39.06 38.71 34.12 37.25 39.05 39.32 39.34 39.93 40.13 40.01 38.75 38.50 38.66 38.95 39.69 39.74 38.15 38.01 38.61
45.54 44.33 43.72 41.54 39.12 36.33 39.51 44.45 44.64 42.56 37.40 30.02 29.72 27.34 26.86 38.76 39.04 39.30 40.62 41.53 35.71 40.63 37.99 38.34 39.36 35.88 33.39 37.02 37.63 38.05 38.74 37.59 36.95 39.06 38.48 37.43 37.60 37.64 38.29 37.91 37.82 37.22 37.66 38.26
44.35 41.06 37.16 34.00 38.84 44.56 44.11 39.04 35.94 34.62 34.63 34.28 28.01 33.01 29.71 36.08 37.27 35.64 34.96 38.54 35.03 31.85 36.30 40.38 36.44 34.04 38.88 37.79 36.52 35.86 35.05 34.86 34.86 33.72 32.96 34.59 36.69 37.32 37.20 35.80 36.85 37.32 37.48 37.79
38.67 35.21 34.60 40.44 43.02 40.21 36.30 32.51 30.99 32.00 28.73 31.69 31.45 31.34 30.07 39.16 33.79 33.95 38.09 32.87 34.74 30.71 33.86 35.12 32.13 30.54 34.72 34.62 32.98 34.61 34.86 34.71 33.99 35.28 35.85 36.29 36.67 36.40 36.20 35.78 37.51 38.18 38.28 38.04
37.98 38.10 40.09 39.88 36.27 34.13 30.75 30.09 31.80 29.85 26.50 34.10 32.82 35.73 34.87 37.59 38.79 34.11 35.81 32.35 32.31 29.43 37.08 33.35 27.50 32.07 31.85 32.23 31.64 33.48 34.62 35.93 36.07 36.32 35.51 35.57 35.45 35.74 35.82 36.00 36.47 36.58 35.49 34.95
39.51 35.79 33.15 33.63 32.39 25.51 25.56 22.97 26.90 29.91 34.75 34.97 33.53 32.70 36.09 38.43 39.06 35.97 33.97 31.41 29.74 36.04 31.52 29.30 30.96 30.89 31.49 31.27 33.22 33.32 35.01 34.77 33.87 33.82 34.27 34.34 34.27 34.73 34.84 34.49 35.70 35.22 34.00 34.20
32.81 29.20 23.44 27.50 26.33 27.15 29.33 30.18 30.66 33.93 34.77 34.89 34.91 32.53 34.77 37.12 33.74 34.28 31.32 33.64 32.66 28.48 27.59 26.59 32.90 32.90 32.87 33.68 34.24 34.83 34.25 33.83 33.45 33.12 33.16 33.34 33.21 33.49 34.67 34.87 34.76 34.06 33.25 33.53
31.07 30.67 22.69 25.93 30.45 30.52 32.32 32.34 32.47 35.24 36.15 35.32 34.36 33.72 35.12 33.03 32.07 33.06 31.79 30.13 26.31 29.25 28.85 31.73 32.20 32.73 32.11 31.91 32.63 33.00 32.27 32.79 32.46 32.61 32.12 32.33 33.48 33.60 33.33 33.30 32.42 32.45 31.86 32.53
29.03 31.15 27.40 29.62 25.72 26.80 29.48 30.40 28.09 35.78 35.65 35.81 34.03 31.84 30.99 29.73 31.24 28.63 28.67 26.46 26.98 30.24 32.11 29.83 31.39 31.79 32.14 32.68 33.28 33.23 32.07 31.41 31.18 31.47 31.28 31.48 31.28 31.03 31.37 32.95 31.74 30.82 30.84 29.99
23.39 21.24 28.34 29.36 29.82 28.53 29.84 30.39 33.75 36.28 33.97 30.75 31.06 29.06 28.95 31.39 28.93 28.08 30.67 29.19 31.75 30.61 30.29 28.60 29.97 29.70 30.79 31.67 32.47 32.19 30.12 28.93 28.87 28.28 28.43 28.38 28.94 29.77 30.50 28.40 29.26 30.38 31.27 30.76

GFSNW_sfc_wetblb_075.txt.gz
Wetbulb
49.16 49.86 49.13 48.95 49.38 50.53 45.09 39.13 33.50 46.00 46.55 34.45 36.28 35.78 38.79 41.14 40.70 41.28 40.17 38.11 36.92 34.43 34.77 33.67 33.45 33.02 36.30 41.27 40.36 37.01 39.33 35.10 30.47 33.53 39.18 39.75 38.67 36.36 34.50 25.15 24.48 26.65 22.68 25.46
48.91 49.33 48.69 48.81 48.99 49.95 42.40 36.33 37.23 45.87 43.30 28.47 34.46 36.45 38.72 40.94 39.15 39.44 38.91 37.76 39.04 38.43 34.96 31.78 35.27 35.56 40.52 41.44 39.18 36.09 38.17 30.78 25.81 28.68 33.56 36.02 32.58 36.38 36.79 32.73 31.03 25.50 23.35 24.54
48.75 48.86 48.36 48.36 48.41 49.64 42.32 37.94 31.08 36.43 40.07 39.92 37.61 36.58 36.21 38.06 41.30 39.98 40.76 39.00 39.60 36.84 34.92 36.64 34.15 35.15 40.04 41.24 39.24 43.21 40.71 33.02 25.60 22.72 27.35 30.99 26.82 32.71 32.33 27.35 21.62 25.54 25.06 28.48
48.67 48.71 48.08 47.93 48.78 49.75 42.02 36.59 36.38 38.15 31.67 34.22 38.51 38.93 38.88 36.99 35.93 40.38 41.08 38.95 37.82 35.77 31.73 33.02 32.85 35.58 37.02 39.55 41.83 38.69 36.68 27.33 29.14 31.74 33.86 33.91 32.07 31.80 31.11 24.20 29.57 24.43 30.25 30.72
48.47 48.38 47.63 47.56 48.28 48.50 38.48 33.49 33.73 36.25 34.14 36.79 38.17 37.58 35.86 36.16 37.82 37.91 37.87 36.94 38.63 37.12 33.82 33.65 31.59 34.39 33.78 33.52 35.84 34.74 36.59 27.23 29.43 24.91 32.69 32.47 29.54 33.01 32.93 32.10 32.34 31.30 32.08 31.91
48.49 47.76 47.49 47.20 47.38 45.07 35.37 37.04 38.12 38.05 35.57 34.97 36.24 36.33 36.87 37.37 39.58 41.22 41.85 39.56 37.96 35.75 36.73 38.77 38.48 37.34 37.42 36.20 34.13 33.93 33.63 29.64 25.59 21.34 30.49 29.98 24.93 30.50 32.11 32.33 33.13 32.83 28.56 34.00
48.55 47.58 47.59 47.36 46.96 45.15 38.46 40.16 38.58 34.38 29.49 32.90 34.42 34.94 36.60 38.07 39.30 37.88 41.87 41.18 37.54 39.06 43.08 42.61 39.69 37.92 37.06 37.27 35.76 37.19 32.79 31.45 29.81 23.23 25.93 19.39 29.91 35.22 36.91 34.54 35.33 35.42 35.82 36.93
48.64 47.61 47.13 47.15 46.51 46.53 38.71 38.21 35.23 32.78 25.79 31.81 33.25 35.22 35.81 36.45 39.59 40.78 40.46 41.44 41.66 42.67 40.47 37.86 34.74 34.71 35.27 35.07 35.47 35.48 35.98 32.38 27.84 23.55 22.60 27.41 31.58 33.71 33.57 32.69 32.53 37.33 36.07 37.62
49.18 47.98 46.87 46.60 46.63 45.78 38.68 37.96 38.42 36.43 30.54 26.10 33.14 32.93 35.13 32.91 32.65 36.99 41.13 42.61 43.39 41.37 38.63 36.92 28.82 27.39 31.33 29.66 32.43 36.47 36.00 33.82 28.35 27.97 20.81 21.95 32.68 35.62 38.36 38.46 32.87 38.19 38.11 37.93
50.19 48.89 47.37 46.48 46.38 46.53 40.00 37.54 39.23 34.01 30.64 32.33 32.76 31.55 33.42 36.98 38.27 36.38 38.64 41.00 39.21 40.08 35.19 32.49 29.53 29.77 32.67 27.47 26.50 30.12 29.71 29.17 24.30 25.16 22.55 28.23 36.51 38.56 39.32 32.42 32.03 39.65 40.21 40.11
51.21 50.16 48.43 46.74 46.17 46.56 40.35 37.25 39.72 34.88 28.81 31.05 33.93 34.99 33.51 35.26 34.98 34.65 39.05 38.77 36.99 35.45 31.09 30.67 31.37 29.67 32.36 28.47 30.53 29.85 28.49 29.71 29.25 29.83 27.01 21.53 37.99 37.73 34.71 38.90 41.97 43.06 42.61 41.13
51.78 51.06 49.39 47.64 46.32 46.15 43.32 35.21 41.17 42.13 35.19 32.23 37.07 36.86 37.79 36.73 36.07 35.79 37.02 38.99 39.43 41.10 35.50 33.37 33.07 32.04 31.08 29.47 28.08 32.08 28.11 31.13 29.21 29.66 29.09 36.41 39.89 39.03 40.73 42.52 41.03 40.73 41.31 41.27
51.73 51.56 50.46 48.47 47.02 46.43 44.75 37.23 39.81 39.82 36.02 33.33 32.87 32.19 37.73 40.44 38.86 39.15 34.16 37.67 42.44 42.92 43.09 36.52 35.68 31.70 33.28 27.89 28.88 30.28 33.21 36.09 32.02 32.81 35.20 35.93 39.58 40.61 41.30 41.48 41.01 41.37 41.61 41.89
50.93 51.21 51.25 48.69 47.27 46.19 45.27 37.82 40.93 40.68 37.09 29.90 29.54 38.05 36.60 40.13 39.21 38.27 37.67 37.84 41.65 40.33 42.40 37.64 35.10 32.91 35.53 31.40 33.33 31.53 34.55 35.19 33.80 33.06 35.74 36.27 38.42 40.96 41.57 41.71 41.89 41.05 41.30 41.36
49.95 50.60 50.39 48.90 46.81 46.10 43.48 40.81 41.56 42.80 36.65 27.97 29.16 35.55 37.34 37.24 36.39 36.69 38.00 36.27 36.22 37.86 37.43 38.75 34.26 35.88 35.08 34.27 34.07 31.75 35.51 34.63 32.71 31.86 37.54 38.10 37.93 40.15 41.19 40.75 40.12 39.59 39.40 40.21
49.69 49.78 49.89 47.70 45.89 45.02 39.43 34.28 39.12 41.07 42.16 33.52 25.61 33.87 32.43 34.27 34.83 35.52 36.34 35.83 35.71 37.36 37.81 38.58 39.98 41.10 37.14 30.77 29.85 35.93 36.76 37.81 38.74 37.11 39.60 40.00 40.82 40.73 40.61 39.86 39.50 39.54 38.70 38.96
49.44 49.38 47.61 46.07 45.56 42.47 36.73 33.93 40.26 43.37 39.36 33.09 26.24 25.71 32.67 39.84 37.76 33.79 36.01 40.65 39.61 38.32 38.15 38.03 38.58 37.53 39.57 36.07 30.35 36.07 37.75 39.09 39.40 40.77 40.71 38.42 39.07 38.41 38.79 39.52 39.22 39.61 38.23 38.74
47.76 46.76 45.84 44.42 43.84 43.15 39.85 42.34 44.40 42.79 36.39 34.63 22.91 20.91 28.64 40.19 37.30 35.22 39.65 38.74 39.73 39.49 38.75 38.88 36.81 36.77 36.99 32.33 36.46 38.29 37.50 38.14 37.91 38.60 38.94 38.82 38.65 38.50 38.73 38.40 38.43 36.48 36.91 37.53
46.07 45.09 44.37 41.59 39.06 35.88 35.43 44.73 45.03 42.15 36.96 28.34 27.84 21.54 22.72 37.63 37.40 38.62 39.14 40.17 33.70 38.40 36.22 37.56 37.53 34.47 30.90 35.33 36.56 36.20 37.15 36.74 37.27 36.87 36.73 36.72 36.44 36.82 36.93 36.19 36.12 34.87 35.45 36.23
43.68 41.34 37.06 31.76 35.21 44.07 42.88 37.13 35.56 34.33 34.71 33.99 26.83 28.77 25.55 34.52 35.91 35.17 35.31 37.88 33.80 31.37 32.86 38.84 34.67 31.09 36.92 36.17 35.74 34.54 34.15 34.36 35.41 34.28 32.01 33.22 33.57 34.70 35.74 36.33 36.54 36.13 35.70 35.70
38.85 35.39 32.79 40.21 43.11 39.83 35.77 31.69 30.72 30.82 26.70 30.01 29.20 30.58 28.08 36.09 32.46 34.00 36.89 32.75 33.75 29.22 33.70 33.83 31.70 29.99 33.32 32.02 31.49 32.60 33.68 35.26 35.25 35.69 35.62 35.78 34.77 35.76 35.76 36.10 36.68 36.54 37.44 37.64
37.93 37.42 40.09 39.42 36.05 32.91 29.47 28.81 30.67 28.12 24.07 31.35 30.63 34.22 33.45 34.64 38.92 34.43 35.01 32.00 31.93 28.95 36.81 33.19 27.50 31.71 30.05 30.42 30.45 31.30 32.86 35.19 35.42 35.67 34.85 34.71 34.62 34.15 34.17 34.56 35.75 36.33 36.00 35.21
38.17 34.48 32.17 32.14 31.58 22.88 23.74 16.90 22.95 26.14 32.58 33.70 33.95 32.03 35.04 35.93 36.08 34.37 33.71 30.62 29.76 35.53 31.31 27.81 28.75 30.53 29.98 29.59 32.24 32.76 34.26 34.12 33.04 32.71 33.51 34.20 33.98 34.50 34.55 34.31 35.14 34.79 34.52 34.85
29.00 20.88 15.73 23.79 20.15 24.59 24.78 28.83 29.07 32.66 33.62 33.31 34.58 33.24 33.46 35.80 33.07 33.70 30.87 33.11 32.56 27.12 26.13 24.06 29.69 33.07 32.43 33.93 33.91 33.77 33.72 33.85 33.34 32.85 33.11 33.33 33.05 33.19 34.01 34.19 33.62 32.48 32.06 32.69
29.57 29.13 21.20 20.81 25.53 25.63 27.44 31.76 31.15 31.07 35.09 34.10 33.45 32.52 34.90 32.34 31.36 33.07 31.52 29.88 24.94 27.63 28.37 32.37 33.09 32.21 32.03 31.99 32.38 32.22 32.00 32.69 32.88 33.21 31.45 31.42 31.93 31.94 31.77 32.56 32.57 31.13 30.79 30.93
29.73 29.86 25.42 25.50 20.05 18.97 25.69 28.75 28.21 34.49 34.93 33.52 33.82 31.00 30.03 29.20 30.42 24.91 23.12 25.82 27.24 29.67 31.67 30.14 31.82 32.70 32.85 33.27 33.31 32.97 32.48 31.80 31.22 31.29 30.87 30.84 29.72 28.87 29.78 31.39 30.67 30.09 30.21 29.26
18.62 16.82 25.02 23.14 22.54 22.39 27.89 30.58 31.32 35.19 33.16 28.96 27.53 26.85 27.72 30.26 25.08 22.58 25.61 28.10 30.79 30.98 30.41 26.99 28.59 28.86 29.92 32.49 33.44 34.14 31.54 29.19 28.75 27.39 27.87 27.62 26.80 26.81 26.82 25.42 26.67 27.47 28.26 28.44

GFSNW_sfc_wetblb_078.txt.gz
Wetbulb
49.46 49.55 49.52 49.37 49.59 51.03 44.29 37.97 32.15 44.85 45.40 33.33 33.17 29.57 37.61 40.68 39.14 39.90 38.66 36.72 35.76 33.29 32.94 32.27 31.79 32.89 36.25 40.87 39.20 35.99 37.26 34.27 29.33 32.40 37.60 40.23 37.80 35.06 33.34 21.87 25.45 20.91 20.16 24.16
49.25 49.25 49.10 49.00 49.03 50.20 40.69 35.77 36.09 43.55 41.15 28.54 34.49 36.11 37.51 40.89 39.20 38.01 37.86 36.75 37.62 37.05 33.58 30.80 33.31 34.92 40.19 40.78 39.01 37.23 37.92 31.34 27.01 29.61 33.83 37.40 35.01 37.31 37.24 31.85 25.87 19.71 19.30 24.31
49.13 48.93 48.48 48.46 48.60 49.66 41.31 34.72 28.93 35.23 37.43 37.02 32.73 34.36 35.42 37.51 42.55 39.12 40.02 37.90 38.25 35.65 34.09 35.44 33.33 34.22 39.65 41.11 38.74 43.76 40.70 31.88 25.86 23.25 26.78 30.56 27.65 32.81 35.18 28.58 19.04 23.05 23.29 27.44
49.09 48.48 48.19 48.09 48.84 48.66 39.82 33.90 32.24 33.78 26.75 31.47 34.15 35.71 36.32 35.94 36.14 40.19 40.81 38.45 37.41 34.62 31.06 32.26 31.67 34.56 36.26 39.26 41.24 37.99 35.72 27.19 29.18 31.03 33.46 32.24 30.50 30.81 30.40 25.89 28.27 24.78 28.58 29.88
49.09 48.19 48.04 47.79 48.66 46.50 36.05 30.46 28.66 33.55 31.72 34.36 33.20 35.68 34.11 35.33 37.40 37.80 36.87 36.30 37.65 35.79 32.61 32.47 30.59 32.88 32.45 32.50 35.57 34.28 35.24 28.17 28.08 24.52 31.35 31.00 29.03 32.05 31.61 30.75 31.34 30.57 30.99 30.96
49.04 48.04 47.87 47.47 47.43 43.70 33.55 34.54 36.96 37.14 30.92 31.15 29.93 31.85 34.24 36.12 39.33 40.04 41.70 39.27 36.88 35.33 35.83 37.48 38.06 37.50 36.35 34.79 33.46 32.98 32.59 29.03 25.32 20.86 28.95 29.12 24.37 29.65 31.21 31.24 32.55 32.98 28.54 33.30
49.13 48.11 47.48 47.36 47.04 43.43 36.49 35.56 36.51 32.40 24.89 29.01 31.57 32.64 33.29 35.47 37.80 37.04 40.16 41.58 36.72 38.61 41.76 41.26 39.13 36.49 36.29 35.63 34.40 35.68 31.28 29.93 28.04 22.31 24.94 19.29 28.34 33.93 35.28 33.57 34.46 34.85 34.93 35.97
49.71 48.51 47.19 46.92 46.64 46.17 37.93 36.54 34.22 33.55 23.73 27.31 28.61 30.51 33.37 34.37 36.70 37.47 40.42 40.62 41.30 41.87 39.69 36.74 34.16 33.98 33.11 32.91 34.35 34.15 34.59 31.03 27.11 23.32 22.11 25.75 29.61 32.89 32.76 31.80 31.52 36.08 35.14 36.40
50.60 49.55 47.74 46.53 46.32 46.08 37.74 36.71 36.92 33.25 26.60 24.44 31.11 28.86 31.28 31.40 32.77 35.43 38.90 43.61 42.74 40.57 37.96 36.29 26.52 26.76 28.65 29.21 30.58 35.35 33.92 32.40 27.80 23.62 20.19 20.91 29.59 34.52 36.80 37.51 29.87 36.94 36.95 36.65
51.53 50.92 49.41 47.30 46.45 46.27 39.13 36.55 37.76 33.14 27.09 30.13 31.10 28.84 27.85 32.92 34.82 33.80 38.15 40.04 40.33 40.10 34.19 32.86 28.96 28.45 32.06 26.46 25.72 28.05 27.55 30.10 25.37 24.53 20.93 26.61 33.05 37.14 38.78 29.66 29.53 37.90 37.19 37.11
52.07 51.73 50.98 48.87 47.37 46.35 40.03 36.67 38.60 33.83 28.58 30.58 33.64 34.74 31.50 32.51 33.22 30.98 36.25 36.92 36.92 35.03 32.44 29.72 29.77 28.37 30.89 27.05 28.69 28.55 27.34 25.69 26.03 26.09 24.50 19.37 37.21 35.93 35.37 37.52 41.75 41.61 40.33 40.20
52.45 52.11 51.68 50.36 48.44 46.47 42.94 34.77 40.21 40.17 34.98 33.13 35.79 36.87 37.87 36.85 35.99 32.37 33.80 35.53 35.20 40.53 35.60 32.50 32.48 31.43 30.75 28.62 26.47 30.33 28.75 30.28 28.13 28.98 27.91 35.10 38.06 37.84 39.93 43.11 40.95 40.61 42.13 41.49
51.12 50.94 51.01 51.15 49.88 47.43 45.58 39.88 38.84 36.68 35.46 34.33 31.43 31.50 38.06 39.44 38.41 39.25 29.97 33.46 40.01 40.54 41.77 39.65 37.87 31.51 31.33 26.61 28.21 29.28 31.47 34.03 32.20 32.14 33.45 35.56 38.48 39.40 40.84 40.80 40.86 40.71 41.43 41.74
48.68 48.87 49.27 50.47 49.56 47.86 46.24 40.57 40.49 39.50 36.71 30.64 30.03 37.69 35.09 38.36 38.41 38.10 37.38 34.87 38.01 38.51 40.48 39.81 36.98 32.58 34.16 29.80 31.85 30.63 32.63 34.16 32.47 31.95 34.26 35.53 36.91 39.27 40.88 40.80 41.14 41.20 41.45 40.97
47.49 48.35 48.89 49.31 48.82 47.07 44.45 41.72 38.99 41.02 35.77 29.16 30.75 35.49 35.79 36.24 36.25 36.15 37.06 34.87 32.27 33.99 35.64 37.28 36.07 35.93 35.31 33.11 33.17 31.67 34.24 33.45 32.17 31.43 36.27 36.15 37.08 39.50 41.09 40.40 39.58 39.36 39.25 39.01
48.51 48.95 49.25 48.97 46.81 44.88 40.81 34.00 37.11 41.34 42.15 34.21 25.72 32.56 31.83 35.09 35.27 34.40 34.37 35.16 34.00 33.89 35.83 36.64 38.92 41.67 36.74 30.00 29.23 34.83 35.68 36.83 38.57 36.72 38.24 39.05 40.07 40.33 39.70 39.65 39.20 39.13 38.26 38.18
48.85 48.83 48.22 46.60 46.04 42.03 34.62 31.95 38.88 42.30 40.64 31.88 26.70 25.77 32.07 35.90 38.16 33.21 35.34 36.43 36.90 35.27 32.86 34.72 37.87 38.81 39.32 36.88 31.20 35.36 36.83 37.17 37.01 38.81 40.15 38.14 39.26 37.97 38.50 39.00 38.78 39.38 36.93 37.54
48.60 47.48 46.25 45.99 44.91 42.87 39.39 42.32 44.09 42.70 37.00 33.71 24.61 23.45 26.88 39.59 36.18 32.44 36.01 36.27 37.80 37.68 35.63 37.02 35.70 35.48 36.18 33.00 36.11 37.65 36.66 36.59 37.11 37.38 37.86 37.91 38.26 37.89 37.54 36.91 37.55 35.11 35.65 35.90
46.70 45.71 44.72 41.84 39.43 36.21 36.16 43.32 44.18 42.13 36.12 27.28 28.21 20.61 18.85 34.35 35.11 37.90 37.13 38.70 32.66 36.71 34.89 33.89 37.12 33.83 32.93 34.35 35.48 36.72 36.63 35.57 36.32 36.13 36.12 36.40 36.07 36.51 36.08 34.70 34.26 33.08 34.25 34.80
44.39 41.40 37.19 32.33 33.61 42.18 42.28 35.19 34.80 34.59 34.86 33.16 26.00 30.44 25.95 31.85 33.97 34.86 34.94 36.19 34.27 30.25 33.03 37.42 32.47 31.33 36.35 35.29 34.76 33.87 33.57 34.07 34.53 33.57 31.76 33.30 32.52 33.78 32.84 33.09 35.82 36.65 36.19 34.59
38.20 35.12 33.34 39.72 43.47 39.38 34.69 30.79 29.07 29.43 26.11 29.14 29.17 29.19 27.29 34.76 30.23 32.35 36.56 32.62 33.62 28.72 32.83 31.72 30.32 30.50 31.44 30.50 30.71 31.93 33.19 33.83 34.03 35.03 36.04 36.31 36.01 35.56 35.33 35.63 36.33 36.75 37.01 36.41
37.90 37.62 39.81 38.89 35.15 31.39 28.17 26.74 29.72 26.46 21.91 28.51 29.83 33.42 34.11 33.60 36.17 34.08 34.87 31.74 31.67 28.95 36.91 33.10 27.37 30.02 29.41 29.98 29.75 30.93 32.40 33.51 33.58 34.98 34.32 34.13 34.20 33.96 34.21 34.71 35.03 35.70 35.83 35.68
38.39 34.58 32.17 30.57 30.85 21.83 23.12 11.04 22.97 24.40 32.30 33.44 33.23 30.25 35.59 35.35 35.50 33.09 33.01 30.53 28.99 35.42 31.25 28.37 30.06 31.06 30.92 29.71 31.01 32.13 33.23 33.59 33.30 32.32 33.00 33.47 33.73 34.37 34.24 33.80 34.16 33.65 33.47 34.00
28.97 19.57 16.85 24.62 19.38 23.55 19.00 22.86 25.32 31.81 32.15 32.12 32.78 31.76 33.03 35.78 32.87 33.48 30.96 33.38 32.63 24.37 23.50 24.77 32.59 33.07 32.61 33.83 34.30 33.39 33.66 33.92 33.24 32.92 33.18 33.17 33.17 33.11 33.26 32.32 31.74 30.84 30.85 31.42
22.24 28.04 17.98 19.17 22.56 23.57 25.07 29.36 27.15 27.74 31.53 33.00 32.65 31.83 32.95 32.19 31.44 32.86 31.61 29.74 25.31 27.62 28.18 31.04 31.64 31.95 31.99 32.30 32.45 32.27 32.04 32.73 32.84 32.69 30.99 30.84 30.91 30.04 29.83 31.30 31.50 28.66 28.87 29.73
30.16 29.24 24.23 26.05 17.76 15.10 18.61 21.66 23.12 31.12 34.91 33.89 32.61 30.32 29.18 29.32 30.42 27.48 24.74 24.60 25.71 28.52 30.68 31.81 31.50 32.55 33.12 33.47 33.34 32.91 32.36 31.86 31.42 31.21 30.68 30.40 29.04 27.37 27.26 28.72 29.18 28.96 29.52 28.92
23.15 14.87 23.64 20.31 16.15 18.08 23.09 27.42 28.71 34.41 29.31 27.57 28.71 25.42 26.11 28.57 26.99 24.43 26.35 28.75 29.90 31.38 30.92 29.80 27.84 30.45 30.09 33.16 33.46 33.85 33.36 31.30 29.93 27.62 26.93 26.50 25.29 26.07 25.02 23.65 24.84 24.41 27.28 27.43

GFSNW_sfc_wetblb_081.txt.gz
Wetbulb
49.80 49.49 49.22 49.50 49.69 50.68 43.76 36.98 30.03 43.55 43.86 31.19 31.06 25.71 34.60 39.76 38.13 38.87 37.57 35.98 34.78 32.17 31.75 30.70 32.51 32.65 35.29 40.43 39.17 34.98 37.12 34.02 29.56 32.65 37.36 38.99 36.27 34.41 33.46 21.47 25.70 25.07 16.93 23.01
49.52 49.19 49.02 49.18 49.45 50.10 39.73 34.40 34.74 41.82 40.25 25.20 25.75 33.66 36.22 39.02 38.46 37.24 37.25 36.07 37.09 35.53 31.82 29.49 32.98 35.61 40.53 39.95 38.33 35.52 37.36 31.20 27.61 28.79 33.60 36.84 34.43 36.00 36.45 31.28 25.28 18.69 18.63 23.97
49.33 48.89 48.79 48.66 48.88 49.16 39.78 33.61 28.51 33.45 35.86 34.75 30.64 31.60 31.65 34.84 40.40 38.23 38.98 37.33 37.35 34.67 31.54 33.91 31.83 33.73 39.67 41.24 37.72 43.78 40.06 31.54 26.25 23.11 26.27 33.26 31.92 33.73 35.13 33.29 26.88 23.13 21.77 27.62
49.27 48.67 48.53 48.18 48.27 47.48 38.34 31.91 30.10 34.72 24.62 29.41 32.49 33.40 34.24 33.80 34.01 38.21 39.09 36.33 36.18 33.80 29.65 30.84 30.66 33.54 35.90 38.61 41.66 37.59 34.98 27.75 28.18 29.88 32.32 31.67 30.69 30.68 33.20 31.45 31.14 25.14 27.79 27.84
49.21 48.41 48.18 47.84 47.98 44.93 34.68 29.76 26.90 30.61 29.17 32.03 31.88 33.51 31.81 33.21 35.81 36.18 34.96 35.07 36.69 35.55 31.58 32.18 29.69 31.49 31.71 32.21 34.56 34.22 34.44 26.49 28.15 25.26 31.43 31.18 29.66 31.31 33.12 33.58 32.88 30.59 30.18 30.10
49.10 48.42 48.01 47.61 47.27 42.46 32.18 32.63 34.33 33.53 28.76 28.31 28.24 29.19 31.37 33.30 34.91 38.46 39.87 39.65 36.10 34.77 35.56 36.49 36.42 36.53 36.21 34.38 32.68 32.37 31.93 28.74 24.72 19.34 28.70 28.42 23.51 28.97 30.60 31.72 31.55 32.99 28.83 34.06
49.08 48.51 47.80 47.46 46.96 42.48 35.28 34.25 32.96 27.11 23.88 25.53 26.10 27.91 29.49 31.27 33.37 33.29 37.14 39.12 37.54 38.12 40.93 40.10 37.77 35.10 34.77 34.27 33.16 34.76 30.48 28.67 28.01 22.34 23.88 17.37 26.50 32.76 34.05 33.23 33.42 33.71 34.08 35.40
49.85 48.73 47.63 46.87 46.57 45.20 36.60 35.31 32.88 28.50 22.42 25.96 26.85 28.96 28.47 30.18 33.37 35.43 37.25 39.49 41.95 42.16 38.26 35.24 33.79 33.10 33.29 32.01 33.19 32.65 33.24 30.23 26.58 22.96 20.95 24.74 27.52 31.67 31.72 30.91 30.88 35.90 35.13 35.92
51.11 50.25 49.02 47.54 46.04 45.61 37.25 35.77 35.92 31.73 26.27 24.84 29.01 27.43 29.11 30.06 25.62 30.27 38.05 37.62 43.45 40.57 37.36 36.58 27.16 25.01 28.48 28.49 29.47 33.98 32.39 31.37 27.10 22.59 19.17 19.39 27.78 34.04 35.86 35.72 27.31 36.29 36.26 36.06
51.88 51.54 50.80 49.67 47.56 46.58 38.76 36.03 36.69 31.98 26.13 28.77 29.83 25.77 25.78 30.22 28.95 27.64 32.93 32.93 37.49 39.80 33.82 33.95 29.96 26.34 30.84 25.47 25.53 27.46 28.41 29.90 27.95 24.77 20.28 25.50 31.35 36.21 36.81 25.86 27.63 36.86 36.21 36.20
52.60 52.35 51.76 51.12 49.05 47.19 41.51 38.89 38.66 33.38 28.84 29.86 32.43 33.91 31.40 30.61 30.09 27.86 31.94 31.20 35.24 36.49 34.32 31.15 31.24 28.67 29.52 26.08 28.15 28.18 26.96 24.12 24.32 26.90 25.98 18.81 35.25 35.11 31.77 35.44 39.75 39.52 37.44 37.39
51.20 51.88 51.78 51.27 50.62 48.09 44.50 38.14 39.59 39.03 34.90 31.91 35.11 36.29 37.01 35.94 34.71 31.91 31.93 32.39 30.79 32.33 35.71 32.44 31.28 30.76 30.72 28.44 24.75 29.38 27.02 29.42 27.70 27.61 27.01 33.62 35.85 36.31 37.78 42.69 41.35 39.82 42.01 40.60
49.07 49.40 49.48 49.86 50.29 49.14 44.76 39.72 40.35 38.90 34.56 32.12 30.78 30.44 35.66 38.25 37.53 38.73 30.17 32.54 37.44 37.25 37.44 37.40 38.02 32.27 30.33 27.82 28.27 26.94 30.19 33.55 31.83 31.83 33.08 33.71 36.27 38.37 39.52 40.06 40.57 39.74 40.60 41.60
46.89 47.20 47.74 48.60 49.43 49.21 46.72 41.46 41.46 39.22 33.96 29.95 29.19 36.39 34.10 37.38 36.89 36.61 37.27 35.30 34.89 35.34 35.28 36.36 36.16 33.34 33.19 29.22 30.54 30.34 32.37 33.13 31.96 31.63 34.24 34.86 36.26 38.54 39.90 39.93 40.73 40.43 41.06 40.43
46.72 47.31 48.17 48.76 49.04 48.55 44.96 42.17 41.64 41.53 34.86 27.85 29.13 34.30 34.52 36.76 35.62 35.43 36.05 34.72 32.85 31.11 31.19 34.33 35.85 35.84 34.29 31.93 32.19 31.36 34.58 33.60 31.62 31.04 36.14 35.93 35.75 37.94 40.63 40.18 39.54 39.46 39.37 39.22
47.79 48.40 48.76 49.08 47.86 44.55 39.64 34.23 36.22 39.06 41.28 33.80 25.09 31.12 31.72 34.12 36.12 33.14 32.42 33.77 32.15 32.16 32.66 32.19 34.62 38.89 36.46 32.01 28.57 33.91 34.70 36.29 37.58 36.62 37.44 38.43 38.82 39.70 39.75 39.28 38.91 38.73 38.39 38.12
48.34 48.64 49.29 47.79 45.94 41.74 35.32 31.41 37.80 42.12 40.85 32.73 25.31 24.70 30.22 33.06 38.38 31.75 32.57 33.92 34.40 33.24 32.73 31.32 34.51 36.52 36.43 36.28 31.11 34.29 36.07 36.35 36.47 37.40 39.84 38.14 38.96 38.21 38.84 38.82 38.57 39.21 36.77 37.12
48.45 48.02 47.17 46.59 44.71 41.90 37.52 41.29 44.08 42.67 37.38 33.38 24.09 21.37 24.91 35.48 34.35 33.57 33.86 33.23 35.01 35.90 32.71 34.42 34.20 33.76 35.96 32.18 35.02 37.40 36.88 37.46 36.34 37.43 36.81 37.21 37.86 37.52 37.02 36.61 37.13 34.85 34.92 34.79
47.06 46.50 45.26 40.32 37.39 32.72 36.89 44.04 43.97 42.21 36.40 27.38 23.24 19.30 16.74 31.78 31.77 37.26 35.60 37.96 32.16 34.83 34.60 34.44 35.97 33.43 29.28 32.48 33.77 34.93 35.34 34.97 34.99 35.65 36.16 36.50 36.08 36.14 35.86 35.02 34.04 32.27 33.18 33.75
45.54 41.11 34.63 28.25 33.27 41.71 42.66 36.76 35.09 34.79 35.03 32.60 24.82 27.43 21.03 28.70 30.82 32.82 34.80 35.09 33.08 29.08 30.84 37.11 31.99 29.38 35.03 32.83 33.12 32.47 32.35 32.78 34.15 32.87 31.15 32.57 32.44 34.05 33.19 32.86 34.20 34.50 35.65 36.01
38.05 32.13 33.05 39.29 43.35 38.81 34.96 30.31 29.18 28.79 25.50 28.87 28.05 27.76 27.05 34.60 27.58 30.82 36.20 32.41 33.16 28.41 31.50 32.04 30.39 30.22 31.14 29.41 29.67 31.62 32.66 32.82 33.32 35.28 36.04 35.92 35.79 35.45 35.14 35.21 35.79 36.31 36.40 35.64
35.89 35.20 39.27 38.73 34.85 31.56 27.65 26.54 29.29 26.54 20.92 26.78 29.25 32.65 33.89 34.00 35.24 31.95 34.35 31.29 31.68 27.04 36.18 32.42 27.92 30.53 29.42 29.63 29.28 30.55 32.15 33.12 32.73 34.55 33.92 33.96 33.72 33.96 34.30 34.73 34.80 34.80 34.95 34.86
35.75 33.46 31.87 30.19 30.13 22.66 21.88 8.84 23.07 24.56 31.15 33.21 32.36 29.88 34.02 35.68 34.98 32.80 32.30 30.02 27.26 35.26 30.98 28.83 30.83 32.83 33.23 31.82 33.19 33.17 33.61 33.56 32.70 32.96 33.54 33.65 33.74 34.17 33.69 32.91 32.77 32.07 32.29 32.64
28.26 19.52 18.65 18.20 17.48 23.99 17.93 19.41 21.35 27.63 30.71 27.30 29.78 31.44 32.15 34.74 32.79 33.48 30.11 33.60 32.62 25.71 20.71 23.20 31.63 32.04 33.05 33.97 34.51 33.97 33.77 34.32 33.19 32.66 32.71 31.49 30.62 30.93 31.79 31.90 32.21 29.97 29.63 29.57
22.06 21.07 13.35 20.04 21.50 18.27 25.01 29.18 23.80 24.69 27.52 31.38 30.04 31.10 32.09 31.83 30.78 33.05 30.79 28.97 24.67 28.10 27.41 30.00 31.41 31.90 31.98 32.48 32.67 32.57 32.21 32.61 32.61 31.82 31.19 30.21 29.10 27.88 27.63 28.77 28.76 27.75 27.86 28.24
26.55 24.76 21.74 26.08 23.71 12.99 23.67 19.69 19.38 25.07 32.14 32.45 31.77 29.43 28.44 28.44 29.73 27.26 24.41 24.36 24.88 27.62 29.85 31.19 31.39 31.99 32.62 33.58 33.35 32.94 32.36 31.98 31.72 31.28 30.52 30.07 28.16 26.33 27.26 27.79 26.89 25.61 25.52 25.73
25.40 15.90 23.54 19.50 14.11 16.66 18.86 24.90 25.83 30.98 29.95 26.55 28.33 24.66 25.24 26.93 25.54 24.62 27.49 27.00 28.45 31.06 31.36 30.98 30.00 28.55 30.23 33.28 33.82 33.95 33.61 32.48 30.29 28.00 26.83 26.39 24.99 24.14 23.81 20.64 21.69 22.32 24.12 25.31

GFSNW_sfc_wetblb_084.txt.gz
Wetbulb
49.74 49.40 49.35 49.65 49.88 50.36 43.30 36.21 29.68 42.19 42.93 29.06 28.83 24.51 32.96 39.13 37.42 37.86 36.20 35.10 33.69 31.32 30.39 30.56 33.07 34.03 36.44 40.75 39.51 33.72 36.79 34.07 29.47 32.61 37.34 38.89 35.59 33.29 32.03 22.77 23.14 23.49 17.21 23.54
49.44 49.30 49.13 49.20 49.38 49.06 38.74 33.25 33.31 40.59 38.72 24.09 24.28 31.96 34.69 37.46 36.95 37.44 37.50 36.34 36.41 34.68 31.44 28.64 31.49 35.69 40.39 40.79 39.41 35.66 36.76 30.87 27.43 29.38 32.39 36.13 33.65 34.03 33.06 28.52 25.95 24.85 19.01 24.11
49.29 49.16 48.90 48.74 48.69 48.33 38.10 31.76 26.12 31.19 34.06 33.24 29.88 31.86 30.26 33.31 38.52 37.76 38.36 37.97 38.42 34.27 30.53 32.84 30.68 34.37 38.87 41.33 39.48 43.27 40.47 31.86 27.39 23.82 26.27 31.85 30.88 32.44 33.19 27.23 18.83 23.57 22.05 26.08
49.06 48.83 48.54 48.36 48.10 46.62 36.44 29.69 29.90 33.61 22.48 26.04 29.67 31.53 32.74 32.56 32.19 37.05 38.67 37.77 37.39 34.35 29.73 30.41 29.84 34.52 37.11 39.33 40.89 38.22 35.54 27.75 27.92 29.20 31.17 31.62 30.24 30.54 31.69 27.73 29.31 24.69 25.39 27.87
48.85 48.45 48.31 48.04 47.67 43.57 34.01 28.25 25.98 28.74 26.23 28.55 28.50 30.74 30.08 29.11 31.93 34.32 33.63 34.92 37.47 36.86 32.80 30.33 28.31 32.02 32.34 33.46 36.27 34.61 33.80 28.65 28.64 25.36 30.71 30.20 29.27 30.62 32.22 32.56 32.32 30.09 30.40 29.10
48.74 48.29 48.16 47.69 46.93 40.94 31.03 31.34 32.76 30.77 27.77 24.93 25.45 25.76 25.71 27.76 30.54 33.05 37.60 35.18 33.28 34.30 36.16 36.75 35.25 35.01 35.65 34.31 32.80 32.87 31.39 28.09 25.25 20.32 28.24 27.97 23.83 28.60 30.92 32.27 32.63 33.45 28.50 34.34
48.91 48.37 47.89 47.41 46.34 41.59 34.30 33.14 31.82 26.05 24.28 25.24 24.75 26.90 27.84 27.95 29.67 28.51 32.44 35.21 34.80 38.85 41.45 40.79 38.03 34.08 33.61 33.38 32.23 34.09 29.71 28.22 27.68 23.47 24.20 17.71 27.33 31.98 33.28 32.61 33.07 34.24 33.64 33.87
49.98 48.91 47.60 46.89 46.73 44.55 35.77 34.37 31.54 27.61 23.09 25.41 26.66 27.10 27.39 28.44 30.25 29.53 30.30 36.57 38.33 40.46 39.53 35.17 32.08 31.00 30.33 30.88 32.77 31.17 32.61 29.68 26.35 22.11 20.86 24.77 28.14 30.68 31.03 30.22 30.16 34.99 34.27 36.22
50.58 50.19 49.79 48.19 46.67 45.04 36.84 34.97 35.25 30.68 24.97 24.97 27.80 26.10 26.95 24.45 23.14 25.82 31.36 37.36 38.02 37.79 38.56 36.25 27.42 23.86 27.26 27.31 30.49 32.15 31.36 30.49 26.77 23.06 18.66 18.43 26.34 33.38 34.91 34.09 27.07 35.04 35.43 35.83
51.85 51.33 50.93 50.36 48.16 46.90 39.18 35.79 35.78 31.40 26.16 28.29 28.52 25.02 25.14 28.33 26.86 25.42 28.89 31.16 32.48 36.67 34.41 33.20 29.65 26.67 29.63 24.66 24.45 26.19 27.66 30.71 24.62 27.19 22.21 24.94 30.19 33.11 35.67 26.04 27.09 36.95 35.07 35.12
52.49 52.17 51.93 51.59 50.28 47.81 42.73 38.56 38.77 35.74 29.98 29.06 31.66 32.36 28.65 28.84 27.92 26.62 29.62 30.15 31.77 30.29 33.38 33.06 32.36 28.80 29.21 26.48 28.07 27.28 26.07 23.36 23.75 28.35 26.16 18.89 32.48 33.85 30.52 34.48 40.24 40.10 36.32 35.01
50.69 50.44 50.61 50.76 51.11 48.49 44.53 38.94 40.49 39.30 35.08 32.05 34.22 34.83 35.88 34.26 33.37 31.59 32.13 29.89 30.51 32.58 31.65 33.32 32.59 30.59 33.77 28.02 25.03 29.78 26.50 28.33 26.75 27.32 26.97 32.56 34.02 36.05 37.33 41.26 41.34 39.97 41.40 38.28
49.11 49.06 48.85 48.61 49.62 49.71 45.00 40.14 39.96 39.29 35.45 32.28 29.77 29.91 33.25 36.86 35.97 36.74 29.76 30.23 34.44 34.46 36.18 33.97 35.44 31.49 29.96 29.56 29.94 28.99 30.35 32.50 30.22 30.48 32.15 32.70 34.39 36.58 38.19 38.74 40.97 39.08 40.12 41.25
47.14 47.01 47.10 48.03 48.34 49.18 45.10 41.27 41.47 39.37 36.02 28.75 28.08 35.70 33.40 36.02 35.56 35.82 35.77 33.70 35.01 33.06 33.03 30.52 33.62 33.11 33.87 29.40 29.74 29.97 32.64 32.78 31.25 30.84 33.24 33.87 35.48 37.01 38.59 38.72 40.72 39.96 40.21 40.16
46.71 46.97 47.85 48.18 49.01 48.88 44.30 42.33 41.70 41.97 34.65 27.17 27.53 32.12 32.99 34.46 34.16 33.77 35.36 33.50 31.47 29.75 27.00 31.70 33.10 36.89 33.79 31.24 31.13 30.57 33.48 33.37 31.30 30.40 35.29 34.84 34.96 36.75 39.42 39.58 38.92 38.54 38.90 38.75
47.90 48.42 48.67 49.45 48.29 45.62 40.84 32.54 35.40 38.15 41.02 32.53 23.85 30.37 30.34 32.39 35.70 33.28 31.81 32.49 30.82 31.14 30.54 28.81 31.18 35.73 35.12 31.01 28.18 32.97 33.84 35.20 36.63 35.96 36.43 37.24 36.66 38.11 38.80 38.99 38.50 38.47 37.73 37.96
48.28 48.78 49.15 47.53 45.27 41.46 35.43 31.11 36.12 42.04 39.76 29.87 22.88 24.43 29.62 31.32 36.10 31.59 30.70 31.79 31.22 30.81 31.16 30.17 30.88 33.57 36.37 34.37 30.45 34.42 34.75 35.23 35.92 36.80 38.58 37.65 37.07 36.77 37.87 38.35 37.59 38.57 36.41 36.43
49.34 48.63 47.15 45.55 44.78 42.37 36.71 39.52 43.66 42.58 36.15 31.93 23.63 22.41 24.20 32.91 30.97 34.31 32.19 29.01 30.74 33.58 29.67 32.14 31.29 32.00 31.91 29.02 33.64 34.99 35.34 36.56 36.27 36.56 36.31 36.70 37.42 37.11 36.62 36.53 36.99 35.03 34.40 34.27
47.69 46.61 44.95 38.37 35.61 31.96 38.00 43.82 43.80 41.93 32.67 24.27 26.47 18.81 16.29 30.28 29.76 35.34 34.90 35.45 30.60 33.66 32.21 32.16 33.05 31.31 28.78 31.09 33.01 32.24 32.37 32.70 34.48 34.50 35.02 35.77 35.56 35.59 35.14 34.48 33.97 32.62 32.80 33.05
45.66 40.05 32.84 27.33 34.17 41.30 42.57 36.34 34.51 34.57 34.21 30.92 25.65 26.56 25.32 30.91 31.33 31.81 33.57 34.82 31.91 29.44 30.30 35.77 32.16 28.52 32.47 30.72 32.33 32.20 32.04 31.98 31.83 31.99 31.20 32.27 32.33 33.76 32.99 33.01 33.72 33.94 33.93 34.43
37.05 32.05 32.23 38.45 43.24 38.52 34.55 30.36 29.18 28.26 25.49 28.72 27.94 27.50 25.37 33.99 28.07 29.53 34.85 30.89 32.68 26.76 27.62 30.44 28.71 30.16 31.44 30.75 29.25 31.30 32.86 31.98 32.40 33.80 34.65 35.38 35.32 34.59 34.93 34.45 34.74 35.72 35.57 35.11
36.39 35.93 38.51 38.57 34.36 30.99 27.22 25.21 28.14 26.50 20.97 25.80 27.73 31.49 30.20 34.27 35.59 31.52 33.16 29.97 31.62 25.18 35.61 31.59 27.81 29.59 30.64 31.38 31.79 32.29 33.15 33.44 33.19 34.41 33.76 33.81 33.82 34.11 34.37 34.70 34.12 33.16 33.23 33.70
35.56 32.81 30.03 28.63 29.56 20.89 14.35 9.96 22.23 24.64 29.31 32.01 30.74 28.04 32.96 35.02 34.81 32.39 31.75 28.81 27.93 34.96 29.96 26.34 29.96 32.23 33.55 33.00 33.84 33.82 34.34 33.82 33.36 33.29 33.79 33.76 33.73 33.76 33.32 32.61 31.90 30.42 29.79 30.17
29.09 23.34 21.48 19.69 20.61 22.53 18.51 18.48 17.84 24.01 30.65 28.77 26.23 29.75 30.99 33.93 32.38 33.17 28.12 31.48 32.05 23.37 19.75 25.35 29.82 30.92 32.13 33.58 34.36 34.03 33.74 34.26 33.96 32.09 31.55 30.57 29.96 30.12 30.69 30.17 30.43 29.07 28.50 27.66
23.86 24.54 18.31 20.84 21.46 15.68 22.51 20.28 21.40 23.84 29.73 25.53 30.35 30.02 31.31 30.56 30.50 32.40 30.51 27.10 23.41 27.38 25.82 29.09 30.34 31.45 31.87 32.12 32.55 32.39 32.06 32.59 32.44 32.59 31.48 30.78 28.87 26.83 27.48 28.31 26.84 24.91 25.74 26.16
24.61 21.55 19.29 23.60 21.09 13.71 25.12 27.70 18.48 23.47 29.24 26.73 30.21 27.97 28.22 25.03 28.34 26.61 21.36 21.50 19.46 23.52 26.74 30.96 30.51 30.67 31.63 33.05 33.39 32.71 32.24 31.95 31.78 31.49 30.63 29.75 27.30 24.39 23.80 25.09 24.18 23.64 23.90 23.76
26.62 23.59 24.07 21.96 16.37 18.41 19.22 24.30 25.64 28.87 27.30 18.26 27.15 24.27 23.33 25.37 22.70 23.94 27.51 26.20 27.35 30.44 31.09 30.14 30.08 30.11 29.69 31.19 33.65 33.64 33.67 33.09 31.38 28.70 26.55 25.72 25.10 24.26 24.59 21.80 21.65 22.04 23.67 23.40

GFSNW_sfc_wetblb_087.txt.gz
Wetbulb
49.76 49.70 49.69 49.87 49.97 49.65 42.75 35.73 27.48 41.34 44.84 28.23 27.78 23.07 31.71 38.00 36.33 37.66 37.16 36.62 34.86 33.08 32.64 31.12 33.04 31.87 34.72 39.60 37.51 32.24 35.74 34.34 29.55 31.29 37.27 39.46 37.08 33.68 32.04 25.37 25.25 21.10 22.08 27.52
49.35 49.47 49.48 49.40 49.22 48.12 37.45 31.75 31.97 39.39 40.11 23.29 25.02 31.11 33.08 35.50 35.97 36.03 36.52 35.76 37.62 37.11 33.35 30.69 33.44 35.27 40.63 40.99 37.60 35.15 36.56 31.98 27.85 29.52 32.55 36.91 34.64 34.72 31.80 29.30 28.27 25.26 23.77 26.87
48.99 49.21 49.21 48.93 48.21 47.65 36.27 29.90 23.78 29.88 32.48 31.20 27.11 28.08 29.11 31.74 37.26 35.50 37.15 37.29 39.17 35.50 31.94 34.28 32.54 32.71 39.61 41.09 40.75 42.62 40.70 32.61 27.89 22.45 26.49 31.35 30.71 32.73 31.90 28.68 24.27 25.61 25.41 29.20
48.75 48.78 48.89 48.69 47.12 45.73 35.01 28.38 28.85 30.75 21.11 24.81 26.71 30.76 32.68 27.21 28.25 32.50 36.01 35.07 33.36 30.61 29.99 30.82 30.82 34.28 34.72 39.70 41.12 39.37 37.30 30.26 29.41 30.51 31.73 32.57 31.86 31.79 31.51 25.68 28.60 25.88 28.49 28.90
48.45 48.32 48.51 48.22 46.72 43.40 33.32 27.90 25.25 27.37 25.62 27.00 25.67 27.69 26.88 25.92 27.63 28.79 28.13 30.65 30.95 32.00 30.33 32.90 32.55 33.53 34.01 34.07 37.55 36.01 34.96 29.99 29.68 27.07 31.53 31.42 30.33 31.58 31.83 32.07 31.93 30.80 30.59 30.17
48.73 47.80 48.07 47.32 47.09 40.69 30.63 30.23 31.82 29.03 27.02 24.24 23.65 24.53 25.16 26.92 28.60 30.75 32.00 30.79 30.16 31.84 34.68 36.57 38.03 36.68 37.00 36.63 35.22 34.59 32.32 30.35 27.14 22.32 29.02 28.86 23.90 28.57 30.67 32.22 32.50 33.19 29.55 34.61
49.17 47.91 47.86 47.26 45.74 40.84 33.89 32.33 30.49 26.21 25.09 25.25 25.42 26.20 26.73 26.84 27.75 26.83 30.75 32.50 33.74 37.16 39.60 39.43 38.35 35.75 35.20 34.55 33.75 35.35 30.36 28.94 29.04 25.02 25.30 17.84 27.15 32.01 33.22 32.65 33.35 34.99 35.12 35.38
49.77 48.84 48.01 47.53 46.30 43.96 34.97 33.56 30.55 27.34 24.17 25.29 26.35 26.36 26.11 26.87 28.23 27.52 28.75 32.15 35.72 37.29 36.67 35.69 30.92 29.86 30.15 30.68 32.00 32.45 33.14 30.38 27.02 24.45 22.59 25.81 28.86 31.28 31.03 30.28 30.99 34.90 35.47 37.25
50.46 50.03 49.28 47.91 47.04 44.34 36.25 33.99 33.96 30.03 25.68 25.25 27.41 25.24 25.57 23.33 22.98 25.26 28.91 34.96 36.28 36.48 36.07 35.44 26.01 24.06 26.28 26.56 29.02 31.82 31.18 30.98 27.97 25.08 20.87 19.58 27.10 34.39 35.44 34.90 28.52 35.53 35.81 35.65
50.85 50.76 50.65 49.65 47.93 45.79 39.91 36.61 37.40 31.28 26.50 27.91 27.79 24.93 24.77 27.02 27.21 25.59 28.14 28.94 31.94 35.82 34.76 31.79 29.84 25.60 28.62 24.73 24.36 25.54 26.95 30.56 26.08 26.27 23.86 25.79 30.65 32.81 35.93 27.06 28.84 37.21 36.84 35.96
51.80 51.75 51.75 51.23 49.65 47.38 42.51 35.43 39.37 35.50 28.32 28.90 30.97 31.74 27.52 27.48 26.81 24.62 27.41 28.67 30.12 30.08 29.84 31.70 31.61 27.20 28.20 26.26 26.13 25.53 25.83 23.85 24.21 27.46 24.41 18.95 32.83 34.40 31.07 35.13 40.44 41.27 39.61 36.44
52.32 51.63 51.34 51.55 51.32 48.43 44.63 38.14 40.42 39.67 32.35 31.53 33.57 33.94 34.59 33.72 32.68 29.74 28.93 26.95 28.17 30.52 29.53 28.48 30.95 31.21 33.48 28.32 24.72 27.84 25.87 28.06 26.24 27.43 27.00 32.77 33.60 36.47 37.50 39.83 41.37 41.28 42.14 39.52
50.95 50.51 50.38 49.95 51.09 49.12 43.96 39.77 39.71 39.14 35.82 30.93 29.25 28.69 32.69 35.97 35.05 35.69 27.21 28.60 32.55 32.66 33.94 30.19 32.38 31.72 32.05 27.25 31.23 28.85 29.05 31.12 29.33 29.77 31.45 32.44 34.39 35.46 37.13 39.23 41.47 40.99 40.86 41.18
49.66 49.20 48.98 48.92 49.74 48.53 44.73 40.66 41.07 37.25 35.25 25.71 27.50 34.90 31.94 34.82 35.55 35.09 34.74 32.91 33.20 33.78 30.61 27.56 29.62 30.01 36.15 29.12 28.70 29.33 32.28 32.16 30.82 30.23 32.81 34.27 35.33 36.05 38.38 39.91 41.53 40.82 40.60 40.51
47.72 47.72 48.41 48.61 49.59 47.31 43.50 41.55 41.19 41.45 32.63 26.29 26.93 30.95 31.79 33.28 34.92 33.89 35.26 34.94 30.27 28.02 26.66 26.71 28.46 35.06 35.56 31.00 29.88 28.87 32.38 32.14 30.49 30.25 34.19 34.20 34.62 37.92 39.34 39.57 39.65 39.40 39.40 38.99
47.69 48.02 48.42 49.53 47.95 45.14 40.27 30.59 34.96 37.43 38.63 32.66 24.07 29.52 28.57 30.75 34.61 31.75 31.34 34.09 30.15 28.84 27.37 27.13 28.62 32.69 32.91 30.76 27.34 32.04 33.09 34.58 35.69 34.64 35.58 36.52 37.14 37.98 39.74 39.14 38.79 38.16 37.64 37.93
48.31 48.89 49.48 48.52 46.15 38.40 33.16 30.98 34.93 40.79 39.50 29.74 21.34 24.37 28.58 29.59 32.80 33.19 29.52 30.71 29.44 28.73 28.62 28.76 29.54 31.15 33.27 31.20 27.22 33.82 33.18 34.39 36.02 36.65 36.22 36.96 37.84 36.58 37.08 38.40 37.90 38.19 36.20 36.26
48.89 48.39 46.79 45.76 45.32 42.85 35.08 39.62 43.14 42.05 34.67 30.29 17.54 20.79 24.53 30.64 28.62 30.53 33.47 28.77 28.82 32.21 28.78 29.36 28.08 29.74 29.47 26.52 32.61 33.29 33.62 34.25 34.83 35.36 36.56 36.44 36.91 36.72 36.38 36.51 36.47 35.13 34.59 34.78
47.79 46.11 44.42 39.37 35.39 31.52 35.86 43.95 42.80 41.42 30.98 21.52 24.21 15.76 16.43 29.52 28.89 31.35 35.50 32.92 29.20 32.74 31.08 29.77 31.25 29.02 27.48 29.69 32.56 31.99 30.70 30.75 31.96 33.85 34.50 35.49 35.52 35.38 35.19 34.88 34.40 33.50 33.56 33.82
45.01 39.91 34.34 30.59 35.16 43.93 42.11 35.65 33.94 34.05 31.25 30.01 25.57 26.07 19.72 27.93 29.82 30.29 33.35 34.37 31.66 29.10 29.93 33.66 30.80 28.85 30.37 29.73 30.38 31.22 32.31 33.01 33.65 31.35 30.35 31.94 32.59 34.05 33.40 33.11 33.63 33.86 33.79 34.10
37.42 33.29 33.68 38.69 42.71 38.07 33.99 29.22 28.32 27.24 25.77 28.76 26.88 24.87 21.41 30.89 26.52 28.79 33.07 30.81 32.36 28.28 27.08 28.13 27.34 29.90 30.92 32.04 31.57 32.49 31.94 32.55 32.99 34.15 33.90 33.97 34.76 34.55 34.34 34.12 34.93 34.93 34.32 33.51
37.24 37.34 39.80 38.62 34.51 30.88 22.79 19.06 26.27 26.03 20.59 25.20 25.12 29.35 27.07 31.89 35.71 31.11 31.78 29.78 31.14 24.28 35.08 31.14 25.41 30.78 32.66 33.50 32.85 33.31 33.95 33.89 33.39 33.82 33.18 33.51 33.40 34.43 34.73 33.89 32.08 31.61 32.31 31.68
36.51 33.50 30.69 28.44 27.85 16.82 13.63 15.48 20.08 23.27 25.35 26.69 30.94 23.71 30.09 34.62 35.04 32.16 31.52 27.63 27.14 34.37 29.69 24.55 29.63 31.24 32.52 32.95 34.23 34.21 34.70 34.60 34.61 34.68 34.73 34.04 33.09 33.03 32.68 31.53 31.07 29.74 28.64 28.57
30.92 26.50 22.00 21.50 20.35 19.66 19.85 19.19 18.58 23.22 27.05 28.66 27.04 22.30 25.42 32.14 31.22 32.43 28.24 31.07 32.01 24.81 18.11 21.74 27.95 29.10 31.60 33.37 34.28 34.09 33.93 34.08 33.22 31.73 31.30 29.44 28.65 28.88 29.77 30.03 28.71 26.68 26.45 27.30
26.56 26.93 20.60 20.82 20.48 15.97 20.01 17.85 26.38 27.97 30.27 25.53 24.00 27.89 28.70 28.67 29.39 30.32 30.82 26.40 21.71 24.90 20.81 24.93 26.10 28.47 31.24 32.18 32.59 32.43 32.05 32.41 32.34 32.56 31.45 30.83 29.42 26.97 27.80 27.97 25.90 25.21 26.28 26.31
26.33 23.23 20.24 23.06 18.27 14.52 25.97 27.05 25.00 23.30 27.53 25.75 26.03 25.23 23.24 22.89 26.69 24.44 20.23 18.71 16.47 20.45 26.11 27.34 28.70 28.01 29.15 32.01 32.77 32.34 32.05 31.92 31.86 31.65 31.03 29.95 27.68 25.23 25.33 25.44 24.54 23.45 24.09 23.57
26.27 24.42 24.52 21.53 17.59 19.97 24.03 28.51 26.08 27.72 24.37 18.11 19.91 19.77 18.65 24.18 21.83 23.28 25.55 23.67 23.66 27.51 29.33 24.97 25.16 25.99 28.13 30.91 33.22 33.39 33.12 32.78 31.83 30.54 28.50 26.50 26.49 24.96 24.91 22.98 23.83 23.15 23.66 22.85

GFSNW_sfc_wetblb_090.txt.gz
Wetbulb
49.70 49.68 49.72 49.81 49.59 49.10 47.23 44.58 39.55 45.28 46.29 38.24 34.85 33.93 33.64 38.23 38.46 40.16 38.35 37.22 34.66 34.56 35.39 32.79 33.37 32.05 35.24 39.97 38.58 33.10 36.19 34.55 29.64 33.15 38.31 40.61 37.49 37.29 36.63 33.14 28.63 29.23 31.23 32.72
49.25 49.24 49.38 49.48 48.70 48.10 44.32 40.15 40.64 44.00 43.56 33.79 32.14 34.39 33.51 36.43 34.82 36.27 34.89 36.17 37.97 36.28 34.23 32.22 34.79 33.33 39.09 40.89 38.97 37.18 38.77 34.85 29.28 30.87 34.69 37.39 34.21 36.81 36.37 35.39 34.94 30.37 30.92 33.20
49.01 48.80 49.16 49.15 47.40 47.85 42.95 39.37 37.69 37.45 40.73 37.23 32.66 29.82 31.33 30.39 35.71 35.84 34.45 34.16 34.39 32.13 35.13 37.08 34.60 32.73 39.38 40.94 40.49 41.78 41.96 35.42 31.31 29.26 31.63 35.59 32.67 36.10 36.84 35.16 32.69 31.88 33.28 35.01
49.03 48.46 48.87 48.66 46.06 46.56 42.83 37.14 35.04 34.14 32.23 33.44 32.30 32.62 32.70 28.89 28.23 33.07 35.70 33.46 31.93 31.06 29.29 33.21 34.47 34.00 36.91 38.74 39.85 40.14 39.25 33.27 33.37 34.23 34.97 35.46 34.82 35.15 34.79 32.98 35.27 33.22 35.00 34.12
48.97 48.11 48.21 48.19 45.22 44.42 39.92 37.16 35.55 34.74 33.21 31.74 31.56 31.69 30.03 28.48 29.20 29.61 29.91 29.06 31.49 33.06 30.38 31.47 30.01 32.67 33.65 33.37 38.63 36.63 38.92 33.03 33.38 30.86 34.60 34.94 33.35 35.29 36.21 36.12 36.63 35.54 34.73 34.65
49.05 48.19 47.56 47.33 45.26 43.65 39.27 37.36 38.57 37.55 31.18 31.43 31.62 30.01 29.22 28.99 30.63 31.79 33.19 32.09 32.07 32.75 33.73 34.90 35.48 36.52 38.07 39.02 37.21 36.57 35.39 34.86 32.60 29.03 32.26 32.48 29.49 32.87 34.95 35.56 36.73 37.17 33.04 38.56
49.20 48.48 47.51 46.78 45.81 43.44 41.56 39.03 38.62 35.50 31.14 32.82 31.15 29.95 29.83 29.48 30.18 28.52 32.32 34.15 32.67 36.06 39.16 40.39 40.95 40.37 39.65 39.17 38.12 38.16 34.52 33.46 33.41 29.82 30.73 22.90 31.76 37.10 36.89 35.88 36.91 38.85 39.02 39.89
49.53 48.79 48.17 47.23 46.27 44.29 41.89 39.98 38.70 36.85 32.05 32.53 31.18 30.67 29.77 30.86 31.29 29.82 30.68 33.77 35.89 38.67 36.93 36.64 34.14 34.82 34.77 35.02 36.25 36.84 37.49 35.47 31.40 28.75 28.18 30.76 33.72 36.03 35.49 34.47 34.79 39.23 39.10 40.80
49.98 49.32 48.75 47.35 46.11 44.52 41.91 40.27 40.06 38.75 34.98 32.26 32.25 30.85 30.17 29.15 29.25 30.86 31.38 36.32 37.78 37.73 36.16 35.53 29.89 28.56 31.14 30.68 33.22 36.65 35.69 36.82 34.13 30.64 25.15 23.07 33.50 38.11 39.93 39.28 33.71 40.76 40.66 40.80
50.78 50.19 49.47 48.52 46.87 45.23 43.14 40.78 40.38 39.22 35.04 34.01 33.28 32.00 30.75 32.19 31.18 29.35 31.06 31.50 32.91 37.60 35.36 32.83 31.49 30.93 33.89 29.76 29.26 30.85 32.80 33.92 31.14 30.22 28.01 30.79 36.63 38.58 40.05 31.35 34.47 41.87 42.14 40.91
51.48 50.97 50.63 49.49 48.29 45.71 44.16 40.59 41.64 39.84 35.92 34.71 34.56 34.99 32.52 32.51 32.33 28.89 31.60 32.48 32.84 33.08 31.59 30.44 31.93 32.10 34.00 32.42 32.83 32.26 31.47 30.12 30.07 31.22 27.53 24.09 37.82 39.18 34.96 39.89 42.96 43.82 43.27 40.88
51.63 51.68 51.80 51.09 49.46 47.54 45.16 40.99 42.12 41.91 38.18 35.98 37.55 37.93 38.62 37.53 36.68 34.11 33.43 30.98 30.56 33.62 30.96 31.20 31.17 32.56 34.83 32.86 30.58 35.42 31.21 34.86 33.72 33.80 33.52 38.65 39.66 41.55 43.20 43.07 43.29 44.51 44.57 42.39
51.87 52.17 52.26 52.07 50.90 48.79 45.61 41.54 41.11 41.33 37.29 36.04 35.21 33.95 37.35 38.88 38.86 40.24 32.61 33.97 34.69 33.61 36.40 32.75 31.67 31.27 35.12 30.78 33.74 34.11 36.44 36.82 35.68 34.67 37.38 38.85 40.59 41.85 41.88 43.75 44.80 44.21 45.33 45.13
52.24 51.35 50.99 50.99 50.95 48.29 44.82 42.32 42.59 41.44 37.60 32.28 32.58 38.13 36.13 38.90 39.02 38.54 38.35 36.06 36.82 36.44 36.10 33.34 32.29 30.28 37.03 33.78 34.03 33.82 37.90 37.25 35.85 36.50 38.80 41.01 40.99 41.75 42.67 44.16 44.01 43.88 44.44 44.36
51.41 50.82 50.17 50.74 49.69 47.00 44.59 43.35 43.39 43.49 37.20 32.37 32.28 35.14 36.22 37.00 37.63 37.01 37.36 36.34 34.70 34.50 32.74 31.84 31.45 36.32 35.53 35.73 35.33 34.82 38.67 37.19 36.56 35.54 39.05 39.13 40.45 42.54 43.04 43.15 43.21 43.25 43.22 42.20
49.28 49.19 49.30 49.86 47.21 45.15 42.43 36.35 40.61 42.13 41.87 34.71 29.52 34.63 33.74 34.92 36.54 35.51 35.05 36.11 35.01 34.99 33.45 32.78 33.98 35.30 35.54 31.94 31.90 37.60 38.18 38.91 40.03 38.40 41.23 40.88 41.93 42.61 43.02 42.32 41.74 41.32 41.43 41.59
48.76 49.15 49.32 47.70 45.24 42.23 37.42 35.09 39.49 42.37 41.99 32.95 29.45 29.77 33.18 33.18 35.67 35.75 34.78 35.44 35.19 34.73 33.44 32.44 33.20 33.66 35.85 34.52 30.05 36.20 38.04 39.27 39.65 40.68 40.08 39.75 41.61 41.38 41.16 41.59 40.63 40.25 39.66 39.64
49.27 49.62 47.92 46.00 45.22 43.05 38.61 42.27 43.41 42.35 36.76 33.88 27.49 28.28 30.48 34.26 33.68 33.86 35.72 33.03 34.34 33.54 33.36 34.28 32.59 34.16 34.02 28.79 33.80 35.72 37.57 37.85 39.04 38.54 39.75 40.29 40.30 40.03 39.28 39.76 39.57 38.40 37.87 38.04
48.49 47.17 44.89 41.12 38.02 36.08 38.27 43.77 42.75 42.05 35.88 29.28 28.83 29.16 28.47 34.13 33.85 35.25 34.84 35.00 29.43 35.06 31.27 32.02 33.75 32.02 28.73 32.49 33.76 34.78 34.72 34.17 34.73 36.23 38.37 39.14 39.07 38.40 38.16 37.90 37.73 37.42 36.52 36.97
45.72 42.12 36.58 32.80 36.99 43.76 42.54 37.91 34.93 34.11 34.17 32.86 29.52 30.12 29.40 32.56 33.41 32.78 32.88 34.87 31.46 29.47 32.58 36.07 32.20 31.02 33.84 34.06 34.70 34.46 33.75 34.75 35.21 34.33 36.54 36.86 36.56 37.06 36.65 36.48 36.97 37.02 36.48 36.18
39.78 35.69 34.50 38.94 43.80 38.62 34.60 29.78 29.01 29.33 26.44 30.32 30.79 30.22 30.02 33.96 30.64 30.76 34.05 31.47 32.73 28.35 31.59 31.14 30.41 31.28 32.84 35.59 35.00 35.33 35.47 35.18 35.12 36.02 35.77 35.84 37.02 37.41 36.59 36.10 35.95 35.41 34.80 33.70
39.21 38.72 40.79 39.95 35.75 31.34 26.88 25.26 28.17 26.21 25.25 28.68 28.78 30.94 31.50 33.19 34.93 30.31 32.65 29.82 31.91 25.87 35.07 31.72 27.01 31.80 33.07 33.04 34.62 34.83 35.15 35.24 34.77 34.96 35.03 35.25 35.42 36.19 35.79 34.58 33.28 32.65 32.75 32.29
38.66 34.84 31.98 30.66 29.59 22.25 21.01 19.34 22.68 24.73 28.26 29.81 31.06 30.26 33.45 34.70 34.36 31.25 30.48 27.96 28.03 35.03 30.18 28.95 31.15 32.43 32.55 32.47 33.33 33.95 35.29 35.08 34.62 34.19 34.56 34.69 33.60 33.36 33.41 31.93 31.18 30.62 30.46 30.74
32.88 29.30 23.59 25.76 22.59 24.08 23.80 24.59 26.00 29.36 31.22 30.84 31.26 30.37 31.18 33.41 29.90 30.86 27.69 31.20 32.15 27.80 24.68 27.13 32.23 31.18 31.69 33.32 33.69 33.89 33.10 34.62 33.74 33.36 31.88 30.00 29.23 29.69 31.17 31.11 29.56 28.82 28.95 29.29
29.45 30.10 26.04 23.12 25.58 24.06 24.62 25.98 28.45 29.94 32.06 31.23 30.17 30.71 31.17 30.01 27.88 30.61 29.76 27.41 25.33 27.72 27.19 31.07 32.81 32.04 30.27 32.30 33.05 33.11 32.71 33.23 33.03 33.15 32.99 31.48 30.52 27.84 29.00 28.93 28.04 27.65 28.33 28.00
28.79 25.80 23.85 24.60 25.28 23.71 26.18 28.24 27.79 30.22 31.38 31.51 30.95 28.63 26.23 26.39 28.27 26.54 25.85 23.77 22.72 28.37 30.73 33.39 33.17 31.66 30.92 32.35 33.63 33.36 32.71 32.22 32.34 32.36 32.38 31.07 29.89 27.72 27.83 27.97 27.32 26.51 26.69 26.76
27.75 25.93 27.37 26.56 25.48 25.92 28.34 29.90 30.34 30.87 30.25 26.75 26.77 21.87 23.02 27.73 25.19 24.14 28.22 26.77 30.28 32.03 32.40 32.67 32.44 31.48 31.18 31.74 32.93 34.61 34.23 33.60 33.33 33.12 31.86 30.46 29.25 27.70 26.78 26.12 27.47 26.50 26.36 26.42

GFSNW_sfc_wetblb_093.txt.gz
Wetbulb
51.03 50.29 50.13 49.80 49.38 49.85 48.03 48.21 41.36 47.55 48.88 40.68 40.51 34.26 34.48 38.38 36.40 40.00 37.49 37.70 36.11 33.09 34.85 34.28 32.89 31.87 35.21 40.15 38.42 33.85 36.66 34.93 30.24 33.20 38.62 40.68 38.72 36.40 37.85 32.71 30.71 33.07 32.33 32.34
50.61 49.98 49.84 49.61 49.03 50.15 48.82 43.60 43.24 47.31 45.62 34.17 34.63 36.04 34.73 36.07 34.35 35.46 34.38 33.43 34.84 35.52 33.66 32.83 36.71 32.72 39.85 41.61 38.93 37.36 38.43 34.94 29.40 30.42 34.98 37.83 34.61 37.25 38.96 37.39 37.04 32.90 30.61 32.41
50.30 49.68 49.48 49.35 48.44 49.52 47.87 43.37 39.29 40.25 42.94 40.07 34.95 32.63 32.90 31.85 36.50 34.93 36.63 34.41 36.15 34.62 34.43 36.45 34.56 32.10 39.13 41.47 40.78 42.59 41.83 36.17 31.89 29.63 32.41 36.49 32.83 36.05 38.42 35.21 34.24 33.70 34.43 35.75
50.10 49.58 48.92 48.69 47.38 48.82 46.40 43.51 38.71 38.35 35.57 36.37 35.26 34.74 34.24 31.00 30.07 34.61 36.18 34.56 33.84 31.65 31.11 33.67 31.93 34.23 35.50 40.09 41.02 40.51 39.32 34.15 35.19 35.75 37.08 37.12 36.20 36.62 36.92 33.79 36.40 34.99 35.90 36.33
49.94 49.11 48.02 47.73 46.54 47.65 45.51 41.13 38.42 38.93 36.90 35.23 34.58 34.32 32.57 30.66 31.09 31.59 31.49 31.07 33.49 33.37 31.28 31.19 30.31 32.43 34.93 34.25 38.68 37.03 40.62 34.00 35.14 33.04 36.46 36.36 34.38 36.85 37.71 36.99 37.33 37.12 37.21 36.60
49.86 48.69 47.05 46.80 46.77 46.22 44.24 42.17 41.77 41.32 34.60 34.80 34.47 33.09 31.65 30.74 32.80 33.57 34.57 34.10 34.30 33.29 34.25 35.82 36.28 36.49 37.04 37.41 37.22 37.76 37.45 36.26 33.98 30.37 34.24 34.39 30.75 35.41 36.67 37.38 38.72 38.39 34.04 39.06
49.69 48.69 47.06 46.82 45.92 46.16 46.54 43.44 42.75 39.14 33.80 35.86 34.06 32.54 32.45 31.57 31.69 30.39 34.28 35.59 34.06 37.21 40.67 41.10 41.59 40.40 40.52 41.16 40.44 40.88 37.07 35.81 35.07 31.34 32.08 24.54 33.92 38.97 39.07 37.92 38.67 39.85 39.55 40.88
49.69 49.08 47.96 47.26 47.01 47.87 45.26 43.06 42.51 40.83 34.97 36.46 33.65 33.09 32.28 33.55 34.01 32.51 33.02 35.73 37.85 39.77 37.92 38.03 35.10 35.47 35.94 37.19 38.98 39.20 40.25 37.45 33.28 30.04 29.62 31.72 34.66 37.24 36.86 36.06 36.20 40.88 40.08 41.83
50.12 49.24 48.13 47.41 47.01 47.05 45.42 42.77 44.34 42.89 37.99 35.13 35.52 33.78 32.84 33.23 33.44 33.90 34.14 38.20 40.02 38.55 36.71 36.94 30.54 29.25 32.53 32.08 34.66 39.34 38.46 39.38 35.05 32.13 26.68 24.12 34.63 38.81 41.70 41.04 33.34 42.45 42.65 42.08
50.49 49.61 48.30 47.34 46.62 46.60 46.78 43.30 43.97 43.17 38.29 37.23 36.68 34.77 33.52 34.83 34.16 33.61 34.17 33.94 35.59 38.75 36.42 33.65 31.73 31.70 35.52 30.64 30.49 31.93 33.69 34.64 31.68 31.88 29.83 32.20 38.16 40.49 41.84 31.61 34.96 43.75 44.02 42.71
50.79 50.17 49.15 48.17 46.98 47.06 47.44 43.11 44.53 42.72 39.70 36.90 37.28 37.00 35.02 35.19 34.82 32.21 34.26 34.48 35.33 35.87 34.30 33.36 32.88 31.67 34.63 33.98 35.00 33.80 32.20 31.20 31.02 32.39 28.79 25.88 40.51 40.54 36.03 40.83 44.73 45.29 45.40 43.14
51.03 50.88 49.84 49.24 47.44 46.70 48.15 42.67 44.32 44.90 41.52 38.16 40.25 40.03 40.01 38.67 38.05 35.53 35.71 33.97 32.65 34.87 32.92 33.89 33.96 32.96 35.03 33.99 31.13 37.93 32.07 36.07 33.19 34.21 33.79 40.02 41.40 41.19 43.98 44.76 43.79 45.64 45.99 44.30
51.28 51.51 50.84 50.09 48.95 47.33 47.69 44.16 43.88 43.73 39.89 37.75 37.54 35.92 39.32 41.15 40.50 41.87 34.26 36.28 36.62 35.98 37.84 35.41 33.89 30.08 35.78 31.28 32.96 35.70 38.41 39.81 36.43 36.03 39.15 40.64 42.21 43.73 43.98 44.01 45.58 45.41 46.46 46.06
51.81 51.62 51.68 51.50 50.00 46.62 46.44 43.92 44.95 43.80 40.23 35.88 34.40 40.38 38.02 40.95 40.87 39.91 39.68 37.82 38.46 37.82 37.63 35.27 34.61 31.12 37.63 33.33 34.96 35.45 39.00 38.96 37.79 37.79 40.30 41.91 42.92 43.92 43.99 45.27 45.85 45.25 45.97 45.89
51.88 52.09 51.81 51.73 48.87 46.85 46.51 45.49 45.28 45.28 39.86 35.15 34.29 37.54 38.76 39.45 39.11 38.05 38.90 37.53 36.25 35.89 34.04 33.51 33.24 36.75 36.38 37.41 36.11 35.56 40.80 38.15 36.39 34.60 39.73 39.81 41.35 43.24 44.82 44.48 44.57 45.15 44.65 43.65
51.24 50.76 51.02 49.83 46.96 46.67 44.36 38.81 43.39 44.57 43.38 37.58 31.61 36.97 35.56 36.97 38.39 37.39 36.46 37.34 36.55 36.24 34.92 34.67 36.06 36.45 34.83 32.34 32.07 38.81 40.30 41.15 41.16 38.47 41.09 41.31 42.42 43.74 44.50 43.98 43.60 43.69 43.63 43.75
50.18 50.21 49.22 47.25 46.50 44.50 39.35 36.96 41.57 43.68 43.03 36.14 31.61 31.72 35.00 36.17 38.23 37.44 37.10 37.40 36.43 35.08 34.71 33.63 34.77 35.15 37.06 33.68 30.80 36.34 38.26 39.40 40.10 41.76 41.31 41.17 42.52 41.61 42.80 43.29 42.07 41.67 41.38 41.39
49.42 48.90 46.90 46.08 45.21 43.74 39.86 42.11 43.08 43.09 38.31 36.09 31.16 30.88 32.28 36.70 35.45 33.07 37.16 34.27 34.83 34.25 34.35 35.16 33.42 35.55 34.53 29.72 35.54 36.65 38.28 38.25 40.47 39.20 39.68 40.46 42.17 41.98 40.75 41.36 41.20 40.09 39.49 39.68
48.13 46.99 45.13 42.25 39.85 37.36 38.98 43.59 42.87 42.89 37.71 32.58 32.78 31.93 30.74 35.98 36.18 36.98 34.53 35.43 29.38 36.13 31.86 33.10 34.40 32.01 28.99 33.72 35.06 36.14 36.37 35.03 35.41 37.14 38.13 40.32 40.25 40.80 39.94 39.63 39.66 39.26 38.21 38.45
45.87 43.20 38.51 34.12 38.33 44.26 42.93 38.49 35.40 35.14 35.45 34.86 32.85 34.33 31.88 35.28 35.33 33.00 32.72 34.09 31.19 28.80 33.12 36.64 31.87 31.58 36.97 35.86 35.82 35.96 35.67 35.47 35.90 34.08 35.97 37.04 38.54 39.00 38.96 38.68 38.67 38.50 37.92 37.42
41.92 37.31 34.51 40.67 43.92 39.00 35.35 30.53 29.92 30.50 28.66 32.36 33.74 33.87 32.62 36.32 32.09 32.13 34.59 31.29 32.64 27.95 31.87 31.13 30.22 31.05 34.42 34.97 34.14 36.05 36.03 35.60 36.01 35.90 36.69 37.35 36.93 37.57 37.76 37.46 37.52 36.98 36.11 34.72
40.78 39.40 41.53 40.58 35.88 31.87 28.47 27.44 29.24 27.33 27.94 30.99 31.43 32.56 34.98 34.53 35.52 31.05 32.42 29.12 31.91 25.93 35.31 31.35 27.06 33.28 34.59 34.26 33.62 33.86 35.55 35.43 35.44 35.63 35.28 35.64 35.53 36.56 36.98 36.05 34.97 34.50 34.02 33.25
40.80 36.86 33.11 32.06 30.34 25.02 23.86 22.19 25.01 26.53 30.54 31.79 32.09 30.70 34.19 34.15 34.56 30.99 30.33 28.28 28.24 34.98 29.85 28.48 31.93 33.81 33.87 33.57 33.82 33.82 34.42 34.49 34.87 34.41 34.67 34.43 33.38 33.78 34.66 33.34 31.88 31.70 31.50 31.82
35.53 32.52 25.40 29.80 24.67 26.23 27.35 29.03 30.70 32.41 34.16 32.85 34.57 32.40 32.74 33.67 30.57 31.04 26.47 31.51 31.31 27.67 25.85 27.93 33.77 33.89 32.67 33.47 34.35 33.52 32.98 34.19 33.36 33.61 33.21 31.56 30.41 30.57 31.64 31.36 30.30 29.63 29.68 30.00
32.71 33.61 30.22 26.32 28.41 27.37 28.51 30.08 30.88 32.60 34.21 34.20 32.28 32.18 33.19 29.92 28.29 29.97 30.24 28.03 24.67 27.95 28.82 33.85 35.31 33.45 31.44 32.89 33.57 32.92 32.65 32.82 31.72 33.27 33.14 33.17 31.91 30.63 30.60 31.48 29.66 28.74 28.80 28.91
31.94 29.62 26.87 27.06 27.67 25.30 27.50 30.26 28.73 32.89 34.83 34.58 34.10 29.44 27.31 27.00 28.39 25.95 24.74 25.17 24.79 31.23 35.12 36.57 35.22 32.95 32.65 33.26 33.43 34.35 33.64 32.68 32.48 32.77 33.21 33.08 31.47 30.18 28.84 29.56 28.74 28.22 27.41 27.57
30.57 28.20 29.26 29.37 29.39 28.22 30.24 32.35 31.85 34.98 33.13 29.58 29.34 24.41 24.51 29.65 25.49 25.04 29.99 28.40 33.50 36.13 35.87 36.12 35.45 33.40 32.92 33.00 33.13 33.28 34.07 34.43 34.12 33.88 33.45 32.91 32.24 30.91 28.41 27.02 30.25 29.06 28.42 27.50

GFSNW_sfc_wetblb_096.txt.gz
Wetbulb
52.85 51.80 50.85 50.29 49.58 50.06 49.04 46.71 40.86 47.50 48.39 38.80 39.26 32.99 33.95 37.90 35.21 38.43 36.95 36.32 33.80 31.39 32.37 33.65 32.37 32.08 35.11 39.15 37.21 33.14 36.62 34.67 27.38 29.80 36.93 39.33 37.22 33.44 34.70 29.85 28.58 29.55 28.65 25.73
52.65 51.39 50.60 50.09 49.83 50.97 47.75 42.11 41.87 47.23 45.31 32.93 34.01 35.37 34.96 35.70 33.65 34.67 34.29 33.36 35.08 35.87 32.92 32.77 33.46 33.28 39.20 41.12 37.47 37.45 37.43 33.67 28.13 29.39 34.07 37.41 32.77 35.70 37.31 36.50 33.49 30.12 28.32 26.85
52.24 51.02 50.32 49.92 49.73 49.83 47.32 41.76 36.94 38.95 41.62 38.09 33.68 32.03 33.02 31.63 36.39 34.77 35.60 34.52 36.12 33.67 33.84 36.43 32.87 32.59 38.60 41.87 41.22 42.90 41.29 35.38 31.15 28.01 30.53 33.46 29.25 33.83 36.90 33.88 30.00 30.38 31.14 30.84
51.54 50.71 50.11 49.59 49.16 49.46 46.22 42.31 39.39 38.76 34.10 34.05 34.46 34.58 34.17 30.80 29.66 34.69 36.00 34.35 33.74 31.44 29.77 33.09 31.89 33.60 37.10 39.63 41.60 39.90 38.77 32.95 33.89 34.79 36.18 36.03 34.15 34.20 35.66 31.62 34.19 29.61 33.21 33.85
51.21 50.38 49.80 48.84 48.41 49.51 42.92 38.84 35.66 36.15 34.50 34.98 33.74 33.26 31.37 30.16 30.87 31.85 31.37 30.76 33.29 34.09 30.41 30.95 29.87 31.32 34.21 34.21 37.59 36.70 38.30 33.07 34.18 29.52 36.13 35.58 32.64 36.73 36.52 35.91 35.88 34.84 34.65 33.42
51.06 50.44 48.97 48.13 48.25 48.38 43.53 41.16 40.99 39.16 34.93 33.47 31.49 30.78 31.20 30.82 32.65 33.96 34.66 33.64 32.98 33.50 34.05 34.48 35.49 36.26 35.79 35.81 36.11 36.90 36.29 35.31 30.81 28.93 32.62 32.83 28.62 33.73 35.23 35.61 36.43 36.30 32.19 36.30
51.26 49.64 48.18 47.63 48.25 48.18 45.41 42.83 40.38 36.22 30.84 32.49 32.53 33.12 32.85 31.73 32.14 30.69 34.43 35.47 33.02 35.23 39.35 39.38 39.07 38.61 38.09 38.43 38.73 39.42 33.70 33.82 31.73 25.52 26.62 19.95 30.00 36.10 37.22 36.74 37.76 37.82 37.78 38.42
51.04 49.35 48.42 47.61 47.96 47.75 44.20 42.14 40.57 37.76 31.62 33.60 32.96 33.28 32.85 33.47 33.74 31.96 33.12 35.75 36.74 38.40 37.78 35.81 34.51 34.50 34.98 35.94 36.34 36.15 37.11 33.72 29.39 25.94 24.78 27.89 31.31 34.36 34.04 33.02 34.01 39.24 37.67 39.53
50.57 49.39 48.76 48.55 49.33 49.02 43.96 41.56 43.22 40.34 33.75 31.41 35.75 32.90 32.58 30.23 29.88 31.41 34.59 38.32 38.83 39.17 35.79 35.00 28.55 26.93 29.91 30.41 32.42 36.83 36.62 35.84 30.67 27.13 23.39 21.23 30.67 35.86 39.41 38.03 29.65 40.18 40.87 39.61
50.59 49.86 49.26 48.33 48.53 49.13 45.30 41.22 43.33 40.74 33.71 34.84 35.34 32.14 31.92 33.43 31.65 30.42 32.72 33.17 35.67 37.40 34.41 32.09 28.59 29.31 32.30 27.64 27.27 29.03 30.28 30.46 26.51 27.64 24.84 27.89 35.12 37.71 38.88 26.38 32.62 41.55 41.14 38.72
50.61 49.47 48.74 47.97 48.63 48.55 45.90 41.37 43.84 40.71 35.62 34.79 37.50 37.44 33.43 32.94 32.39 29.14 31.36 31.90 33.39 34.80 32.33 31.30 31.29 28.92 31.44 30.23 30.56 29.22 29.35 26.81 27.04 28.63 24.73 21.69 38.44 37.33 33.71 38.66 41.45 42.49 41.67 38.92
50.68 49.40 48.87 48.21 47.95 48.37 48.13 40.26 43.10 44.34 38.95 35.58 39.68 39.20 39.24 38.04 36.93 33.49 33.21 32.15 31.87 33.83 31.92 31.21 32.42 29.70 32.46 31.67 28.20 33.09 28.92 31.35 29.27 30.48 30.61 36.72 37.36 36.91 39.11 40.58 39.47 41.70 42.38 41.06
50.51 49.77 49.43 48.43 48.08 48.05 47.48 42.05 42.50 42.13 37.01 34.68 34.73 34.16 38.02 40.51 39.08 39.81 31.30 33.24 36.45 35.30 36.63 33.86 32.98 29.60 31.55 28.37 31.43 30.65 34.25 36.01 31.44 32.76 35.72 36.66 38.91 40.21 40.27 40.16 41.63 42.53 43.48 42.97
50.13 50.39 50.09 48.70 48.01 47.55 46.73 42.01 43.60 41.46 38.27 32.04 31.32 39.49 36.76 39.40 39.85 39.00 38.07 35.90 36.54 35.88 33.79 33.15 32.50 30.65 35.86 31.46 33.08 31.43 34.42 35.45 34.17 33.55 37.08 37.20 38.92 39.51 41.09 42.26 43.33 43.08 43.50 43.12
50.76 51.11 50.85 49.47 47.40 48.05 45.51 44.20 43.66 42.93 37.89 31.74 30.71 36.18 37.23 38.04 37.96 37.11 37.86 36.07 33.81 33.57 30.21 30.39 30.93 33.84 34.37 35.61 34.86 30.40 36.97 33.98 31.73 34.09 36.55 35.08 35.96 38.96 41.97 41.27 41.60 42.44 41.93 40.99
50.95 51.15 51.02 48.50 47.69 46.79 43.47 37.49 41.43 42.45 41.18 35.04 28.02 34.14 33.52 34.79 37.30 35.75 34.80 36.31 34.93 34.07 32.37 32.41 32.59 34.09 30.60 27.40 29.33 35.28 35.79 37.17 37.59 34.69 38.25 37.95 39.23 40.23 41.31 40.96 40.78 40.95 41.22 41.57
51.21 51.00 48.74 47.89 46.43 42.63 38.60 36.06 40.57 43.18 41.24 34.83 28.17 28.17 32.32 35.86 36.77 35.31 34.87 34.85 34.68 33.63 32.65 30.03 32.11 31.69 33.43 29.96 26.13 32.71 34.97 36.23 37.14 38.02 38.02 37.43 38.75 37.38 39.92 40.62 39.94 40.39 39.43 39.44
50.46 48.68 47.38 46.01 45.12 44.06 38.96 40.82 42.83 42.61 36.78 34.87 28.47 26.70 27.97 34.76 33.15 32.54 36.64 32.79 33.38 32.78 31.07 32.16 30.28 32.13 30.78 25.92 31.48 33.98 34.98 35.29 37.01 36.03 36.76 36.43 38.48 39.33 38.39 38.80 39.09 37.94 37.78 38.15
47.77 46.61 45.69 42.73 39.97 37.28 38.60 43.21 43.06 41.60 36.79 31.26 30.23 25.57 23.93 33.18 34.25 35.32 33.51 35.18 29.54 35.17 30.69 31.62 33.27 30.76 26.95 30.96 32.49 33.05 33.84 33.80 34.03 35.09 36.38 37.66 37.40 38.15 37.53 36.06 36.39 36.79 36.57 36.78
45.90 43.04 38.34 33.98 38.37 44.18 42.41 38.23 34.89 34.73 34.26 33.36 30.75 32.06 26.64 32.29 33.39 31.94 33.00 33.71 31.04 28.02 31.67 35.79 31.26 28.23 33.78 33.75 34.69 34.67 35.09 35.48 35.06 33.46 32.51 34.33 35.01 36.01 37.99 36.72 37.75 37.68 37.01 35.95
40.86 36.22 34.45 40.29 43.56 38.95 35.59 30.36 29.70 29.99 27.47 31.18 31.16 30.70 27.71 33.77 30.72 30.73 33.44 30.10 31.75 26.34 30.40 30.17 29.20 28.91 31.69 33.21 32.29 34.71 35.13 35.66 34.96 35.39 35.85 36.28 36.50 36.60 37.84 37.10 36.85 36.27 34.88 32.74
39.66 38.95 40.99 39.91 35.72 31.87 28.85 27.12 28.97 26.80 26.76 29.99 28.55 29.50 31.44 32.85 34.98 30.60 31.58 28.42 28.15 23.86 33.90 30.06 25.63 29.26 31.56 31.79 30.88 33.58 34.46 34.23 33.44 34.42 34.65 35.25 35.05 35.27 35.64 35.58 34.86 34.07 33.16 31.45
40.46 36.47 33.51 32.34 30.55 24.95 23.07 21.47 24.17 25.31 29.89 30.45 31.35 29.17 32.30 32.98 34.02 31.30 29.74 25.33 22.83 32.65 28.20 26.49 28.66 30.58 31.56 30.89 33.45 33.82 34.49 34.45 34.11 33.45 33.18 32.65 32.80 32.91 34.03 32.30 32.31 31.50 30.45 30.83
33.87 30.99 25.04 28.01 24.48 26.45 27.81 29.23 29.33 31.67 31.81 31.61 31.48 29.73 30.30 32.48 29.44 30.13 26.01 29.58 29.12 25.10 23.95 22.13 26.24 27.80 29.26 32.99 33.98 33.57 33.18 33.89 33.26 32.75 31.68 31.08 30.13 30.54 31.08 30.10 29.37 28.23 28.25 29.06
32.57 33.13 27.96 24.91 28.00 27.68 28.76 30.95 31.05 32.67 34.22 32.33 29.45 28.28 30.09 28.93 27.52 29.20 28.79 26.98 23.30 25.46 20.30 24.83 26.53 27.23 31.61 32.12 33.02 32.99 32.56 32.73 31.89 31.83 30.68 30.86 31.64 30.22 29.83 31.22 29.64 28.12 27.52 27.83
32.00 30.02 25.44 28.01 26.75 24.68 27.79 30.14 29.99 33.60 32.96 30.97 29.74 24.48 20.30 21.93 26.04 25.12 23.83 23.45 16.67 21.46 25.47 26.79 27.94 25.74 25.04 30.50 32.49 32.73 32.96 32.30 32.09 31.89 31.35 30.78 28.62 27.06 27.51 29.50 29.59 29.37 28.93 27.02
30.75 27.43 29.67 29.47 29.26 27.31 29.26 30.92 30.71 33.85 29.32 23.97 23.23 16.47 17.49 24.17 24.25 22.92 24.99 20.83 23.66 27.12 26.85 27.14 29.06 28.44 29.05 29.57 31.03 30.75 31.00 32.59 32.37 31.85 31.42 30.72 31.20 31.07 28.15 26.43 28.20 28.94 28.27 26.38

GFSNW_sfc_wetblb_099.txt.gz
Wetbulb
53.84 53.57 52.36 51.44 50.87 50.59 48.83 43.09 34.74 44.86 45.07 30.26 31.09 23.30 31.21 37.51 33.60 35.99 36.06 33.77 32.34 28.62 32.28 33.63 30.39 30.57 32.47 39.23 34.54 32.74 35.15 32.54 25.69 28.27 36.97 37.60 33.83 31.61 35.25 25.03 26.35 24.47 20.69 23.85
53.61 53.29 51.83 51.31 50.78 51.50 44.30 39.47 36.46 43.53 41.44 22.29 22.96 30.68 33.97 34.28 32.59 32.70 33.14 32.03 33.82 33.62 31.91 32.16 32.75 32.69 37.73 40.06 37.98 35.19 35.86 33.13 24.68 27.75 33.86 36.76 33.98 35.00 36.76 35.79 30.95 25.79 25.10 25.57
53.46 52.98 51.87 51.05 50.69 51.76 46.11 37.50 30.32 33.87 36.16 31.83 28.59 28.24 29.40 29.92 34.51 33.56 34.45 33.42 34.30 32.25 32.92 34.96 32.26 32.03 37.15 41.23 40.66 41.87 40.42 34.35 29.21 22.79 26.11 31.31 28.26 32.79 34.91 30.02 24.78 30.46 30.56 30.01
53.46 52.62 51.67 51.03 50.51 50.42 43.59 37.42 33.67 34.38 27.11 28.22 29.76 30.55 31.04 29.27 28.46 32.86 34.02 32.47 31.99 31.64 26.41 31.77 31.39 33.37 36.18 38.86 40.76 37.84 38.52 32.11 32.96 33.47 34.65 34.64 32.61 32.44 34.65 31.13 33.25 30.06 32.76 32.91
53.29 52.23 51.35 50.89 50.32 50.58 40.14 33.19 30.60 31.10 29.46 31.73 29.68 29.61 27.08 28.71 29.85 30.48 29.81 29.54 32.54 34.04 28.81 29.59 29.90 31.43 33.45 33.16 36.61 34.53 36.05 30.68 32.32 26.89 34.40 34.63 32.08 34.67 34.92 35.02 34.92 33.82 34.58 32.43
52.95 51.77 51.01 50.42 50.44 46.58 37.56 36.58 36.71 33.29 31.87 28.96 26.94 26.15 28.00 29.61 30.98 32.43 33.71 32.18 30.00 33.07 32.11 32.63 34.18 35.64 35.54 35.14 35.19 36.41 35.34 34.06 29.01 24.07 30.93 32.17 27.90 32.93 34.98 35.19 35.99 35.99 30.75 34.56
52.42 51.43 50.48 50.11 50.55 46.82 39.00 37.31 35.74 31.52 26.86 27.93 28.85 30.72 31.03 30.46 30.80 29.36 32.91 33.33 30.36 33.49 37.23 37.05 35.82 35.15 36.03 36.64 36.34 36.40 32.43 30.60 29.00 23.69 26.03 20.86 29.60 34.69 36.42 35.95 36.26 36.74 35.89 36.60
51.99 51.02 49.57 49.29 50.19 49.89 39.02 37.79 36.58 33.17 26.62 28.95 29.83 30.87 30.21 30.60 30.92 29.63 31.57 33.76 34.44 36.35 37.21 32.97 31.54 31.16 31.84 33.69 35.37 34.88 35.46 31.55 27.38 23.63 21.80 26.73 30.07 33.63 33.35 32.33 33.05 37.97 36.40 38.18
51.23 50.27 49.40 49.14 50.00 50.01 39.97 37.93 39.64 36.37 29.60 27.32 32.71 29.37 29.82 26.00 25.40 27.81 32.30 36.01 36.72 37.32 36.22 32.66 26.27 23.50 28.34 27.55 30.31 34.57 34.78 33.33 28.67 25.27 21.31 20.42 29.30 34.16 37.16 36.34 28.81 38.64 39.37 37.39
50.64 50.09 49.91 49.79 49.78 48.39 41.23 38.34 40.85 36.72 29.55 30.77 32.14 28.18 28.03 30.60 28.63 27.11 29.89 30.70 31.22 35.05 32.92 30.89 22.49 27.18 30.61 25.60 25.68 26.97 27.73 28.09 24.69 25.42 23.71 26.82 33.33 35.40 37.19 25.92 30.59 41.75 39.23 37.22
50.28 50.28 49.67 49.41 49.47 47.21 41.66 38.67 40.89 37.73 30.41 31.03 34.37 35.02 29.88 30.20 29.56 26.32 29.04 29.71 31.76 30.00 29.88 30.49 30.28 26.81 29.13 27.28 29.22 27.72 27.02 23.80 24.30 25.16 24.17 20.64 37.32 36.77 32.10 36.14 38.93 41.69 39.19 37.37
50.35 50.01 49.64 49.61 48.36 47.12 44.54 37.17 41.48 41.66 34.69 32.30 36.26 35.86 36.12 35.51 34.17 31.44 30.55 30.06 30.16 33.97 31.75 31.09 32.28 28.61 30.25 29.68 27.14 33.05 26.49 29.73 28.85 28.69 28.62 35.31 36.36 35.25 38.30 39.26 38.27 40.58 39.81 39.56
49.91 49.86 49.41 48.85 48.78 48.31 44.28 38.53 40.07 38.70 33.19 31.10 31.30 31.19 35.58 38.38 36.93 37.28 29.03 30.70 36.04 35.25 35.82 33.47 32.71 29.57 30.50 26.83 30.59 32.04 34.92 34.11 29.84 31.31 34.87 35.21 37.57 39.10 39.93 41.11 40.87 41.63 42.27 42.05
50.18 49.54 48.95 48.93 48.41 47.10 44.57 39.67 40.67 38.65 34.64 28.06 28.13 37.18 34.10 36.72 37.91 37.25 36.21 34.08 34.77 34.72 31.56 32.52 32.60 30.78 33.81 29.52 30.61 28.93 32.53 35.45 32.13 32.62 33.95 35.00 37.19 38.27 39.77 40.55 41.74 41.74 41.81 42.55
49.76 49.49 48.88 48.81 47.81 46.76 43.60 41.49 40.43 40.52 35.07 27.70 27.46 33.41 34.32 35.91 36.61 36.17 36.20 34.46 31.69 29.21 27.87 27.54 29.78 32.40 31.80 33.91 34.45 28.15 32.31 31.40 30.78 30.19 34.77 35.06 36.08 38.36 41.24 40.62 40.79 41.41 41.24 39.77
50.14 49.65 48.83 48.53 47.22 45.17 40.55 33.58 39.04 40.53 38.74 30.17 25.10 31.55 30.93 32.31 35.21 34.27 33.64 33.61 32.81 31.39 30.04 30.18 32.52 32.41 28.96 24.95 28.24 33.35 32.81 34.81 35.33 33.77 37.16 37.89 38.62 39.28 39.96 39.99 39.66 39.89 40.62 40.67
50.35 49.37 48.54 47.62 45.14 41.36 36.26 33.90 38.17 41.98 38.84 31.00 25.77 25.56 29.89 34.71 34.51 33.66 33.97 33.54 34.20 33.06 32.30 28.54 31.09 30.49 31.19 27.78 24.36 31.15 32.88 33.60 34.30 35.21 36.76 36.07 37.01 35.50 38.14 39.13 38.73 39.72 39.16 40.02
50.13 48.64 46.77 45.67 44.86 42.86 35.96 38.92 42.77 40.89 34.50 34.06 24.90 23.23 25.14 32.45 32.58 31.55 35.88 32.77 33.31 31.66 31.29 31.18 28.02 30.79 28.95 24.79 29.26 31.14 32.67 32.82 33.17 33.34 34.65 35.30 37.07 38.02 38.47 38.03 38.20 37.01 36.93 37.10
47.54 46.79 45.87 41.16 38.54 35.60 35.22 42.82 42.43 39.43 34.99 28.67 27.10 19.62 18.90 31.47 33.86 34.77 32.84 34.61 29.39 34.44 29.93 31.24 32.52 28.73 26.18 28.65 30.36 30.45 30.74 32.37 33.42 34.72 34.01 34.67 34.89 35.89 37.20 36.41 35.76 35.65 35.50 36.33
45.96 42.58 37.34 32.90 38.46 43.59 42.04 36.16 32.11 31.51 32.34 32.82 28.43 29.24 23.73 30.34 32.38 31.64 32.34 33.25 30.70 27.09 30.48 34.84 30.64 27.88 31.42 32.17 32.04 33.36 34.66 34.67 35.14 32.86 31.83 33.08 33.02 35.06 36.94 37.14 37.43 37.30 36.81 35.40
39.56 35.48 34.38 39.66 43.23 38.12 34.82 28.37 26.55 27.49 26.33 29.93 29.60 28.16 26.82 33.84 29.33 29.36 33.22 29.40 30.82 25.28 29.54 27.65 28.66 26.67 29.76 31.38 30.99 32.30 34.76 34.71 34.96 35.46 34.81 35.68 35.91 35.46 36.26 36.05 35.69 35.16 34.58 33.70
39.08 38.50 40.33 38.98 34.94 31.57 28.35 23.20 26.93 26.23 25.84 28.64 26.34 27.84 27.60 31.78 32.76 30.66 31.37 27.84 27.28 18.24 33.14 28.52 21.84 27.25 29.86 30.39 29.89 31.05 34.23 34.44 33.64 34.03 33.48 33.85 34.55 34.88 35.62 35.09 33.75 33.32 33.19 32.16
39.78 36.02 32.45 32.44 30.27 22.65 19.79 19.21 22.83 24.26 28.71 29.66 28.06 25.17 31.25 31.02 32.66 29.76 29.18 25.57 18.56 30.41 26.71 21.97 23.22 27.50 30.00 29.42 31.26 33.12 34.19 34.46 34.37 33.77 33.59 32.90 32.17 32.31 33.07 31.43 31.71 31.77 30.60 29.97
34.92 30.68 25.68 27.80 24.79 25.07 25.25 27.50 27.78 30.80 30.65 30.54 29.83 26.96 27.80 30.48 28.12 29.16 17.06 27.70 29.93 23.79 15.57 16.69 22.28 27.47 28.46 29.82 31.98 33.40 33.14 33.75 33.58 32.92 32.28 31.64 30.69 28.91 28.64 27.97 27.87 27.84 27.12 28.01
31.93 31.87 26.26 23.89 26.65 27.61 29.64 30.33 31.32 31.61 33.72 31.03 28.59 27.94 29.43 28.73 27.22 26.90 23.41 25.47 22.01 20.58 17.31 21.43 22.76 23.58 27.26 31.95 33.04 33.21 32.79 32.85 32.43 32.18 31.44 31.30 31.11 29.81 29.91 29.29 27.35 27.48 27.86 28.41
31.29 28.94 23.70 27.11 24.66 25.09 27.94 30.73 30.83 33.59 32.60 29.62 28.17 23.43 19.18 22.20 23.97 24.49 17.56 15.33 13.00 18.35 20.56 23.23 25.64 26.44 30.29 30.63 32.07 32.63 32.82 32.23 32.15 32.12 31.90 31.61 30.94 27.77 27.29 26.38 24.72 27.02 28.06 28.58
29.85 25.39 29.04 28.67 27.96 26.73 29.41 31.77 31.77 32.77 29.83 25.30 22.63 18.07 18.73 22.26 17.20 16.31 22.11 18.41 20.04 29.16 26.64 22.93 26.50 27.06 27.12 27.70 28.97 28.96 28.37 28.93 32.01 32.16 31.93 31.59 31.49 31.03 29.05 26.99 27.31 28.75 28.31 28.24

GFSNW_sfc_wetblb_102.txt.gz
Wetbulb
55.33 54.38 53.90 52.79 51.68 52.21 50.27 43.43 35.03 43.97 43.62 28.60 27.70 22.43 30.50 36.57 32.29 34.62 35.34 32.96 32.42 28.18 31.92 31.87 30.02 27.88 30.93 38.09 35.58 32.54 34.68 29.78 23.76 26.11 36.29 36.44 32.82 30.35 32.46 21.06 23.53 20.98 17.53 23.43
54.64 53.95 53.61 52.76 51.90 52.47 44.78 39.48 35.80 42.90 38.49 22.67 21.41 29.15 32.20 32.91 31.78 31.36 32.06 30.62 32.84 34.40 32.67 30.58 31.79 31.79 36.15 39.61 37.70 34.82 35.15 31.14 23.57 23.48 32.75 34.97 31.47 33.36 34.15 31.95 26.89 22.66 16.52 23.19
54.07 53.61 53.06 52.35 52.10 51.92 44.53 36.53 28.01 32.94 33.79 29.53 27.71 27.86 28.28 28.02 33.29 32.26 33.27 32.43 33.33 32.44 31.94 32.95 29.93 28.16 36.41 39.85 40.02 41.10 40.37 33.87 26.15 18.82 25.54 30.09 27.50 31.69 34.03 27.40 20.49 24.94 22.93 28.22
53.88 53.26 52.45 52.09 51.89 52.10 42.61 37.55 30.03 32.33 25.91 26.97 28.43 29.28 29.76 27.87 27.41 31.51 32.85 31.73 32.32 30.61 28.97 31.64 30.39 31.00 34.07 37.69 39.93 37.06 38.17 30.75 32.93 33.45 33.51 32.61 30.78 30.69 33.28 25.82 31.93 30.37 31.68 32.11
53.63 52.91 52.02 51.81 51.58 52.17 40.96 34.76 29.64 29.14 27.55 29.53 28.13 29.33 26.80 27.45 28.71 29.45 28.54 28.93 31.85 31.29 29.17 28.77 30.44 31.94 33.43 32.65 34.91 33.51 34.71 29.51 30.22 26.40 32.78 33.70 30.77 33.28 33.81 34.05 33.76 34.39 34.99 33.33
53.51 52.39 51.68 51.47 51.39 47.75 38.55 35.76 35.62 31.49 30.30 26.86 25.84 25.35 27.19 28.65 30.34 31.25 32.83 31.47 28.88 29.91 31.00 31.73 34.14 34.83 35.24 34.99 34.33 35.64 35.04 30.77 28.08 23.23 29.90 30.28 25.02 32.87 33.23 34.24 34.58 34.54 31.13 34.40
53.17 52.08 51.50 51.30 51.12 46.81 38.47 35.33 35.23 29.69 26.13 27.02 27.84 29.47 29.66 29.31 30.08 28.64 31.82 32.41 29.52 32.77 35.67 35.37 34.37 33.42 35.21 36.20 35.77 34.58 31.41 29.49 28.22 22.26 25.08 18.91 29.16 34.61 37.06 35.78 35.43 35.69 35.12 36.22
52.82 51.89 51.41 51.14 51.03 46.62 39.03 37.11 35.84 31.01 25.49 27.36 28.62 29.54 28.89 29.41 29.98 28.69 30.87 32.39 33.39 35.20 34.56 31.56 31.64 30.42 30.92 32.49 33.96 33.15 34.20 30.54 26.59 22.68 21.14 25.18 30.68 34.11 33.11 31.80 32.89 37.49 36.29 36.84
52.06 51.43 50.87 50.90 51.03 47.86 39.23 37.76 38.73 33.87 29.18 26.97 31.24 28.45 28.00 24.90 23.94 26.57 30.98 34.79 35.68 35.59 36.30 31.31 24.71 23.00 26.90 26.53 28.76 33.89 33.00 31.99 27.42 24.52 20.44 19.96 28.72 34.09 37.08 35.57 29.73 38.14 38.29 36.00
51.59 50.68 50.37 50.68 50.83 48.86 39.81 37.87 39.94 34.91 28.82 30.47 30.15 27.06 27.46 29.06 27.24 26.02 28.77 29.92 30.32 33.88 30.66 27.93 22.00 27.18 29.13 24.74 24.26 26.04 26.78 26.98 24.00 24.76 24.26 25.77 32.07 34.63 36.30 24.63 29.25 41.35 38.75 36.27
50.44 50.19 50.20 50.55 50.60 47.34 41.57 38.24 40.16 35.07 29.83 30.67 33.44 33.88 29.04 29.50 28.79 26.04 28.29 30.13 28.99 27.72 27.77 29.92 29.24 25.98 27.67 25.28 27.75 25.79 26.10 23.04 23.68 24.30 22.21 20.00 35.64 35.53 31.27 34.81 37.52 40.30 38.26 37.13
48.89 50.22 50.54 50.33 48.63 47.18 43.38 37.25 40.67 40.03 33.62 31.50 34.90 35.03 34.90 34.13 33.09 30.10 29.54 29.18 29.23 30.37 27.41 27.57 29.31 28.10 28.52 26.86 26.95 31.50 25.86 28.57 27.42 27.70 27.61 33.31 35.37 35.02 37.76 38.77 37.33 39.51 38.38 38.35
49.01 50.20 50.28 49.72 48.44 47.22 42.84 38.08 38.66 36.59 32.20 30.95 31.08 30.76 34.72 37.28 35.76 36.11 29.10 29.88 33.44 32.26 32.84 32.15 31.36 28.69 31.62 25.51 28.97 27.10 32.40 33.00 28.97 30.37 33.26 33.41 36.03 37.51 39.14 40.03 40.20 41.10 41.68 40.90
50.01 49.92 49.25 49.83 49.10 47.08 44.07 38.73 40.00 36.48 32.80 27.37 28.14 36.15 33.23 36.41 36.82 36.28 34.99 33.24 33.86 32.88 31.00 30.07 31.78 29.06 31.89 29.93 28.89 27.19 31.03 33.03 30.88 30.73 31.98 33.55 35.02 36.32 39.07 40.03 41.04 40.84 41.39 42.08
49.96 49.41 49.01 48.80 47.45 46.22 42.09 39.28 39.26 39.25 33.65 26.81 27.68 32.37 33.58 34.88 35.89 35.25 34.94 33.33 30.55 28.56 27.53 27.24 26.89 31.75 30.10 33.12 33.79 26.57 30.49 29.84 29.69 29.29 33.82 33.67 35.37 37.89 38.96 39.51 39.24 40.33 40.07 39.50
49.41 48.78 48.03 47.60 46.58 44.02 37.74 32.56 37.12 39.73 36.30 29.18 25.25 30.34 29.54 32.56 34.26 33.52 32.71 32.60 30.94 29.39 27.84 27.31 28.80 31.13 28.38 24.37 26.59 30.98 34.16 33.57 34.62 33.41 34.98 36.73 38.01 38.42 38.27 38.36 38.82 39.22 39.89 39.87
48.80 48.37 47.79 46.53 44.98 40.37 36.01 32.35 36.19 40.92 37.47 29.14 24.99 25.15 29.33 33.50 33.32 34.18 33.34 34.30 31.18 29.36 28.19 27.81 27.54 28.76 29.59 26.62 23.52 29.97 31.88 32.26 32.55 33.13 33.93 33.55 35.33 34.17 36.79 37.39 38.53 39.09 38.41 39.40
48.74 47.38 46.36 45.61 44.63 41.84 35.27 37.71 42.02 38.80 34.73 32.28 22.54 22.73 25.78 32.43 31.97 30.88 35.59 32.43 33.06 29.78 29.23 28.31 27.16 28.73 27.68 24.58 28.12 30.14 30.67 31.16 31.60 31.95 32.92 32.46 34.38 35.66 36.57 37.60 38.06 36.87 36.24 36.33
47.36 46.49 45.15 41.17 38.83 33.28 34.02 42.56 41.42 37.72 33.61 27.22 23.88 18.24 16.97 32.18 33.68 33.83 32.97 34.34 24.40 32.23 26.30 27.50 29.20 26.68 24.18 27.98 28.16 30.70 30.94 30.86 30.79 32.66 35.33 33.45 32.63 34.01 36.58 36.43 35.54 35.35 35.60 36.56
46.00 42.45 37.24 33.15 37.09 42.92 41.20 34.54 30.92 30.30 30.85 31.37 27.21 27.39 23.27 31.65 32.48 31.08 29.67 32.24 29.32 22.94 27.35 32.17 27.48 25.95 30.21 30.99 31.47 31.95 32.20 32.83 35.09 32.46 31.80 33.09 32.74 33.75 35.15 36.56 36.78 36.37 36.23 34.71
39.59 35.50 33.89 38.87 42.90 37.01 33.82 25.70 24.68 25.97 24.46 28.91 27.82 26.85 27.83 32.61 27.81 29.62 31.38 26.91 30.16 18.69 24.05 25.85 21.82 23.44 28.04 30.23 30.23 31.23 32.08 32.91 34.89 35.52 35.03 34.60 34.61 34.66 35.20 36.22 35.65 35.50 34.63 33.54
38.88 38.07 39.94 38.67 34.37 32.56 31.29 20.53 25.11 24.21 23.68 27.17 26.32 26.79 27.54 28.18 31.08 30.53 30.36 25.21 27.88 17.15 31.12 27.60 20.75 25.59 28.73 29.50 28.98 29.85 30.80 32.22 33.87 34.13 33.59 33.66 33.80 34.04 34.68 35.22 33.79 33.50 33.07 32.30
39.93 36.40 32.88 32.61 31.15 27.59 24.68 18.70 19.66 21.05 26.28 26.69 27.17 25.74 28.01 29.45 29.86 29.53 29.15 25.19 18.75 31.52 26.11 21.25 21.50 25.28 28.81 28.64 29.92 30.57 32.84 34.06 34.24 33.80 33.83 33.26 32.52 32.48 32.51 32.12 32.30 32.02 30.85 29.36
35.11 31.42 26.84 28.26 24.55 25.63 24.27 26.05 26.95 27.38 29.14 29.34 27.42 25.88 26.80 28.62 23.50 28.80 19.78 24.87 29.99 23.58 17.92 16.37 20.90 26.09 27.86 28.56 30.43 31.47 31.87 33.78 33.68 33.28 32.82 32.19 31.20 30.63 29.05 26.73 26.86 27.44 27.59 26.84
32.44 32.44 27.67 25.20 25.88 27.82 29.49 27.00 30.29 31.24 32.97 29.32 27.50 26.67 27.97 24.69 23.41 25.14 23.24 23.71 21.94 19.66 16.54 20.23 21.31 23.09 26.21 27.29 30.34 32.57 32.91 33.13 32.49 32.39 31.75 31.67 31.32 30.58 30.04 30.90 27.92 25.66 26.61 27.49
31.40 28.81 22.40 26.20 24.83 26.65 28.78 30.16 30.72 33.18 31.72 29.50 27.82 23.53 20.14 21.73 22.21 18.72 19.81 17.23 13.41 18.34 19.01 21.69 23.56 26.52 27.16 30.00 31.06 28.69 27.85 32.68 32.31 32.15 32.09 32.12 31.53 30.41 27.96 29.18 27.98 28.14 28.56 27.83
28.83 23.32 27.92 26.91 27.67 27.31 30.06 32.21 31.91 32.49 29.21 22.97 22.17 18.68 18.49 22.29 15.04 15.24 20.01 18.10 19.20 19.56 29.59 27.64 24.31 28.41 29.12 27.45 28.48 28.92 27.76 27.31 27.51 29.47 31.31 31.83 32.08 31.56 29.24 23.56 22.93 26.20 29.05 27.69

GFSNW_sfc_wetblb_105.txt.gz
Wetbulb
50.49 51.06 54.74 54.50 53.09 52.89 48.47 42.71 35.02 43.93 43.49 27.69 25.37 22.07 28.85 35.65 31.42 34.43 34.11 32.02 31.52 29.64 32.03 30.87 29.33 26.11 29.50 36.63 35.82 31.80 32.49 26.69 19.32 25.22 33.59 36.14 32.23 29.63 31.11 22.67 22.57 22.98 16.93 24.48
51.01 51.84 53.77 53.78 53.13 52.65 44.77 37.66 37.51 43.53 40.58 21.91 20.26 28.06 30.82 31.70 31.05 30.32 31.29 29.51 31.69 32.25 32.39 27.66 31.14 29.29 35.15 38.26 36.66 34.21 35.34 28.58 15.62 20.23 29.57 34.12 30.71 32.62 32.85 29.91 25.61 26.29 15.57 23.22
50.51 51.86 54.09 52.73 53.22 52.09 43.47 36.48 29.67 34.29 33.61 27.89 26.74 27.05 27.23 27.41 32.21 31.14 32.46 31.45 32.45 30.98 31.28 31.31 28.36 27.24 36.59 39.58 39.53 41.24 40.61 34.38 24.49 17.25 25.01 28.66 27.02 30.48 31.65 23.51 18.93 26.81 22.21 25.61
50.82 54.28 53.19 52.29 53.01 52.50 42.58 37.54 31.10 33.23 26.16 26.76 27.76 27.93 28.44 27.02 26.68 30.46 31.89 30.59 31.00 26.45 26.05 29.15 26.93 28.43 34.18 37.33 38.94 37.37 37.71 30.64 33.99 33.75 33.38 31.29 30.08 29.99 30.81 23.45 27.16 22.11 29.71 29.57
51.36 53.07 52.70 52.06 52.60 51.29 39.99 34.70 31.30 29.38 27.63 28.93 28.07 28.62 26.52 27.09 27.64 28.56 27.34 28.69 32.39 30.46 27.44 26.37 29.60 28.70 31.65 27.95 35.31 34.75 36.38 29.54 29.10 25.49 31.68 31.95 29.86 31.11 31.39 32.80 32.68 32.77 32.44 30.21
52.73 53.34 52.15 51.81 52.02 48.59 39.16 36.63 34.44 32.41 29.35 26.43 25.57 25.19 26.31 28.13 29.50 30.45 31.89 30.98 29.34 28.98 30.46 31.54 34.02 32.79 33.78 32.42 33.19 34.08 34.19 28.34 25.06 21.63 27.59 29.65 24.26 29.82 30.61 32.94 33.15 33.98 30.54 34.39
53.31 52.57 52.02 51.75 51.83 48.03 39.99 37.44 34.51 29.49 25.84 26.79 27.52 27.89 28.40 28.34 28.81 27.72 30.82 31.34 29.04 32.11 35.00 34.68 32.98 33.10 35.34 35.62 35.23 34.04 30.15 27.86 27.34 22.46 23.91 18.33 28.60 33.99 35.21 33.86 34.43 34.37 34.15 35.14
50.42 52.29 52.11 51.88 51.84 49.31 39.69 37.03 35.38 30.63 25.04 26.89 27.55 28.68 27.62 28.74 28.95 28.22 30.05 31.27 32.09 34.29 33.76 31.97 31.05 29.53 29.42 30.89 32.68 31.49 32.29 29.15 25.88 22.34 20.76 23.87 28.85 33.51 34.02 32.98 32.12 36.96 35.33 35.84
51.28 52.51 51.99 51.78 51.73 47.34 39.32 37.69 37.23 33.36 29.26 26.78 30.60 27.29 26.70 24.39 23.01 25.99 29.78 33.92 34.73 34.13 36.13 31.57 24.30 22.18 25.08 25.56 27.69 32.55 32.36 30.58 26.40 23.76 19.69 19.67 27.64 32.59 35.16 35.17 29.25 37.93 37.51 35.65
52.71 51.88 51.37 51.35 51.28 47.87 40.20 38.11 38.96 34.89 29.31 30.02 29.27 26.46 26.14 27.62 26.34 25.36 28.07 29.48 29.97 32.65 29.63 25.83 20.92 24.03 27.56 23.87 23.44 24.78 25.67 26.17 23.27 23.86 20.99 24.58 30.33 34.42 36.19 24.76 27.30 39.48 38.16 35.89
52.08 51.68 51.10 51.03 50.92 47.62 41.30 37.19 39.28 35.15 29.90 30.48 32.97 32.61 28.62 28.41 27.63 25.91 27.62 29.83 28.66 27.61 27.15 26.06 25.32 24.83 25.88 23.44 25.56 23.69 25.25 22.34 23.07 23.79 21.60 18.48 33.38 34.52 29.67 33.12 37.49 39.39 37.60 36.67
51.44 51.02 50.91 51.19 51.09 47.38 43.52 35.71 39.29 38.59 32.96 31.04 34.44 34.23 33.82 33.00 32.26 29.31 28.71 28.42 27.76 29.33 27.36 26.35 26.98 26.34 22.02 24.84 22.50 28.61 25.21 27.42 26.25 26.09 26.07 32.40 34.49 34.25 36.40 38.27 36.48 38.48 37.35 37.55
50.28 50.41 51.17 51.36 50.10 47.66 42.63 36.87 37.20 36.16 31.47 29.71 30.68 30.25 34.18 36.09 34.63 35.30 29.19 29.28 32.61 31.33 31.70 29.37 28.20 25.99 27.68 21.81 24.62 24.96 29.42 31.54 27.71 29.55 31.06 31.31 33.75 35.49 37.50 38.14 38.04 38.98 39.83 39.65
49.37 50.43 51.13 49.62 48.61 46.76 43.43 38.36 38.75 35.86 31.91 26.57 28.02 35.48 32.58 35.84 35.76 35.14 34.00 32.66 32.68 31.86 30.58 28.99 28.15 25.95 29.75 25.94 27.92 26.34 29.26 30.92 29.57 29.15 30.07 31.03 33.71 35.34 36.19 38.65 39.86 40.25 40.53 41.01
50.54 50.32 49.84 49.31 47.43 45.90 41.42 38.87 38.37 37.86 33.02 26.64 27.40 31.49 32.54 33.85 34.69 33.52 33.67 32.37 29.89 28.01 27.32 27.16 26.46 28.93 28.66 29.48 29.68 25.40 29.82 29.68 29.07 30.70 32.76 32.95 34.53 35.83 38.12 37.61 37.63 38.32 39.16 39.10
49.40 49.11 48.36 47.67 46.95 44.07 37.41 33.55 36.92 39.03 36.37 29.44 25.33 29.91 29.30 32.82 33.58 32.55 31.95 31.70 29.82 28.20 27.36 26.75 27.43 29.67 27.90 24.00 23.52 29.29 31.29 31.87 33.13 32.24 32.35 34.63 35.38 36.60 35.72 35.89 37.32 38.13 38.48 38.24
48.56 48.50 47.55 46.35 45.00 40.24 35.03 32.34 35.60 40.31 36.21 29.03 24.75 24.80 29.29 31.82 31.88 32.23 31.41 31.70 29.54 28.45 27.43 27.22 26.79 27.73 28.17 25.40 22.39 28.57 31.14 31.93 30.79 30.53 31.91 31.99 32.75 31.44 34.68 35.61 36.82 38.06 36.25 37.54
48.27 46.81 46.58 45.63 44.39 41.37 34.95 37.12 41.71 38.61 33.15 30.66 21.96 23.94 28.86 34.17 31.55 30.64 34.81 29.60 29.19 28.53 27.12 27.54 26.61 27.90 26.85 24.31 27.45 28.11 30.72 30.62 30.12 30.02 31.49 31.18 31.99 32.61 33.85 34.70 35.70 34.70 34.98 35.35
47.10 45.97 45.21 41.07 37.93 33.83 33.79 42.31 40.01 36.46 33.31 24.90 23.08 19.52 17.53 32.30 32.97 31.02 31.60 31.38 22.03 30.50 25.55 26.33 27.84 25.91 23.92 27.63 27.16 28.92 30.19 30.19 30.64 31.64 31.75 32.99 32.05 31.99 33.97 35.29 36.79 36.09 35.97 36.36
46.01 42.41 37.11 32.52 35.53 42.43 40.24 34.95 31.08 29.49 29.70 30.60 23.89 26.91 24.78 29.92 31.60 29.44 27.37 29.03 25.06 15.16 26.18 29.34 25.87 25.02 29.07 29.43 29.38 30.75 31.32 31.88 32.57 29.03 28.21 30.81 32.32 33.65 33.34 34.10 36.10 35.65 35.68 34.76
39.86 35.47 33.60 37.24 42.58 35.87 31.59 25.60 24.46 24.92 23.52 28.44 26.35 26.17 26.12 31.14 23.85 26.00 28.71 20.24 22.93 14.19 22.88 23.44 20.31 22.84 26.85 29.16 29.59 30.29 31.25 31.86 32.20 33.04 35.01 34.75 34.35 33.97 33.85 34.23 35.96 35.75 34.95 33.95
39.02 37.17 39.35 38.25 34.66 31.31 27.69 19.14 23.87 23.29 23.20 26.54 25.28 26.47 26.67 27.71 30.13 28.01 27.43 19.72 25.82 13.25 28.95 26.17 19.94 24.50 26.87 28.16 28.16 29.06 29.98 30.79 31.28 32.17 33.86 33.93 33.80 34.23 34.01 34.84 34.69 34.04 33.53 32.98
40.32 37.18 33.86 33.40 31.56 24.91 25.90 22.17 18.84 18.44 24.40 26.51 27.39 26.04 27.72 28.79 29.09 28.30 25.81 19.46 17.47 29.51 26.03 20.86 21.31 24.07 27.58 27.82 28.87 29.16 30.24 31.50 32.04 32.65 34.04 33.70 32.93 32.74 32.26 32.48 32.57 32.58 31.25 30.62
35.52 32.07 27.72 29.56 24.98 26.90 25.77 25.05 22.49 25.14 27.07 28.58 26.89 26.98 26.10 28.08 23.23 27.77 14.54 22.98 28.70 23.45 17.92 18.13 19.21 23.88 26.87 27.72 29.20 29.74 29.60 31.38 32.77 33.28 33.57 32.79 31.95 31.05 30.90 27.77 25.81 26.40 28.67 27.83
32.79 33.00 28.67 26.74 26.62 28.95 29.25 22.92 26.72 27.39 31.68 28.14 26.48 25.05 26.36 22.57 22.14 24.41 21.99 24.11 21.04 19.76 16.91 19.46 21.15 21.33 26.71 26.60 28.29 28.39 27.90 28.58 31.65 32.86 32.10 32.06 31.76 30.99 30.56 30.99 28.95 25.11 24.26 26.39
31.73 28.90 25.29 26.88 26.54 27.72 28.08 24.73 27.62 30.37 30.79 27.84 27.86 23.39 18.10 20.74 21.37 16.87 14.77 16.02 14.77 17.72 18.86 21.11 19.49 22.51 24.56 27.33 29.53 28.62 26.19 23.70 25.87 32.26 32.18 32.26 31.83 31.08 30.50 30.22 29.88 27.67 27.20 27.62
28.70 25.44 28.24 27.21 27.90 27.79 29.04 30.87 31.32 33.01 30.21 26.87 23.45 16.26 17.27 21.62 14.04 14.22 19.32 17.78 20.79 18.91 18.82 29.06 26.32 26.74 27.02 27.20 28.46 28.52 27.09 26.50 24.30 26.49 30.03 30.20 32.03 31.92 30.22 28.33 28.06 27.40 29.20 28.77

GFSNW_sfc_wetblb_108.txt.gz
Wetbulb
50.14 50.42 50.18 51.48 51.91 52.37 48.42 42.12 33.59 44.49 43.68 31.83 25.23 21.58 28.10 34.51 30.89 34.51 32.79 31.32 29.50 29.84 31.90 27.11 19.42 25.94 28.31 35.32 36.81 30.49 31.02 26.05 21.51 28.73 32.90 36.32 32.33 30.02 31.64 21.61 22.88 21.52 19.52 24.61
49.38 50.11 49.84 51.40 53.28 52.11 44.57 37.30 38.05 43.70 41.89 23.44 21.29 27.05 29.34 30.58 30.04 29.74 30.73 28.86 30.80 32.83 31.98 24.57 28.10 24.86 34.16 37.65 36.09 34.63 34.86 25.48 11.96 19.07 26.14 31.88 30.43 32.74 33.35 28.36 26.35 26.13 20.38 24.78
49.07 49.96 49.60 50.49 52.77 52.43 42.43 36.20 31.83 36.72 38.00 29.28 25.97 26.11 26.61 26.96 31.36 30.30 32.35 30.86 31.79 31.35 31.94 30.29 27.42 25.84 35.79 38.61 37.46 41.69 39.47 33.30 23.61 18.93 25.72 28.22 25.20 30.35 31.23 22.51 20.42 25.03 23.20 26.55
49.72 50.06 50.10 50.88 52.75 52.41 42.32 35.07 32.06 35.49 30.20 26.76 26.26 26.97 27.33 26.35 26.46 29.52 31.64 30.09 29.76 26.76 25.64 27.15 25.93 28.53 33.82 37.02 37.75 37.28 36.13 28.79 32.48 33.15 33.47 31.19 30.29 29.81 30.89 22.61 25.98 20.77 27.74 28.40
49.52 49.59 53.13 52.82 51.90 52.24 38.86 34.07 31.69 29.73 27.13 28.36 27.16 28.54 25.89 26.39 26.86 27.92 26.96 28.52 31.20 28.55 26.01 25.52 26.03 27.89 32.09 26.42 35.27 35.40 36.27 27.81 28.46 25.69 30.10 31.71 29.69 30.88 30.35 31.31 30.79 31.43 29.90 29.98
48.60 49.71 50.56 51.47 51.64 48.64 38.25 35.87 34.84 32.53 28.70 26.14 25.69 24.66 25.91 27.72 28.82 29.77 30.72 31.03 29.31 28.55 29.81 31.13 31.15 31.04 31.70 30.87 33.17 33.38 33.61 26.85 23.75 20.73 26.39 28.31 23.23 27.93 30.72 32.92 32.09 32.60 30.21 32.65
48.99 51.88 52.39 51.57 51.96 46.42 40.22 37.52 33.76 29.92 26.16 26.85 26.80 27.17 28.08 27.90 28.11 27.58 30.01 31.09 29.26 31.51 34.79 34.26 33.11 32.72 35.01 33.42 34.18 33.32 29.40 26.76 26.85 21.24 22.63 17.37 26.65 33.07 33.46 32.77 33.49 33.90 34.35 35.90
49.60 52.57 51.89 51.84 52.62 46.06 38.58 37.40 33.47 30.41 24.94 26.70 26.88 27.76 27.20 28.19 28.18 28.06 29.15 30.50 31.18 33.71 33.49 31.63 30.49 28.95 28.17 29.48 30.97 29.56 31.04 27.85 25.39 21.54 19.76 22.52 28.28 32.03 34.87 33.15 31.57 35.78 33.56 34.78
47.99 49.40 52.03 52.00 52.47 46.57 39.45 37.74 35.94 32.84 28.24 25.89 29.23 26.55 26.63 24.07 22.85 25.61 29.24 33.23 33.85 33.22 35.76 32.04 24.08 21.52 24.63 24.55 26.50 30.61 31.22 29.17 25.21 23.32 18.68 18.64 25.66 31.34 33.86 36.16 29.07 36.84 36.09 34.62
48.34 49.89 51.73 51.74 51.77 47.54 41.20 37.96 37.38 33.83 27.90 29.10 28.48 25.68 26.15 27.13 25.68 24.53 27.39 29.25 29.97 32.08 29.27 25.48 20.35 23.27 25.41 23.45 23.47 24.46 24.58 25.24 22.44 23.33 20.16 23.47 28.94 33.43 35.07 23.35 25.03 38.16 36.98 34.82
49.12 51.98 51.71 51.56 51.32 46.88 40.89 36.35 37.93 34.62 29.49 29.61 31.88 31.42 27.39 27.45 27.15 25.72 27.38 29.43 28.21 27.36 26.71 25.41 24.38 24.43 24.69 22.53 24.19 22.78 24.42 21.91 22.37 23.20 20.49 17.90 32.31 32.64 27.44 31.83 35.60 37.67 36.63 35.75
49.07 52.00 51.67 51.53 49.99 47.12 42.30 34.76 38.38 38.04 32.76 30.42 33.21 33.24 32.82 31.66 31.00 28.63 28.05 27.60 27.29 29.57 27.01 25.76 26.45 25.94 20.06 23.10 21.63 26.49 24.22 26.30 25.20 25.62 25.66 31.60 32.99 33.11 35.09 36.61 35.40 36.26 35.88 36.29
51.12 51.57 51.42 51.49 51.08 47.72 41.80 36.00 36.20 35.42 31.04 29.65 30.01 29.17 33.39 35.39 33.70 34.43 29.64 28.70 32.06 30.34 30.60 27.97 27.51 25.71 26.52 21.12 23.25 23.68 26.94 29.15 26.61 28.56 29.67 30.19 32.05 33.70 35.20 36.53 36.19 37.30 38.31 38.33
51.61 51.75 51.50 51.18 50.48 46.56 42.41 36.59 37.47 35.96 32.33 26.54 27.15 34.51 31.62 34.27 34.54 34.18 33.31 32.21 31.83 31.18 30.16 28.68 27.43 25.57 28.51 24.89 26.10 25.19 28.60 29.14 28.07 27.51 28.36 29.68 32.20 33.38 34.47 36.87 37.77 38.06 38.82 39.22
51.14 51.19 51.26 50.63 48.23 45.66 40.88 38.12 37.83 36.67 32.88 26.89 26.89 30.28 31.64 33.26 33.42 32.82 32.99 31.86 29.26 27.72 27.41 26.97 26.22 28.11 27.74 27.04 27.33 24.28 28.72 28.64 28.17 27.60 31.83 32.17 32.65 35.13 35.24 35.35 36.01 36.75 37.32 38.07
50.24 49.65 49.10 48.41 46.88 44.90 37.67 33.46 37.91 37.80 35.53 29.17 24.85 29.23 29.13 31.97 32.60 31.89 31.13 30.75 28.75 27.74 27.31 26.23 26.92 28.55 27.23 23.83 23.18 27.71 29.83 30.75 32.40 32.00 31.86 33.85 33.89 35.25 33.79 33.91 34.85 35.78 36.29 37.12
49.29 48.73 48.37 47.08 44.74 39.60 34.21 32.67 36.54 39.20 35.27 28.62 24.18 24.44 29.54 30.94 30.97 31.04 30.62 30.47 28.46 27.99 27.11 26.85 26.16 27.24 27.47 24.55 21.42 27.47 30.04 31.42 30.23 30.14 31.37 30.45 31.64 30.82 33.40 34.41 35.68 36.60 34.46 35.65
48.27 47.60 46.79 45.78 44.60 41.56 35.80 37.07 41.16 38.13 32.12 30.17 21.48 24.45 28.90 32.79 28.39 27.08 31.36 28.03 28.04 27.91 26.71 26.99 25.99 27.36 26.17 23.83 26.61 25.95 29.50 29.95 29.70 29.81 31.03 31.10 30.51 30.59 32.38 33.50 34.41 32.79 33.70 33.93
47.28 46.11 45.10 40.99 37.10 33.95 34.06 42.13 39.65 36.41 33.48 25.17 23.29 22.10 20.92 32.11 29.98 29.08 28.89 28.76 21.86 28.77 25.31 25.76 26.97 25.28 23.47 27.10 26.75 27.59 28.84 30.11 30.55 30.94 31.34 31.08 29.72 29.58 31.52 32.31 33.12 33.28 35.92 36.57
45.99 42.62 36.94 32.68 35.40 41.86 39.36 34.30 31.32 30.00 30.65 29.61 24.04 26.72 25.78 29.25 27.52 25.33 25.80 27.60 23.98 14.23 25.51 28.21 25.48 24.58 28.25 28.64 28.87 29.40 30.82 30.98 31.37 29.40 27.96 28.98 28.52 32.46 33.57 34.24 35.02 34.37 34.33 34.77
40.25 35.60 32.87 37.16 42.19 34.94 30.91 26.00 24.73 25.85 24.79 28.12 25.80 25.78 25.25 29.93 22.75 23.17 27.53 19.17 20.73 13.01 22.18 22.51 19.78 22.59 25.75 27.94 28.30 28.99 30.74 31.23 31.28 31.82 32.33 32.94 33.83 33.61 33.61 33.77 35.38 35.87 35.14 34.41
39.46 37.21 39.29 37.93 34.12 30.78 24.86 19.62 23.23 22.91 23.32 25.89 24.95 26.22 26.12 27.40 29.59 25.27 25.51 18.61 17.54 13.07 25.99 21.04 17.53 23.76 25.77 26.57 27.18 28.24 29.72 30.55 30.97 31.88 31.90 32.12 33.72 34.41 34.02 34.41 34.64 34.19 33.79 33.43
40.10 37.77 34.01 32.13 29.85 22.98 22.19 21.65 19.46 19.09 24.01 27.24 27.89 26.29 27.63 28.26 28.32 24.66 21.86 13.32 18.96 28.55 24.95 20.62 21.05 23.50 26.28 26.24 27.62 28.11 29.32 30.61 30.84 30.71 31.86 32.78 33.16 32.90 32.54 32.41 32.93 32.79 31.77 31.31
35.75 32.52 28.96 29.11 26.32 25.50 26.16 26.52 25.32 24.04 25.74 28.17 27.84 27.07 26.09 27.52 23.25 23.38 14.36 22.29 26.68 22.87 12.97 16.64 18.56 22.26 25.18 26.60 28.07 28.73 28.51 30.04 30.17 30.59 31.28 32.18 32.27 31.50 31.17 30.51 27.74 25.10 27.90 28.02
33.01 33.05 29.25 27.65 26.54 29.13 27.80 25.59 26.69 26.46 31.64 27.91 25.94 25.46 26.23 22.03 22.04 23.97 22.51 23.29 19.81 19.45 16.47 19.49 20.12 19.82 25.05 26.05 28.37 27.02 27.55 28.42 27.68 27.38 28.28 31.42 32.11 31.33 30.85 31.24 29.78 26.61 23.97 24.15
31.98 29.83 25.65 27.77 26.91 28.15 27.77 23.95 26.84 28.70 30.33 27.16 26.72 21.98 18.62 19.53 21.49 17.18 14.60 15.07 13.36 18.58 19.38 20.51 15.98 19.43 23.85 26.84 28.87 27.76 26.26 25.24 24.47 24.31 27.31 31.19 32.01 31.20 30.77 30.79 30.39 29.97 28.56 24.97
29.05 26.32 28.27 26.26 26.37 27.57 29.22 29.24 29.29 31.39 28.40 22.78 21.51 16.82 17.52 21.12 14.19 14.62 19.09 16.18 20.17 19.90 18.42 21.17 25.12 24.67 25.89 26.36 27.85 27.59 26.93 25.93 24.42 24.19 26.29 26.30 29.84 32.13 30.40 28.97 29.77 29.33 29.48 28.97

GFSNW_sfc_wetblb_111.txt.gz
Wetbulb
49.77 50.59 50.38 50.29 49.88 51.13 47.95 41.39 33.76 44.58 44.09 33.75 28.20 21.90 27.41 33.36 30.44 34.25 32.15 30.71 28.88 27.55 29.58 25.57 18.63 25.55 30.07 34.90 37.13 32.32 32.52 26.49 23.25 28.15 33.27 37.21 33.56 30.97 31.30 24.15 24.68 22.18 24.84 26.75
49.74 50.20 49.99 50.18 49.53 50.85 45.05 38.56 37.85 44.23 42.10 25.68 21.67 26.96 28.46 29.78 29.49 29.85 30.15 29.31 30.76 31.47 28.59 23.53 27.64 25.79 34.18 36.87 37.18 35.26 36.74 27.42 17.31 22.84 29.19 32.75 30.13 32.47 32.69 28.44 28.29 25.04 21.88 26.76
48.99 49.41 49.73 49.92 49.66 51.70 43.96 37.53 32.35 37.39 39.02 32.16 25.45 25.84 26.19 26.78 30.80 29.64 31.76 30.55 31.57 30.20 29.45 29.74 27.55 23.93 35.20 38.28 36.47 40.89 39.00 33.30 24.62 24.77 27.68 30.34 28.16 31.14 31.49 24.82 25.97 26.10 25.51 28.51
48.95 49.61 49.51 48.47 50.47 52.56 43.29 36.34 33.75 35.84 29.67 30.73 26.28 26.15 26.82 26.00 26.27 28.89 31.47 29.94 29.80 26.41 25.43 27.07 26.13 28.09 31.21 36.15 38.26 37.21 34.77 28.87 31.79 32.47 33.43 32.73 30.94 31.11 31.80 27.78 28.81 24.82 29.16 29.14
49.16 49.75 49.01 48.60 49.22 50.78 41.26 33.03 30.94 29.66 26.33 28.34 26.16 28.18 24.97 26.12 26.37 27.88 27.30 28.78 30.27 28.37 25.81 25.52 25.86 27.54 27.71 26.48 33.69 33.40 34.04 25.70 28.50 25.76 31.50 30.84 28.79 30.94 31.90 32.61 32.29 31.40 31.47 31.28
49.13 49.80 49.16 49.16 52.23 50.08 38.28 35.81 33.70 32.06 28.46 25.04 24.72 24.10 25.11 27.25 28.49 29.11 29.97 30.56 29.25 28.37 29.88 30.73 30.78 30.53 31.37 30.94 31.66 31.37 31.15 27.25 24.62 21.25 26.78 29.20 23.70 28.25 31.67 33.01 32.93 32.74 29.88 33.51
49.19 49.04 49.31 49.91 51.69 49.05 40.18 36.75 33.94 29.21 24.57 26.54 26.03 26.77 27.94 27.43 27.83 27.60 29.07 31.32 29.48 31.38 34.21 33.80 32.71 33.68 33.65 34.10 33.93 32.51 28.88 27.18 27.23 21.79 23.21 17.69 27.05 33.79 33.55 34.01 33.99 34.09 34.47 35.79
48.96 48.85 51.79 52.30 51.46 46.58 38.78 36.42 33.38 29.44 24.32 26.13 26.47 27.27 26.81 27.19 27.73 27.75 28.80 30.01 30.72 33.46 32.95 30.26 29.15 27.15 28.12 29.76 30.63 30.66 30.79 27.50 25.46 21.97 19.98 23.66 28.74 31.70 34.87 33.90 32.96 36.88 35.14 35.26
48.39 51.46 52.03 51.90 49.92 46.45 39.57 37.49 35.14 31.68 28.05 25.01 28.47 26.18 25.68 23.90 22.84 25.36 29.22 32.64 33.35 33.09 34.71 30.34 23.84 21.14 23.99 24.26 26.58 31.11 31.49 28.34 25.86 23.90 19.05 19.00 27.17 31.65 34.49 35.37 29.57 37.22 36.35 35.52
48.11 50.89 51.07 51.56 50.33 46.97 40.72 36.65 35.95 32.50 27.36 28.17 26.92 25.32 25.75 26.69 25.25 24.15 27.09 29.09 29.90 31.89 29.08 25.64 20.35 22.98 25.47 23.29 23.27 24.02 24.46 25.21 22.48 24.23 20.83 24.12 29.47 32.32 34.76 24.28 27.27 38.94 37.06 35.97
47.52 48.83 51.14 51.68 51.40 47.42 40.41 35.03 36.07 33.33 27.83 28.45 30.74 30.36 26.27 26.79 26.74 25.00 26.92 29.24 28.03 27.19 26.72 25.13 24.38 24.05 24.49 22.68 23.23 22.87 24.19 21.75 22.62 23.29 21.34 18.95 32.74 32.78 28.71 31.58 35.25 38.63 37.86 36.82
47.64 49.25 51.97 51.40 51.31 47.20 41.78 34.22 37.44 36.96 31.18 29.70 32.53 32.51 31.58 30.58 29.84 28.27 27.79 27.46 27.18 29.72 26.73 25.36 26.33 25.88 19.06 22.32 21.58 25.65 23.88 25.93 24.82 25.59 25.84 30.98 33.47 33.68 35.84 37.02 35.75 37.32 37.84 37.97
48.11 50.97 51.84 51.38 49.38 47.03 41.37 35.17 34.93 33.90 29.40 28.98 29.63 28.58 32.84 34.18 32.82 33.70 29.52 28.35 31.36 29.89 29.88 27.56 27.04 25.59 26.11 21.06 23.05 23.49 26.61 28.94 26.54 28.63 29.89 30.27 32.73 34.46 36.02 37.14 37.20 37.79 38.78 38.99
49.37 52.27 51.22 49.89 47.95 46.12 42.02 35.89 35.83 33.91 30.75 26.07 27.01 33.76 30.44 33.58 33.40 33.36 32.66 31.98 31.33 30.88 29.59 28.38 27.18 25.47 27.86 24.14 25.70 25.50 28.39 29.53 27.10 27.00 28.40 30.08 32.44 34.00 34.92 36.76 37.33 37.43 38.55 39.52
51.39 51.66 50.76 50.40 47.45 45.33 40.48 37.77 36.96 35.24 32.33 26.55 26.81 29.75 31.57 32.59 32.60 32.33 32.58 31.45 29.18 27.69 27.34 26.66 25.99 27.98 27.22 25.69 26.25 23.64 28.20 28.32 27.67 27.25 31.55 31.69 32.12 35.58 35.53 35.79 35.75 36.70 37.51 37.66
50.90 50.59 50.00 48.27 47.09 44.29 37.54 33.82 36.85 36.84 35.34 28.65 24.67 29.08 29.00 31.46 31.90 31.19 30.43 29.90 28.29 27.50 27.17 25.72 26.42 27.79 26.87 23.72 22.82 27.17 28.63 30.26 32.50 32.15 32.87 33.77 34.88 34.41 34.56 34.36 35.19 35.97 35.99 36.69
49.67 49.29 48.34 47.40 45.06 39.42 34.73 32.91 36.59 38.55 35.06 27.98 23.89 25.56 29.86 30.79 30.55 30.04 29.78 29.08 27.87 27.68 26.70 26.45 25.71 26.67 27.14 24.20 21.07 26.64 28.98 30.81 30.64 31.36 33.03 31.22 32.10 31.96 32.70 33.76 34.95 36.29 34.73 35.45
48.61 47.83 47.34 46.59 44.95 41.94 36.71 37.15 40.86 36.93 31.38 29.42 20.45 24.72 27.96 30.66 27.53 26.51 29.67 27.57 27.50 27.56 26.37 26.54 25.45 26.67 25.44 23.27 25.90 24.92 28.67 29.60 29.77 30.42 30.17 31.60 31.85 31.67 31.96 32.20 33.54 32.70 33.77 34.23
47.08 46.55 45.16 40.83 36.52 33.76 35.33 42.01 39.60 35.69 32.58 24.57 22.91 22.04 22.08 29.80 28.20 28.44 28.19 28.06 21.64 28.20 25.18 25.34 26.65 24.82 23.15 26.83 25.95 26.58 27.99 29.90 30.29 30.45 30.84 31.03 30.66 31.03 31.60 31.33 31.75 31.03 32.67 34.74
46.32 42.18 37.04 32.38 35.22 41.84 39.44 34.03 31.67 29.98 30.16 28.91 24.07 26.13 25.27 28.18 26.51 24.50 25.33 27.14 23.67 13.98 25.08 27.59 25.12 24.39 27.62 27.59 28.03 28.93 30.37 30.57 31.47 28.94 28.11 28.98 28.94 31.13 31.42 32.20 34.93 35.15 34.40 33.39
40.51 36.15 33.30 36.73 42.23 35.44 30.69 26.24 27.34 26.65 25.57 28.06 25.97 25.67 25.63 29.19 22.09 22.95 27.11 21.62 20.44 12.80 21.66 22.10 19.84 21.24 25.07 26.84 27.87 27.98 30.83 30.66 30.83 31.05 31.52 31.89 31.45 31.02 31.92 33.85 35.46 35.76 35.41 34.80
39.75 37.64 39.35 38.11 35.15 31.23 25.09 21.96 23.95 23.79 23.36 26.17 24.93 25.64 25.82 27.18 29.09 25.12 25.04 17.72 15.92 13.14 24.94 19.58 17.10 23.32 25.18 25.32 26.02 26.83 29.55 30.09 30.32 31.03 31.10 31.28 32.37 32.46 33.64 34.50 34.78 34.81 34.40 34.11
40.35 38.28 34.32 32.84 30.47 22.90 19.18 18.36 20.43 20.12 26.10 27.59 27.74 26.23 27.46 27.83 28.20 24.12 20.61 13.13 15.75 26.16 23.36 18.41 20.69 22.81 25.34 25.07 26.48 27.12 28.89 30.29 30.67 30.38 31.03 31.44 31.75 32.05 33.04 33.18 33.57 33.22 32.73 32.42
36.04 32.80 24.38 25.02 23.50 24.52 25.06 25.56 27.90 26.97 25.73 28.33 27.63 26.59 26.07 27.70 23.66 22.78 14.76 22.15 24.05 21.53 13.30 15.56 18.23 20.63 23.20 25.46 27.32 28.19 27.98 29.44 29.53 29.54 30.11 30.19 30.52 30.26 31.73 31.32 30.13 27.93 26.89 28.58
33.64 33.39 28.96 27.31 26.95 28.60 26.76 23.64 26.40 26.27 30.59 27.52 25.82 25.55 26.04 22.38 22.19 24.12 22.19 21.85 20.01 18.98 17.20 19.97 19.99 18.66 21.54 25.15 27.60 26.33 27.12 27.95 27.04 26.09 27.48 27.89 28.02 28.65 31.02 31.51 30.18 28.06 25.97 24.06
32.04 29.97 26.42 28.32 28.53 27.87 27.96 25.11 27.27 27.78 29.55 26.92 26.73 22.10 19.29 19.06 21.71 17.89 16.25 15.69 13.98 18.34 19.87 20.73 15.12 16.41 20.95 26.27 28.46 27.32 26.03 25.04 24.11 24.58 25.99 28.32 26.10 25.95 27.92 30.52 30.80 30.20 29.53 27.03
29.33 25.58 27.58 25.96 25.31 26.22 27.30 27.81 28.56 30.45 27.34 22.91 21.70 17.93 18.58 21.13 14.26 15.75 19.39 17.24 20.15 18.79 18.36 18.44 24.07 23.16 24.85 25.83 27.31 26.83 26.58 25.76 24.23 23.86 26.44 25.38 28.82 28.12 25.54 24.58 25.76 29.68 30.42 29.24

GFSNW_sfc_wetblb_114.txt.gz
Wetbulb
49.81 49.97 50.13 50.58 50.16 50.74 49.21 42.49 34.96 44.82 44.86 35.70 34.18 32.76 30.59 34.60 34.28 37.77 35.62 35.64 33.72 32.17 32.84 30.45 29.09 29.24 32.78 38.38 38.26 33.85 36.50 32.31 29.60 30.71 36.08 38.23 36.39 34.28 33.90 31.10 27.96 29.08 30.73 28.09
49.65 49.71 49.85 50.40 49.93 49.57 45.47 37.82 37.73 44.49 42.92 30.59 31.32 31.40 32.07 33.59 33.36 34.97 34.12 33.39 34.92 35.43 32.61 28.52 31.73 30.89 38.08 38.89 38.63 36.64 38.36 32.88 28.26 28.70 32.56 36.38 34.01 36.11 35.03 32.75 33.99 27.75 28.71 29.02
49.29 49.47 49.32 50.26 50.11 50.10 45.58 39.83 32.76 37.62 40.35 36.58 32.18 30.88 30.77 30.53 34.53 34.02 34.73 34.00 35.75 34.70 32.48 34.30 31.39 32.57 36.74 39.40 38.02 40.78 40.48 34.46 30.67 26.96 29.86 33.75 31.93 35.14 35.22 32.85 32.27 30.88 30.98 32.80
49.18 49.45 49.13 50.05 49.98 49.37 44.22 39.25 35.56 37.55 30.71 32.60 32.84 32.39 32.33 30.14 30.03 34.06 35.92 33.49 34.14 33.81 30.08 31.52 31.12 32.67 34.95 37.84 39.31 39.99 38.72 31.69 33.34 34.74 35.05 34.59 34.50 34.85 35.11 32.26 32.94 32.09 33.19 33.43
49.14 49.27 49.25 49.81 48.59 48.98 43.26 35.36 34.93 35.10 33.52 35.97 33.60 31.74 30.40 30.74 30.34 33.02 32.10 32.40 34.46 33.96 31.82 32.09 30.78 33.01 33.51 33.21 38.19 37.59 38.05 32.62 33.34 31.20 34.36 35.55 33.45 34.94 36.55 35.83 35.85 35.76 36.44 34.52
48.73 48.65 49.03 49.63 49.17 48.98 41.71 38.44 38.37 38.13 32.80 33.48 32.40 31.62 31.34 31.71 33.55 33.03 34.39 35.47 35.02 33.10 34.31 36.16 36.88 37.46 36.60 36.56 35.51 35.76 35.27 34.07 31.74 27.85 31.88 32.96 30.37 32.68 35.02 36.02 36.49 37.25 34.07 36.85
48.74 48.68 49.69 49.77 49.73 49.37 43.08 40.41 39.20 35.75 29.31 32.81 33.00 31.67 32.70 32.36 33.06 32.28 33.96 36.63 35.82 35.84 38.93 39.30 39.26 38.98 38.11 38.26 37.23 37.58 34.40 33.29 33.25 30.07 30.60 23.44 32.48 38.26 37.04 37.03 37.57 38.83 38.60 38.89
48.46 48.64 49.48 49.93 49.73 49.56 42.77 40.55 39.28 36.55 30.44 33.66 30.95 32.14 32.14 33.40 34.14 32.97 33.92 34.24 35.71 39.67 39.07 35.81 32.47 33.78 34.27 34.92 35.54 36.12 36.69 34.01 31.15 29.34 27.65 29.95 32.83 35.36 36.01 35.71 35.74 39.73 38.39 39.56
48.02 49.31 49.65 49.99 51.36 48.93 42.76 40.29 39.90 38.79 33.47 31.73 33.85 32.29 34.05 32.09 32.23 32.74 33.08 37.07 39.14 39.68 38.54 34.92 28.64 28.20 30.11 29.66 32.18 35.79 35.04 34.87 33.55 30.86 25.06 23.34 32.38 36.38 39.29 39.62 32.48 40.80 40.39 40.08
49.09 52.00 52.09 51.00 49.30 47.28 43.13 39.40 39.91 38.97 32.82 33.52 33.46 33.07 32.82 34.48 32.85 32.55 33.80 35.50 36.54 38.27 36.25 32.83 31.06 30.06 32.34 29.11 28.88 30.19 31.67 32.51 30.27 30.67 28.08 30.36 35.48 37.51 39.12 29.72 33.27 41.69 41.40 41.20
49.08 50.65 49.90 49.22 48.48 46.14 42.78 38.36 40.14 39.19 33.48 33.11 33.89 33.66 32.91 33.07 34.83 33.30 33.77 35.17 35.15 35.75 33.49 32.88 32.61 32.08 32.56 31.61 31.78 31.17 30.53 30.17 30.31 30.48 28.35 24.88 37.60 37.53 33.67 38.41 41.16 42.58 41.99 41.71
49.00 51.30 51.08 50.70 48.37 46.49 43.85 38.97 40.38 40.36 36.22 33.59 36.36 36.08 36.35 35.18 34.55 35.27 34.66 34.10 35.12 38.62 35.43 33.76 34.58 32.27 32.13 31.33 29.58 33.75 30.27 33.29 32.86 32.32 32.34 36.26 38.98 39.34 40.89 41.35 42.24 42.41 43.00 42.53
49.28 51.91 51.74 52.12 49.54 46.59 43.75 39.51 39.28 39.39 35.60 34.51 35.67 33.32 37.06 38.31 36.59 37.65 37.36 35.67 36.51 36.20 36.76 36.92 35.36 31.65 34.52 31.01 31.88 32.91 34.44 35.07 34.34 33.86 35.12 37.24 38.59 40.33 41.55 42.33 42.48 42.86 43.67 43.33
48.78 52.13 52.12 51.18 48.05 45.97 43.66 40.75 39.65 39.41 36.79 32.68 31.79 37.31 35.23 37.68 37.86 37.35 37.09 37.06 36.66 37.11 37.64 36.71 35.65 33.78 34.26 32.93 32.64 33.65 36.06 35.50 34.15 33.28 35.34 37.06 38.44 39.85 41.20 41.00 41.58 41.76 42.78 43.80
51.74 51.82 50.94 49.34 47.20 45.20 42.38 41.04 39.61 39.96 38.70 30.80 31.49 33.99 36.11 37.07 37.23 36.76 37.40 37.08 36.54 36.75 35.86 35.27 33.92 35.37 34.21 33.83 33.74 32.42 35.80 36.00 34.54 34.73 39.11 39.14 39.58 40.67 40.52 40.25 39.76 40.56 41.63 42.04
50.62 49.79 48.70 48.04 46.56 44.38 42.28 38.60 40.72 39.90 40.13 35.01 29.63 33.74 34.30 36.45 36.66 35.79 35.03 35.21 34.94 35.45 35.25 33.77 33.79 32.95 33.61 31.40 30.40 34.98 36.52 37.53 39.08 38.92 39.94 39.72 40.62 39.90 39.53 39.69 39.52 40.10 40.58 41.09
49.97 49.29 48.50 47.48 45.26 43.07 38.33 36.25 39.35 39.76 39.85 33.69 28.75 29.36 34.43 35.37 35.35 35.71 35.67 35.12 34.37 35.31 33.47 32.96 33.31 33.21 34.10 31.83 29.21 33.99 35.46 37.59 37.53 39.47 39.46 36.99 38.10 38.23 38.98 39.40 39.38 39.94 39.93 40.18
49.05 48.12 47.78 47.02 45.09 43.51 39.10 40.42 41.83 40.33 35.92 34.71 27.94 26.86 30.98 35.59 32.87 32.29 34.98 33.66 34.34 33.11 32.67 32.46 31.96 32.43 32.23 28.40 33.62 32.15 34.91 36.32 36.61 37.86 36.76 39.40 38.98 37.97 37.59 37.95 38.08 38.18 38.26 38.83
47.66 47.19 46.31 43.28 39.64 38.29 38.17 41.55 40.15 39.98 38.00 30.84 28.93 26.98 26.53 34.45 32.64 33.56 33.93 33.78 30.84 33.12 31.09 31.12 31.52 30.57 28.10 33.52 33.44 32.31 34.15 35.49 35.97 35.60 36.17 36.38 36.40 36.08 36.19 36.69 36.34 36.42 36.77 37.93
46.73 44.48 39.95 35.59 37.62 42.35 40.77 38.67 36.75 35.81 34.53 33.02 28.69 31.35 28.49 32.84 31.58 30.60 31.28 31.79 29.87 28.34 30.47 32.27 29.13 29.80 34.28 33.80 34.70 35.70 35.97 36.81 36.00 33.87 32.74 34.04 34.18 35.05 35.36 35.73 36.97 37.04 36.63 36.46
42.04 38.38 35.16 38.92 42.33 38.09 34.55 32.44 32.75 30.99 30.49 30.64 29.68 30.51 28.57 33.57 29.89 29.94 31.38 27.81 28.44 26.18 28.34 28.42 28.18 28.03 31.42 32.36 33.78 34.26 36.92 36.37 37.25 37.00 38.13 37.49 37.37 35.84 35.55 35.71 36.62 37.11 36.43 36.05
41.73 39.33 40.74 40.44 37.49 34.08 30.64 28.26 28.15 27.18 28.78 28.17 28.74 29.55 32.12 31.83 33.18 30.65 29.54 27.08 25.69 24.76 29.93 26.86 24.85 31.18 30.96 30.89 32.14 32.65 35.85 36.06 35.76 36.47 36.03 36.09 36.11 36.42 36.31 36.10 36.17 36.52 36.29 35.77
42.58 39.94 36.46 34.86 33.89 28.81 26.21 22.85 25.43 25.14 28.18 29.17 29.89 29.34 31.30 30.89 32.16 29.30 27.53 24.21 24.53 30.02 25.77 24.91 28.99 30.48 30.22 30.37 31.52 32.04 35.33 35.74 35.39 34.69 35.57 35.84 35.61 35.96 35.72 35.05 35.90 35.80 34.99 34.76
36.52 32.73 29.83 29.43 27.75 28.62 30.32 30.37 31.35 30.39 31.07 30.25 31.13 29.34 30.45 30.93 29.19 27.78 24.51 26.18 27.94 23.09 20.56 24.17 31.09 30.25 30.90 30.50 32.11 32.53 33.22 34.72 34.74 34.31 34.36 34.53 34.34 33.88 34.40 34.38 34.74 33.22 32.23 32.63
34.47 34.05 28.03 26.60 31.07 30.18 29.10 28.63 29.58 30.12 32.91 31.02 29.68 29.83 30.21 27.99 25.93 27.34 25.39 22.90 21.70 23.08 25.10 30.03 31.63 28.42 27.61 29.98 31.87 32.82 32.65 33.32 33.06 33.34 33.15 33.26 33.17 32.87 32.88 33.52 33.58 32.01 29.95 28.97
32.69 31.93 29.81 29.91 30.35 29.35 28.69 28.87 29.82 31.75 32.24 31.12 31.25 27.09 25.48 25.71 26.26 23.24 22.81 22.55 22.36 29.05 29.58 31.28 27.02 25.45 26.67 31.22 32.35 32.55 32.18 31.47 31.03 31.69 32.08 32.73 32.22 31.67 32.57 33.36 32.85 32.46 31.51 30.61
30.69 28.68 29.73 30.91 30.07 31.40 30.74 30.34 31.32 33.62 31.19 29.92 27.31 23.70 25.65 25.49 22.47 22.48 25.23 24.89 30.78 30.02 28.91 27.59 27.63 28.52 29.25 31.58 32.27 31.54 31.69 31.36 31.53 31.98 32.75 32.95 33.16 32.54 30.97 30.64 32.13 32.16 32.48 32.12

GFSNW_sfc_wetblb_117.txt.gz
Wetbulb
49.35 50.02 49.92 49.94 50.44 49.56 49.15 42.99 34.19 44.84 46.05 36.37 37.29 34.71 33.57 36.55 36.27 39.52 37.51 37.47 35.69 34.29 34.58 32.22 31.39 30.49 34.75 39.97 38.83 34.19 37.35 33.99 30.80 32.04 37.91 38.93 37.08 35.25 34.55 31.74 29.16 32.13 30.08 28.07
49.27 49.65 49.67 49.91 49.36 48.54 46.19 37.86 37.38 44.67 44.66 32.48 33.74 34.41 33.88 35.81 35.43 36.86 35.96 35.32 36.95 37.24 34.47 30.56 34.19 33.93 39.54 40.29 38.61 37.15 38.75 33.56 29.38 31.84 35.60 38.72 35.27 37.49 36.51 35.57 36.58 30.77 27.50 29.61
48.96 49.04 49.56 49.96 49.31 49.11 46.20 38.96 33.07 37.60 39.95 39.73 36.33 32.95 32.59 32.05 36.79 37.18 36.79 36.33 37.60 35.97 34.27 35.92 33.23 33.03 38.07 40.04 39.80 41.21 40.81 34.23 31.79 27.87 30.64 34.21 33.04 35.97 36.85 35.12 32.15 31.00 31.33 32.29
48.32 49.16 49.77 50.03 50.02 49.34 45.69 41.20 37.27 38.59 32.00 34.54 35.47 35.69 34.59 32.39 31.36 36.40 37.56 35.36 36.06 34.79 31.72 33.30 33.05 34.18 36.70 39.27 41.44 41.22 39.71 31.68 34.13 35.73 36.42 36.75 35.49 35.60 36.71 34.08 35.88 31.77 33.12 33.48
48.19 49.33 49.42 50.39 50.11 49.35 44.46 38.72 37.95 39.91 36.27 37.26 35.72 33.88 32.91 32.65 33.17 34.97 33.73 33.78 36.63 36.13 33.50 33.78 32.23 34.93 35.27 34.97 39.82 38.99 40.32 33.68 34.81 32.22 36.44 36.84 33.62 36.17 37.01 36.97 37.25 36.41 36.57 35.27
48.34 49.84 49.10 50.21 49.67 49.52 43.36 43.72 42.48 41.33 36.02 36.12 34.82 35.04 34.32 34.01 35.75 35.29 36.81 37.39 36.84 34.81 36.20 38.67 39.85 40.41 39.95 38.97 37.68 37.66 37.60 36.01 33.59 29.68 34.37 34.22 30.98 33.76 35.52 37.06 38.59 38.30 33.67 37.72
49.12 49.54 49.34 50.11 49.91 49.75 44.58 44.88 43.24 39.08 33.68 36.20 35.52 34.98 35.33 34.68 35.81 34.35 36.57 39.53 37.83 38.00 41.74 41.54 41.40 40.87 39.94 40.07 39.46 39.99 36.69 35.44 34.97 31.60 32.85 24.97 33.79 39.95 39.66 38.03 38.57 39.98 39.21 39.93
49.33 49.29 49.84 50.23 50.08 49.52 46.04 45.16 43.22 40.42 34.88 37.43 35.21 34.68 34.87 36.15 37.10 36.54 36.60 37.02 38.79 41.91 40.90 37.43 34.61 34.93 35.57 36.52 38.10 38.33 39.13 36.50 33.18 30.51 29.39 31.46 34.01 37.18 37.38 36.17 35.68 40.16 39.53 40.91
49.21 49.21 49.36 49.86 49.97 49.13 46.60 44.94 44.87 42.65 37.33 34.91 37.31 35.24 36.25 34.74 35.42 35.42 35.21 39.02 41.97 41.87 40.32 36.63 30.34 29.74 31.74 31.12 34.01 38.25 37.58 37.81 35.02 32.37 26.89 24.92 34.17 38.36 41.28 41.29 31.66 41.29 41.71 41.01
48.38 48.66 49.09 49.69 50.47 49.77 47.08 43.29 44.02 43.52 36.97 36.04 37.82 35.60 35.40 39.07 38.24 36.78 36.49 37.09 38.41 40.90 38.36 34.53 32.87 31.60 34.71 30.57 30.25 31.51 33.36 34.32 32.15 32.20 29.62 31.67 37.54 39.70 41.32 30.40 33.74 42.24 42.83 42.49
52.02 51.82 50.68 50.52 50.89 48.61 47.02 41.85 43.92 43.18 37.84 35.64 36.91 36.89 36.47 36.74 38.83 36.69 37.72 36.86 37.38 38.10 35.12 34.69 34.80 33.90 34.82 33.39 34.37 33.18 32.20 31.67 31.52 32.34 29.67 26.48 39.97 39.45 35.07 40.37 44.02 43.69 43.41 43.54
51.69 51.62 51.45 50.50 48.19 46.53 47.49 41.55 43.32 44.63 39.90 35.79 39.12 38.31 38.64 37.50 37.20 38.89 38.80 37.13 38.03 40.94 38.34 37.06 37.43 34.51 35.38 34.14 31.11 36.55 31.87 35.07 33.84 33.77 33.09 38.80 41.04 41.16 42.93 43.72 43.81 43.69 44.19 44.11
50.37 50.15 49.89 49.52 48.49 47.05 46.77 42.74 43.35 43.39 38.62 37.56 38.56 35.75 39.04 41.08 39.55 40.63 38.43 39.76 40.10 39.76 40.15 39.99 38.18 33.65 37.08 33.03 33.78 35.31 36.49 37.93 36.31 35.34 37.08 39.44 41.09 42.66 43.79 44.56 44.13 44.81 45.32 44.86
51.60 52.19 50.05 48.98 48.16 47.45 47.14 43.65 43.35 44.01 41.28 35.57 33.85 40.14 37.48 40.35 41.21 39.98 39.77 40.01 40.42 41.17 41.29 39.54 38.21 35.35 37.32 35.52 34.99 35.38 37.97 37.93 36.83 36.12 38.05 39.45 40.71 42.51 43.56 43.27 43.87 43.88 44.78 45.38
51.70 51.88 50.08 48.53 47.41 46.32 45.66 44.04 43.16 43.80 41.32 34.25 33.89 37.24 38.51 40.36 40.70 39.90 40.73 40.70 40.17 40.36 38.59 37.89 36.43 38.07 36.30 36.90 35.96 34.54 38.66 37.89 35.49 35.81 40.89 41.09 41.65 42.76 43.79 42.63 42.03 42.65 43.44 43.49
51.58 50.72 49.48 48.24 46.80 46.11 45.10 41.04 43.37 43.18 44.03 38.36 32.22 37.02 36.46 38.80 39.62 38.87 38.11 38.42 38.89 39.46 38.39 37.29 37.06 36.13 35.39 33.07 32.63 38.56 40.50 42.50 42.97 40.44 43.35 42.95 43.63 43.12 43.30 42.22 41.90 42.09 42.30 42.97
50.72 49.29 48.22 47.19 46.81 45.65 41.09 39.18 41.33 41.78 43.86 37.84 31.90 32.26 36.25 37.42 37.81 38.71 38.76 38.80 38.06 38.31 37.00 35.71 36.16 35.37 35.65 34.17 31.51 38.13 39.12 41.03 40.93 42.93 41.57 39.11 40.66 39.98 41.80 42.19 41.84 41.63 41.93 42.11
49.12 48.12 47.83 46.75 45.35 44.15 41.43 42.53 43.12 42.88 40.48 39.38 32.44 30.21 32.97 37.35 35.13 34.88 38.04 36.58 37.31 36.33 36.01 35.34 34.12 34.75 34.56 30.05 36.26 36.27 38.65 40.35 40.51 41.28 40.52 42.96 42.75 42.05 40.81 41.43 40.85 40.10 40.23 40.81
48.16 47.21 47.06 46.76 43.88 41.96 40.73 42.24 41.81 43.29 40.90 35.34 33.95 31.44 30.49 36.56 35.25 36.38 36.27 36.65 33.08 35.85 33.44 33.57 33.79 33.21 29.76 35.20 37.00 35.70 37.65 38.08 39.01 41.04 39.33 40.37 39.67 39.62 39.17 38.85 38.78 38.50 39.09 39.35
46.80 45.67 42.39 38.80 41.19 43.06 42.30 41.11 39.11 39.43 37.95 36.73 32.83 34.87 31.46 35.06 34.28 33.62 34.31 34.64 33.43 31.33 33.42 34.51 30.66 31.46 37.24 38.40 38.47 39.13 38.82 40.16 40.68 36.47 35.10 36.95 37.62 38.02 38.15 37.98 39.20 39.05 38.88 38.52
45.28 41.60 38.09 41.34 42.72 40.55 37.73 36.17 35.98 34.68 33.79 33.83 32.95 34.29 30.49 35.58 32.88 33.50 34.60 32.20 32.30 28.87 31.53 30.09 31.49 30.88 35.23 36.71 36.99 38.92 39.97 40.63 40.16 41.36 41.31 40.20 40.17 38.76 38.29 37.82 38.17 38.06 37.94 37.21
43.38 41.52 42.99 42.33 39.60 36.22 33.69 33.01 31.60 30.22 31.79 30.80 31.10 31.86 35.59 34.10 36.36 33.81 31.79 30.68 29.00 27.55 32.69 28.86 27.47 34.85 34.56 34.34 36.04 36.88 39.61 39.68 39.83 39.84 39.79 39.94 39.30 39.59 38.92 38.41 37.65 37.71 37.95 37.50
44.11 41.38 37.85 36.43 36.49 30.68 28.50 25.97 28.71 29.22 31.15 31.55 31.83 31.20 33.93 33.37 35.04 32.53 30.80 27.50 27.88 32.03 27.91 28.02 33.28 34.26 33.10 33.90 35.15 35.73 39.09 39.32 39.06 38.05 38.83 38.48 37.99 38.54 38.03 36.90 37.55 37.74 37.02 36.89
39.39 34.64 31.61 31.38 30.94 31.73 33.95 34.16 35.91 34.28 34.39 33.28 35.64 32.42 33.38 33.72 31.34 31.03 27.57 29.80 29.61 25.93 23.93 27.41 36.12 35.81 34.07 33.89 34.88 35.49 36.41 37.68 37.15 36.74 36.76 36.79 36.56 36.31 36.67 36.59 36.79 35.91 34.96 34.91
34.81 34.60 31.12 31.95 34.73 33.01 32.29 32.69 31.82 32.12 35.43 34.60 32.87 32.79 33.76 30.93 28.39 30.04 27.61 24.21 23.78 26.63 29.81 35.96 36.33 32.61 31.21 32.39 33.83 34.54 34.77 35.89 35.58 35.91 35.31 35.44 35.57 35.04 34.76 35.20 35.09 34.25 33.20 31.83
33.19 32.97 31.99 32.75 31.21 31.25 30.45 31.79 32.42 34.70 34.75 33.90 35.69 30.54 28.63 28.83 29.98 25.63 25.35 25.90 26.28 34.61 35.16 36.67 31.78 28.39 30.02 32.89 34.21 34.61 33.86 33.42 33.18 33.61 34.09 34.55 34.16 33.43 34.22 34.84 34.45 33.79 32.73 31.84
31.96 31.58 33.10 34.61 33.48 35.02 33.56 33.28 33.45 35.80 33.69 32.69 32.35 28.14 29.18 29.08 26.86 25.50 29.86 28.84 37.09 36.55 34.33 32.63 31.27 31.28 31.02 33.82 34.18 34.00 33.87 33.76 33.92 34.29 34.78 34.99 35.10 34.66 33.14 31.68 33.28 32.83 33.29 32.88